<?xml version='1.0' encoding='UTF-8'?><gpx version="1.1" creator="JPX - https://github.com/jenetics/jpx" xmlns="http://www.topografix.com/GPX/1/1"><trk><trkseg><trkpt lat="44.2869953" lon="10.6658493"><ele>1303.0</ele><time>2026-04-18T13:45:30.942Z</time></trkpt><trkpt lat="44.2869029" lon="10.6658737"><ele>1303.0</ele><time>2026-04-18T13:45:48.941Z</time></trkpt><trkpt lat="44.2868329" lon="10.665973"><ele>1303.0</ele><time>2026-04-18T13:45:50.942Z</time></trkpt><trkpt lat="44.2868008" lon="10.6660984"><ele>1303.0</ele><time>2026-04-18T13:45:52.941Z</time></trkpt><trkpt lat="44.2867769" lon="10.6661801"><ele>1303.0</ele><time>2026-04-18T13:45:53.942Z</time></trkpt><trkpt lat="44.2867506" lon="10.6662691"><ele>1303.0</ele><time>2026-04-18T13:45:54.941Z</time></trkpt><trkpt lat="44.2867262" lon="10.6663599"><ele>1303.1666666666665</ele><time>2026-04-18T13:45:55.941Z</time></trkpt><trkpt lat="44.2867159" lon="10.6664484"><ele>1303.3333333333333</ele><time>2026-04-18T13:45:56.942Z</time></trkpt><trkpt lat="44.2867686" lon="10.6665925"><ele>1303.5</ele><time>2026-04-18T13:45:58.942Z</time></trkpt><trkpt lat="44.2868278" lon="10.6666401"><ele>1303.6666666666667</ele><time>2026-04-18T13:45:59.941Z</time></trkpt><trkpt lat="44.2869015" lon="10.6666673"><ele>1303.8333333333335</ele><time>2026-04-18T13:46:00.941Z</time></trkpt><trkpt lat="44.2869813" lon="10.6666764"><ele>1304.0</ele><time>2026-04-18T13:46:01.941Z</time></trkpt><trkpt lat="44.2870618" lon="10.6666738"><ele>1304.0</ele><time>2026-04-18T13:46:02.941Z</time></trkpt><trkpt lat="44.2871287" lon="10.6666645"><ele>1304.0</ele><time>2026-04-18T13:46:03.941Z</time></trkpt><trkpt lat="44.2872497" lon="10.6666461"><ele>1304.0</ele><time>2026-04-18T13:46:05.942Z</time></trkpt><trkpt lat="44.2873428" lon="10.6667179"><ele>1304.0</ele><time>2026-04-18T13:46:07.942Z</time></trkpt><trkpt lat="44.2874017" lon="10.666888"><ele>1304.0</ele><time>2026-04-18T13:46:09.942Z</time></trkpt><trkpt lat="44.2874258" lon="10.6669986"><ele>1304.3333333333335</ele><time>2026-04-18T13:46:10.942Z</time></trkpt><trkpt lat="44.2874561" lon="10.667118"><ele>1304.6666666666667</ele><time>2026-04-18T13:46:11.942Z</time></trkpt><trkpt lat="44.2874862" lon="10.6672355"><ele>1305.0</ele><time>2026-04-18T13:46:12.942Z</time></trkpt><trkpt lat="44.2875226" lon="10.6673431"><ele>1305.3333333333333</ele><time>2026-04-18T13:46:13.941Z</time></trkpt><trkpt lat="44.2875622" lon="10.6674516"><ele>1305.6666666666665</ele><time>2026-04-18T13:46:14.942Z</time></trkpt><trkpt lat="44.2876162" lon="10.6675491"><ele>1306.0</ele><time>2026-04-18T13:46:15.942Z</time></trkpt><trkpt lat="44.2876707" lon="10.667646"><ele>1306.0</ele><time>2026-04-18T13:46:16.941Z</time></trkpt><trkpt lat="44.2877267" lon="10.6677323"><ele>1306.0</ele><time>2026-04-18T13:46:17.942Z</time></trkpt><trkpt lat="44.2877891" lon="10.6678334"><ele>1306.0</ele><time>2026-04-18T13:46:18.941Z</time></trkpt><trkpt lat="44.2878496" lon="10.6679245"><ele>1306.0</ele><time>2026-04-18T13:46:19.941Z</time></trkpt><trkpt lat="44.28791" lon="10.6679993"><ele>1306.0</ele><time>2026-04-18T13:46:20.941Z</time></trkpt><trkpt lat="44.2879834" lon="10.668104"><ele>1305.8</ele><time>2026-04-18T13:46:21.942Z</time></trkpt><trkpt lat="44.2880397" lon="10.6682229"><ele>1305.6</ele><time>2026-04-18T13:46:22.941Z</time></trkpt><trkpt lat="44.2880999" lon="10.6683413"><ele>1305.4</ele><time>2026-04-18T13:46:23.941Z</time></trkpt><trkpt lat="44.2881533" lon="10.6684761"><ele>1305.2</ele><time>2026-04-18T13:46:24.941Z</time></trkpt><trkpt lat="44.2882115" lon="10.668604"><ele>1305.0</ele><time>2026-04-18T13:46:25.941Z</time></trkpt><trkpt lat="44.2882388" lon="10.6687436"><ele>1302.8</ele><time>2026-04-18T13:46:26.942Z</time></trkpt><trkpt lat="44.2882528" lon="10.6688775"><ele>1300.6</ele><time>2026-04-18T13:46:27.941Z</time></trkpt><trkpt lat="44.2882804" lon="10.6690019"><ele>1298.4</ele><time>2026-04-18T13:46:28.942Z</time></trkpt><trkpt lat="44.2883344" lon="10.669108"><ele>1296.2</ele><time>2026-04-18T13:46:29.941Z</time></trkpt><trkpt lat="44.2883814" lon="10.6692191"><ele>1294.0</ele><time>2026-04-18T13:46:30.941Z</time></trkpt><trkpt lat="44.28847" lon="10.6692743"><ele>1294.0</ele><time>2026-04-18T13:46:31.941Z</time></trkpt><trkpt lat="44.288577" lon="10.6693743"><ele>1294.0</ele><time>2026-04-18T13:46:32.942Z</time></trkpt><trkpt lat="44.2886754" lon="10.6694533"><ele>1294.0</ele><time>2026-04-18T13:46:33.942Z</time></trkpt><trkpt lat="44.2887297" lon="10.6695853"><ele>1294.0</ele><time>2026-04-18T13:46:34.942Z</time></trkpt><trkpt lat="44.2887827" lon="10.669695"><ele>1294.0</ele><time>2026-04-18T13:46:35.941Z</time></trkpt><trkpt lat="44.2888379" lon="10.6698304"><ele>1294.0</ele><time>2026-04-18T13:46:36.941Z</time></trkpt><trkpt lat="44.2888729" lon="10.6699635"><ele>1294.0</ele><time>2026-04-18T13:46:37.942Z</time></trkpt><trkpt lat="44.2889225" lon="10.6701041"><ele>1294.0</ele><time>2026-04-18T13:46:38.941Z</time></trkpt><trkpt lat="44.2889801" lon="10.6702273"><ele>1294.0</ele><time>2026-04-18T13:46:39.941Z</time></trkpt><trkpt lat="44.2890394" lon="10.6703516"><ele>1294.0</ele><time>2026-04-18T13:46:40.941Z</time></trkpt><trkpt lat="44.2891198" lon="10.6704636"><ele>1294.0</ele><time>2026-04-18T13:46:41.942Z</time></trkpt><trkpt lat="44.2892053" lon="10.6705596"><ele>1294.0</ele><time>2026-04-18T13:46:42.942Z</time></trkpt><trkpt lat="44.2892788" lon="10.6706471"><ele>1294.0</ele><time>2026-04-18T13:46:43.942Z</time></trkpt><trkpt lat="44.2893722" lon="10.6707497"><ele>1294.0</ele><time>2026-04-18T13:46:44.941Z</time></trkpt><trkpt lat="44.289465" lon="10.6708565"><ele>1294.0</ele><time>2026-04-18T13:46:45.942Z</time></trkpt><trkpt lat="44.2895502" lon="10.6709561"><ele>1294.0</ele><time>2026-04-18T13:46:46.941Z</time></trkpt><trkpt lat="44.2896401" lon="10.6710667"><ele>1294.0</ele><time>2026-04-18T13:46:47.942Z</time></trkpt><trkpt lat="44.2897154" lon="10.6711685"><ele>1294.0</ele><time>2026-04-18T13:46:48.942Z</time></trkpt><trkpt lat="44.2897866" lon="10.6712658"><ele>1294.0</ele><time>2026-04-18T13:46:49.941Z</time></trkpt><trkpt lat="44.2898545" lon="10.671372"><ele>1294.0</ele><time>2026-04-18T13:46:50.941Z</time></trkpt><trkpt lat="44.2899142" lon="10.671464"><ele>1293.1666666666665</ele><time>2026-04-18T13:46:51.942Z</time></trkpt><trkpt lat="44.2899738" lon="10.6715461"><ele>1292.3333333333333</ele><time>2026-04-18T13:46:52.942Z</time></trkpt><trkpt lat="44.2900632" lon="10.671555"><ele>1291.5</ele><time>2026-04-18T13:46:53.941Z</time></trkpt><trkpt lat="44.2901391" lon="10.6715327"><ele>1290.6666666666667</ele><time>2026-04-18T13:46:54.941Z</time></trkpt><trkpt lat="44.2902037" lon="10.6714764"><ele>1289.8333333333335</ele><time>2026-04-18T13:46:55.941Z</time></trkpt><trkpt lat="44.2902622" lon="10.6713642"><ele>1289.0</ele><time>2026-04-18T13:46:56.942Z</time></trkpt><trkpt lat="44.2903344" lon="10.6712638"><ele>1289.0</ele><time>2026-04-18T13:46:57.942Z</time></trkpt><trkpt lat="44.2904055" lon="10.6711455"><ele>1289.0</ele><time>2026-04-18T13:46:58.942Z</time></trkpt><trkpt lat="44.2904775" lon="10.6710156"><ele>1289.0</ele><time>2026-04-18T13:46:59.941Z</time></trkpt><trkpt lat="44.2905541" lon="10.6708856"><ele>1289.0</ele><time>2026-04-18T13:47:00.941Z</time></trkpt><trkpt lat="44.2906342" lon="10.670773"><ele>1288.2</ele><time>2026-04-18T13:47:01.942Z</time></trkpt><trkpt lat="44.2907131" lon="10.6706648"><ele>1287.4</ele><time>2026-04-18T13:47:02.942Z</time></trkpt><trkpt lat="44.290789" lon="10.6705653"><ele>1286.6</ele><time>2026-04-18T13:47:03.942Z</time></trkpt><trkpt lat="44.2908617" lon="10.6704708"><ele>1285.8</ele><time>2026-04-18T13:47:04.941Z</time></trkpt><trkpt lat="44.2909306" lon="10.6703689"><ele>1285.0</ele><time>2026-04-18T13:47:05.941Z</time></trkpt><trkpt lat="44.2909981" lon="10.6702636"><ele>1284.0</ele><time>2026-04-18T13:47:06.941Z</time></trkpt><trkpt lat="44.2910804" lon="10.670157"><ele>1283.0</ele><time>2026-04-18T13:47:07.941Z</time></trkpt><trkpt lat="44.2911517" lon="10.6700499"><ele>1282.0</ele><time>2026-04-18T13:47:08.941Z</time></trkpt><trkpt lat="44.2912367" lon="10.669941"><ele>1281.0</ele><time>2026-04-18T13:47:09.941Z</time></trkpt><trkpt lat="44.2913247" lon="10.669857"><ele>1280.0</ele><time>2026-04-18T13:47:10.941Z</time></trkpt><trkpt lat="44.2914217" lon="10.6697865"><ele>1279.0</ele><time>2026-04-18T13:47:11.942Z</time></trkpt><trkpt lat="44.2915147" lon="10.6697255"><ele>1278.0</ele><time>2026-04-18T13:47:12.941Z</time></trkpt><trkpt lat="44.2916076" lon="10.6696651"><ele>1277.0</ele><time>2026-04-18T13:47:13.941Z</time></trkpt><trkpt lat="44.2917026" lon="10.669605"><ele>1276.0</ele><time>2026-04-18T13:47:14.941Z</time></trkpt><trkpt lat="44.2917935" lon="10.6695431"><ele>1275.0</ele><time>2026-04-18T13:47:15.941Z</time></trkpt><trkpt lat="44.2918849" lon="10.6694875"><ele>1275.2</ele><time>2026-04-18T13:47:16.941Z</time></trkpt><trkpt lat="44.291975" lon="10.6694114"><ele>1275.4</ele><time>2026-04-18T13:47:17.942Z</time></trkpt><trkpt lat="44.292054" lon="10.669322"><ele>1275.6</ele><time>2026-04-18T13:47:18.942Z</time></trkpt><trkpt lat="44.2921275" lon="10.6692213"><ele>1275.8</ele><time>2026-04-18T13:47:19.942Z</time></trkpt><trkpt lat="44.2922055" lon="10.669117"><ele>1276.0</ele><time>2026-04-18T13:47:20.942Z</time></trkpt><trkpt lat="44.2922892" lon="10.6690207"><ele>1274.3999999999999</ele><time>2026-04-18T13:47:21.942Z</time></trkpt><trkpt lat="44.2923718" lon="10.6689227"><ele>1272.8</ele><time>2026-04-18T13:47:22.941Z</time></trkpt><trkpt lat="44.2924574" lon="10.668822"><ele>1271.1999999999998</ele><time>2026-04-18T13:47:23.941Z</time></trkpt><trkpt lat="44.2925455" lon="10.6687231"><ele>1269.6</ele><time>2026-04-18T13:47:24.942Z</time></trkpt><trkpt lat="44.292627" lon="10.668646"><ele>1268.0</ele><time>2026-04-18T13:47:25.942Z</time></trkpt><trkpt lat="44.2927039" lon="10.6685576"><ele>1267.4</ele><time>2026-04-18T13:47:26.941Z</time></trkpt><trkpt lat="44.2927808" lon="10.6684798"><ele>1266.8</ele><time>2026-04-18T13:47:27.941Z</time></trkpt><trkpt lat="44.2928556" lon="10.6683993"><ele>1266.2</ele><time>2026-04-18T13:47:28.942Z</time></trkpt><trkpt lat="44.2929265" lon="10.6683249"><ele>1265.6</ele><time>2026-04-18T13:47:29.942Z</time></trkpt><trkpt lat="44.2930004" lon="10.6682522"><ele>1265.0</ele><time>2026-04-18T13:47:30.942Z</time></trkpt><trkpt lat="44.293078" lon="10.6681773"><ele>1265.0</ele><time>2026-04-18T13:47:31.941Z</time></trkpt><trkpt lat="44.2931579" lon="10.668103"><ele>1265.0</ele><time>2026-04-18T13:47:32.942Z</time></trkpt><trkpt lat="44.293239" lon="10.6680258"><ele>1265.0</ele><time>2026-04-18T13:47:33.942Z</time></trkpt><trkpt lat="44.2933218" lon="10.667952"><ele>1265.0</ele><time>2026-04-18T13:47:34.942Z</time></trkpt><trkpt lat="44.293419" lon="10.6678815"><ele>1265.0</ele><time>2026-04-18T13:47:35.942Z</time></trkpt><trkpt lat="44.2935194" lon="10.6678368"><ele>1265.0</ele><time>2026-04-18T13:47:36.942Z</time></trkpt><trkpt lat="44.2936113" lon="10.6677916"><ele>1265.0</ele><time>2026-04-18T13:47:37.941Z</time></trkpt><trkpt lat="44.2937303" lon="10.66777"><ele>1265.0</ele><time>2026-04-18T13:47:38.942Z</time></trkpt><trkpt lat="44.2938358" lon="10.6677287"><ele>1265.0</ele><time>2026-04-18T13:47:39.941Z</time></trkpt><trkpt lat="44.2939425" lon="10.6676964"><ele>1265.0</ele><time>2026-04-18T13:47:40.941Z</time></trkpt><trkpt lat="44.2940409" lon="10.6676405"><ele>1264.0</ele><time>2026-04-18T13:47:41.941Z</time></trkpt><trkpt lat="44.2941356" lon="10.6675633"><ele>1263.0</ele><time>2026-04-18T13:47:42.942Z</time></trkpt><trkpt lat="44.2942297" lon="10.6674881"><ele>1262.0</ele><time>2026-04-18T13:47:43.941Z</time></trkpt><trkpt lat="44.294303" lon="10.6674075"><ele>1261.0</ele><time>2026-04-18T13:47:44.941Z</time></trkpt><trkpt lat="44.2943825" lon="10.667339"><ele>1260.0</ele><time>2026-04-18T13:47:45.942Z</time></trkpt><trkpt lat="44.2944516" lon="10.6672721"><ele>1260.0</ele><time>2026-04-18T13:47:46.942Z</time></trkpt><trkpt lat="44.2944963" lon="10.6672068"><ele>1260.0</ele><time>2026-04-18T13:47:47.941Z</time></trkpt><trkpt lat="44.2945519" lon="10.6671494"><ele>1260.0</ele><time>2026-04-18T13:47:48.941Z</time></trkpt><trkpt lat="44.2945914" lon="10.6670794"><ele>1260.0</ele><time>2026-04-18T13:47:49.942Z</time></trkpt><trkpt lat="44.2946334" lon="10.6670137"><ele>1260.0</ele><time>2026-04-18T13:47:50.941Z</time></trkpt><trkpt lat="44.2946969" lon="10.6669595"><ele>1260.0</ele><time>2026-04-18T13:47:51.941Z</time></trkpt><trkpt lat="44.29477" lon="10.666923"><ele>1260.0</ele><time>2026-04-18T13:47:52.942Z</time></trkpt><trkpt lat="44.2948485" lon="10.6669032"><ele>1259.4</ele><time>2026-04-18T13:47:53.941Z</time></trkpt><trkpt lat="44.2949362" lon="10.6669026"><ele>1258.8</ele><time>2026-04-18T13:47:54.941Z</time></trkpt><trkpt lat="44.2950335" lon="10.6669223"><ele>1258.2</ele><time>2026-04-18T13:47:55.941Z</time></trkpt><trkpt lat="44.2951269" lon="10.6669537"><ele>1257.6</ele><time>2026-04-18T13:47:56.941Z</time></trkpt><trkpt lat="44.2952195" lon="10.6669737"><ele>1257.0</ele><time>2026-04-18T13:47:57.941Z</time></trkpt><trkpt lat="44.2953067" lon="10.6669849"><ele>1257.0</ele><time>2026-04-18T13:47:58.941Z</time></trkpt><trkpt lat="44.2953914" lon="10.6670189"><ele>1257.0</ele><time>2026-04-18T13:47:59.941Z</time></trkpt><trkpt lat="44.2954799" lon="10.6670011"><ele>1257.0</ele><time>2026-04-18T13:48:00.941Z</time></trkpt><trkpt lat="44.2955678" lon="10.6669923"><ele>1257.0</ele><time>2026-04-18T13:48:01.942Z</time></trkpt><trkpt lat="44.2956334" lon="10.6669402"><ele>1257.0</ele><time>2026-04-18T13:48:02.942Z</time></trkpt><trkpt lat="44.2956932" lon="10.6668892"><ele>1257.0</ele><time>2026-04-18T13:48:03.941Z</time></trkpt><trkpt lat="44.2957288" lon="10.6667809"><ele>1256.0</ele><time>2026-04-18T13:48:04.941Z</time></trkpt><trkpt lat="44.2957579" lon="10.6666777"><ele>1255.0</ele><time>2026-04-18T13:48:05.941Z</time></trkpt><trkpt lat="44.2957756" lon="10.6665724"><ele>1254.0</ele><time>2026-04-18T13:48:06.941Z</time></trkpt><trkpt lat="44.2957809" lon="10.6664744"><ele>1253.0</ele><time>2026-04-18T13:48:07.941Z</time></trkpt><trkpt lat="44.295769" lon="10.6663664"><ele>1252.0</ele><time>2026-04-18T13:48:08.942Z</time></trkpt><trkpt lat="44.295734" lon="10.6662724"><ele>1251.0</ele><time>2026-04-18T13:48:09.942Z</time></trkpt><trkpt lat="44.2957147" lon="10.6661679"><ele>1249.5</ele><time>2026-04-18T13:48:10.942Z</time></trkpt><trkpt lat="44.2957056" lon="10.666072"><ele>1248.0</ele><time>2026-04-18T13:48:11.941Z</time></trkpt><trkpt lat="44.2956917" lon="10.6659723"><ele>1246.5</ele><time>2026-04-18T13:48:12.941Z</time></trkpt><trkpt lat="44.2956747" lon="10.665879"><ele>1245.0</ele><time>2026-04-18T13:48:13.941Z</time></trkpt><trkpt lat="44.2956395" lon="10.6657112"><ele>1243.5</ele><time>2026-04-18T13:48:15.941Z</time></trkpt><trkpt lat="44.2956133" lon="10.6656276"><ele>1242.0</ele><time>2026-04-18T13:48:16.941Z</time></trkpt><trkpt lat="44.2956265" lon="10.6654339"><ele>1242.0</ele><time>2026-04-18T13:48:18.941Z</time></trkpt><trkpt lat="44.2956641" lon="10.6653612"><ele>1242.0</ele><time>2026-04-18T13:48:19.941Z</time></trkpt><trkpt lat="44.2957367" lon="10.6653057"><ele>1242.0</ele><time>2026-04-18T13:48:20.941Z</time></trkpt><trkpt lat="44.2958136" lon="10.6652822"><ele>1242.0</ele><time>2026-04-18T13:48:21.941Z</time></trkpt><trkpt lat="44.2958918" lon="10.6653026"><ele>1242.0</ele><time>2026-04-18T13:48:22.941Z</time></trkpt><trkpt lat="44.2959846" lon="10.6653372"><ele>1242.0</ele><time>2026-04-18T13:48:23.941Z</time></trkpt><trkpt lat="44.2960713" lon="10.665356"><ele>1242.0</ele><time>2026-04-18T13:48:24.941Z</time></trkpt><trkpt lat="44.2961499" lon="10.6654634"><ele>1242.0</ele><time>2026-04-18T13:48:25.942Z</time></trkpt><trkpt lat="44.2962225" lon="10.6655571"><ele>1242.0</ele><time>2026-04-18T13:48:26.941Z</time></trkpt><trkpt lat="44.2962846" lon="10.6656716"><ele>1242.0</ele><time>2026-04-18T13:48:27.942Z</time></trkpt><trkpt lat="44.2963602" lon="10.665791"><ele>1242.0</ele><time>2026-04-18T13:48:28.941Z</time></trkpt><trkpt lat="44.2964275" lon="10.6659227"><ele>1240.75</ele><time>2026-04-18T13:48:29.941Z</time></trkpt><trkpt lat="44.296491" lon="10.6660621"><ele>1239.5</ele><time>2026-04-18T13:48:30.941Z</time></trkpt><trkpt lat="44.2965699" lon="10.6661871"><ele>1238.25</ele><time>2026-04-18T13:48:31.942Z</time></trkpt><trkpt lat="44.2966488" lon="10.6663181"><ele>1237.0</ele><time>2026-04-18T13:48:32.942Z</time></trkpt><trkpt lat="44.2967295" lon="10.6664435"><ele>1237.0</ele><time>2026-04-18T13:48:33.942Z</time></trkpt><trkpt lat="44.2967989" lon="10.6665465"><ele>1237.0</ele><time>2026-04-18T13:48:34.941Z</time></trkpt><trkpt lat="44.2968732" lon="10.6666573"><ele>1237.0</ele><time>2026-04-18T13:48:35.942Z</time></trkpt><trkpt lat="44.2969577" lon="10.6667593"><ele>1237.0</ele><time>2026-04-18T13:48:36.941Z</time></trkpt><trkpt lat="44.2970322" lon="10.6668549"><ele>1237.0</ele><time>2026-04-18T13:48:37.942Z</time></trkpt><trkpt lat="44.2971075" lon="10.6669426"><ele>1237.1666666666665</ele><time>2026-04-18T13:48:38.941Z</time></trkpt><trkpt lat="44.2971953" lon="10.667011"><ele>1237.3333333333333</ele><time>2026-04-18T13:48:39.941Z</time></trkpt><trkpt lat="44.2972672" lon="10.6670918"><ele>1237.5</ele><time>2026-04-18T13:48:40.941Z</time></trkpt><trkpt lat="44.2973258" lon="10.6671729"><ele>1237.6666666666667</ele><time>2026-04-18T13:48:41.941Z</time></trkpt><trkpt lat="44.29739" lon="10.6672565"><ele>1237.8333333333335</ele><time>2026-04-18T13:48:42.942Z</time></trkpt><trkpt lat="44.2974591" lon="10.6673225"><ele>1238.0</ele><time>2026-04-18T13:48:43.941Z</time></trkpt><trkpt lat="44.2975079" lon="10.6674014"><ele>1235.5</ele><time>2026-04-18T13:48:44.941Z</time></trkpt><trkpt lat="44.2975666" lon="10.6674842"><ele>1233.0</ele><time>2026-04-18T13:48:45.941Z</time></trkpt><trkpt lat="44.2975963" lon="10.6676053"><ele>1230.5</ele><time>2026-04-18T13:48:46.941Z</time></trkpt><trkpt lat="44.2976484" lon="10.6677046"><ele>1228.0</ele><time>2026-04-18T13:48:47.942Z</time></trkpt><trkpt lat="44.2976975" lon="10.6678006"><ele>1225.5</ele><time>2026-04-18T13:48:48.942Z</time></trkpt><trkpt lat="44.2977606" lon="10.6678606"><ele>1223.0</ele><time>2026-04-18T13:48:49.942Z</time></trkpt><trkpt lat="44.2978317" lon="10.6678959"><ele>1222.6666666666667</ele><time>2026-04-18T13:48:50.942Z</time></trkpt><trkpt lat="44.2979092" lon="10.6679193"><ele>1222.3333333333335</ele><time>2026-04-18T13:48:51.942Z</time></trkpt><trkpt lat="44.2979885" lon="10.6679508"><ele>1222.0</ele><time>2026-04-18T13:48:52.942Z</time></trkpt><trkpt lat="44.2980709" lon="10.6679919"><ele>1221.6666666666667</ele><time>2026-04-18T13:48:53.941Z</time></trkpt><trkpt lat="44.2981566" lon="10.6680418"><ele>1221.3333333333333</ele><time>2026-04-18T13:48:54.942Z</time></trkpt><trkpt lat="44.298244" lon="10.6680894"><ele>1221.0</ele><time>2026-04-18T13:48:55.941Z</time></trkpt><trkpt lat="44.2983336" lon="10.6681433"><ele>1219.3999999999999</ele><time>2026-04-18T13:48:56.942Z</time></trkpt><trkpt lat="44.2984242" lon="10.6682015"><ele>1217.8</ele><time>2026-04-18T13:48:57.941Z</time></trkpt><trkpt lat="44.2985157" lon="10.6682566"><ele>1216.1999999999998</ele><time>2026-04-18T13:48:58.941Z</time></trkpt><trkpt lat="44.2986069" lon="10.6683123"><ele>1214.6</ele><time>2026-04-18T13:48:59.942Z</time></trkpt><trkpt lat="44.2987006" lon="10.6683815"><ele>1213.0</ele><time>2026-04-18T13:49:00.942Z</time></trkpt><trkpt lat="44.2988059" lon="10.6684437"><ele>1213.0</ele><time>2026-04-18T13:49:01.942Z</time></trkpt><trkpt lat="44.2988977" lon="10.6685274"><ele>1213.0</ele><time>2026-04-18T13:49:02.942Z</time></trkpt><trkpt lat="44.2989981" lon="10.668588"><ele>1213.0</ele><time>2026-04-18T13:49:03.941Z</time></trkpt><trkpt lat="44.2990971" lon="10.6686524"><ele>1213.0</ele><time>2026-04-18T13:49:04.942Z</time></trkpt><trkpt lat="44.2991815" lon="10.6687054"><ele>1213.0</ele><time>2026-04-18T13:49:05.942Z</time></trkpt><trkpt lat="44.2992618" lon="10.6687619"><ele>1212.4</ele><time>2026-04-18T13:49:06.941Z</time></trkpt><trkpt lat="44.2993487" lon="10.6688091"><ele>1211.8</ele><time>2026-04-18T13:49:07.942Z</time></trkpt><trkpt lat="44.2994237" lon="10.6688863"><ele>1211.2</ele><time>2026-04-18T13:49:08.941Z</time></trkpt><trkpt lat="44.2995137" lon="10.6689612"><ele>1210.6</ele><time>2026-04-18T13:49:09.942Z</time></trkpt><trkpt lat="44.2995992" lon="10.6690404"><ele>1210.0</ele><time>2026-04-18T13:49:10.942Z</time></trkpt><trkpt lat="44.2996829" lon="10.6691329"><ele>1208.4</ele><time>2026-04-18T13:49:11.942Z</time></trkpt><trkpt lat="44.299768" lon="10.6692268"><ele>1206.8</ele><time>2026-04-18T13:49:12.942Z</time></trkpt><trkpt lat="44.2998589" lon="10.6693023"><ele>1205.2</ele><time>2026-04-18T13:49:13.941Z</time></trkpt><trkpt lat="44.2999535" lon="10.6693643"><ele>1203.6</ele><time>2026-04-18T13:49:14.941Z</time></trkpt><trkpt lat="44.3000492" lon="10.6694232"><ele>1202.0</ele><time>2026-04-18T13:49:15.941Z</time></trkpt><trkpt lat="44.3001355" lon="10.6694937"><ele>1202.0</ele><time>2026-04-18T13:49:16.941Z</time></trkpt><trkpt lat="44.3002268" lon="10.669571"><ele>1202.0</ele><time>2026-04-18T13:49:17.941Z</time></trkpt><trkpt lat="44.3003121" lon="10.6696292"><ele>1202.0</ele><time>2026-04-18T13:49:18.942Z</time></trkpt><trkpt lat="44.3003924" lon="10.6697315"><ele>1202.0</ele><time>2026-04-18T13:49:19.942Z</time></trkpt><trkpt lat="44.3004757" lon="10.6698249"><ele>1202.0</ele><time>2026-04-18T13:49:20.941Z</time></trkpt><trkpt lat="44.3005592" lon="10.6699103"><ele>1200.2</ele><time>2026-04-18T13:49:21.942Z</time></trkpt><trkpt lat="44.3006436" lon="10.6700056"><ele>1198.4</ele><time>2026-04-18T13:49:22.942Z</time></trkpt><trkpt lat="44.3007196" lon="10.6701048"><ele>1196.6</ele><time>2026-04-18T13:49:23.942Z</time></trkpt><trkpt lat="44.3007956" lon="10.6702051"><ele>1194.8</ele><time>2026-04-18T13:49:24.941Z</time></trkpt><trkpt lat="44.3008465" lon="10.6703228"><ele>1193.0</ele><time>2026-04-18T13:49:25.942Z</time></trkpt><trkpt lat="44.3008865" lon="10.6704543"><ele>1192.2</ele><time>2026-04-18T13:49:26.941Z</time></trkpt><trkpt lat="44.3009263" lon="10.6705875"><ele>1191.4</ele><time>2026-04-18T13:49:27.942Z</time></trkpt><trkpt lat="44.3009772" lon="10.6707117"><ele>1190.6000000000001</ele><time>2026-04-18T13:49:28.942Z</time></trkpt><trkpt lat="44.3010606" lon="10.6708148"><ele>1189.8</ele><time>2026-04-18T13:49:29.941Z</time></trkpt><trkpt lat="44.3011406" lon="10.6709175"><ele>1189.0</ele><time>2026-04-18T13:49:30.941Z</time></trkpt><trkpt lat="44.3012301" lon="10.6710314"><ele>1186.25</ele><time>2026-04-18T13:49:31.942Z</time></trkpt><trkpt lat="44.3013186" lon="10.6711702"><ele>1183.5</ele><time>2026-04-18T13:49:32.942Z</time></trkpt><trkpt lat="44.3014035" lon="10.6713205"><ele>1180.75</ele><time>2026-04-18T13:49:33.941Z</time></trkpt><trkpt lat="44.3014941" lon="10.6714729"><ele>1178.0</ele><time>2026-04-18T13:49:34.941Z</time></trkpt><trkpt lat="44.3015769" lon="10.6716459"><ele>1178.0</ele><time>2026-04-18T13:49:35.941Z</time></trkpt><trkpt lat="44.3016705" lon="10.6718069"><ele>1178.0</ele><time>2026-04-18T13:49:36.942Z</time></trkpt><trkpt lat="44.3017577" lon="10.6719725"><ele>1178.0</ele><time>2026-04-18T13:49:37.942Z</time></trkpt><trkpt lat="44.3018408" lon="10.6721412"><ele>1178.0</ele><time>2026-04-18T13:49:38.941Z</time></trkpt><trkpt lat="44.3019253" lon="10.6723043"><ele>1177.2</ele><time>2026-04-18T13:49:39.941Z</time></trkpt><trkpt lat="44.3019749" lon="10.6724429"><ele>1176.4</ele><time>2026-04-18T13:49:40.942Z</time></trkpt><trkpt lat="44.3020419" lon="10.6725901"><ele>1175.6000000000001</ele><time>2026-04-18T13:49:41.942Z</time></trkpt><trkpt lat="44.3020947" lon="10.6727061"><ele>1174.8</ele><time>2026-04-18T13:49:42.942Z</time></trkpt><trkpt lat="44.3021656" lon="10.6728307"><ele>1174.0</ele><time>2026-04-18T13:49:43.941Z</time></trkpt><trkpt lat="44.3022252" lon="10.6729622"><ele>1171.75</ele><time>2026-04-18T13:49:44.942Z</time></trkpt><trkpt lat="44.3023133" lon="10.6731156"><ele>1169.5</ele><time>2026-04-18T13:49:45.941Z</time></trkpt><trkpt lat="44.3023987" lon="10.6732628"><ele>1167.25</ele><time>2026-04-18T13:49:46.942Z</time></trkpt><trkpt lat="44.302487" lon="10.6734182"><ele>1165.0</ele><time>2026-04-18T13:49:47.941Z</time></trkpt><trkpt lat="44.3025841" lon="10.6735715"><ele>1164.3333333333333</ele><time>2026-04-18T13:49:48.942Z</time></trkpt><trkpt lat="44.3026886" lon="10.6737418"><ele>1163.6666666666667</ele><time>2026-04-18T13:49:49.942Z</time></trkpt><trkpt lat="44.3027885" lon="10.6738939"><ele>1163.0</ele><time>2026-04-18T13:49:50.941Z</time></trkpt><trkpt lat="44.3028965" lon="10.6740466"><ele>1163.0</ele><time>2026-04-18T13:49:51.941Z</time></trkpt><trkpt lat="44.3030231" lon="10.6741657"><ele>1163.0</ele><time>2026-04-18T13:49:52.942Z</time></trkpt><trkpt lat="44.3031323" lon="10.6742711"><ele>1163.0</ele><time>2026-04-18T13:49:53.941Z</time></trkpt><trkpt lat="44.3032316" lon="10.6743638"><ele>1163.0</ele><time>2026-04-18T13:49:54.941Z</time></trkpt><trkpt lat="44.3033185" lon="10.6744291"><ele>1162.0</ele><time>2026-04-18T13:49:55.942Z</time></trkpt><trkpt lat="44.3033806" lon="10.6744863"><ele>1161.0</ele><time>2026-04-18T13:49:56.941Z</time></trkpt><trkpt lat="44.3034747" lon="10.6745468"><ele>1160.0</ele><time>2026-04-18T13:49:58.941Z</time></trkpt><trkpt lat="44.3035211" lon="10.6746291"><ele>1159.0</ele><time>2026-04-18T13:50:08.942Z</time></trkpt><trkpt lat="44.3035908" lon="10.6747733"><ele>1158.0</ele><time>2026-04-18T13:50:10.942Z</time></trkpt><trkpt lat="44.3036182" lon="10.674879"><ele>1158.0</ele><time>2026-04-18T13:50:11.942Z</time></trkpt><trkpt lat="44.3036476" lon="10.6750025"><ele>1158.0</ele><time>2026-04-18T13:50:12.941Z</time></trkpt><trkpt lat="44.3036774" lon="10.6751405"><ele>1158.0</ele><time>2026-04-18T13:50:13.941Z</time></trkpt><trkpt lat="44.3037079" lon="10.6752932"><ele>1158.0</ele><time>2026-04-18T13:50:14.941Z</time></trkpt><trkpt lat="44.3037366" lon="10.6754542"><ele>1158.0</ele><time>2026-04-18T13:50:15.942Z</time></trkpt><trkpt lat="44.3037661" lon="10.6756151"><ele>1157.2</ele><time>2026-04-18T13:50:16.942Z</time></trkpt><trkpt lat="44.3037905" lon="10.6757707"><ele>1156.4</ele><time>2026-04-18T13:50:17.942Z</time></trkpt><trkpt lat="44.3038212" lon="10.6759158"><ele>1155.6000000000001</ele><time>2026-04-18T13:50:18.941Z</time></trkpt><trkpt lat="44.3038581" lon="10.6760515"><ele>1154.8</ele><time>2026-04-18T13:50:19.941Z</time></trkpt><trkpt lat="44.3039112" lon="10.6761699"><ele>1154.0</ele><time>2026-04-18T13:50:20.942Z</time></trkpt><trkpt lat="44.303977" lon="10.6762651"><ele>1154.0</ele><time>2026-04-18T13:50:21.942Z</time></trkpt><trkpt lat="44.3040363" lon="10.6763468"><ele>1154.0</ele><time>2026-04-18T13:50:22.941Z</time></trkpt><trkpt lat="44.3040801" lon="10.6764441"><ele>1154.0</ele><time>2026-04-18T13:50:23.942Z</time></trkpt><trkpt lat="44.3040946" lon="10.6765535"><ele>1154.0</ele><time>2026-04-18T13:50:24.941Z</time></trkpt><trkpt lat="44.3040575" lon="10.6766551"><ele>1154.0</ele><time>2026-04-18T13:50:25.942Z</time></trkpt><trkpt lat="44.3040023" lon="10.6767434"><ele>1154.0</ele><time>2026-04-18T13:50:26.942Z</time></trkpt><trkpt lat="44.3039367" lon="10.6768205"><ele>1151.8333333333335</ele><time>2026-04-18T13:50:27.942Z</time></trkpt><trkpt lat="44.3038594" lon="10.6768711"><ele>1149.6666666666667</ele><time>2026-04-18T13:50:28.941Z</time></trkpt><trkpt lat="44.3037801" lon="10.6768787"><ele>1147.5</ele><time>2026-04-18T13:50:29.941Z</time></trkpt><trkpt lat="44.3037093" lon="10.6768381"><ele>1145.3333333333333</ele><time>2026-04-18T13:50:30.941Z</time></trkpt><trkpt lat="44.3036481" lon="10.6767621"><ele>1143.1666666666665</ele><time>2026-04-18T13:50:31.942Z</time></trkpt><trkpt lat="44.3035819" lon="10.6766686"><ele>1141.0</ele><time>2026-04-18T13:50:32.942Z</time></trkpt><trkpt lat="44.303496" lon="10.6765599"><ele>1141.0</ele><time>2026-04-18T13:50:33.941Z</time></trkpt><trkpt lat="44.3033992" lon="10.6764595"><ele>1141.0</ele><time>2026-04-18T13:50:34.941Z</time></trkpt><trkpt lat="44.3033007" lon="10.676363"><ele>1141.0</ele><time>2026-04-18T13:50:35.941Z</time></trkpt><trkpt lat="44.3032001" lon="10.6762664"><ele>1141.0</ele><time>2026-04-18T13:50:36.941Z</time></trkpt><trkpt lat="44.3031044" lon="10.6761661"><ele>1138.8</ele><time>2026-04-18T13:50:37.942Z</time></trkpt><trkpt lat="44.3030173" lon="10.6760663"><ele>1136.6</ele><time>2026-04-18T13:50:38.941Z</time></trkpt><trkpt lat="44.3029549" lon="10.6759411"><ele>1134.4</ele><time>2026-04-18T13:50:39.941Z</time></trkpt><trkpt lat="44.3028803" lon="10.6758286"><ele>1132.2</ele><time>2026-04-18T13:50:40.941Z</time></trkpt><trkpt lat="44.3028056" lon="10.6757335"><ele>1130.0</ele><time>2026-04-18T13:50:41.942Z</time></trkpt><trkpt lat="44.3027267" lon="10.6756708"><ele>1130.0</ele><time>2026-04-18T13:50:42.942Z</time></trkpt><trkpt lat="44.3026492" lon="10.6756308"><ele>1130.0</ele><time>2026-04-18T13:50:43.941Z</time></trkpt><trkpt lat="44.302573" lon="10.6757239"><ele>1130.0</ele><time>2026-04-18T13:50:44.941Z</time></trkpt><trkpt lat="44.3024961" lon="10.6758014"><ele>1130.0</ele><time>2026-04-18T13:50:45.941Z</time></trkpt><trkpt lat="44.3024126" lon="10.6758713"><ele>1130.0</ele><time>2026-04-18T13:50:46.942Z</time></trkpt><trkpt lat="44.3023227" lon="10.675899"><ele>1127.2</ele><time>2026-04-18T13:50:47.941Z</time></trkpt><trkpt lat="44.3022239" lon="10.6758785"><ele>1124.4</ele><time>2026-04-18T13:50:48.941Z</time></trkpt><trkpt lat="44.302136" lon="10.6758024"><ele>1121.6</ele><time>2026-04-18T13:50:49.941Z</time></trkpt><trkpt lat="44.30205" lon="10.675708"><ele>1118.8</ele><time>2026-04-18T13:50:50.941Z</time></trkpt><trkpt lat="44.3019562" lon="10.6756261"><ele>1116.0</ele><time>2026-04-18T13:50:51.942Z</time></trkpt><trkpt lat="44.3018465" lon="10.6755832"><ele>1116.0</ele><time>2026-04-18T13:50:52.941Z</time></trkpt><trkpt lat="44.3017367" lon="10.6755526"><ele>1116.0</ele><time>2026-04-18T13:50:53.942Z</time></trkpt><trkpt lat="44.3016374" lon="10.6755302"><ele>1116.0</ele><time>2026-04-18T13:50:54.941Z</time></trkpt><trkpt lat="44.3015463" lon="10.6755399"><ele>1116.0</ele><time>2026-04-18T13:50:55.941Z</time></trkpt><trkpt lat="44.3014652" lon="10.6755862"><ele>1116.0</ele><time>2026-04-18T13:50:56.942Z</time></trkpt><trkpt lat="44.3014003" lon="10.6756636"><ele>1114.8333333333333</ele><time>2026-04-18T13:50:57.942Z</time></trkpt><trkpt lat="44.3013629" lon="10.6757662"><ele>1113.6666666666667</ele><time>2026-04-18T13:50:58.941Z</time></trkpt><trkpt lat="44.3013543" lon="10.6758751"><ele>1112.5</ele><time>2026-04-18T13:50:59.942Z</time></trkpt><trkpt lat="44.3013711" lon="10.6759813"><ele>1111.3333333333335</ele><time>2026-04-18T13:51:00.941Z</time></trkpt><trkpt lat="44.3013997" lon="10.6760913"><ele>1110.1666666666667</ele><time>2026-04-18T13:51:01.941Z</time></trkpt><trkpt lat="44.3014336" lon="10.6762033"><ele>1109.0</ele><time>2026-04-18T13:51:02.942Z</time></trkpt><trkpt lat="44.3014574" lon="10.6763159"><ele>1109.0</ele><time>2026-04-18T13:51:03.941Z</time></trkpt><trkpt lat="44.301479" lon="10.6764402"><ele>1109.0</ele><time>2026-04-18T13:51:04.942Z</time></trkpt><trkpt lat="44.3014981" lon="10.6765749"><ele>1109.0</ele><time>2026-04-18T13:51:05.941Z</time></trkpt><trkpt lat="44.3015111" lon="10.6767156"><ele>1109.0</ele><time>2026-04-18T13:51:06.941Z</time></trkpt><trkpt lat="44.3015333" lon="10.6768679"><ele>1109.0</ele><time>2026-04-18T13:51:07.941Z</time></trkpt><trkpt lat="44.301553" lon="10.6770238"><ele>1107.25</ele><time>2026-04-18T13:51:08.941Z</time></trkpt><trkpt lat="44.3015596" lon="10.6772098"><ele>1105.5</ele><time>2026-04-18T13:51:09.942Z</time></trkpt><trkpt lat="44.3015659" lon="10.677395"><ele>1103.75</ele><time>2026-04-18T13:51:10.942Z</time></trkpt><trkpt lat="44.3015625" lon="10.6775835"><ele>1102.0</ele><time>2026-04-18T13:51:11.941Z</time></trkpt><trkpt lat="44.3015576" lon="10.6777577"><ele>1101.6</ele><time>2026-04-18T13:51:12.941Z</time></trkpt><trkpt lat="44.3015371" lon="10.6779227"><ele>1101.2</ele><time>2026-04-18T13:51:13.941Z</time></trkpt><trkpt lat="44.3015246" lon="10.6780877"><ele>1100.8</ele><time>2026-04-18T13:51:14.941Z</time></trkpt><trkpt lat="44.3015237" lon="10.6782201"><ele>1100.4</ele><time>2026-04-18T13:51:15.942Z</time></trkpt><trkpt lat="44.3015491" lon="10.6783337"><ele>1100.0</ele><time>2026-04-18T13:51:16.941Z</time></trkpt><trkpt lat="44.3016016" lon="10.6784445"><ele>1100.0</ele><time>2026-04-18T13:51:17.941Z</time></trkpt><trkpt lat="44.3016573" lon="10.6785739"><ele>1100.0</ele><time>2026-04-18T13:51:18.941Z</time></trkpt><trkpt lat="44.3017132" lon="10.6787231"><ele>1100.0</ele><time>2026-04-18T13:51:19.941Z</time></trkpt><trkpt lat="44.3017761" lon="10.6788653"><ele>1100.0</ele><time>2026-04-18T13:51:20.941Z</time></trkpt><trkpt lat="44.3018574" lon="10.6790138"><ele>1100.75</ele><time>2026-04-18T13:51:21.941Z</time></trkpt><trkpt lat="44.3019232" lon="10.6791723"><ele>1101.5</ele><time>2026-04-18T13:51:22.941Z</time></trkpt><trkpt lat="44.3019942" lon="10.6793249"><ele>1102.25</ele><time>2026-04-18T13:51:23.942Z</time></trkpt><trkpt lat="44.3020712" lon="10.6794517"><ele>1103.0</ele><time>2026-04-18T13:51:24.942Z</time></trkpt><trkpt lat="44.3021382" lon="10.6795812"><ele>1104.2</ele><time>2026-04-18T13:51:25.941Z</time></trkpt><trkpt lat="44.3022048" lon="10.6797067"><ele>1105.4</ele><time>2026-04-18T13:51:26.941Z</time></trkpt><trkpt lat="44.3022642" lon="10.6798126"><ele>1106.6000000000001</ele><time>2026-04-18T13:51:27.941Z</time></trkpt><trkpt lat="44.3023185" lon="10.6799278"><ele>1107.8</ele><time>2026-04-18T13:51:28.941Z</time></trkpt><trkpt lat="44.3023638" lon="10.6800505"><ele>1109.0</ele><time>2026-04-18T13:51:29.941Z</time></trkpt><trkpt lat="44.3023813" lon="10.6801893"><ele>1099.0</ele><time>2026-04-18T13:51:30.942Z</time></trkpt><trkpt lat="44.3024031" lon="10.6803314"><ele>1089.0</ele><time>2026-04-18T13:51:31.941Z</time></trkpt><trkpt lat="44.3024058" lon="10.6805014"><ele>1079.0</ele><time>2026-04-18T13:51:32.942Z</time></trkpt><trkpt lat="44.3024056" lon="10.6806849"><ele>1069.0</ele><time>2026-04-18T13:51:33.941Z</time></trkpt><trkpt lat="44.3024112" lon="10.6808597"><ele>1069.0</ele><time>2026-04-18T13:51:34.941Z</time></trkpt><trkpt lat="44.3024154" lon="10.6810393"><ele>1069.0</ele><time>2026-04-18T13:51:35.941Z</time></trkpt><trkpt lat="44.3024213" lon="10.681209"><ele>1069.0</ele><time>2026-04-18T13:51:36.942Z</time></trkpt><trkpt lat="44.3024547" lon="10.6813671"><ele>1069.0</ele><time>2026-04-18T13:51:37.941Z</time></trkpt><trkpt lat="44.3024951" lon="10.6815414"><ele>1067.75</ele><time>2026-04-18T13:51:38.941Z</time></trkpt><trkpt lat="44.3025284" lon="10.6817156"><ele>1066.5</ele><time>2026-04-18T13:51:39.941Z</time></trkpt><trkpt lat="44.3025446" lon="10.6818955"><ele>1065.25</ele><time>2026-04-18T13:51:40.941Z</time></trkpt><trkpt lat="44.3025502" lon="10.6820919"><ele>1064.0</ele><time>2026-04-18T13:51:41.942Z</time></trkpt><trkpt lat="44.3025714" lon="10.682271"><ele>1063.5</ele><time>2026-04-18T13:51:42.942Z</time></trkpt><trkpt lat="44.3025932" lon="10.6824526"><ele>1063.0</ele><time>2026-04-18T13:51:43.941Z</time></trkpt><trkpt lat="44.3026011" lon="10.6826473"><ele>1062.5</ele><time>2026-04-18T13:51:44.942Z</time></trkpt><trkpt lat="44.3026066" lon="10.6828375"><ele>1062.0</ele><time>2026-04-18T13:51:45.941Z</time></trkpt><trkpt lat="44.3026399" lon="10.6830179"><ele>1059.5</ele><time>2026-04-18T13:51:46.942Z</time></trkpt><trkpt lat="44.3027024" lon="10.6832103"><ele>1057.0</ele><time>2026-04-18T13:51:47.942Z</time></trkpt><trkpt lat="44.3027391" lon="10.6833913"><ele>1054.5</ele><time>2026-04-18T13:51:48.941Z</time></trkpt><trkpt lat="44.3027705" lon="10.6835745"><ele>1052.0</ele><time>2026-04-18T13:51:49.941Z</time></trkpt><trkpt lat="44.3027913" lon="10.6837491"><ele>1049.25</ele><time>2026-04-18T13:51:50.941Z</time></trkpt><trkpt lat="44.3028137" lon="10.6839266"><ele>1046.5</ele><time>2026-04-18T13:51:51.942Z</time></trkpt><trkpt lat="44.3028307" lon="10.6840833"><ele>1043.75</ele><time>2026-04-18T13:51:52.942Z</time></trkpt><trkpt lat="44.3028407" lon="10.6842412"><ele>1041.0</ele><time>2026-04-18T13:51:53.941Z</time></trkpt><trkpt lat="44.3028215" lon="10.6843867"><ele>1038.0</ele><time>2026-04-18T13:51:54.942Z</time></trkpt><trkpt lat="44.3027939" lon="10.684519"><ele>1035.0</ele><time>2026-04-18T13:51:55.942Z</time></trkpt><trkpt lat="44.3027484" lon="10.6846639"><ele>1032.0</ele><time>2026-04-18T13:51:56.941Z</time></trkpt><trkpt lat="44.3026612" lon="10.6848654"><ele>1029.0</ele><time>2026-04-18T13:51:57.942Z</time></trkpt><trkpt lat="44.3026123" lon="10.6850472"><ele>1029.0</ele><time>2026-04-18T13:51:58.942Z</time></trkpt><trkpt lat="44.3025608" lon="10.6852224"><ele>1029.0</ele><time>2026-04-18T13:51:59.942Z</time></trkpt><trkpt lat="44.3025114" lon="10.6853975"><ele>1029.0</ele><time>2026-04-18T13:52:00.942Z</time></trkpt><trkpt lat="44.3024588" lon="10.6855671"><ele>1029.0</ele><time>2026-04-18T13:52:01.941Z</time></trkpt><trkpt lat="44.3024057" lon="10.6857334"><ele>1026.4</ele><time>2026-04-18T13:52:02.941Z</time></trkpt><trkpt lat="44.3023618" lon="10.6858882"><ele>1023.8000000000001</ele><time>2026-04-18T13:52:03.942Z</time></trkpt><trkpt lat="44.3023222" lon="10.6860284"><ele>1021.1999999999999</ele><time>2026-04-18T13:52:04.941Z</time></trkpt><trkpt lat="44.3022933" lon="10.6861587"><ele>1018.5999999999999</ele><time>2026-04-18T13:52:05.941Z</time></trkpt><trkpt lat="44.3022732" lon="10.6862825"><ele>1016.0</ele><time>2026-04-18T13:52:06.941Z</time></trkpt><trkpt lat="44.3022793" lon="10.6863869"><ele>1014.1999999999999</ele><time>2026-04-18T13:52:07.941Z</time></trkpt><trkpt lat="44.3023017" lon="10.6865275"><ele>1012.3999999999999</ele><time>2026-04-18T13:52:09.942Z</time></trkpt><trkpt lat="44.3023165" lon="10.6866297"><ele>1010.6</ele><time>2026-04-18T13:52:12.941Z</time></trkpt><trkpt lat="44.3024053" lon="10.686736"><ele>1008.8</ele><time>2026-04-18T13:52:28.941Z</time></trkpt><trkpt lat="44.3024933" lon="10.6868724"><ele>1007.0</ele><time>2026-04-18T13:52:30.942Z</time></trkpt><trkpt lat="44.3025501" lon="10.6869562"><ele>1004.6</ele><time>2026-04-18T13:52:31.942Z</time></trkpt><trkpt lat="44.3026265" lon="10.6870249"><ele>1002.2</ele><time>2026-04-18T13:52:32.942Z</time></trkpt><trkpt lat="44.3027171" lon="10.6870676"><ele>999.8</ele><time>2026-04-18T13:52:33.942Z</time></trkpt><trkpt lat="44.3028116" lon="10.6870927"><ele>997.4</ele><time>2026-04-18T13:52:34.941Z</time></trkpt><trkpt lat="44.3029098" lon="10.6871175"><ele>995.0</ele><time>2026-04-18T13:52:35.941Z</time></trkpt><trkpt lat="44.3030326" lon="10.6871271"><ele>995.1666666666667</ele><time>2026-04-18T13:52:36.942Z</time></trkpt><trkpt lat="44.3031302" lon="10.6871448"><ele>995.3333333333334</ele><time>2026-04-18T13:52:37.942Z</time></trkpt><trkpt lat="44.3032254" lon="10.6871598"><ele>995.5</ele><time>2026-04-18T13:52:38.941Z</time></trkpt><trkpt lat="44.3033023" lon="10.6871448"><ele>995.6666666666667</ele><time>2026-04-18T13:52:39.942Z</time></trkpt><trkpt lat="44.303363" lon="10.687098"><ele>995.8333333333334</ele><time>2026-04-18T13:52:40.942Z</time></trkpt><trkpt lat="44.3034049" lon="10.6870028"><ele>996.0</ele><time>2026-04-18T13:52:41.941Z</time></trkpt><trkpt lat="44.3034523" lon="10.6869105"><ele>997.4</ele><time>2026-04-18T13:52:42.941Z</time></trkpt><trkpt lat="44.3034958" lon="10.6868141"><ele>998.8</ele><time>2026-04-18T13:52:43.941Z</time></trkpt><trkpt lat="44.303536" lon="10.6866634"><ele>1000.1999999999999</ele><time>2026-04-18T13:52:44.941Z</time></trkpt><trkpt lat="44.3035734" lon="10.6865393"><ele>1001.5999999999999</ele><time>2026-04-18T13:52:45.941Z</time></trkpt><trkpt lat="44.3036052" lon="10.6864141"><ele>1003.0</ele><time>2026-04-18T13:52:46.941Z</time></trkpt><trkpt lat="44.303647" lon="10.6862938"><ele>1002.9999999999999</ele><time>2026-04-18T13:52:47.942Z</time></trkpt><trkpt lat="44.3036883" lon="10.6861863"><ele>1003.0</ele><time>2026-04-18T13:52:48.941Z</time></trkpt><trkpt lat="44.303744" lon="10.6861163"><ele>1003.0</ele><time>2026-04-18T13:52:49.941Z</time></trkpt><trkpt lat="44.303799" lon="10.6860516"><ele>1003.0</ele><time>2026-04-18T13:52:50.942Z</time></trkpt><trkpt lat="44.3038935" lon="10.6860771"><ele>1002.9999999999999</ele><time>2026-04-18T13:52:51.942Z</time></trkpt><trkpt lat="44.3039642" lon="10.6861127"><ele>1003.0</ele><time>2026-04-18T13:52:52.942Z</time></trkpt><trkpt lat="44.3040156" lon="10.6861769"><ele>1001.5999999999999</ele><time>2026-04-18T13:52:53.942Z</time></trkpt><trkpt lat="44.304037" lon="10.6862706"><ele>1000.1999999999999</ele><time>2026-04-18T13:52:54.941Z</time></trkpt><trkpt lat="44.3040477" lon="10.6863826"><ele>998.8</ele><time>2026-04-18T13:52:55.941Z</time></trkpt><trkpt lat="44.3040713" lon="10.6865058"><ele>997.4</ele><time>2026-04-18T13:52:56.941Z</time></trkpt><trkpt lat="44.3041152" lon="10.6866398"><ele>996.0</ele><time>2026-04-18T13:52:57.942Z</time></trkpt><trkpt lat="44.3041703" lon="10.6867835"><ele>994.5</ele><time>2026-04-18T13:52:58.941Z</time></trkpt><trkpt lat="44.304223" lon="10.6869447"><ele>993.0</ele><time>2026-04-18T13:52:59.941Z</time></trkpt><trkpt lat="44.3042684" lon="10.6871192"><ele>991.5</ele><time>2026-04-18T13:53:00.942Z</time></trkpt><trkpt lat="44.3043044" lon="10.687295"><ele>990.0</ele><time>2026-04-18T13:53:01.941Z</time></trkpt><trkpt lat="44.3043387" lon="10.6874566"><ele>990.0</ele><time>2026-04-18T13:53:02.942Z</time></trkpt><trkpt lat="44.3043503" lon="10.6875932"><ele>990.0</ele><time>2026-04-18T13:53:03.942Z</time></trkpt><trkpt lat="44.3043737" lon="10.6877446"><ele>990.0</ele><time>2026-04-18T13:53:04.941Z</time></trkpt><trkpt lat="44.3044132" lon="10.6878949"><ele>990.0</ele><time>2026-04-18T13:53:05.942Z</time></trkpt><trkpt lat="44.3044763" lon="10.688043"><ele>990.0</ele><time>2026-04-18T13:53:06.941Z</time></trkpt><trkpt lat="44.3045436" lon="10.6881843"><ele>989.2</ele><time>2026-04-18T13:53:07.942Z</time></trkpt><trkpt lat="44.3046072" lon="10.6883211"><ele>988.4</ele><time>2026-04-18T13:53:08.941Z</time></trkpt><trkpt lat="44.3046661" lon="10.688444"><ele>987.5999999999999</ele><time>2026-04-18T13:53:09.942Z</time></trkpt><trkpt lat="44.304706" lon="10.6885528"><ele>986.8</ele><time>2026-04-18T13:53:10.942Z</time></trkpt><trkpt lat="44.3047221" lon="10.6886571"><ele>986.0</ele><time>2026-04-18T13:53:11.942Z</time></trkpt><trkpt lat="44.3046912" lon="10.6887382"><ele>985.0000000000001</ele><time>2026-04-18T13:53:12.941Z</time></trkpt><trkpt lat="44.3046343" lon="10.6887906"><ele>984.0</ele><time>2026-04-18T13:53:13.942Z</time></trkpt><trkpt lat="44.3045559" lon="10.6888082"><ele>983.0</ele><time>2026-04-18T13:53:14.941Z</time></trkpt><trkpt lat="44.3044723" lon="10.6887809"><ele>982.0</ele><time>2026-04-18T13:53:15.941Z</time></trkpt><trkpt lat="44.3043858" lon="10.6887405"><ele>981.0000000000001</ele><time>2026-04-18T13:53:16.941Z</time></trkpt><trkpt lat="44.3042959" lon="10.6887241"><ele>980.0</ele><time>2026-04-18T13:53:17.942Z</time></trkpt><trkpt lat="44.3042014" lon="10.6887478"><ele>980.0</ele><time>2026-04-18T13:53:18.941Z</time></trkpt><trkpt lat="44.3041146" lon="10.6887875"><ele>980.0</ele><time>2026-04-18T13:53:19.941Z</time></trkpt><trkpt lat="44.3040423" lon="10.6888564"><ele>980.0</ele><time>2026-04-18T13:53:20.942Z</time></trkpt><trkpt lat="44.3039974" lon="10.688954"><ele>980.0</ele><time>2026-04-18T13:53:21.941Z</time></trkpt><trkpt lat="44.3039576" lon="10.6890835"><ele>980.0</ele><time>2026-04-18T13:53:22.941Z</time></trkpt><trkpt lat="44.3039406" lon="10.6892255"><ele>980.0</ele><time>2026-04-18T13:53:23.941Z</time></trkpt><trkpt lat="44.3039248" lon="10.6893551"><ele>980.0</ele><time>2026-04-18T13:53:24.942Z</time></trkpt><trkpt lat="44.3039692" lon="10.6894864"><ele>980.0</ele><time>2026-04-18T13:53:25.942Z</time></trkpt><trkpt lat="44.3040151" lon="10.6896247"><ele>980.0</ele><time>2026-04-18T13:53:26.941Z</time></trkpt><trkpt lat="44.3040637" lon="10.689767"><ele>980.0</ele><time>2026-04-18T13:53:27.942Z</time></trkpt><trkpt lat="44.3041141" lon="10.6899134"><ele>978.5</ele><time>2026-04-18T13:53:28.941Z</time></trkpt><trkpt lat="44.304163" lon="10.6900879"><ele>977.0</ele><time>2026-04-18T13:53:29.942Z</time></trkpt><trkpt lat="44.3042125" lon="10.690259"><ele>975.5</ele><time>2026-04-18T13:53:30.941Z</time></trkpt><trkpt lat="44.3042577" lon="10.6904317"><ele>974.0</ele><time>2026-04-18T13:53:31.942Z</time></trkpt><trkpt lat="44.3043005" lon="10.6906077"><ele>972.0</ele><time>2026-04-18T13:53:32.941Z</time></trkpt><trkpt lat="44.3043387" lon="10.6907773"><ele>970.0</ele><time>2026-04-18T13:53:33.941Z</time></trkpt><trkpt lat="44.3043715" lon="10.6909421"><ele>968.0</ele><time>2026-04-18T13:53:34.941Z</time></trkpt><trkpt lat="44.304408" lon="10.6910982"><ele>966.0</ele><time>2026-04-18T13:53:35.942Z</time></trkpt><trkpt lat="44.3044459" lon="10.6912535"><ele>963.25</ele><time>2026-04-18T13:53:36.942Z</time></trkpt><trkpt lat="44.3045045" lon="10.6914012"><ele>960.5</ele><time>2026-04-18T13:53:37.941Z</time></trkpt><trkpt lat="44.3045639" lon="10.6915458"><ele>957.75</ele><time>2026-04-18T13:53:38.941Z</time></trkpt><trkpt lat="44.3046123" lon="10.6917036"><ele>955.0</ele><time>2026-04-18T13:53:39.941Z</time></trkpt><trkpt lat="44.3046564" lon="10.6918661"><ele>953.8</ele><time>2026-04-18T13:53:40.941Z</time></trkpt><trkpt lat="44.3047072" lon="10.692011"><ele>952.6</ele><time>2026-04-18T13:53:41.941Z</time></trkpt><trkpt lat="44.3047615" lon="10.6921425"><ele>951.4000000000001</ele><time>2026-04-18T13:53:42.941Z</time></trkpt><trkpt lat="44.3048149" lon="10.6922558"><ele>950.2</ele><time>2026-04-18T13:53:43.941Z</time></trkpt><trkpt lat="44.3048785" lon="10.6923516"><ele>949.0</ele><time>2026-04-18T13:53:44.941Z</time></trkpt><trkpt lat="44.3049472" lon="10.692441"><ele>951.6</ele><time>2026-04-18T13:53:45.941Z</time></trkpt><trkpt lat="44.3050459" lon="10.692512"><ele>954.2</ele><time>2026-04-18T13:53:46.941Z</time></trkpt><trkpt lat="44.3051452" lon="10.6925761"><ele>956.8000000000001</ele><time>2026-04-18T13:53:47.941Z</time></trkpt><trkpt lat="44.3052507" lon="10.6926329"><ele>959.4000000000001</ele><time>2026-04-18T13:53:48.942Z</time></trkpt><trkpt lat="44.3053578" lon="10.6926937"><ele>962.0</ele><time>2026-04-18T13:53:49.941Z</time></trkpt><trkpt lat="44.305473" lon="10.6927578"><ele>964.0</ele><time>2026-04-18T13:53:50.942Z</time></trkpt><trkpt lat="44.3055797" lon="10.6928219"><ele>966.0</ele><time>2026-04-18T13:53:51.941Z</time></trkpt><trkpt lat="44.3056872" lon="10.6928904"><ele>968.0</ele><time>2026-04-18T13:53:52.941Z</time></trkpt><trkpt lat="44.3057901" lon="10.6929593"><ele>970.0</ele><time>2026-04-18T13:53:53.941Z</time></trkpt><trkpt lat="44.3058944" lon="10.6930158"><ele>970.0</ele><time>2026-04-18T13:53:54.942Z</time></trkpt><trkpt lat="44.3060006" lon="10.6930697"><ele>970.0</ele><time>2026-04-18T13:53:55.941Z</time></trkpt><trkpt lat="44.3061041" lon="10.6931332"><ele>970.0</ele><time>2026-04-18T13:53:56.941Z</time></trkpt><trkpt lat="44.3061892" lon="10.6932126"><ele>970.0</ele><time>2026-04-18T13:53:57.942Z</time></trkpt><trkpt lat="44.3062601" lon="10.6933147"><ele>970.0</ele><time>2026-04-18T13:53:58.941Z</time></trkpt><trkpt lat="44.3063164" lon="10.6934448"><ele>970.0</ele><time>2026-04-18T13:53:59.942Z</time></trkpt><trkpt lat="44.3063534" lon="10.6935859"><ele>970.0</ele><time>2026-04-18T13:54:00.941Z</time></trkpt><trkpt lat="44.3063875" lon="10.6937302"><ele>970.0</ele><time>2026-04-18T13:54:01.942Z</time></trkpt><trkpt lat="44.3064197" lon="10.6938776"><ele>970.0</ele><time>2026-04-18T13:54:02.942Z</time></trkpt><trkpt lat="44.306453" lon="10.6940234"><ele>970.0</ele><time>2026-04-18T13:54:03.941Z</time></trkpt><trkpt lat="44.3064576" lon="10.6941624"><ele>968.8</ele><time>2026-04-18T13:54:04.941Z</time></trkpt><trkpt lat="44.306437" lon="10.6943003"><ele>967.6</ele><time>2026-04-18T13:54:05.942Z</time></trkpt><trkpt lat="44.3063833" lon="10.6944114"><ele>966.4000000000001</ele><time>2026-04-18T13:54:06.942Z</time></trkpt><trkpt lat="44.3063278" lon="10.6945049"><ele>965.2</ele><time>2026-04-18T13:54:07.942Z</time></trkpt><trkpt lat="44.30629" lon="10.6946131"><ele>964.0</ele><time>2026-04-18T13:54:08.942Z</time></trkpt><trkpt lat="44.3062762" lon="10.69473"><ele>963.2</ele><time>2026-04-18T13:54:09.942Z</time></trkpt><trkpt lat="44.3062683" lon="10.6948675"><ele>962.4000000000001</ele><time>2026-04-18T13:54:10.942Z</time></trkpt><trkpt lat="44.3062606" lon="10.6950149"><ele>961.6</ele><time>2026-04-18T13:54:11.942Z</time></trkpt><trkpt lat="44.3062495" lon="10.6951756"><ele>960.8</ele><time>2026-04-18T13:54:12.941Z</time></trkpt><trkpt lat="44.3062275" lon="10.6953404"><ele>960.0</ele><time>2026-04-18T13:54:13.941Z</time></trkpt><trkpt lat="44.3061974" lon="10.6955131"><ele>960.0</ele><time>2026-04-18T13:54:14.942Z</time></trkpt><trkpt lat="44.3061576" lon="10.6956834"><ele>960.0</ele><time>2026-04-18T13:54:15.942Z</time></trkpt><trkpt lat="44.3061228" lon="10.695841"><ele>960.0</ele><time>2026-04-18T13:54:16.942Z</time></trkpt><trkpt lat="44.3060889" lon="10.6959853"><ele>960.0</ele><time>2026-04-18T13:54:17.941Z</time></trkpt><trkpt lat="44.3060584" lon="10.6961212"><ele>960.0</ele><time>2026-04-18T13:54:18.942Z</time></trkpt><trkpt lat="44.3060429" lon="10.6962587"><ele>960.0</ele><time>2026-04-18T13:54:19.941Z</time></trkpt><trkpt lat="44.306046" lon="10.6963977"><ele>960.0</ele><time>2026-04-18T13:54:20.941Z</time></trkpt><trkpt lat="44.3060549" lon="10.6965393"><ele>960.0</ele><time>2026-04-18T13:54:21.941Z</time></trkpt><trkpt lat="44.3060538" lon="10.6966936"><ele>960.0</ele><time>2026-04-18T13:54:22.942Z</time></trkpt><trkpt lat="44.3060344" lon="10.6968518"><ele>958.6</ele><time>2026-04-18T13:54:23.941Z</time></trkpt><trkpt lat="44.3060143" lon="10.6970051"><ele>957.2</ele><time>2026-04-18T13:54:24.941Z</time></trkpt><trkpt lat="44.3059926" lon="10.6971513"><ele>955.8</ele><time>2026-04-18T13:54:25.942Z</time></trkpt><trkpt lat="44.3059775" lon="10.6972917"><ele>954.4</ele><time>2026-04-18T13:54:26.942Z</time></trkpt><trkpt lat="44.3059779" lon="10.6974264"><ele>953.0</ele><time>2026-04-18T13:54:27.941Z</time></trkpt><trkpt lat="44.305984" lon="10.6975626"><ele>953.0</ele><time>2026-04-18T13:54:28.942Z</time></trkpt><trkpt lat="44.3060431" lon="10.6977082"><ele>953.0</ele><time>2026-04-18T13:54:29.941Z</time></trkpt><trkpt lat="44.3060951" lon="10.697868"><ele>953.0</ele><time>2026-04-18T13:54:30.941Z</time></trkpt><trkpt lat="44.3061348" lon="10.6980513"><ele>953.0</ele><time>2026-04-18T13:54:31.942Z</time></trkpt><trkpt lat="44.30616" lon="10.6982359"><ele>949.25</ele><time>2026-04-18T13:54:32.941Z</time></trkpt><trkpt lat="44.3061791" lon="10.6984139"><ele>945.5</ele><time>2026-04-18T13:54:33.941Z</time></trkpt><trkpt lat="44.3062014" lon="10.6985643"><ele>941.75</ele><time>2026-04-18T13:54:34.942Z</time></trkpt><trkpt lat="44.3062483" lon="10.6987088"><ele>938.0</ele><time>2026-04-18T13:54:35.941Z</time></trkpt><trkpt lat="44.3063229" lon="10.6988439"><ele>937.75</ele><time>2026-04-18T13:54:36.941Z</time></trkpt><trkpt lat="44.3064038" lon="10.6989879"><ele>937.5</ele><time>2026-04-18T13:54:37.942Z</time></trkpt><trkpt lat="44.3064718" lon="10.6991326"><ele>937.25</ele><time>2026-04-18T13:54:38.942Z</time></trkpt><trkpt lat="44.3065194" lon="10.6992895"><ele>937.0</ele><time>2026-04-18T13:54:39.942Z</time></trkpt><trkpt lat="44.3065262" lon="10.6994582"><ele>937.0</ele><time>2026-04-18T13:54:40.941Z</time></trkpt><trkpt lat="44.3065" lon="10.699634"><ele>937.0</ele><time>2026-04-18T13:54:41.942Z</time></trkpt><trkpt lat="44.3064625" lon="10.6998143"><ele>937.0</ele><time>2026-04-18T13:54:42.942Z</time></trkpt><trkpt lat="44.30643" lon="10.6999702"><ele>937.0</ele><time>2026-04-18T13:54:43.942Z</time></trkpt><trkpt lat="44.3064066" lon="10.7001051"><ele>933.6</ele><time>2026-04-18T13:54:44.941Z</time></trkpt><trkpt lat="44.3064018" lon="10.7002463"><ele>930.2</ele><time>2026-04-18T13:54:45.941Z</time></trkpt><trkpt lat="44.3064404" lon="10.7003683"><ele>926.8</ele><time>2026-04-18T13:54:46.941Z</time></trkpt><trkpt lat="44.3064913" lon="10.7004806"><ele>923.4</ele><time>2026-04-18T13:54:47.942Z</time></trkpt><trkpt lat="44.3065889" lon="10.7006343"><ele>920.0</ele><time>2026-04-18T13:54:48.941Z</time></trkpt><trkpt lat="44.3066509" lon="10.7007934"><ele>920.0</ele><time>2026-04-18T13:54:49.942Z</time></trkpt><trkpt lat="44.3066992" lon="10.700955"><ele>920.0</ele><time>2026-04-18T13:54:50.941Z</time></trkpt><trkpt lat="44.3067282" lon="10.7011121"><ele>920.0</ele><time>2026-04-18T13:54:51.941Z</time></trkpt><trkpt lat="44.3067461" lon="10.7012615"><ele>920.0</ele><time>2026-04-18T13:54:52.941Z</time></trkpt><trkpt lat="44.3067672" lon="10.7014156"><ele>917.25</ele><time>2026-04-18T13:54:53.941Z</time></trkpt><trkpt lat="44.3067989" lon="10.7015563"><ele>914.5</ele><time>2026-04-18T13:54:54.942Z</time></trkpt><trkpt lat="44.30688" lon="10.7017109"><ele>911.75</ele><time>2026-04-18T13:54:55.941Z</time></trkpt><trkpt lat="44.3069491" lon="10.7018684"><ele>909.0</ele><time>2026-04-18T13:54:56.941Z</time></trkpt><trkpt lat="44.3070206" lon="10.7020162"><ele>908.25</ele><time>2026-04-18T13:54:57.938Z</time></trkpt><trkpt lat="44.3070876" lon="10.7021687"><ele>907.5</ele><time>2026-04-18T13:54:58.941Z</time></trkpt><trkpt lat="44.3071497" lon="10.7023258"><ele>906.75</ele><time>2026-04-18T13:54:59.942Z</time></trkpt><trkpt lat="44.3072013" lon="10.702487"><ele>906.0</ele><time>2026-04-18T13:55:00.941Z</time></trkpt><trkpt lat="44.307246" lon="10.7026511"><ele>902.8</ele><time>2026-04-18T13:55:01.942Z</time></trkpt><trkpt lat="44.3072744" lon="10.7028074"><ele>899.5999999999999</ele><time>2026-04-18T13:55:02.941Z</time></trkpt><trkpt lat="44.3073099" lon="10.7029496"><ele>896.4</ele><time>2026-04-18T13:55:03.942Z</time></trkpt><trkpt lat="44.3073356" lon="10.7030799"><ele>893.2</ele><time>2026-04-18T13:55:04.942Z</time></trkpt><trkpt lat="44.3073743" lon="10.7031739"><ele>890.0</ele><time>2026-04-18T13:55:05.941Z</time></trkpt><trkpt lat="44.3074321" lon="10.7032532"><ele>890.0000000000001</ele><time>2026-04-18T13:55:06.941Z</time></trkpt><trkpt lat="44.3074971" lon="10.7033141"><ele>890.0</ele><time>2026-04-18T13:55:07.941Z</time></trkpt><trkpt lat="44.3075749" lon="10.7033797"><ele>890.0</ele><time>2026-04-18T13:55:08.941Z</time></trkpt><trkpt lat="44.307651" lon="10.7034258"><ele>890.0</ele><time>2026-04-18T13:55:09.941Z</time></trkpt><trkpt lat="44.3077301" lon="10.703483"><ele>890.0000000000001</ele><time>2026-04-18T13:55:10.941Z</time></trkpt><trkpt lat="44.3078072" lon="10.7035605"><ele>890.0</ele><time>2026-04-18T13:55:11.941Z</time></trkpt><trkpt lat="44.3078866" lon="10.7036472"><ele>889.4</ele><time>2026-04-18T13:55:12.942Z</time></trkpt><trkpt lat="44.3079713" lon="10.7037473"><ele>888.8</ele><time>2026-04-18T13:55:13.941Z</time></trkpt><trkpt lat="44.3080551" lon="10.7038504"><ele>888.2</ele><time>2026-04-18T13:55:14.942Z</time></trkpt><trkpt lat="44.3081284" lon="10.7039531"><ele>887.6</ele><time>2026-04-18T13:55:15.941Z</time></trkpt><trkpt lat="44.3081921" lon="10.704055"><ele>887.0</ele><time>2026-04-18T13:55:16.942Z</time></trkpt><trkpt lat="44.3082502" lon="10.7041603"><ele>887.0</ele><time>2026-04-18T13:55:17.941Z</time></trkpt><trkpt lat="44.3082428" lon="10.7043143"><ele>887.0</ele><time>2026-04-18T13:55:18.941Z</time></trkpt><trkpt lat="44.3082341" lon="10.7044596"><ele>887.0</ele><time>2026-04-18T13:55:19.942Z</time></trkpt><trkpt lat="44.3082081" lon="10.7045963"><ele>887.0</ele><time>2026-04-18T13:55:20.941Z</time></trkpt><trkpt lat="44.3081909" lon="10.70473"><ele>887.0</ele><time>2026-04-18T13:55:21.941Z</time></trkpt><trkpt lat="44.3081731" lon="10.7048552"><ele>884.5000000000001</ele><time>2026-04-18T13:55:22.942Z</time></trkpt><trkpt lat="44.30817" lon="10.7049674"><ele>882.0</ele><time>2026-04-18T13:55:23.941Z</time></trkpt><trkpt lat="44.3081921" lon="10.7050714"><ele>879.5</ele><time>2026-04-18T13:55:24.941Z</time></trkpt><trkpt lat="44.3082433" lon="10.7051487"><ele>877.0</ele><time>2026-04-18T13:55:25.942Z</time></trkpt><trkpt lat="44.3083183" lon="10.7051794"><ele>874.5000000000001</ele><time>2026-04-18T13:55:26.942Z</time></trkpt><trkpt lat="44.3083982" lon="10.705199"><ele>872.0</ele><time>2026-04-18T13:55:27.942Z</time></trkpt><trkpt lat="44.3084961" lon="10.7051924"><ele>872.0</ele><time>2026-04-18T13:55:28.942Z</time></trkpt><trkpt lat="44.3085931" lon="10.7052159"><ele>872.0</ele><time>2026-04-18T13:55:29.942Z</time></trkpt><trkpt lat="44.3086581" lon="10.7053487"><ele>872.0</ele><time>2026-04-18T13:55:30.941Z</time></trkpt><trkpt lat="44.3087173" lon="10.7054862"><ele>872.0</ele><time>2026-04-18T13:55:31.941Z</time></trkpt><trkpt lat="44.3087657" lon="10.7056486"><ele>869.0</ele><time>2026-04-18T13:55:32.941Z</time></trkpt><trkpt lat="44.3088139" lon="10.7058155"><ele>866.0</ele><time>2026-04-18T13:55:33.941Z</time></trkpt><trkpt lat="44.3088584" lon="10.7059921"><ele>863.0</ele><time>2026-04-18T13:55:34.941Z</time></trkpt><trkpt lat="44.3088987" lon="10.7061473"><ele>860.0</ele><time>2026-04-18T13:55:35.941Z</time></trkpt><trkpt lat="44.3089324" lon="10.7062696"><ele>860.0</ele><time>2026-04-18T13:55:36.942Z</time></trkpt><trkpt lat="44.3089711" lon="10.7063746"><ele>860.0</ele><time>2026-04-18T13:55:37.942Z</time></trkpt><trkpt lat="44.3090374" lon="10.7064476"><ele>860.0</ele><time>2026-04-18T13:55:38.941Z</time></trkpt><trkpt lat="44.3091175" lon="10.7064841"><ele>860.0</ele><time>2026-04-18T13:55:39.941Z</time></trkpt><trkpt lat="44.3092016" lon="10.7065205"><ele>860.0</ele><time>2026-04-18T13:55:40.941Z</time></trkpt><trkpt lat="44.3093256" lon="10.7065402"><ele>860.0</ele><time>2026-04-18T13:55:41.942Z</time></trkpt><trkpt lat="44.3094368" lon="10.7066108"><ele>860.0</ele><time>2026-04-18T13:55:42.942Z</time></trkpt><trkpt lat="44.3095475" lon="10.7067108"><ele>860.0</ele><time>2026-04-18T13:55:43.941Z</time></trkpt><trkpt lat="44.3096532" lon="10.7068112"><ele>860.0</ele><time>2026-04-18T13:55:44.941Z</time></trkpt><trkpt lat="44.3097341" lon="10.7069204"><ele>858.6</ele><time>2026-04-18T13:55:45.941Z</time></trkpt><trkpt lat="44.3098237" lon="10.7070237"><ele>857.2</ele><time>2026-04-18T13:55:46.941Z</time></trkpt><trkpt lat="44.3099069" lon="10.707128"><ele>855.8</ele><time>2026-04-18T13:55:47.942Z</time></trkpt><trkpt lat="44.3099716" lon="10.7072113"><ele>854.4</ele><time>2026-04-18T13:55:48.941Z</time></trkpt><trkpt lat="44.3100188" lon="10.7072953"><ele>853.0</ele><time>2026-04-18T13:55:49.942Z</time></trkpt><trkpt lat="44.3100495" lon="10.7073877"><ele>852.9999999999999</ele><time>2026-04-18T13:55:50.942Z</time></trkpt><trkpt lat="44.3100577" lon="10.7074907"><ele>853.0</ele><time>2026-04-18T13:55:51.941Z</time></trkpt><trkpt lat="44.310042" lon="10.7075973"><ele>853.0</ele><time>2026-04-18T13:55:52.942Z</time></trkpt><trkpt lat="44.3100158" lon="10.707716"><ele>853.0</ele><time>2026-04-18T13:55:53.942Z</time></trkpt><trkpt lat="44.3099907" lon="10.7078462"><ele>852.9999999999999</ele><time>2026-04-18T13:55:54.941Z</time></trkpt><trkpt lat="44.3099748" lon="10.7079871"><ele>853.0</ele><time>2026-04-18T13:55:55.941Z</time></trkpt><trkpt lat="44.3099839" lon="10.708141"><ele>851.2</ele><time>2026-04-18T13:55:56.942Z</time></trkpt><trkpt lat="44.3099931" lon="10.7082984"><ele>849.4</ele><time>2026-04-18T13:55:57.941Z</time></trkpt><trkpt lat="44.3100237" lon="10.7084363"><ele>847.6</ele><time>2026-04-18T13:55:58.942Z</time></trkpt><trkpt lat="44.3100601" lon="10.7085855"><ele>845.8000000000001</ele><time>2026-04-18T13:55:59.942Z</time></trkpt><trkpt lat="44.3101041" lon="10.7087313"><ele>844.0</ele><time>2026-04-18T13:56:00.941Z</time></trkpt><trkpt lat="44.310135" lon="10.7088791"><ele>841.6</ele><time>2026-04-18T13:56:01.941Z</time></trkpt><trkpt lat="44.3101521" lon="10.709031"><ele>839.2</ele><time>2026-04-18T13:56:02.941Z</time></trkpt><trkpt lat="44.3101661" lon="10.7091573"><ele>836.8000000000001</ele><time>2026-04-18T13:56:03.942Z</time></trkpt><trkpt lat="44.3101449" lon="10.7092825"><ele>834.4000000000001</ele><time>2026-04-18T13:56:04.941Z</time></trkpt><trkpt lat="44.3100981" lon="10.7093819"><ele>832.0</ele><time>2026-04-18T13:56:05.941Z</time></trkpt><trkpt lat="44.3100311" lon="10.7094407"><ele>831.9999999999999</ele><time>2026-04-18T13:56:06.942Z</time></trkpt><trkpt lat="44.3099625" lon="10.7094443"><ele>832.0</ele><time>2026-04-18T13:56:07.941Z</time></trkpt><trkpt lat="44.309899" lon="10.709393"><ele>832.0</ele><time>2026-04-18T13:56:08.941Z</time></trkpt><trkpt lat="44.3098432" lon="10.7093061"><ele>832.0</ele><time>2026-04-18T13:56:09.942Z</time></trkpt><trkpt lat="44.309812" lon="10.7092001"><ele>831.9999999999999</ele><time>2026-04-18T13:56:10.941Z</time></trkpt><trkpt lat="44.3098064" lon="10.709075"><ele>832.0</ele><time>2026-04-18T13:56:11.942Z</time></trkpt><trkpt lat="44.3098032" lon="10.7089426"><ele>832.0</ele><time>2026-04-18T13:56:12.941Z</time></trkpt><trkpt lat="44.3097926" lon="10.7088181"><ele>832.0</ele><time>2026-04-18T13:56:13.942Z</time></trkpt><trkpt lat="44.3097241" lon="10.7086889"><ele>832.0</ele><time>2026-04-18T13:56:14.941Z</time></trkpt><trkpt lat="44.3096636" lon="10.708561"><ele>832.0</ele><time>2026-04-18T13:56:15.941Z</time></trkpt><trkpt lat="44.3095776" lon="10.7084692"><ele>832.0</ele><time>2026-04-18T13:56:16.942Z</time></trkpt><trkpt lat="44.3095083" lon="10.7083805"><ele>830.8333333333333</ele><time>2026-04-18T13:56:17.941Z</time></trkpt><trkpt lat="44.3094338" lon="10.7083289"><ele>829.6666666666666</ele><time>2026-04-18T13:56:18.942Z</time></trkpt><trkpt lat="44.309355" lon="10.7083174"><ele>828.5</ele><time>2026-04-18T13:56:19.942Z</time></trkpt><trkpt lat="44.3092857" lon="10.7083468"><ele>827.3333333333333</ele><time>2026-04-18T13:56:20.941Z</time></trkpt><trkpt lat="44.3092267" lon="10.7084145"><ele>826.1666666666666</ele><time>2026-04-18T13:56:21.942Z</time></trkpt><trkpt lat="44.3091937" lon="10.7085173"><ele>825.0</ele><time>2026-04-18T13:56:22.941Z</time></trkpt><trkpt lat="44.309193" lon="10.708638"><ele>822.0</ele><time>2026-04-18T13:56:23.942Z</time></trkpt><trkpt lat="44.3092166" lon="10.7087745"><ele>819.0</ele><time>2026-04-18T13:56:24.941Z</time></trkpt><trkpt lat="44.3092525" lon="10.7089289"><ele>816.0</ele><time>2026-04-18T13:56:25.941Z</time></trkpt><trkpt lat="44.3092929" lon="10.7090977"><ele>813.0</ele><time>2026-04-18T13:56:26.942Z</time></trkpt><trkpt lat="44.3093403" lon="10.709267"><ele>809.5</ele><time>2026-04-18T13:56:27.941Z</time></trkpt><trkpt lat="44.3093879" lon="10.709447"><ele>806.0</ele><time>2026-04-18T13:56:28.941Z</time></trkpt><trkpt lat="44.3094313" lon="10.7096266"><ele>802.5</ele><time>2026-04-18T13:56:29.942Z</time></trkpt><trkpt lat="44.3094661" lon="10.7098042"><ele>799.0</ele><time>2026-04-18T13:56:30.942Z</time></trkpt><trkpt lat="44.309501" lon="10.7099792"><ele>799.0</ele><time>2026-04-18T13:56:31.941Z</time></trkpt><trkpt lat="44.3095584" lon="10.7101354"><ele>799.0</ele><time>2026-04-18T13:56:32.941Z</time></trkpt><trkpt lat="44.3096251" lon="10.7102886"><ele>799.0</ele><time>2026-04-18T13:56:33.941Z</time></trkpt><trkpt lat="44.3096994" lon="10.7104348"><ele>799.0</ele><time>2026-04-18T13:56:34.942Z</time></trkpt><trkpt lat="44.3097815" lon="10.7105741"><ele>799.75</ele><time>2026-04-18T13:56:35.942Z</time></trkpt><trkpt lat="44.3098596" lon="10.7107118"><ele>800.5</ele><time>2026-04-18T13:56:36.941Z</time></trkpt><trkpt lat="44.309936" lon="10.7108536"><ele>801.25</ele><time>2026-04-18T13:56:37.941Z</time></trkpt><trkpt lat="44.3100025" lon="10.7110061"><ele>802.0</ele><time>2026-04-18T13:56:38.941Z</time></trkpt><trkpt lat="44.3100561" lon="10.7111506"><ele>799.0</ele><time>2026-04-18T13:56:39.941Z</time></trkpt><trkpt lat="44.3101066" lon="10.7112868"><ele>796.0</ele><time>2026-04-18T13:56:40.941Z</time></trkpt><trkpt lat="44.3101687" lon="10.7114155"><ele>793.0</ele><time>2026-04-18T13:56:41.941Z</time></trkpt><trkpt lat="44.3102391" lon="10.7115326"><ele>790.0</ele><time>2026-04-18T13:56:42.942Z</time></trkpt><trkpt lat="44.3103181" lon="10.7116342"><ele>787.0</ele><time>2026-04-18T13:56:43.942Z</time></trkpt><trkpt lat="44.3103862" lon="10.7117315"><ele>787.0</ele><time>2026-04-18T13:56:44.942Z</time></trkpt><trkpt lat="44.3104471" lon="10.7118352"><ele>787.0</ele><time>2026-04-18T13:56:45.942Z</time></trkpt><trkpt lat="44.310501" lon="10.7119407"><ele>787.0</ele><time>2026-04-18T13:56:46.941Z</time></trkpt><trkpt lat="44.3105483" lon="10.7120393"><ele>787.0</ele><time>2026-04-18T13:56:47.941Z</time></trkpt><trkpt lat="44.3105934" lon="10.7121375"><ele>787.0</ele><time>2026-04-18T13:56:48.942Z</time></trkpt><trkpt lat="44.3106371" lon="10.7122523"><ele>786.4000000000001</ele><time>2026-04-18T13:56:49.942Z</time></trkpt><trkpt lat="44.3106708" lon="10.71238"><ele>785.8000000000001</ele><time>2026-04-18T13:56:50.941Z</time></trkpt><trkpt lat="44.310701" lon="10.7125152"><ele>785.2</ele><time>2026-04-18T13:56:51.941Z</time></trkpt><trkpt lat="44.3107307" lon="10.7126523"><ele>784.6</ele><time>2026-04-18T13:56:52.942Z</time></trkpt><trkpt lat="44.310762" lon="10.7127957"><ele>784.0</ele><time>2026-04-18T13:56:53.941Z</time></trkpt><trkpt lat="44.3107893" lon="10.7129456"><ele>783.1666666666666</ele><time>2026-04-18T13:56:54.942Z</time></trkpt><trkpt lat="44.3108194" lon="10.7130747"><ele>782.3333333333333</ele><time>2026-04-18T13:56:55.941Z</time></trkpt><trkpt lat="44.3108477" lon="10.7131865"><ele>781.5</ele><time>2026-04-18T13:56:56.942Z</time></trkpt><trkpt lat="44.3108707" lon="10.7132788"><ele>780.6666666666667</ele><time>2026-04-18T13:56:57.942Z</time></trkpt><trkpt lat="44.3108994" lon="10.7133872"><ele>779.8333333333334</ele><time>2026-04-18T13:56:59.941Z</time></trkpt><trkpt lat="44.3109215" lon="10.7134802"><ele>779.0</ele><time>2026-04-18T13:57:01.942Z</time></trkpt><trkpt lat="44.3109101" lon="10.7136276"><ele>778.3333333333334</ele><time>2026-04-18T13:57:03.942Z</time></trkpt><trkpt lat="44.3108954" lon="10.7137318"><ele>777.6666666666667</ele><time>2026-04-18T13:57:04.942Z</time></trkpt><trkpt lat="44.3108789" lon="10.7138727"><ele>777.0</ele><time>2026-04-18T13:57:05.941Z</time></trkpt><trkpt lat="44.3108671" lon="10.7139977"><ele>776.3333333333333</ele><time>2026-04-18T13:57:06.942Z</time></trkpt><trkpt lat="44.3108555" lon="10.7141137"><ele>775.6666666666666</ele><time>2026-04-18T13:57:07.942Z</time></trkpt><trkpt lat="44.3108479" lon="10.7142324"><ele>775.0</ele><time>2026-04-18T13:57:08.942Z</time></trkpt><trkpt lat="44.3108375" lon="10.7143367"><ele>773.6666666666666</ele><time>2026-04-18T13:57:09.941Z</time></trkpt><trkpt lat="44.3108258" lon="10.7144361"><ele>772.3333333333333</ele><time>2026-04-18T13:57:10.941Z</time></trkpt><trkpt lat="44.310813" lon="10.7145282"><ele>771.0</ele><time>2026-04-18T13:57:11.941Z</time></trkpt><trkpt lat="44.3107896" lon="10.7146719"><ele>769.6666666666666</ele><time>2026-04-18T13:57:13.942Z</time></trkpt><trkpt lat="44.3107708" lon="10.714772"><ele>768.3333333333333</ele><time>2026-04-18T13:57:15.942Z</time></trkpt><trkpt lat="44.310853" lon="10.7147516"><ele>767.0</ele><time>2026-04-18T13:57:18.942Z</time></trkpt><trkpt lat="44.3109143" lon="10.714672"><ele>767.0</ele><time>2026-04-18T13:57:20.941Z</time></trkpt><trkpt lat="44.3109672" lon="10.7147623"><ele>767.0</ele><time>2026-04-18T13:57:22.942Z</time></trkpt><trkpt lat="44.3109671" lon="10.7149665"><ele>767.0</ele><time>2026-04-18T13:57:24.941Z</time></trkpt><trkpt lat="44.310956" lon="10.7150873"><ele>767.0</ele><time>2026-04-18T13:57:25.941Z</time></trkpt><trkpt lat="44.3109382" lon="10.7151975"><ele>767.0</ele><time>2026-04-18T13:57:26.941Z</time></trkpt><trkpt lat="44.3109195" lon="10.7153044"><ele>765.8333333333333</ele><time>2026-04-18T13:57:27.942Z</time></trkpt><trkpt lat="44.3108999" lon="10.7154048"><ele>764.6666666666666</ele><time>2026-04-18T13:57:28.941Z</time></trkpt><trkpt lat="44.3108828" lon="10.7155051"><ele>763.5</ele><time>2026-04-18T13:57:29.942Z</time></trkpt><trkpt lat="44.310869" lon="10.7156079"><ele>762.3333333333334</ele><time>2026-04-18T13:57:30.942Z</time></trkpt><trkpt lat="44.3108637" lon="10.7157137"><ele>761.1666666666667</ele><time>2026-04-18T13:57:31.941Z</time></trkpt><trkpt lat="44.3108722" lon="10.7158236"><ele>760.0</ele><time>2026-04-18T13:57:32.941Z</time></trkpt><trkpt lat="44.3108928" lon="10.7159336"><ele>760.0</ele><time>2026-04-18T13:57:33.942Z</time></trkpt><trkpt lat="44.3109118" lon="10.7160427"><ele>760.0</ele><time>2026-04-18T13:57:34.942Z</time></trkpt><trkpt lat="44.3109264" lon="10.7161566"><ele>760.0</ele><time>2026-04-18T13:57:35.941Z</time></trkpt><trkpt lat="44.3109326" lon="10.7162778"><ele>760.0</ele><time>2026-04-18T13:57:36.942Z</time></trkpt><trkpt lat="44.3109404" lon="10.7164005"><ele>760.0</ele><time>2026-04-18T13:57:37.941Z</time></trkpt><trkpt lat="44.310938" lon="10.7165226"><ele>760.0</ele><time>2026-04-18T13:57:38.941Z</time></trkpt><trkpt lat="44.3109385" lon="10.7166421"><ele>758.5</ele><time>2026-04-18T13:57:39.941Z</time></trkpt><trkpt lat="44.3109396" lon="10.7167547"><ele>757.0</ele><time>2026-04-18T13:57:40.942Z</time></trkpt><trkpt lat="44.3109404" lon="10.7168428"><ele>755.5</ele><time>2026-04-18T13:57:41.942Z</time></trkpt><trkpt lat="44.3109386" lon="10.717004"><ele>754.0</ele><time>2026-04-18T13:57:43.942Z</time></trkpt><trkpt lat="44.3109377" lon="10.7171207"><ele>752.5</ele><time>2026-04-18T13:57:45.941Z</time></trkpt><trkpt lat="44.3109432" lon="10.7172495"><ele>751.0</ele><time>2026-04-18T13:57:47.941Z</time></trkpt><trkpt lat="44.3109469" lon="10.7174058"><ele>748.8333333333334</ele><time>2026-04-18T13:57:49.941Z</time></trkpt><trkpt lat="44.3109494" lon="10.7175525"><ele>746.6666666666667</ele><time>2026-04-18T13:57:51.942Z</time></trkpt><trkpt lat="44.3109495" lon="10.7176742"><ele>744.5</ele><time>2026-04-18T13:57:53.942Z</time></trkpt><trkpt lat="44.3109459" lon="10.7177696"><ele>742.3333333333334</ele><time>2026-04-18T13:57:55.941Z</time></trkpt><trkpt lat="44.3109436" lon="10.7178674"><ele>740.1666666666666</ele><time>2026-04-18T13:57:57.941Z</time></trkpt><trkpt lat="44.3109447" lon="10.717957"><ele>738.0</ele><time>2026-04-18T13:58:00.941Z</time></trkpt><trkpt lat="44.3109744" lon="10.7180889"><ele>737.0</ele><time>2026-04-18T13:58:27.941Z</time></trkpt><trkpt lat="44.3110246" lon="10.7182078"><ele>736.0</ele><time>2026-04-18T13:58:29.942Z</time></trkpt><trkpt lat="44.3110493" lon="10.7183442"><ele>735.0</ele><time>2026-04-18T13:58:31.942Z</time></trkpt><trkpt lat="44.3110596" lon="10.7184793"><ele>734.0</ele><time>2026-04-18T13:58:33.941Z</time></trkpt><trkpt lat="44.3110475" lon="10.7186051"><ele>733.0</ele><time>2026-04-18T13:58:35.942Z</time></trkpt><trkpt lat="44.311025" lon="10.7187112"><ele>730.3333333333334</ele><time>2026-04-18T13:58:37.942Z</time></trkpt><trkpt lat="44.3110134" lon="10.718803"><ele>727.6666666666667</ele><time>2026-04-18T13:58:39.942Z</time></trkpt><trkpt lat="44.3110158" lon="10.7189056"><ele>725.0</ele><time>2026-04-18T13:58:41.942Z</time></trkpt><trkpt lat="44.3110219" lon="10.7190145"><ele>722.3333333333334</ele><time>2026-04-18T13:58:43.941Z</time></trkpt><trkpt lat="44.3110478" lon="10.719144"><ele>719.6666666666666</ele><time>2026-04-18T13:58:45.942Z</time></trkpt><trkpt lat="44.3110709" lon="10.7192852"><ele>717.0</ele><time>2026-04-18T13:58:47.941Z</time></trkpt><trkpt lat="44.3110842" lon="10.7193981"><ele>714.5</ele><time>2026-04-18T13:58:49.941Z</time></trkpt><trkpt lat="44.3110867" lon="10.7195177"><ele>712.0</ele><time>2026-04-18T13:58:52.942Z</time></trkpt><trkpt lat="44.3110957" lon="10.7196084"><ele>709.5</ele><time>2026-04-18T13:58:57.941Z</time></trkpt><trkpt lat="44.3111121" lon="10.7197155"><ele>707.0</ele><time>2026-04-18T13:59:01.942Z</time></trkpt><trkpt lat="44.3111315" lon="10.7198287"><ele>704.5</ele><time>2026-04-18T13:59:04.941Z</time></trkpt><trkpt lat="44.3111325" lon="10.7199248"><ele>702.0</ele><time>2026-04-18T13:59:06.941Z</time></trkpt><trkpt lat="44.3111086" lon="10.7200435"><ele>702.0000000000001</ele><time>2026-04-18T13:59:09.942Z</time></trkpt><trkpt lat="44.3110807" lon="10.7201322"><ele>702.0</ele><time>2026-04-18T13:59:11.942Z</time></trkpt><trkpt lat="44.3110417" lon="10.7202105"><ele>702.0</ele><time>2026-04-18T13:59:13.941Z</time></trkpt><trkpt lat="44.3110011" lon="10.7202997"><ele>702.0</ele><time>2026-04-18T13:59:15.942Z</time></trkpt><trkpt lat="44.3109705" lon="10.7204004"><ele>702.0</ele><time>2026-04-18T13:59:17.941Z</time></trkpt><trkpt lat="44.3109406" lon="10.7204826"><ele>702.0000000000001</ele><time>2026-04-18T13:59:19.942Z</time></trkpt><trkpt lat="44.3108996" lon="10.7205598"><ele>702.0</ele><time>2026-04-18T13:59:21.942Z</time></trkpt><trkpt lat="44.3108362" lon="10.7206384"><ele>700.6666666666666</ele><time>2026-04-18T13:59:23.941Z</time></trkpt><trkpt lat="44.3107548" lon="10.7206957"><ele>699.3333333333334</ele><time>2026-04-18T13:59:25.942Z</time></trkpt><trkpt lat="44.3106565" lon="10.7207073"><ele>698.0</ele><time>2026-04-18T13:59:27.941Z</time></trkpt><trkpt lat="44.3105546" lon="10.7206785"><ele>696.6666666666667</ele><time>2026-04-18T13:59:29.942Z</time></trkpt><trkpt lat="44.3104818" lon="10.7206574"><ele>695.3333333333334</ele><time>2026-04-18T13:59:31.941Z</time></trkpt><trkpt lat="44.3104178" lon="10.7206958"><ele>694.0</ele><time>2026-04-18T13:59:33.942Z</time></trkpt><trkpt lat="44.3103961" lon="10.7207849"><ele>693.5</ele><time>2026-04-18T13:59:35.942Z</time></trkpt><trkpt lat="44.3104109" lon="10.7208975"><ele>693.0</ele><time>2026-04-18T13:59:37.942Z</time></trkpt><trkpt lat="44.3104489" lon="10.7210267"><ele>692.5</ele><time>2026-04-18T13:59:39.941Z</time></trkpt><trkpt lat="44.3105199" lon="10.7211261"><ele>692.0</ele><time>2026-04-18T13:59:41.941Z</time></trkpt><trkpt lat="44.3105665" lon="10.7212088"><ele>691.5</ele><time>2026-04-18T13:59:43.942Z</time></trkpt><trkpt lat="44.3105386" lon="10.7212967"><ele>691.0</ele><time>2026-04-18T13:59:46.941Z</time></trkpt><trkpt lat="44.3104701" lon="10.7213324"><ele>691.0</ele><time>2026-04-18T13:59:49.942Z</time></trkpt><trkpt lat="44.3103874" lon="10.7213578"><ele>691.0</ele><time>2026-04-18T13:59:51.941Z</time></trkpt><trkpt lat="44.3102999" lon="10.7213308"><ele>691.0</ele><time>2026-04-18T13:59:53.941Z</time></trkpt><trkpt lat="44.3102117" lon="10.7211952"><ele>691.0</ele><time>2026-04-18T13:59:55.941Z</time></trkpt><trkpt lat="44.3101695" lon="10.7211246"><ele>691.0</ele><time>2026-04-18T13:59:56.942Z</time></trkpt><trkpt lat="44.3101229" lon="10.7210499"><ele>691.0</ele><time>2026-04-18T13:59:57.942Z</time></trkpt><trkpt lat="44.3100765" lon="10.7209685"><ele>691.0</ele><time>2026-04-18T13:59:58.942Z</time></trkpt><trkpt lat="44.3100254" lon="10.7208872"><ele>691.0</ele><time>2026-04-18T13:59:59.942Z</time></trkpt><trkpt lat="44.3099798" lon="10.7208172"><ele>691.0</ele><time>2026-04-18T14:00:00.941Z</time></trkpt><trkpt lat="44.3098936" lon="10.7207695"><ele>691.0</ele><time>2026-04-18T14:00:02.941Z</time></trkpt><trkpt lat="44.3098145" lon="10.7208438"><ele>691.0</ele><time>2026-04-18T14:00:04.942Z</time></trkpt><trkpt lat="44.3097454" lon="10.7209928"><ele>691.0</ele><time>2026-04-18T14:00:06.941Z</time></trkpt><trkpt lat="44.3097346" lon="10.721087"><ele>691.0</ele><time>2026-04-18T14:00:07.942Z</time></trkpt><trkpt lat="44.3097329" lon="10.7211863"><ele>691.0</ele><time>2026-04-18T14:00:08.942Z</time></trkpt><trkpt lat="44.3097355" lon="10.721304"><ele>691.0</ele><time>2026-04-18T14:00:09.941Z</time></trkpt><trkpt lat="44.3097396" lon="10.7214257"><ele>691.0</ele><time>2026-04-18T14:00:10.942Z</time></trkpt><trkpt lat="44.3097408" lon="10.7215452"><ele>691.0</ele><time>2026-04-18T14:00:11.941Z</time></trkpt><trkpt lat="44.3097486" lon="10.7216668"><ele>691.0</ele><time>2026-04-18T14:00:12.942Z</time></trkpt><trkpt lat="44.3097702" lon="10.7217801"><ele>691.0</ele><time>2026-04-18T14:00:13.941Z</time></trkpt><trkpt lat="44.3097945" lon="10.7218829"><ele>691.0</ele><time>2026-04-18T14:00:14.941Z</time></trkpt><trkpt lat="44.3098085" lon="10.7219773"><ele>691.0</ele><time>2026-04-18T14:00:15.941Z</time></trkpt><trkpt lat="44.3097984" lon="10.7221431"><ele>691.0</ele><time>2026-04-18T14:00:17.942Z</time></trkpt><trkpt lat="44.3097872" lon="10.722247"><ele>691.0</ele><time>2026-04-18T14:00:18.941Z</time></trkpt><trkpt lat="44.3097758" lon="10.7223528"><ele>691.5</ele><time>2026-04-18T14:00:19.942Z</time></trkpt><trkpt lat="44.3097634" lon="10.7224676"><ele>692.0</ele><time>2026-04-18T14:00:20.941Z</time></trkpt><trkpt lat="44.3097613" lon="10.7225782"><ele>692.5</ele><time>2026-04-18T14:00:21.942Z</time></trkpt><trkpt lat="44.3097649" lon="10.7226942"><ele>693.0</ele><time>2026-04-18T14:00:22.941Z</time></trkpt><trkpt lat="44.3097745" lon="10.722801"><ele>693.5</ele><time>2026-04-18T14:00:23.941Z</time></trkpt><trkpt lat="44.3097914" lon="10.7229033"><ele>694.0</ele><time>2026-04-18T14:00:24.941Z</time></trkpt><trkpt lat="44.3098117" lon="10.7230102"><ele>696.2</ele><time>2026-04-18T14:00:25.941Z</time></trkpt><trkpt lat="44.3098311" lon="10.7231253"><ele>698.4000000000001</ele><time>2026-04-18T14:00:26.941Z</time></trkpt><trkpt lat="44.3098489" lon="10.7232548"><ele>700.6</ele><time>2026-04-18T14:00:27.942Z</time></trkpt><trkpt lat="44.309867" lon="10.7233915"><ele>702.8</ele><time>2026-04-18T14:00:28.941Z</time></trkpt><trkpt lat="44.3098834" lon="10.7235267"><ele>705.0</ele><time>2026-04-18T14:00:29.941Z</time></trkpt><trkpt lat="44.309897" lon="10.7236602"><ele>706.5</ele><time>2026-04-18T14:00:30.941Z</time></trkpt><trkpt lat="44.3099028" lon="10.7237942"><ele>708.0</ele><time>2026-04-18T14:00:31.941Z</time></trkpt><trkpt lat="44.3099101" lon="10.7239244"><ele>709.5</ele><time>2026-04-18T14:00:32.941Z</time></trkpt><trkpt lat="44.309921" lon="10.724049"><ele>711.0</ele><time>2026-04-18T14:00:33.942Z</time></trkpt><trkpt lat="44.3099313" lon="10.7241716"><ele>712.5</ele><time>2026-04-18T14:00:34.941Z</time></trkpt><trkpt lat="44.3099191" lon="10.724279"><ele>714.0</ele><time>2026-04-18T14:00:35.942Z</time></trkpt><trkpt lat="44.3099071" lon="10.7244025"><ele>714.5</ele><time>2026-04-18T14:00:36.941Z</time></trkpt><trkpt lat="44.309886" lon="10.7245236"><ele>715.0</ele><time>2026-04-18T14:00:37.941Z</time></trkpt><trkpt lat="44.3098671" lon="10.7246399"><ele>715.5</ele><time>2026-04-18T14:00:38.941Z</time></trkpt><trkpt lat="44.3098495" lon="10.7247571"><ele>716.0</ele><time>2026-04-18T14:00:39.941Z</time></trkpt><trkpt lat="44.3098326" lon="10.7248713"><ele>716.5</ele><time>2026-04-18T14:00:40.942Z</time></trkpt><trkpt lat="44.3098194" lon="10.7249813"><ele>717.0</ele><time>2026-04-18T14:00:41.942Z</time></trkpt><trkpt lat="44.3098007" lon="10.7250797"><ele>719.2</ele><time>2026-04-18T14:00:42.941Z</time></trkpt><trkpt lat="44.3097809" lon="10.7252349"><ele>721.4000000000001</ele><time>2026-04-18T14:00:44.941Z</time></trkpt><trkpt lat="44.3098081" lon="10.7253555"><ele>723.5999999999999</ele><time>2026-04-18T14:00:46.941Z</time></trkpt><trkpt lat="44.3098999" lon="10.7254451"><ele>725.8</ele><time>2026-04-18T14:00:48.941Z</time></trkpt><trkpt lat="44.3099707" lon="10.7254817"><ele>728.0</ele><time>2026-04-18T14:00:49.941Z</time></trkpt><trkpt lat="44.3100444" lon="10.7255216"><ele>728.0</ele><time>2026-04-18T14:00:50.942Z</time></trkpt><trkpt lat="44.3101219" lon="10.725565"><ele>728.0</ele><time>2026-04-18T14:00:51.941Z</time></trkpt><trkpt lat="44.310205" lon="10.7256112"><ele>728.0</ele><time>2026-04-18T14:00:52.942Z</time></trkpt><trkpt lat="44.3102788" lon="10.725661"><ele>728.0</ele><time>2026-04-18T14:00:53.941Z</time></trkpt><trkpt lat="44.3103545" lon="10.7257074"><ele>728.0</ele><time>2026-04-18T14:00:54.941Z</time></trkpt><trkpt lat="44.310419" lon="10.7257625"><ele>728.0</ele><time>2026-04-18T14:00:55.942Z</time></trkpt><trkpt lat="44.3104721" lon="10.725819"><ele>728.0</ele><time>2026-04-18T14:00:56.941Z</time></trkpt><trkpt lat="44.3104664" lon="10.7259733"><ele>728.0</ele><time>2026-04-18T14:00:58.941Z</time></trkpt><trkpt lat="44.3104456" lon="10.7260581"><ele>728.0</ele><time>2026-04-18T14:00:59.942Z</time></trkpt><trkpt lat="44.3104225" lon="10.726157"><ele>728.0</ele><time>2026-04-18T14:01:00.941Z</time></trkpt><trkpt lat="44.3103965" lon="10.7262689"><ele>728.0</ele><time>2026-04-18T14:01:01.942Z</time></trkpt><trkpt lat="44.310374" lon="10.7263749"><ele>728.0</ele><time>2026-04-18T14:01:02.941Z</time></trkpt><trkpt lat="44.3103538" lon="10.7264814"><ele>729.8333333333333</ele><time>2026-04-18T14:01:03.941Z</time></trkpt><trkpt lat="44.3103389" lon="10.7265837"><ele>731.6666666666666</ele><time>2026-04-18T14:01:04.941Z</time></trkpt><trkpt lat="44.3103145" lon="10.726701"><ele>733.5</ele><time>2026-04-18T14:01:05.942Z</time></trkpt><trkpt lat="44.3102828" lon="10.7267836"><ele>735.3333333333334</ele><time>2026-04-18T14:01:06.942Z</time></trkpt><trkpt lat="44.3102443" lon="10.7268713"><ele>737.1666666666667</ele><time>2026-04-18T14:01:07.942Z</time></trkpt><trkpt lat="44.3101966" lon="10.7269578"><ele>739.0</ele><time>2026-04-18T14:01:08.941Z</time></trkpt><trkpt lat="44.3101507" lon="10.7270511"><ele>740.8333333333334</ele><time>2026-04-18T14:01:09.942Z</time></trkpt><trkpt lat="44.310123" lon="10.7271596"><ele>742.6666666666667</ele><time>2026-04-18T14:01:10.941Z</time></trkpt><trkpt lat="44.3101111" lon="10.7272659"><ele>744.5</ele><time>2026-04-18T14:01:11.942Z</time></trkpt><trkpt lat="44.3101619" lon="10.7273682"><ele>746.3333333333334</ele><time>2026-04-18T14:01:12.942Z</time></trkpt><trkpt lat="44.3102038" lon="10.7274593"><ele>748.1666666666666</ele><time>2026-04-18T14:01:13.941Z</time></trkpt><trkpt lat="44.3102353" lon="10.7275478"><ele>750.0</ele><time>2026-04-18T14:01:14.942Z</time></trkpt><trkpt lat="44.3102488" lon="10.7276548"><ele>751.6666666666666</ele><time>2026-04-18T14:01:15.942Z</time></trkpt><trkpt lat="44.3102415" lon="10.7277592"><ele>753.3333333333334</ele><time>2026-04-18T14:01:16.942Z</time></trkpt><trkpt lat="44.3102344" lon="10.7278744"><ele>755.0</ele><time>2026-04-18T14:01:17.942Z</time></trkpt><trkpt lat="44.3102262" lon="10.7279931"><ele>756.6666666666667</ele><time>2026-04-18T14:01:18.941Z</time></trkpt><trkpt lat="44.310209" lon="10.7281057"><ele>758.3333333333334</ele><time>2026-04-18T14:01:19.941Z</time></trkpt><trkpt lat="44.3101983" lon="10.7282131"><ele>760.0</ele><time>2026-04-18T14:01:20.942Z</time></trkpt><trkpt lat="44.3101921" lon="10.7283232"><ele>760.0</ele><time>2026-04-18T14:01:21.942Z</time></trkpt><trkpt lat="44.3101839" lon="10.7284405"><ele>760.0</ele><time>2026-04-18T14:01:22.941Z</time></trkpt><trkpt lat="44.3101898" lon="10.728543"><ele>760.0</ele><time>2026-04-18T14:01:23.942Z</time></trkpt><trkpt lat="44.3102134" lon="10.7286289"><ele>760.0</ele><time>2026-04-18T14:01:24.941Z</time></trkpt><trkpt lat="44.3102967" lon="10.7287474"><ele>760.0</ele><time>2026-04-18T14:01:26.941Z</time></trkpt><trkpt lat="44.3103193" lon="10.7288342"><ele>760.0</ele><time>2026-04-18T14:01:27.941Z</time></trkpt><trkpt lat="44.3103548" lon="10.728913"><ele>759.6666666666667</ele><time>2026-04-18T14:01:28.941Z</time></trkpt><trkpt lat="44.3104321" lon="10.7289968"><ele>759.3333333333334</ele><time>2026-04-18T14:01:29.941Z</time></trkpt><trkpt lat="44.3104702" lon="10.7290671"><ele>759.0</ele><time>2026-04-18T14:01:30.941Z</time></trkpt><trkpt lat="44.3105225" lon="10.7291521"><ele>758.6666666666666</ele><time>2026-04-18T14:01:31.941Z</time></trkpt><trkpt lat="44.3105831" lon="10.7292235"><ele>758.3333333333333</ele><time>2026-04-18T14:01:32.941Z</time></trkpt><trkpt lat="44.3106358" lon="10.729293"><ele>758.0</ele><time>2026-04-18T14:01:33.941Z</time></trkpt><trkpt lat="44.3106821" lon="10.72936"><ele>759.8333333333333</ele><time>2026-04-18T14:01:34.941Z</time></trkpt><trkpt lat="44.3107203" lon="10.7294342"><ele>761.6666666666666</ele><time>2026-04-18T14:01:35.942Z</time></trkpt><trkpt lat="44.3107551" lon="10.7295294"><ele>763.5</ele><time>2026-04-18T14:01:36.942Z</time></trkpt><trkpt lat="44.3107876" lon="10.7296408"><ele>765.3333333333333</ele><time>2026-04-18T14:01:37.942Z</time></trkpt><trkpt lat="44.3108152" lon="10.7297634"><ele>767.1666666666666</ele><time>2026-04-18T14:01:38.941Z</time></trkpt><trkpt lat="44.3108388" lon="10.729884"><ele>769.0</ele><time>2026-04-18T14:01:39.942Z</time></trkpt><trkpt lat="44.3108535" lon="10.7300038"><ele>768.9999999999999</ele><time>2026-04-18T14:01:40.941Z</time></trkpt><trkpt lat="44.3108655" lon="10.7301147"><ele>769.0</ele><time>2026-04-18T14:01:41.941Z</time></trkpt><trkpt lat="44.3108667" lon="10.730222"><ele>769.0</ele><time>2026-04-18T14:01:42.942Z</time></trkpt><trkpt lat="44.3108519" lon="10.7303274"><ele>769.0</ele><time>2026-04-18T14:01:43.941Z</time></trkpt><trkpt lat="44.3108243" lon="10.7304236"><ele>768.9999999999999</ele><time>2026-04-18T14:01:44.941Z</time></trkpt><trkpt lat="44.3107699" lon="10.7305245"><ele>769.0</ele><time>2026-04-18T14:01:46.942Z</time></trkpt><trkpt lat="44.3107178" lon="10.7305889"><ele>770.4999999999999</ele><time>2026-04-18T14:01:48.941Z</time></trkpt><trkpt lat="44.31078" lon="10.7306262"><ele>772.0</ele><time>2026-04-18T14:01:52.942Z</time></trkpt><trkpt lat="44.310837" lon="10.7305591"><ele>773.5</ele><time>2026-04-18T14:01:53.941Z</time></trkpt><trkpt lat="44.3109049" lon="10.7305028"><ele>775.0</ele><time>2026-04-18T14:01:54.941Z</time></trkpt><trkpt lat="44.3110007" lon="10.7304904"><ele>776.4999999999999</ele><time>2026-04-18T14:01:55.942Z</time></trkpt><trkpt lat="44.3110949" lon="10.7305121"><ele>778.0</ele><time>2026-04-18T14:01:56.941Z</time></trkpt><trkpt lat="44.3111877" lon="10.7305574"><ele>778.0</ele><time>2026-04-18T14:01:57.941Z</time></trkpt><trkpt lat="44.3112762" lon="10.7306376"><ele>778.0</ele><time>2026-04-18T14:01:58.941Z</time></trkpt><trkpt lat="44.3113699" lon="10.7307289"><ele>778.0</ele><time>2026-04-18T14:01:59.942Z</time></trkpt><trkpt lat="44.3114766" lon="10.730801"><ele>778.0</ele><time>2026-04-18T14:02:00.942Z</time></trkpt><trkpt lat="44.3115922" lon="10.7308457"><ele>777.5999999999999</ele><time>2026-04-18T14:02:01.941Z</time></trkpt><trkpt lat="44.311708" lon="10.7308906"><ele>777.1999999999999</ele><time>2026-04-18T14:02:02.942Z</time></trkpt><trkpt lat="44.3118269" lon="10.7309135"><ele>776.8</ele><time>2026-04-18T14:02:03.942Z</time></trkpt><trkpt lat="44.3119303" lon="10.7309382"><ele>776.4</ele><time>2026-04-18T14:02:04.941Z</time></trkpt><trkpt lat="44.3120244" lon="10.7309655"><ele>776.0</ele><time>2026-04-18T14:02:05.941Z</time></trkpt><trkpt lat="44.3121206" lon="10.7310078"><ele>776.5999999999999</ele><time>2026-04-18T14:02:06.941Z</time></trkpt><trkpt lat="44.3122084" lon="10.7310742"><ele>777.2</ele><time>2026-04-18T14:02:07.941Z</time></trkpt><trkpt lat="44.3122924" lon="10.7311815"><ele>777.8</ele><time>2026-04-18T14:02:08.941Z</time></trkpt><trkpt lat="44.3123694" lon="10.7313008"><ele>778.4000000000001</ele><time>2026-04-18T14:02:09.941Z</time></trkpt><trkpt lat="44.3124429" lon="10.7314261"><ele>779.0</ele><time>2026-04-18T14:02:10.941Z</time></trkpt><trkpt lat="44.3125202" lon="10.7315601"><ele>779.0</ele><time>2026-04-18T14:02:11.941Z</time></trkpt><trkpt lat="44.312606" lon="10.731695"><ele>779.0</ele><time>2026-04-18T14:02:12.941Z</time></trkpt><trkpt lat="44.3126919" lon="10.7318299"><ele>779.0</ele><time>2026-04-18T14:02:13.941Z</time></trkpt><trkpt lat="44.3127762" lon="10.7319721"><ele>779.0</ele><time>2026-04-18T14:02:14.942Z</time></trkpt><trkpt lat="44.312863" lon="10.7321147"><ele>779.75</ele><time>2026-04-18T14:02:15.941Z</time></trkpt><trkpt lat="44.3129581" lon="10.73224"><ele>780.5</ele><time>2026-04-18T14:02:16.942Z</time></trkpt><trkpt lat="44.31306" lon="10.7323605"><ele>781.25</ele><time>2026-04-18T14:02:17.942Z</time></trkpt><trkpt lat="44.3131645" lon="10.732464"><ele>782.0</ele><time>2026-04-18T14:02:18.942Z</time></trkpt><trkpt lat="44.313273" lon="10.732559"><ele>782.0</ele><time>2026-04-18T14:02:19.942Z</time></trkpt><trkpt lat="44.3133811" lon="10.7326448"><ele>782.0</ele><time>2026-04-18T14:02:20.942Z</time></trkpt><trkpt lat="44.3134941" lon="10.7326994"><ele>782.0</ele><time>2026-04-18T14:02:21.942Z</time></trkpt><trkpt lat="44.3136159" lon="10.7327211"><ele>782.0</ele><time>2026-04-18T14:02:22.941Z</time></trkpt><trkpt lat="44.3137391" lon="10.7327163"><ele>782.0</ele><time>2026-04-18T14:02:23.941Z</time></trkpt><trkpt lat="44.3138704" lon="10.7326874"><ele>782.0</ele><time>2026-04-18T14:02:24.941Z</time></trkpt><trkpt lat="44.314004" lon="10.7326534"><ele>782.0</ele><time>2026-04-18T14:02:25.941Z</time></trkpt><trkpt lat="44.3141428" lon="10.7326257"><ele>782.0</ele><time>2026-04-18T14:02:26.941Z</time></trkpt><trkpt lat="44.3142805" lon="10.7325915"><ele>782.75</ele><time>2026-04-18T14:02:27.942Z</time></trkpt><trkpt lat="44.3144152" lon="10.7325429"><ele>783.5</ele><time>2026-04-18T14:02:28.941Z</time></trkpt><trkpt lat="44.3145435" lon="10.7324744"><ele>784.25</ele><time>2026-04-18T14:02:29.941Z</time></trkpt><trkpt lat="44.3146607" lon="10.7323823"><ele>785.0</ele><time>2026-04-18T14:02:30.942Z</time></trkpt><trkpt lat="44.3147668" lon="10.7322763"><ele>788.0</ele><time>2026-04-18T14:02:31.942Z</time></trkpt><trkpt lat="44.3148635" lon="10.7321661"><ele>791.0</ele><time>2026-04-18T14:02:32.942Z</time></trkpt><trkpt lat="44.3149528" lon="10.7320688"><ele>794.0</ele><time>2026-04-18T14:02:33.942Z</time></trkpt><trkpt lat="44.3150342" lon="10.7319976"><ele>797.0</ele><time>2026-04-18T14:02:34.941Z</time></trkpt><trkpt lat="44.3151185" lon="10.7319475"><ele>800.0</ele><time>2026-04-18T14:02:35.941Z</time></trkpt><trkpt lat="44.3152228" lon="10.7319575"><ele>800.0</ele><time>2026-04-18T14:02:36.941Z</time></trkpt><trkpt lat="44.3153317" lon="10.7319645"><ele>800.0</ele><time>2026-04-18T14:02:37.941Z</time></trkpt><trkpt lat="44.31545" lon="10.7319879"><ele>800.0</ele><time>2026-04-18T14:02:38.942Z</time></trkpt><trkpt lat="44.3155709" lon="10.7320352"><ele>800.0</ele><time>2026-04-18T14:02:39.942Z</time></trkpt><trkpt lat="44.3156836" lon="10.732089"><ele>801.25</ele><time>2026-04-18T14:02:40.942Z</time></trkpt><trkpt lat="44.3158022" lon="10.7321754"><ele>802.5</ele><time>2026-04-18T14:02:41.942Z</time></trkpt><trkpt lat="44.315928" lon="10.7322332"><ele>803.75</ele><time>2026-04-18T14:02:42.941Z</time></trkpt><trkpt lat="44.316052" lon="10.7322709"><ele>805.0</ele><time>2026-04-18T14:02:43.942Z</time></trkpt><trkpt lat="44.316186" lon="10.7323077"><ele>805.0</ele><time>2026-04-18T14:02:44.941Z</time></trkpt><trkpt lat="44.3163177" lon="10.7323493"><ele>805.0</ele><time>2026-04-18T14:02:45.942Z</time></trkpt><trkpt lat="44.3164436" lon="10.7323826"><ele>805.0</ele><time>2026-04-18T14:02:46.942Z</time></trkpt><trkpt lat="44.3165663" lon="10.7324045"><ele>805.0</ele><time>2026-04-18T14:02:47.942Z</time></trkpt><trkpt lat="44.316688" lon="10.7324403"><ele>803.0</ele><time>2026-04-18T14:02:48.942Z</time></trkpt><trkpt lat="44.3168048" lon="10.7325128"><ele>801.0</ele><time>2026-04-18T14:02:49.942Z</time></trkpt><trkpt lat="44.3169193" lon="10.7325779"><ele>799.0</ele><time>2026-04-18T14:02:50.941Z</time></trkpt><trkpt lat="44.3170351" lon="10.7326583"><ele>797.0</ele><time>2026-04-18T14:02:51.941Z</time></trkpt><trkpt lat="44.3171326" lon="10.7327265"><ele>798.2</ele><time>2026-04-18T14:02:52.941Z</time></trkpt><trkpt lat="44.3172254" lon="10.732805"><ele>799.4000000000001</ele><time>2026-04-18T14:02:53.942Z</time></trkpt><trkpt lat="44.3172904" lon="10.7329114"><ele>800.5999999999999</ele><time>2026-04-18T14:02:54.941Z</time></trkpt><trkpt lat="44.3173661" lon="10.7330173"><ele>801.8</ele><time>2026-04-18T14:02:55.941Z</time></trkpt><trkpt lat="44.3174351" lon="10.7331197"><ele>803.0</ele><time>2026-04-18T14:02:56.941Z</time></trkpt><trkpt lat="44.317487" lon="10.7332038"><ele>803.0000000000001</ele><time>2026-04-18T14:02:57.942Z</time></trkpt><trkpt lat="44.3175583" lon="10.7332449"><ele>803.0</ele><time>2026-04-18T14:02:58.941Z</time></trkpt><trkpt lat="44.3176354" lon="10.7332373"><ele>803.0</ele><time>2026-04-18T14:02:59.941Z</time></trkpt><trkpt lat="44.3177093" lon="10.733178"><ele>803.0</ele><time>2026-04-18T14:03:00.942Z</time></trkpt><trkpt lat="44.3177974" lon="10.7331114"><ele>803.0000000000001</ele><time>2026-04-18T14:03:01.941Z</time></trkpt><trkpt lat="44.3178985" lon="10.7330682"><ele>803.0</ele><time>2026-04-18T14:03:02.941Z</time></trkpt><trkpt lat="44.3179958" lon="10.7330408"><ele>804.0</ele><time>2026-04-18T14:03:03.941Z</time></trkpt><trkpt lat="44.3180884" lon="10.7330125"><ele>805.0</ele><time>2026-04-18T14:03:04.941Z</time></trkpt><trkpt lat="44.3181813" lon="10.732969"><ele>806.0</ele><time>2026-04-18T14:03:05.941Z</time></trkpt><trkpt lat="44.318273" lon="10.7328955"><ele>807.0</ele><time>2026-04-18T14:03:06.941Z</time></trkpt><trkpt lat="44.3183432" lon="10.7327868"><ele>808.0</ele><time>2026-04-18T14:03:07.941Z</time></trkpt><trkpt lat="44.3184083" lon="10.7326649"><ele>803.8</ele><time>2026-04-18T14:03:08.942Z</time></trkpt><trkpt lat="44.3184752" lon="10.7325562"><ele>799.5999999999999</ele><time>2026-04-18T14:03:09.941Z</time></trkpt><trkpt lat="44.3185561" lon="10.7324704"><ele>795.4000000000001</ele><time>2026-04-18T14:03:10.942Z</time></trkpt><trkpt lat="44.3186396" lon="10.7324075"><ele>791.2</ele><time>2026-04-18T14:03:11.942Z</time></trkpt><trkpt lat="44.3187342" lon="10.7324141"><ele>787.0</ele><time>2026-04-18T14:03:12.941Z</time></trkpt><trkpt lat="44.3188552" lon="10.7324837"><ele>786.25</ele><time>2026-04-18T14:03:13.941Z</time></trkpt><trkpt lat="44.3189664" lon="10.7325304"><ele>785.5</ele><time>2026-04-18T14:03:14.942Z</time></trkpt><trkpt lat="44.3190985" lon="10.7325887"><ele>784.75</ele><time>2026-04-18T14:03:15.941Z</time></trkpt><trkpt lat="44.319231" lon="10.7326345"><ele>784.0</ele><time>2026-04-18T14:03:16.941Z</time></trkpt><trkpt lat="44.319357" lon="10.7326632"><ele>784.0</ele><time>2026-04-18T14:03:17.941Z</time></trkpt><trkpt lat="44.3194888" lon="10.7326767"><ele>784.0</ele><time>2026-04-18T14:03:18.941Z</time></trkpt><trkpt lat="44.3196181" lon="10.7326896"><ele>784.0</ele><time>2026-04-18T14:03:19.941Z</time></trkpt><trkpt lat="44.3197371" lon="10.7326979"><ele>784.0</ele><time>2026-04-18T14:03:20.941Z</time></trkpt><trkpt lat="44.3198529" lon="10.732704"><ele>786.25</ele><time>2026-04-18T14:03:21.942Z</time></trkpt><trkpt lat="44.3199714" lon="10.7327156"><ele>788.5</ele><time>2026-04-18T14:03:22.942Z</time></trkpt><trkpt lat="44.3200807" lon="10.7327328"><ele>790.75</ele><time>2026-04-18T14:03:23.941Z</time></trkpt><trkpt lat="44.3201919" lon="10.7327646"><ele>793.0</ele><time>2026-04-18T14:03:24.941Z</time></trkpt><trkpt lat="44.3203068" lon="10.732813"><ele>793.0</ele><time>2026-04-18T14:03:25.941Z</time></trkpt><trkpt lat="44.32042" lon="10.7328728"><ele>793.0</ele><time>2026-04-18T14:03:26.942Z</time></trkpt><trkpt lat="44.320526" lon="10.7329327"><ele>793.0</ele><time>2026-04-18T14:03:27.942Z</time></trkpt><trkpt lat="44.3206356" lon="10.7329859"><ele>793.0</ele><time>2026-04-18T14:03:28.942Z</time></trkpt><trkpt lat="44.3207495" lon="10.7330267"><ele>790.8</ele><time>2026-04-18T14:03:29.941Z</time></trkpt><trkpt lat="44.3208579" lon="10.7330511"><ele>788.5999999999999</ele><time>2026-04-18T14:03:30.942Z</time></trkpt><trkpt lat="44.3209669" lon="10.7330432"><ele>786.4000000000001</ele><time>2026-04-18T14:03:31.941Z</time></trkpt><trkpt lat="44.3210679" lon="10.7329987"><ele>784.2</ele><time>2026-04-18T14:03:32.942Z</time></trkpt><trkpt lat="44.3211583" lon="10.7329473"><ele>782.0</ele><time>2026-04-18T14:03:33.942Z</time></trkpt><trkpt lat="44.3212494" lon="10.7329287"><ele>782.0</ele><time>2026-04-18T14:03:34.942Z</time></trkpt><trkpt lat="44.3213406" lon="10.7329657"><ele>782.0</ele><time>2026-04-18T14:03:35.941Z</time></trkpt><trkpt lat="44.3214413" lon="10.7330242"><ele>782.0</ele><time>2026-04-18T14:03:36.942Z</time></trkpt><trkpt lat="44.3215527" lon="10.7330755"><ele>782.0</ele><time>2026-04-18T14:03:37.941Z</time></trkpt><trkpt lat="44.3216685" lon="10.7331212"><ele>782.0</ele><time>2026-04-18T14:03:38.942Z</time></trkpt><trkpt lat="44.3217905" lon="10.7331831"><ele>777.75</ele><time>2026-04-18T14:03:39.941Z</time></trkpt><trkpt lat="44.3219117" lon="10.733268"><ele>773.5</ele><time>2026-04-18T14:03:40.942Z</time></trkpt><trkpt lat="44.32204" lon="10.7333672"><ele>769.25</ele><time>2026-04-18T14:03:41.941Z</time></trkpt><trkpt lat="44.3221652" lon="10.7334683"><ele>765.0</ele><time>2026-04-18T14:03:42.942Z</time></trkpt><trkpt lat="44.3222923" lon="10.7335689"><ele>762.5</ele><time>2026-04-18T14:03:43.941Z</time></trkpt><trkpt lat="44.3224229" lon="10.7336742"><ele>760.0</ele><time>2026-04-18T14:03:44.942Z</time></trkpt><trkpt lat="44.3225519" lon="10.7337702"><ele>757.5</ele><time>2026-04-18T14:03:45.941Z</time></trkpt><trkpt lat="44.3226836" lon="10.7338543"><ele>755.0</ele><time>2026-04-18T14:03:46.941Z</time></trkpt><trkpt lat="44.3228087" lon="10.7339236"><ele>755.0</ele><time>2026-04-18T14:03:47.941Z</time></trkpt><trkpt lat="44.3229256" lon="10.7339862"><ele>755.0</ele><time>2026-04-18T14:03:48.942Z</time></trkpt><trkpt lat="44.3230307" lon="10.7340267"><ele>755.0</ele><time>2026-04-18T14:03:49.942Z</time></trkpt><trkpt lat="44.3231184" lon="10.7340651"><ele>755.0</ele><time>2026-04-18T14:03:50.941Z</time></trkpt><trkpt lat="44.3231957" lon="10.7340917"><ele>755.0</ele><time>2026-04-18T14:03:51.942Z</time></trkpt><trkpt lat="44.3232636" lon="10.734064"><ele>749.8</ele><time>2026-04-18T14:03:52.942Z</time></trkpt><trkpt lat="44.3233162" lon="10.7339888"><ele>744.6</ele><time>2026-04-18T14:03:53.942Z</time></trkpt><trkpt lat="44.3233429" lon="10.7338778"><ele>739.4000000000001</ele><time>2026-04-18T14:03:54.941Z</time></trkpt><trkpt lat="44.32336" lon="10.7337348"><ele>734.2</ele><time>2026-04-18T14:03:55.941Z</time></trkpt><trkpt lat="44.3233791" lon="10.7335817"><ele>729.0</ele><time>2026-04-18T14:03:56.941Z</time></trkpt><trkpt lat="44.3234091" lon="10.7334268"><ele>727.5</ele><time>2026-04-18T14:03:57.942Z</time></trkpt><trkpt lat="44.323446" lon="10.7332895"><ele>726.0</ele><time>2026-04-18T14:03:58.941Z</time></trkpt><trkpt lat="44.3234997" lon="10.7331823"><ele>724.5</ele><time>2026-04-18T14:03:59.941Z</time></trkpt><trkpt lat="44.3235705" lon="10.7331176"><ele>723.0</ele><time>2026-04-18T14:04:00.942Z</time></trkpt><trkpt lat="44.3236495" lon="10.733126"><ele>721.5</ele><time>2026-04-18T14:04:01.941Z</time></trkpt><trkpt lat="44.3237073" lon="10.7331936"><ele>720.0</ele><time>2026-04-18T14:04:02.942Z</time></trkpt><trkpt lat="44.3237332" lon="10.7333037"><ele>720.0</ele><time>2026-04-18T14:04:03.942Z</time></trkpt><trkpt lat="44.3237345" lon="10.7334439"><ele>720.0</ele><time>2026-04-18T14:04:04.941Z</time></trkpt><trkpt lat="44.3237306" lon="10.7336193"><ele>720.0</ele><time>2026-04-18T14:04:05.941Z</time></trkpt><trkpt lat="44.3237241" lon="10.7337864"><ele>720.0</ele><time>2026-04-18T14:04:06.941Z</time></trkpt><trkpt lat="44.3237238" lon="10.7339475"><ele>720.5</ele><time>2026-04-18T14:04:07.941Z</time></trkpt><trkpt lat="44.323749" lon="10.7341047"><ele>721.0</ele><time>2026-04-18T14:04:08.941Z</time></trkpt><trkpt lat="44.3238096" lon="10.7342467"><ele>721.5</ele><time>2026-04-18T14:04:09.942Z</time></trkpt><trkpt lat="44.3239078" lon="10.7343553"><ele>722.0</ele><time>2026-04-18T14:04:10.941Z</time></trkpt><trkpt lat="44.324048" lon="10.7344422"><ele>722.0</ele><time>2026-04-18T14:04:11.942Z</time></trkpt><trkpt lat="44.3241918" lon="10.7345136"><ele>722.0</ele><time>2026-04-18T14:04:12.941Z</time></trkpt><trkpt lat="44.3243302" lon="10.7345497"><ele>722.0</ele><time>2026-04-18T14:04:13.941Z</time></trkpt><trkpt lat="44.3244554" lon="10.7345649"><ele>722.0</ele><time>2026-04-18T14:04:14.941Z</time></trkpt><trkpt lat="44.3245721" lon="10.7345628"><ele>722.0</ele><time>2026-04-18T14:04:15.941Z</time></trkpt><trkpt lat="44.3246942" lon="10.7345557"><ele>722.0</ele><time>2026-04-18T14:04:16.941Z</time></trkpt><trkpt lat="44.3248192" lon="10.7345449"><ele>722.0</ele><time>2026-04-18T14:04:17.941Z</time></trkpt><trkpt lat="44.324946" lon="10.7345258"><ele>722.0</ele><time>2026-04-18T14:04:18.941Z</time></trkpt><trkpt lat="44.3250668" lon="10.7345329"><ele>719.6</ele><time>2026-04-18T14:04:19.941Z</time></trkpt><trkpt lat="44.3251663" lon="10.7345472"><ele>717.2</ele><time>2026-04-18T14:04:20.942Z</time></trkpt><trkpt lat="44.3252713" lon="10.7346"><ele>714.8</ele><time>2026-04-18T14:04:21.941Z</time></trkpt><trkpt lat="44.3253314" lon="10.7346871"><ele>712.4</ele><time>2026-04-18T14:04:22.941Z</time></trkpt><trkpt lat="44.3253441" lon="10.7348329"><ele>710.0</ele><time>2026-04-18T14:04:23.942Z</time></trkpt><trkpt lat="44.3253978" lon="10.7349612"><ele>710.0</ele><time>2026-04-18T14:04:24.942Z</time></trkpt><trkpt lat="44.3254653" lon="10.7350908"><ele>710.0</ele><time>2026-04-18T14:04:25.941Z</time></trkpt><trkpt lat="44.3255638" lon="10.7351723"><ele>710.0</ele><time>2026-04-18T14:04:26.942Z</time></trkpt><trkpt lat="44.3256688" lon="10.7352042"><ele>710.0</ele><time>2026-04-18T14:04:27.941Z</time></trkpt><trkpt lat="44.3257796" lon="10.7352399"><ele>714.5</ele><time>2026-04-18T14:04:28.941Z</time></trkpt><trkpt lat="44.325905" lon="10.7352641"><ele>719.0</ele><time>2026-04-18T14:04:29.941Z</time></trkpt><trkpt lat="44.32602" lon="10.7353176"><ele>723.5</ele><time>2026-04-18T14:04:30.941Z</time></trkpt><trkpt lat="44.3261257" lon="10.7353691"><ele>728.0</ele><time>2026-04-18T14:04:31.942Z</time></trkpt><trkpt lat="44.3262329" lon="10.7354255"><ele>728.0</ele><time>2026-04-18T14:04:32.941Z</time></trkpt><trkpt lat="44.3263393" lon="10.7354871"><ele>728.0</ele><time>2026-04-18T14:04:33.941Z</time></trkpt><trkpt lat="44.3264429" lon="10.735547"><ele>728.0</ele><time>2026-04-18T14:04:34.941Z</time></trkpt><trkpt lat="44.3265422" lon="10.7356087"><ele>728.0</ele><time>2026-04-18T14:04:35.941Z</time></trkpt><trkpt lat="44.326634" lon="10.7356788"><ele>728.0</ele><time>2026-04-18T14:04:36.941Z</time></trkpt><trkpt lat="44.3267249" lon="10.7357495"><ele>725.0</ele><time>2026-04-18T14:04:37.941Z</time></trkpt><trkpt lat="44.3268253" lon="10.7358159"><ele>722.0</ele><time>2026-04-18T14:04:38.941Z</time></trkpt><trkpt lat="44.3269354" lon="10.7358765"><ele>719.0</ele><time>2026-04-18T14:04:39.941Z</time></trkpt><trkpt lat="44.3270583" lon="10.735941"><ele>716.0</ele><time>2026-04-18T14:04:40.942Z</time></trkpt><trkpt lat="44.3271849" lon="10.7360048"><ele>717.25</ele><time>2026-04-18T14:04:41.941Z</time></trkpt><trkpt lat="44.3272915" lon="10.7360676"><ele>718.5</ele><time>2026-04-18T14:04:42.942Z</time></trkpt><trkpt lat="44.3273793" lon="10.7361566"><ele>719.75</ele><time>2026-04-18T14:04:43.941Z</time></trkpt><trkpt lat="44.3274692" lon="10.736264"><ele>721.0</ele><time>2026-04-18T14:04:44.941Z</time></trkpt><trkpt lat="44.3275551" lon="10.7363699"><ele>721.0</ele><time>2026-04-18T14:04:45.941Z</time></trkpt><trkpt lat="44.327636" lon="10.7365038"><ele>721.0</ele><time>2026-04-18T14:04:46.942Z</time></trkpt><trkpt lat="44.3277266" lon="10.7366143"><ele>721.0</ele><time>2026-04-18T14:04:47.941Z</time></trkpt><trkpt lat="44.3278167" lon="10.7367338"><ele>721.0</ele><time>2026-04-18T14:04:48.942Z</time></trkpt><trkpt lat="44.3278962" lon="10.7368186"><ele>721.0</ele><time>2026-04-18T14:04:49.941Z</time></trkpt><trkpt lat="44.327976" lon="10.7369102"><ele>721.0</ele><time>2026-04-18T14:04:50.941Z</time></trkpt><trkpt lat="44.3280527" lon="10.7369944"><ele>721.0</ele><time>2026-04-18T14:04:51.942Z</time></trkpt><trkpt lat="44.3281332" lon="10.7370538"><ele>721.0</ele><time>2026-04-18T14:04:52.941Z</time></trkpt><trkpt lat="44.328219" lon="10.7371037"><ele>721.0</ele><time>2026-04-18T14:04:53.942Z</time></trkpt><trkpt lat="44.3283012" lon="10.737153"><ele>721.0</ele><time>2026-04-18T14:04:54.941Z</time></trkpt><trkpt lat="44.3283912" lon="10.7371943"><ele>721.0</ele><time>2026-04-18T14:04:55.941Z</time></trkpt><trkpt lat="44.3284715" lon="10.7372335"><ele>721.0</ele><time>2026-04-18T14:04:56.941Z</time></trkpt><trkpt lat="44.3285466" lon="10.7372697"><ele>721.0</ele><time>2026-04-18T14:04:57.942Z</time></trkpt><trkpt lat="44.3286187" lon="10.7373114"><ele>721.0</ele><time>2026-04-18T14:04:58.941Z</time></trkpt><trkpt lat="44.3287147" lon="10.7373906"><ele>721.0</ele><time>2026-04-18T14:05:00.941Z</time></trkpt><trkpt lat="44.3287627" lon="10.7374909"><ele>721.0</ele><time>2026-04-18T14:05:02.942Z</time></trkpt><trkpt lat="44.3287586" lon="10.7376515"><ele>721.0</ele><time>2026-04-18T14:05:04.941Z</time></trkpt><trkpt lat="44.3287377" lon="10.7377525"><ele>721.0</ele><time>2026-04-18T14:05:05.941Z</time></trkpt><trkpt lat="44.3287126" lon="10.7378686"><ele>721.0</ele><time>2026-04-18T14:05:06.941Z</time></trkpt><trkpt lat="44.3286848" lon="10.7379862"><ele>721.0</ele><time>2026-04-18T14:05:07.941Z</time></trkpt><trkpt lat="44.3286574" lon="10.7381024"><ele>721.1666666666667</ele><time>2026-04-18T14:05:08.941Z</time></trkpt><trkpt lat="44.3286348" lon="10.7382227"><ele>721.3333333333334</ele><time>2026-04-18T14:05:09.941Z</time></trkpt><trkpt lat="44.3286199" lon="10.7383279"><ele>721.5</ele><time>2026-04-18T14:05:10.941Z</time></trkpt><trkpt lat="44.3286093" lon="10.7384181"><ele>721.6666666666666</ele><time>2026-04-18T14:05:11.941Z</time></trkpt><trkpt lat="44.3285949" lon="10.7385651"><ele>721.8333333333333</ele><time>2026-04-18T14:05:13.942Z</time></trkpt><trkpt lat="44.3285929" lon="10.7386993"><ele>722.0</ele><time>2026-04-18T14:05:15.942Z</time></trkpt><trkpt lat="44.3285951" lon="10.7387876"><ele>722.0</ele><time>2026-04-18T14:05:16.941Z</time></trkpt><trkpt lat="44.3286034" lon="10.7388827"><ele>722.0</ele><time>2026-04-18T14:05:17.941Z</time></trkpt><trkpt lat="44.3286084" lon="10.7389846"><ele>722.0</ele><time>2026-04-18T14:05:18.941Z</time></trkpt><trkpt lat="44.3286148" lon="10.7391037"><ele>722.0</ele><time>2026-04-18T14:05:19.941Z</time></trkpt><trkpt lat="44.3286203" lon="10.7392146"><ele>722.0</ele><time>2026-04-18T14:05:20.942Z</time></trkpt><trkpt lat="44.3286278" lon="10.7393224"><ele>722.0</ele><time>2026-04-18T14:05:21.941Z</time></trkpt><trkpt lat="44.3286421" lon="10.7394258"><ele>722.8</ele><time>2026-04-18T14:05:22.941Z</time></trkpt><trkpt lat="44.3286819" lon="10.7395258"><ele>723.6</ele><time>2026-04-18T14:05:23.941Z</time></trkpt><trkpt lat="44.3287584" lon="10.7395945"><ele>724.4</ele><time>2026-04-18T14:05:24.942Z</time></trkpt><trkpt lat="44.3288537" lon="10.739622"><ele>725.1999999999999</ele><time>2026-04-18T14:05:25.941Z</time></trkpt><trkpt lat="44.3289563" lon="10.7396287"><ele>726.0</ele><time>2026-04-18T14:05:26.941Z</time></trkpt><trkpt lat="44.3290576" lon="10.7396338"><ele>722.6666666666666</ele><time>2026-04-18T14:05:27.941Z</time></trkpt><trkpt lat="44.3291529" lon="10.7396422"><ele>719.3333333333334</ele><time>2026-04-18T14:05:28.942Z</time></trkpt><trkpt lat="44.3292452" lon="10.739646"><ele>716.0</ele><time>2026-04-18T14:05:29.941Z</time></trkpt><trkpt lat="44.329332" lon="10.739649"><ele>712.6666666666667</ele><time>2026-04-18T14:05:30.942Z</time></trkpt><trkpt lat="44.3294151" lon="10.7396612"><ele>709.3333333333334</ele><time>2026-04-18T14:05:31.941Z</time></trkpt><trkpt lat="44.3294942" lon="10.7397025"><ele>706.0</ele><time>2026-04-18T14:05:32.941Z</time></trkpt><trkpt lat="44.3295571" lon="10.7397674"><ele>706.0</ele><time>2026-04-18T14:05:33.942Z</time></trkpt><trkpt lat="44.3296124" lon="10.7398527"><ele>706.0</ele><time>2026-04-18T14:05:34.941Z</time></trkpt><trkpt lat="44.3296635" lon="10.7399608"><ele>706.0</ele><time>2026-04-18T14:05:35.941Z</time></trkpt><trkpt lat="44.3297097" lon="10.7400729"><ele>706.0</ele><time>2026-04-18T14:05:36.941Z</time></trkpt><trkpt lat="44.3297542" lon="10.7401919"><ele>706.0</ele><time>2026-04-18T14:05:37.941Z</time></trkpt><trkpt lat="44.3297985" lon="10.7403105"><ele>703.5999999999999</ele><time>2026-04-18T14:05:38.941Z</time></trkpt><trkpt lat="44.3298371" lon="10.7404269"><ele>701.2</ele><time>2026-04-18T14:05:39.941Z</time></trkpt><trkpt lat="44.3298704" lon="10.7405477"><ele>698.8</ele><time>2026-04-18T14:05:40.941Z</time></trkpt><trkpt lat="44.3299108" lon="10.7406653"><ele>696.4000000000001</ele><time>2026-04-18T14:05:41.941Z</time></trkpt><trkpt lat="44.329966" lon="10.7407706"><ele>694.0</ele><time>2026-04-18T14:05:42.942Z</time></trkpt><trkpt lat="44.3300691" lon="10.7408415"><ele>694.0</ele><time>2026-04-18T14:05:43.942Z</time></trkpt><trkpt lat="44.3301809" lon="10.7408836"><ele>694.0</ele><time>2026-04-18T14:05:44.941Z</time></trkpt><trkpt lat="44.3303108" lon="10.7409067"><ele>694.0</ele><time>2026-04-18T14:05:45.941Z</time></trkpt><trkpt lat="44.3304496" lon="10.740927"><ele>694.0</ele><time>2026-04-18T14:05:46.942Z</time></trkpt><trkpt lat="44.330578" lon="10.740939"><ele>692.4000000000001</ele><time>2026-04-18T14:05:47.942Z</time></trkpt><trkpt lat="44.330702" lon="10.7409547"><ele>690.8</ele><time>2026-04-18T14:05:48.941Z</time></trkpt><trkpt lat="44.3308127" lon="10.7409684"><ele>689.2</ele><time>2026-04-18T14:05:49.941Z</time></trkpt><trkpt lat="44.3309125" lon="10.7409841"><ele>687.5999999999999</ele><time>2026-04-18T14:05:50.941Z</time></trkpt><trkpt lat="44.3310114" lon="10.7410134"><ele>686.0</ele><time>2026-04-18T14:05:51.941Z</time></trkpt><trkpt lat="44.3310809" lon="10.7410849"><ele>686.0</ele><time>2026-04-18T14:05:52.941Z</time></trkpt><trkpt lat="44.3311254" lon="10.7411927"><ele>686.0</ele><time>2026-04-18T14:05:53.942Z</time></trkpt><trkpt lat="44.3311559" lon="10.7413281"><ele>686.0</ele><time>2026-04-18T14:05:54.942Z</time></trkpt><trkpt lat="44.3311851" lon="10.7414844"><ele>686.0</ele><time>2026-04-18T14:05:55.941Z</time></trkpt><trkpt lat="44.3312119" lon="10.7416544"><ele>686.0</ele><time>2026-04-18T14:05:56.942Z</time></trkpt><trkpt lat="44.3312375" lon="10.7418342"><ele>686.25</ele><time>2026-04-18T14:05:57.941Z</time></trkpt><trkpt lat="44.3312671" lon="10.7420158"><ele>686.5</ele><time>2026-04-18T14:05:58.942Z</time></trkpt><trkpt lat="44.3312911" lon="10.7421959"><ele>686.75</ele><time>2026-04-18T14:05:59.941Z</time></trkpt><trkpt lat="44.3312972" lon="10.7423774"><ele>687.0</ele><time>2026-04-18T14:06:00.941Z</time></trkpt><trkpt lat="44.3312882" lon="10.7425624"><ele>687.4000000000001</ele><time>2026-04-18T14:06:01.941Z</time></trkpt><trkpt lat="44.3312762" lon="10.7427338"><ele>687.8000000000001</ele><time>2026-04-18T14:06:02.942Z</time></trkpt><trkpt lat="44.3312612" lon="10.7428799"><ele>688.2</ele><time>2026-04-18T14:06:03.941Z</time></trkpt><trkpt lat="44.3312469" lon="10.7430012"><ele>688.6</ele><time>2026-04-18T14:06:04.942Z</time></trkpt><trkpt lat="44.3312432" lon="10.7431089"><ele>689.0</ele><time>2026-04-18T14:06:05.941Z</time></trkpt><trkpt lat="44.3312526" lon="10.7432068"><ele>689.0</ele><time>2026-04-18T14:06:06.942Z</time></trkpt><trkpt lat="44.3313351" lon="10.7432454"><ele>689.0</ele><time>2026-04-18T14:06:07.941Z</time></trkpt><trkpt lat="44.3314137" lon="10.7432515"><ele>689.0</ele><time>2026-04-18T14:06:08.941Z</time></trkpt><trkpt lat="44.3315021" lon="10.7432219"><ele>689.0</ele><time>2026-04-18T14:06:09.941Z</time></trkpt><trkpt lat="44.3316032" lon="10.7431698"><ele>689.0</ele><time>2026-04-18T14:06:10.942Z</time></trkpt><trkpt lat="44.3317089" lon="10.7431136"><ele>684.8000000000001</ele><time>2026-04-18T14:06:11.941Z</time></trkpt><trkpt lat="44.3318159" lon="10.7430555"><ele>680.6</ele><time>2026-04-18T14:06:12.941Z</time></trkpt><trkpt lat="44.3319206" lon="10.742995"><ele>676.4</ele><time>2026-04-18T14:06:13.941Z</time></trkpt><trkpt lat="44.3320165" lon="10.7429225"><ele>672.2</ele><time>2026-04-18T14:06:14.942Z</time></trkpt><trkpt lat="44.3321047" lon="10.7428314"><ele>668.0</ele><time>2026-04-18T14:06:15.941Z</time></trkpt><trkpt lat="44.3321764" lon="10.7427045"><ele>662.25</ele><time>2026-04-18T14:06:16.941Z</time></trkpt><trkpt lat="44.3322505" lon="10.7425611"><ele>656.5</ele><time>2026-04-18T14:06:17.942Z</time></trkpt><trkpt lat="44.3323164" lon="10.7424208"><ele>650.75</ele><time>2026-04-18T14:06:18.941Z</time></trkpt><trkpt lat="44.3323832" lon="10.7422785"><ele>645.0</ele><time>2026-04-18T14:06:19.942Z</time></trkpt><trkpt lat="44.3324445" lon="10.7421423"><ele>645.0</ele><time>2026-04-18T14:06:20.941Z</time></trkpt><trkpt lat="44.3325028" lon="10.7420177"><ele>645.0</ele><time>2026-04-18T14:06:21.942Z</time></trkpt><trkpt lat="44.3325436" lon="10.7419008"><ele>645.0</ele><time>2026-04-18T14:06:22.942Z</time></trkpt><trkpt lat="44.3325485" lon="10.7417886"><ele>645.0</ele><time>2026-04-18T14:06:23.941Z</time></trkpt><trkpt lat="44.3325366" lon="10.7416875"><ele>645.0</ele><time>2026-04-18T14:06:24.941Z</time></trkpt><trkpt lat="44.3325008" lon="10.7415645"><ele>645.0</ele><time>2026-04-18T14:06:25.942Z</time></trkpt><trkpt lat="44.3324454" lon="10.7414317"><ele>642.75</ele><time>2026-04-18T14:06:26.941Z</time></trkpt><trkpt lat="44.3323925" lon="10.7412926"><ele>640.5</ele><time>2026-04-18T14:06:27.941Z</time></trkpt><trkpt lat="44.3323353" lon="10.7411566"><ele>638.25</ele><time>2026-04-18T14:06:28.942Z</time></trkpt><trkpt lat="44.3322835" lon="10.7410097"><ele>636.0</ele><time>2026-04-18T14:06:29.941Z</time></trkpt><trkpt lat="44.3322363" lon="10.7408681"><ele>640.5</ele><time>2026-04-18T14:06:30.942Z</time></trkpt><trkpt lat="44.3322105" lon="10.7407081"><ele>645.0</ele><time>2026-04-18T14:06:31.941Z</time></trkpt><trkpt lat="44.3321916" lon="10.7405458"><ele>649.5</ele><time>2026-04-18T14:06:32.941Z</time></trkpt><trkpt lat="44.3321883" lon="10.7403937"><ele>654.0</ele><time>2026-04-18T14:06:33.941Z</time></trkpt><trkpt lat="44.332168" lon="10.7402447"><ele>651.5</ele><time>2026-04-18T14:06:34.942Z</time></trkpt><trkpt lat="44.332141" lon="10.7400853"><ele>649.0</ele><time>2026-04-18T14:06:35.941Z</time></trkpt><trkpt lat="44.332098" lon="10.7399256"><ele>646.5</ele><time>2026-04-18T14:06:36.942Z</time></trkpt><trkpt lat="44.332044" lon="10.7397518"><ele>644.0</ele><time>2026-04-18T14:06:37.941Z</time></trkpt><trkpt lat="44.3319869" lon="10.7395767"><ele>644.0</ele><time>2026-04-18T14:06:38.941Z</time></trkpt><trkpt lat="44.3319261" lon="10.7394068"><ele>644.0</ele><time>2026-04-18T14:06:39.941Z</time></trkpt><trkpt lat="44.3318743" lon="10.7392343"><ele>644.0</ele><time>2026-04-18T14:06:40.942Z</time></trkpt><trkpt lat="44.331844" lon="10.7390556"><ele>644.0</ele><time>2026-04-18T14:06:41.941Z</time></trkpt><trkpt lat="44.3318356" lon="10.7388946"><ele>641.4000000000001</ele><time>2026-04-18T14:06:42.941Z</time></trkpt><trkpt lat="44.3318558" lon="10.7387508"><ele>638.8000000000001</ele><time>2026-04-18T14:06:43.941Z</time></trkpt><trkpt lat="44.3319098" lon="10.7386251"><ele>636.2</ele><time>2026-04-18T14:06:44.942Z</time></trkpt><trkpt lat="44.3319936" lon="10.7385275"><ele>633.6</ele><time>2026-04-18T14:06:45.942Z</time></trkpt><trkpt lat="44.3320824" lon="10.7384241"><ele>631.0</ele><time>2026-04-18T14:06:46.942Z</time></trkpt><trkpt lat="44.3321936" lon="10.7383518"><ele>627.2</ele><time>2026-04-18T14:06:47.941Z</time></trkpt><trkpt lat="44.3322934" lon="10.7382922"><ele>623.4000000000001</ele><time>2026-04-18T14:06:48.942Z</time></trkpt><trkpt lat="44.3323957" lon="10.7382742"><ele>619.6</ele><time>2026-04-18T14:06:49.941Z</time></trkpt><trkpt lat="44.3325022" lon="10.738305"><ele>615.8000000000001</ele><time>2026-04-18T14:06:50.941Z</time></trkpt><trkpt lat="44.3326035" lon="10.7383826"><ele>612.0</ele><time>2026-04-18T14:06:51.942Z</time></trkpt><trkpt lat="44.3327075" lon="10.7384811"><ele>611.4</ele><time>2026-04-18T14:06:52.941Z</time></trkpt><trkpt lat="44.3328084" lon="10.7385726"><ele>610.8000000000001</ele><time>2026-04-18T14:06:53.941Z</time></trkpt><trkpt lat="44.332907" lon="10.7386636"><ele>610.2</ele><time>2026-04-18T14:06:54.941Z</time></trkpt><trkpt lat="44.3329916" lon="10.7387439"><ele>609.6</ele><time>2026-04-18T14:06:55.941Z</time></trkpt><trkpt lat="44.3330701" lon="10.7388237"><ele>609.0</ele><time>2026-04-18T14:06:56.942Z</time></trkpt><trkpt lat="44.3331503" lon="10.7389219"><ele>607.0</ele><time>2026-04-18T14:06:57.941Z</time></trkpt><trkpt lat="44.3332335" lon="10.7390289"><ele>605.0</ele><time>2026-04-18T14:06:58.942Z</time></trkpt><trkpt lat="44.3333196" lon="10.7391453"><ele>603.0</ele><time>2026-04-18T14:06:59.942Z</time></trkpt><trkpt lat="44.3334059" lon="10.7392664"><ele>601.0</ele><time>2026-04-18T14:07:00.941Z</time></trkpt><trkpt lat="44.3334888" lon="10.7393879"><ele>600.8</ele><time>2026-04-18T14:07:01.941Z</time></trkpt><trkpt lat="44.3335671" lon="10.7395006"><ele>600.6</ele><time>2026-04-18T14:07:02.941Z</time></trkpt><trkpt lat="44.3336462" lon="10.7395971"><ele>600.4</ele><time>2026-04-18T14:07:03.941Z</time></trkpt><trkpt lat="44.3337289" lon="10.7396673"><ele>600.2</ele><time>2026-04-18T14:07:04.942Z</time></trkpt><trkpt lat="44.3338215" lon="10.7397009"><ele>600.0</ele><time>2026-04-18T14:07:05.941Z</time></trkpt><trkpt lat="44.3339168" lon="10.7396952"><ele>597.8</ele><time>2026-04-18T14:07:06.942Z</time></trkpt><trkpt lat="44.3340043" lon="10.7396492"><ele>595.6</ele><time>2026-04-18T14:07:07.941Z</time></trkpt><trkpt lat="44.3340762" lon="10.7395626"><ele>593.4</ele><time>2026-04-18T14:07:08.941Z</time></trkpt><trkpt lat="44.33412" lon="10.7394351"><ele>591.2</ele><time>2026-04-18T14:07:09.941Z</time></trkpt><trkpt lat="44.3341373" lon="10.7392773"><ele>589.0</ele><time>2026-04-18T14:07:10.942Z</time></trkpt><trkpt lat="44.3341416" lon="10.7391012"><ele>589.0</ele><time>2026-04-18T14:07:11.942Z</time></trkpt><trkpt lat="44.3341473" lon="10.7389257"><ele>589.0</ele><time>2026-04-18T14:07:12.942Z</time></trkpt><trkpt lat="44.3341518" lon="10.738754"><ele>589.0</ele><time>2026-04-18T14:07:13.942Z</time></trkpt><trkpt lat="44.3341559" lon="10.7385868"><ele>589.0</ele><time>2026-04-18T14:07:14.941Z</time></trkpt><trkpt lat="44.3341572" lon="10.7384243"><ele>588.6</ele><time>2026-04-18T14:07:15.942Z</time></trkpt><trkpt lat="44.3341542" lon="10.7382674"><ele>588.2</ele><time>2026-04-18T14:07:16.942Z</time></trkpt><trkpt lat="44.334152" lon="10.7381245"><ele>587.8000000000001</ele><time>2026-04-18T14:07:17.941Z</time></trkpt><trkpt lat="44.334149" lon="10.7379865"><ele>587.4</ele><time>2026-04-18T14:07:18.941Z</time></trkpt><trkpt lat="44.3341487" lon="10.7378533"><ele>587.0</ele><time>2026-04-18T14:07:19.941Z</time></trkpt><trkpt lat="44.3341543" lon="10.7377282"><ele>587.0</ele><time>2026-04-18T14:07:20.942Z</time></trkpt><trkpt lat="44.3341838" lon="10.7376175"><ele>587.0</ele><time>2026-04-18T14:07:21.942Z</time></trkpt><trkpt lat="44.3342394" lon="10.7375357"><ele>587.0</ele><time>2026-04-18T14:07:22.941Z</time></trkpt><trkpt lat="44.3343168" lon="10.7375158"><ele>587.0</ele><time>2026-04-18T14:07:23.941Z</time></trkpt><trkpt lat="44.3343874" lon="10.737557"><ele>587.0</ele><time>2026-04-18T14:07:24.941Z</time></trkpt><trkpt lat="44.3344567" lon="10.7376388"><ele>587.0</ele><time>2026-04-18T14:07:25.942Z</time></trkpt><trkpt lat="44.3345331" lon="10.7377489"><ele>587.0</ele><time>2026-04-18T14:07:26.941Z</time></trkpt><trkpt lat="44.3346124" lon="10.7378804"><ele>587.0</ele><time>2026-04-18T14:07:27.942Z</time></trkpt><trkpt lat="44.3346989" lon="10.738037"><ele>587.0</ele><time>2026-04-18T14:07:28.941Z</time></trkpt><trkpt lat="44.3347877" lon="10.7381954"><ele>587.0</ele><time>2026-04-18T14:07:29.942Z</time></trkpt><trkpt lat="44.3348693" lon="10.7383433"><ele>583.25</ele><time>2026-04-18T14:07:30.941Z</time></trkpt><trkpt lat="44.334939" lon="10.738479"><ele>579.5</ele><time>2026-04-18T14:07:31.941Z</time></trkpt><trkpt lat="44.3350069" lon="10.7386091"><ele>575.75</ele><time>2026-04-18T14:07:32.941Z</time></trkpt><trkpt lat="44.3350741" lon="10.7387505"><ele>572.0</ele><time>2026-04-18T14:07:33.941Z</time></trkpt><trkpt lat="44.3351424" lon="10.7389093"><ele>571.75</ele><time>2026-04-18T14:07:34.941Z</time></trkpt><trkpt lat="44.3351973" lon="10.7390773"><ele>571.5</ele><time>2026-04-18T14:07:35.941Z</time></trkpt><trkpt lat="44.3352356" lon="10.7392388"><ele>571.25</ele><time>2026-04-18T14:07:36.941Z</time></trkpt><trkpt lat="44.3352546" lon="10.7393757"><ele>571.0</ele><time>2026-04-18T14:07:37.942Z</time></trkpt><trkpt lat="44.3352483" lon="10.739511"><ele>570.0</ele><time>2026-04-18T14:07:38.942Z</time></trkpt><trkpt lat="44.3352062" lon="10.7396504"><ele>569.0</ele><time>2026-04-18T14:07:39.942Z</time></trkpt><trkpt lat="44.335145" lon="10.7397947"><ele>568.0</ele><time>2026-04-18T14:07:40.941Z</time></trkpt><trkpt lat="44.3350849" lon="10.7399465"><ele>567.0</ele><time>2026-04-18T14:07:41.942Z</time></trkpt><trkpt lat="44.3350318" lon="10.7400741"><ele>567.0</ele><time>2026-04-18T14:07:42.942Z</time></trkpt><trkpt lat="44.3349914" lon="10.7401966"><ele>567.0</ele><time>2026-04-18T14:07:43.941Z</time></trkpt><trkpt lat="44.3349854" lon="10.7403203"><ele>567.0</ele><time>2026-04-18T14:07:44.942Z</time></trkpt><trkpt lat="44.3350208" lon="10.7404213"><ele>567.0</ele><time>2026-04-18T14:07:45.941Z</time></trkpt><trkpt lat="44.3350819" lon="10.7404655"><ele>567.0</ele><time>2026-04-18T14:07:46.941Z</time></trkpt><trkpt lat="44.3351612" lon="10.7404674"><ele>567.0</ele><time>2026-04-18T14:07:47.941Z</time></trkpt><trkpt lat="44.3352592" lon="10.7404285"><ele>567.25</ele><time>2026-04-18T14:07:48.941Z</time></trkpt><trkpt lat="44.3353746" lon="10.7403681"><ele>567.5</ele><time>2026-04-18T14:07:49.942Z</time></trkpt><trkpt lat="44.3354909" lon="10.7403065"><ele>567.75</ele><time>2026-04-18T14:07:50.941Z</time></trkpt><trkpt lat="44.335606" lon="10.7402713"><ele>568.0</ele><time>2026-04-18T14:07:51.941Z</time></trkpt><trkpt lat="44.335722" lon="10.7402725"><ele>568.0</ele><time>2026-04-18T14:07:52.942Z</time></trkpt><trkpt lat="44.3358395" lon="10.74031"><ele>568.0</ele><time>2026-04-18T14:07:53.941Z</time></trkpt><trkpt lat="44.3359491" lon="10.7403754"><ele>568.0</ele><time>2026-04-18T14:07:54.941Z</time></trkpt><trkpt lat="44.3360423" lon="10.7404476"><ele>568.0</ele><time>2026-04-18T14:07:55.941Z</time></trkpt><trkpt lat="44.3361065" lon="10.7405087"><ele>568.0</ele><time>2026-04-18T14:07:56.941Z</time></trkpt><trkpt lat="44.3361809" lon="10.7406013"><ele>568.0</ele><time>2026-04-18T14:07:58.941Z</time></trkpt><trkpt lat="44.3362258" lon="10.7406673"><ele>568.0</ele><time>2026-04-18T14:08:01.941Z</time></trkpt><trkpt lat="44.33624" lon="10.7408294"><ele>568.0</ele><time>2026-04-18T14:08:09.942Z</time></trkpt><trkpt lat="44.3362257" lon="10.7409182"><ele>568.0</ele><time>2026-04-18T14:08:10.942Z</time></trkpt><trkpt lat="44.336208" lon="10.7410192"><ele>568.0</ele><time>2026-04-18T14:08:11.941Z</time></trkpt><trkpt lat="44.336188" lon="10.7411182"><ele>568.0</ele><time>2026-04-18T14:08:12.941Z</time></trkpt><trkpt lat="44.3361743" lon="10.7412337"><ele>569.1666666666667</ele><time>2026-04-18T14:08:13.941Z</time></trkpt><trkpt lat="44.3361692" lon="10.7413443"><ele>570.3333333333334</ele><time>2026-04-18T14:08:14.941Z</time></trkpt><trkpt lat="44.3361661" lon="10.7414542"><ele>571.5</ele><time>2026-04-18T14:08:15.941Z</time></trkpt><trkpt lat="44.3361621" lon="10.7415582"><ele>572.6666666666666</ele><time>2026-04-18T14:08:16.941Z</time></trkpt><trkpt lat="44.336148" lon="10.7416579"><ele>573.8333333333333</ele><time>2026-04-18T14:08:17.942Z</time></trkpt><trkpt lat="44.3361203" lon="10.741764"><ele>575.0</ele><time>2026-04-18T14:08:18.941Z</time></trkpt><trkpt lat="44.3361047" lon="10.7418744"><ele>576.6666666666666</ele><time>2026-04-18T14:08:19.942Z</time></trkpt><trkpt lat="44.3360933" lon="10.7419833"><ele>578.3333333333333</ele><time>2026-04-18T14:08:20.941Z</time></trkpt><trkpt lat="44.3360809" lon="10.7420805"><ele>580.0</ele><time>2026-04-18T14:08:21.941Z</time></trkpt><trkpt lat="44.336067" lon="10.7421766"><ele>581.6666666666666</ele><time>2026-04-18T14:08:22.942Z</time></trkpt><trkpt lat="44.3360429" lon="10.7423571"><ele>583.3333333333334</ele><time>2026-04-18T14:08:24.941Z</time></trkpt><trkpt lat="44.3360406" lon="10.7424664"><ele>585.0</ele><time>2026-04-18T14:08:25.942Z</time></trkpt><trkpt lat="44.336031" lon="10.7425698"><ele>585.0</ele><time>2026-04-18T14:08:26.941Z</time></trkpt><trkpt lat="44.3360258" lon="10.7426731"><ele>585.0</ele><time>2026-04-18T14:08:27.941Z</time></trkpt><trkpt lat="44.336021" lon="10.7427673"><ele>585.0</ele><time>2026-04-18T14:08:28.942Z</time></trkpt><trkpt lat="44.3360143" lon="10.7428565"><ele>585.0</ele><time>2026-04-18T14:08:29.942Z</time></trkpt><trkpt lat="44.3360048" lon="10.7430139"><ele>585.0</ele><time>2026-04-18T14:08:31.942Z</time></trkpt><trkpt lat="44.3360183" lon="10.7431641"><ele>585.0</ele><time>2026-04-18T14:08:33.941Z</time></trkpt><trkpt lat="44.3360926" lon="10.7432673"><ele>587.2</ele><time>2026-04-18T14:08:35.942Z</time></trkpt><trkpt lat="44.3361776" lon="10.7433628"><ele>589.4</ele><time>2026-04-18T14:08:37.941Z</time></trkpt><trkpt lat="44.3362753" lon="10.7434084"><ele>591.6</ele><time>2026-04-18T14:08:39.942Z</time></trkpt><trkpt lat="44.3363932" lon="10.7434138"><ele>593.8</ele><time>2026-04-18T14:08:41.941Z</time></trkpt><trkpt lat="44.336458" lon="10.7434267"><ele>596.0</ele><time>2026-04-18T14:08:42.942Z</time></trkpt><trkpt lat="44.3365747" lon="10.7434176"><ele>596.8</ele><time>2026-04-18T14:08:44.942Z</time></trkpt><trkpt lat="44.3366798" lon="10.7434226"><ele>597.6</ele><time>2026-04-18T14:08:46.941Z</time></trkpt><trkpt lat="44.3367837" lon="10.7434778"><ele>598.4</ele><time>2026-04-18T14:08:48.942Z</time></trkpt><trkpt lat="44.336885" lon="10.7435605"><ele>599.2</ele><time>2026-04-18T14:08:50.941Z</time></trkpt><trkpt lat="44.3369559" lon="10.7436271"><ele>600.0</ele><time>2026-04-18T14:08:51.942Z</time></trkpt><trkpt lat="44.3370015" lon="10.7436886"><ele>602.6666666666666</ele><time>2026-04-18T14:08:52.941Z</time></trkpt><trkpt lat="44.3370409" lon="10.7437575"><ele>605.3333333333334</ele><time>2026-04-18T14:08:53.942Z</time></trkpt><trkpt lat="44.3370996" lon="10.7439003"><ele>608.0</ele><time>2026-04-18T14:08:55.942Z</time></trkpt><trkpt lat="44.3371221" lon="10.7439832"><ele>610.6666666666667</ele><time>2026-04-18T14:08:56.942Z</time></trkpt><trkpt lat="44.3371508" lon="10.7440686"><ele>613.3333333333334</ele><time>2026-04-18T14:08:57.942Z</time></trkpt><trkpt lat="44.3371627" lon="10.7441599"><ele>616.0</ele><time>2026-04-18T14:08:58.942Z</time></trkpt><trkpt lat="44.3371172" lon="10.7442801"><ele>618.6</ele><time>2026-04-18T14:09:00.941Z</time></trkpt><trkpt lat="44.3370072" lon="10.7443842"><ele>621.2</ele><time>2026-04-18T14:09:02.941Z</time></trkpt><trkpt lat="44.3369522" lon="10.7444975"><ele>623.8</ele><time>2026-04-18T14:09:04.941Z</time></trkpt><trkpt lat="44.3369631" lon="10.7446421"><ele>626.4</ele><time>2026-04-18T14:09:06.942Z</time></trkpt><trkpt lat="44.3369909" lon="10.7447437"><ele>629.0</ele><time>2026-04-18T14:09:14.941Z</time></trkpt><trkpt lat="44.3370444" lon="10.7448535"><ele>629.0</ele><time>2026-04-18T14:09:16.941Z</time></trkpt><trkpt lat="44.3370734" lon="10.7449403"><ele>629.0</ele><time>2026-04-18T14:09:17.941Z</time></trkpt><trkpt lat="44.3371063" lon="10.7450291"><ele>629.0</ele><time>2026-04-18T14:09:18.942Z</time></trkpt><trkpt lat="44.3371367" lon="10.7451127"><ele>629.0</ele><time>2026-04-18T14:09:19.942Z</time></trkpt><trkpt lat="44.3371635" lon="10.7451961"><ele>629.0</ele><time>2026-04-18T14:09:20.941Z</time></trkpt><trkpt lat="44.3372056" lon="10.7453241"><ele>629.0</ele><time>2026-04-18T14:09:22.941Z</time></trkpt><trkpt lat="44.3372789" lon="10.7454646"><ele>629.0</ele><time>2026-04-18T14:09:24.941Z</time></trkpt><trkpt lat="44.3373228" lon="10.7455509"><ele>629.0</ele><time>2026-04-18T14:09:25.941Z</time></trkpt><trkpt lat="44.3373637" lon="10.7456336"><ele>629.0</ele><time>2026-04-18T14:09:26.942Z</time></trkpt><trkpt lat="44.337415" lon="10.745708"><ele>629.0</ele><time>2026-04-18T14:09:27.942Z</time></trkpt><trkpt lat="44.3374764" lon="10.7457748"><ele>629.0</ele><time>2026-04-18T14:09:28.941Z</time></trkpt><trkpt lat="44.3375374" lon="10.7458337"><ele>629.0</ele><time>2026-04-18T14:09:29.941Z</time></trkpt><trkpt lat="44.3375938" lon="10.7458845"><ele>629.0</ele><time>2026-04-18T14:09:30.941Z</time></trkpt><trkpt lat="44.3376449" lon="10.7459466"><ele>629.0</ele><time>2026-04-18T14:09:31.941Z</time></trkpt><trkpt lat="44.3377111" lon="10.7460092"><ele>629.0</ele><time>2026-04-18T14:09:32.941Z</time></trkpt><trkpt lat="44.3377657" lon="10.7460753"><ele>629.0</ele><time>2026-04-18T14:09:33.942Z</time></trkpt><trkpt lat="44.3378167" lon="10.7461412"><ele>629.0</ele><time>2026-04-18T14:09:34.941Z</time></trkpt><trkpt lat="44.3378687" lon="10.7462345"><ele>629.0</ele><time>2026-04-18T14:09:35.941Z</time></trkpt><trkpt lat="44.337914" lon="10.7463319"><ele>629.0</ele><time>2026-04-18T14:09:36.941Z</time></trkpt><trkpt lat="44.3379565" lon="10.7464302"><ele>627.6666666666666</ele><time>2026-04-18T14:09:37.941Z</time></trkpt><trkpt lat="44.3380127" lon="10.7465235"><ele>626.3333333333333</ele><time>2026-04-18T14:09:38.941Z</time></trkpt><trkpt lat="44.3380473" lon="10.7466254"><ele>625.0</ele><time>2026-04-18T14:09:39.941Z</time></trkpt><trkpt lat="44.3380846" lon="10.7467301"><ele>623.6666666666666</ele><time>2026-04-18T14:09:40.941Z</time></trkpt><trkpt lat="44.3381255" lon="10.7468225"><ele>622.3333333333334</ele><time>2026-04-18T14:09:41.941Z</time></trkpt><trkpt lat="44.3381642" lon="10.7469396"><ele>621.0</ele><time>2026-04-18T14:09:43.942Z</time></trkpt><trkpt lat="44.3382377" lon="10.7470855"><ele>624.5</ele><time>2026-04-18T14:09:45.942Z</time></trkpt><trkpt lat="44.3382941" lon="10.7471446"><ele>628.0</ele><time>2026-04-18T14:09:46.941Z</time></trkpt><trkpt lat="44.3383608" lon="10.7472044"><ele>631.5</ele><time>2026-04-18T14:09:47.942Z</time></trkpt><trkpt lat="44.3384395" lon="10.7472737"><ele>635.0</ele><time>2026-04-18T14:09:48.942Z</time></trkpt><trkpt lat="44.3385088" lon="10.7473288"><ele>638.5</ele><time>2026-04-18T14:09:49.941Z</time></trkpt><trkpt lat="44.3385848" lon="10.7473861"><ele>642.0</ele><time>2026-04-18T14:09:50.941Z</time></trkpt><trkpt lat="44.3386642" lon="10.7474446"><ele>642.0</ele><time>2026-04-18T14:09:51.942Z</time></trkpt><trkpt lat="44.3387412" lon="10.7474952"><ele>642.0</ele><time>2026-04-18T14:09:52.941Z</time></trkpt><trkpt lat="44.338813" lon="10.7475546"><ele>642.0</ele><time>2026-04-18T14:09:53.941Z</time></trkpt><trkpt lat="44.3388867" lon="10.7475999"><ele>642.0</ele><time>2026-04-18T14:09:54.941Z</time></trkpt><trkpt lat="44.3389627" lon="10.7476498"><ele>642.0</ele><time>2026-04-18T14:09:55.941Z</time></trkpt><trkpt lat="44.3390466" lon="10.7476894"><ele>642.0</ele><time>2026-04-18T14:09:56.941Z</time></trkpt><trkpt lat="44.3391184" lon="10.7477346"><ele>640.0</ele><time>2026-04-18T14:09:57.941Z</time></trkpt><trkpt lat="44.339217" lon="10.7478107"><ele>638.0</ele><time>2026-04-18T14:09:59.941Z</time></trkpt><trkpt lat="44.3392742" lon="10.7478614"><ele>636.0</ele><time>2026-04-18T14:10:01.941Z</time></trkpt><trkpt lat="44.3393171" lon="10.7479487"><ele>634.0</ele><time>2026-04-18T14:10:03.942Z</time></trkpt><trkpt lat="44.3393199" lon="10.7480878"><ele>632.0</ele><time>2026-04-18T14:10:05.942Z</time></trkpt><trkpt lat="44.3393417" lon="10.7482227"><ele>632.0</ele><time>2026-04-18T14:10:07.941Z</time></trkpt><trkpt lat="44.3393627" lon="10.7483519"><ele>632.0</ele><time>2026-04-18T14:10:09.941Z</time></trkpt><trkpt lat="44.3394074" lon="10.7484554"><ele>632.0</ele><time>2026-04-18T14:10:11.942Z</time></trkpt><trkpt lat="44.3394619" lon="10.7485337"><ele>632.0</ele><time>2026-04-18T14:10:13.942Z</time></trkpt><trkpt lat="44.3394841" lon="10.7486368"><ele>632.0</ele><time>2026-04-18T14:10:15.942Z</time></trkpt><trkpt lat="44.3394216" lon="10.7487398"><ele>632.0</ele><time>2026-04-18T14:10:17.942Z</time></trkpt><trkpt lat="44.3393568" lon="10.7488475"><ele>629.8000000000001</ele><time>2026-04-18T14:10:19.941Z</time></trkpt><trkpt lat="44.3392939" lon="10.7489854"><ele>627.6</ele><time>2026-04-18T14:10:21.941Z</time></trkpt><trkpt lat="44.339234" lon="10.749105"><ele>625.4000000000001</ele><time>2026-04-18T14:10:23.942Z</time></trkpt><trkpt lat="44.3392275" lon="10.7491982"><ele>623.2</ele><time>2026-04-18T14:10:25.941Z</time></trkpt><trkpt lat="44.3392632" lon="10.7492785"><ele>621.0</ele><time>2026-04-18T14:10:27.942Z</time></trkpt><trkpt lat="44.3393606" lon="10.7493498"><ele>621.2</ele><time>2026-04-18T14:10:29.941Z</time></trkpt><trkpt lat="44.3394274" lon="10.7494728"><ele>621.4000000000001</ele><time>2026-04-18T14:10:31.942Z</time></trkpt><trkpt lat="44.3394772" lon="10.7496325"><ele>621.6</ele><time>2026-04-18T14:10:33.941Z</time></trkpt><trkpt lat="44.3395024" lon="10.749715"><ele>621.8000000000001</ele><time>2026-04-18T14:10:34.942Z</time></trkpt><trkpt lat="44.3395573" lon="10.7498593"><ele>622.0</ele><time>2026-04-18T14:10:36.941Z</time></trkpt><trkpt lat="44.3395998" lon="10.7500105"><ele>622.0</ele><time>2026-04-18T14:10:38.941Z</time></trkpt><trkpt lat="44.3396394" lon="10.7501539"><ele>622.0</ele><time>2026-04-18T14:10:40.941Z</time></trkpt><trkpt lat="44.3397074" lon="10.7502809"><ele>622.0</ele><time>2026-04-18T14:10:42.941Z</time></trkpt><trkpt lat="44.3397944" lon="10.7503933"><ele>622.0</ele><time>2026-04-18T14:10:44.941Z</time></trkpt><trkpt lat="44.3398737" lon="10.7505302"><ele>624.1666666666667</ele><time>2026-04-18T14:10:46.941Z</time></trkpt><trkpt lat="44.3399139" lon="10.7506005"><ele>626.3333333333334</ele><time>2026-04-18T14:10:47.941Z</time></trkpt><trkpt lat="44.3399482" lon="10.7506769"><ele>628.5</ele><time>2026-04-18T14:10:48.941Z</time></trkpt><trkpt lat="44.3399904" lon="10.7508115"><ele>630.6666666666666</ele><time>2026-04-18T14:10:50.942Z</time></trkpt><trkpt lat="44.3400473" lon="10.7509571"><ele>632.8333333333333</ele><time>2026-04-18T14:10:52.942Z</time></trkpt><trkpt lat="44.3400823" lon="10.7510428"><ele>635.0</ele><time>2026-04-18T14:10:53.941Z</time></trkpt><trkpt lat="44.3401248" lon="10.7511394"><ele>638.4</ele><time>2026-04-18T14:10:54.941Z</time></trkpt><trkpt lat="44.3401728" lon="10.7512185"><ele>641.8</ele><time>2026-04-18T14:10:55.941Z</time></trkpt><trkpt lat="44.3402213" lon="10.7512928"><ele>645.2</ele><time>2026-04-18T14:10:56.941Z</time></trkpt><trkpt lat="44.3402674" lon="10.7513701"><ele>648.6</ele><time>2026-04-18T14:10:57.942Z</time></trkpt><trkpt lat="44.3403525" lon="10.7514924"><ele>652.0</ele><time>2026-04-18T14:10:59.942Z</time></trkpt><trkpt lat="44.3404469" lon="10.7515825"><ele>652.0</ele><time>2026-04-18T14:11:01.941Z</time></trkpt><trkpt lat="44.3404996" lon="10.7516318"><ele>652.0</ele><time>2026-04-18T14:11:02.942Z</time></trkpt><trkpt lat="44.3405465" lon="10.7516968"><ele>652.0</ele><time>2026-04-18T14:11:03.941Z</time></trkpt><trkpt lat="44.3405974" lon="10.7517775"><ele>652.0</ele><time>2026-04-18T14:11:04.941Z</time></trkpt><trkpt lat="44.3406554" lon="10.7518757"><ele>652.0</ele><time>2026-04-18T14:11:05.942Z</time></trkpt><trkpt lat="44.340711" lon="10.7519857"><ele>652.0</ele><time>2026-04-18T14:11:06.941Z</time></trkpt><trkpt lat="44.3407652" lon="10.7520956"><ele>651.5</ele><time>2026-04-18T14:11:07.941Z</time></trkpt><trkpt lat="44.3408259" lon="10.752208"><ele>651.0</ele><time>2026-04-18T14:11:08.941Z</time></trkpt><trkpt lat="44.3408819" lon="10.7523148"><ele>650.5</ele><time>2026-04-18T14:11:09.942Z</time></trkpt><trkpt lat="44.3409182" lon="10.7524118"><ele>650.0</ele><time>2026-04-18T14:11:10.941Z</time></trkpt><trkpt lat="44.3409345" lon="10.7525084"><ele>649.5</ele><time>2026-04-18T14:11:11.941Z</time></trkpt><trkpt lat="44.3409362" lon="10.7526052"><ele>649.0</ele><time>2026-04-18T14:11:12.941Z</time></trkpt><trkpt lat="44.3409333" lon="10.7526952"><ele>649.5</ele><time>2026-04-18T14:11:13.942Z</time></trkpt><trkpt lat="44.3409416" lon="10.7527873"><ele>650.0</ele><time>2026-04-18T14:11:14.941Z</time></trkpt><trkpt lat="44.3409709" lon="10.7529626"><ele>650.5</ele><time>2026-04-18T14:11:16.941Z</time></trkpt><trkpt lat="44.3409922" lon="10.7530561"><ele>651.0</ele><time>2026-04-18T14:11:17.941Z</time></trkpt><trkpt lat="44.341016" lon="10.7531523"><ele>651.5</ele><time>2026-04-18T14:11:18.941Z</time></trkpt><trkpt lat="44.3410423" lon="10.7532516"><ele>652.0</ele><time>2026-04-18T14:11:19.942Z</time></trkpt><trkpt lat="44.3410653" lon="10.7533536"><ele>652.0</ele><time>2026-04-18T14:11:20.942Z</time></trkpt><trkpt lat="44.3410765" lon="10.7534476"><ele>652.0</ele><time>2026-04-18T14:11:21.942Z</time></trkpt><trkpt lat="44.3410922" lon="10.7535486"><ele>652.0</ele><time>2026-04-18T14:11:22.942Z</time></trkpt><trkpt lat="44.341113" lon="10.7536624"><ele>652.0</ele><time>2026-04-18T14:11:23.941Z</time></trkpt><trkpt lat="44.3411442" lon="10.7537821"><ele>652.0</ele><time>2026-04-18T14:11:24.942Z</time></trkpt><trkpt lat="44.3411852" lon="10.7539046"><ele>652.0</ele><time>2026-04-18T14:11:25.941Z</time></trkpt><trkpt lat="44.3412284" lon="10.7540363"><ele>651.4000000000001</ele><time>2026-04-18T14:11:26.942Z</time></trkpt><trkpt lat="44.3412702" lon="10.7541706"><ele>650.8000000000001</ele><time>2026-04-18T14:11:27.941Z</time></trkpt><trkpt lat="44.3413" lon="10.7543038"><ele>650.2</ele><time>2026-04-18T14:11:28.942Z</time></trkpt><trkpt lat="44.3413312" lon="10.7544336"><ele>649.6</ele><time>2026-04-18T14:11:29.941Z</time></trkpt><trkpt lat="44.3413682" lon="10.7545655"><ele>649.0</ele><time>2026-04-18T14:11:30.942Z</time></trkpt><trkpt lat="44.3414076" lon="10.7546972"><ele>649.0</ele><time>2026-04-18T14:11:31.941Z</time></trkpt><trkpt lat="44.3414407" lon="10.7548298"><ele>649.0</ele><time>2026-04-18T14:11:32.942Z</time></trkpt><trkpt lat="44.3414652" lon="10.7549708"><ele>649.0</ele><time>2026-04-18T14:11:33.941Z</time></trkpt><trkpt lat="44.3414844" lon="10.7551165"><ele>649.0</ele><time>2026-04-18T14:11:34.942Z</time></trkpt><trkpt lat="44.341506" lon="10.7552713"><ele>649.0</ele><time>2026-04-18T14:11:35.942Z</time></trkpt><trkpt lat="44.3415368" lon="10.7554397"><ele>652.4000000000001</ele><time>2026-04-18T14:11:36.942Z</time></trkpt><trkpt lat="44.3415623" lon="10.7555933"><ele>655.8</ele><time>2026-04-18T14:11:37.942Z</time></trkpt><trkpt lat="44.3415799" lon="10.7557443"><ele>659.2</ele><time>2026-04-18T14:11:38.941Z</time></trkpt><trkpt lat="44.3415822" lon="10.7558909"><ele>662.5999999999999</ele><time>2026-04-18T14:11:39.941Z</time></trkpt><trkpt lat="44.3415795" lon="10.7560255"><ele>666.0</ele><time>2026-04-18T14:11:40.942Z</time></trkpt><trkpt lat="44.3415567" lon="10.756164"><ele>668.1999999999999</ele><time>2026-04-18T14:11:41.942Z</time></trkpt><trkpt lat="44.3415429" lon="10.7563086"><ele>670.4</ele><time>2026-04-18T14:11:42.942Z</time></trkpt><trkpt lat="44.3415483" lon="10.7564416"><ele>672.6</ele><time>2026-04-18T14:11:43.941Z</time></trkpt><trkpt lat="44.341576" lon="10.7565599"><ele>674.8</ele><time>2026-04-18T14:11:44.942Z</time></trkpt><trkpt lat="44.3416231" lon="10.7566679"><ele>677.0</ele><time>2026-04-18T14:11:45.941Z</time></trkpt><trkpt lat="44.3416772" lon="10.7567728"><ele>680.0</ele><time>2026-04-18T14:11:46.941Z</time></trkpt><trkpt lat="44.3417342" lon="10.7568864"><ele>683.0</ele><time>2026-04-18T14:11:47.941Z</time></trkpt><trkpt lat="44.3417976" lon="10.7569981"><ele>686.0</ele><time>2026-04-18T14:11:48.942Z</time></trkpt><trkpt lat="44.3418657" lon="10.7571105"><ele>689.0</ele><time>2026-04-18T14:11:49.941Z</time></trkpt><trkpt lat="44.3419333" lon="10.7572218"><ele>692.0</ele><time>2026-04-18T14:11:50.941Z</time></trkpt><trkpt lat="44.3419895" lon="10.7573361"><ele>692.0</ele><time>2026-04-18T14:11:51.941Z</time></trkpt><trkpt lat="44.3420349" lon="10.7574593"><ele>692.0</ele><time>2026-04-18T14:11:52.941Z</time></trkpt><trkpt lat="44.3420727" lon="10.7575913"><ele>692.0</ele><time>2026-04-18T14:11:53.942Z</time></trkpt><trkpt lat="44.3421131" lon="10.7577224"><ele>692.0</ele><time>2026-04-18T14:11:54.941Z</time></trkpt><trkpt lat="44.3421641" lon="10.7578504"><ele>692.0</ele><time>2026-04-18T14:11:55.941Z</time></trkpt><trkpt lat="44.3422163" lon="10.7579728"><ele>691.6666666666666</ele><time>2026-04-18T14:11:56.942Z</time></trkpt><trkpt lat="44.342249" lon="10.7580765"><ele>691.3333333333333</ele><time>2026-04-18T14:11:57.942Z</time></trkpt><trkpt lat="44.3422576" lon="10.7581812"><ele>691.0</ele><time>2026-04-18T14:11:58.941Z</time></trkpt><trkpt lat="44.3422541" lon="10.758297"><ele>690.6666666666666</ele><time>2026-04-18T14:11:59.941Z</time></trkpt><trkpt lat="44.3422456" lon="10.7584141"><ele>690.3333333333334</ele><time>2026-04-18T14:12:00.941Z</time></trkpt><trkpt lat="44.3422265" lon="10.7585001"><ele>690.0</ele><time>2026-04-18T14:12:01.942Z</time></trkpt><trkpt lat="44.3422099" lon="10.758594"><ele>692.4</ele><time>2026-04-18T14:12:02.941Z</time></trkpt><trkpt lat="44.3421661" lon="10.758706"><ele>694.8</ele><time>2026-04-18T14:12:03.941Z</time></trkpt><trkpt lat="44.3421163" lon="10.7588239"><ele>697.2</ele><time>2026-04-18T14:12:04.941Z</time></trkpt><trkpt lat="44.3420533" lon="10.7589431"><ele>699.6</ele><time>2026-04-18T14:12:05.941Z</time></trkpt><trkpt lat="44.3419805" lon="10.759063"><ele>702.0</ele><time>2026-04-18T14:12:06.941Z</time></trkpt><trkpt lat="44.3419041" lon="10.7591783"><ele>702.0</ele><time>2026-04-18T14:12:07.941Z</time></trkpt><trkpt lat="44.3418429" lon="10.7592902"><ele>702.0</ele><time>2026-04-18T14:12:08.941Z</time></trkpt><trkpt lat="44.3417975" lon="10.7594114"><ele>702.0</ele><time>2026-04-18T14:12:09.942Z</time></trkpt><trkpt lat="44.3417499" lon="10.7595347"><ele>702.0</ele><time>2026-04-18T14:12:10.941Z</time></trkpt><trkpt lat="44.3417008" lon="10.7596597"><ele>702.0</ele><time>2026-04-18T14:12:11.942Z</time></trkpt><trkpt lat="44.3416532" lon="10.7598014"><ele>699.0</ele><time>2026-04-18T14:12:12.941Z</time></trkpt><trkpt lat="44.3416164" lon="10.7599458"><ele>696.0</ele><time>2026-04-18T14:12:13.941Z</time></trkpt><trkpt lat="44.341593" lon="10.7600925"><ele>693.0</ele><time>2026-04-18T14:12:14.942Z</time></trkpt><trkpt lat="44.3415791" lon="10.7602395"><ele>690.0</ele><time>2026-04-18T14:12:15.941Z</time></trkpt><trkpt lat="44.3415746" lon="10.7603887"><ele>687.0</ele><time>2026-04-18T14:12:16.941Z</time></trkpt><trkpt lat="44.3415639" lon="10.7605446"><ele>685.6</ele><time>2026-04-18T14:12:17.941Z</time></trkpt><trkpt lat="44.3415548" lon="10.7606985"><ele>684.2</ele><time>2026-04-18T14:12:18.942Z</time></trkpt><trkpt lat="44.3415303" lon="10.7608351"><ele>682.8</ele><time>2026-04-18T14:12:19.942Z</time></trkpt><trkpt lat="44.3414868" lon="10.7609674"><ele>681.4</ele><time>2026-04-18T14:12:20.942Z</time></trkpt><trkpt lat="44.3414219" lon="10.7611036"><ele>680.0</ele><time>2026-04-18T14:12:21.941Z</time></trkpt><trkpt lat="44.3413531" lon="10.7612362"><ele>684.75</ele><time>2026-04-18T14:12:22.941Z</time></trkpt><trkpt lat="44.3412918" lon="10.7613758"><ele>689.5</ele><time>2026-04-18T14:12:23.942Z</time></trkpt><trkpt lat="44.3412389" lon="10.7615328"><ele>694.25</ele><time>2026-04-18T14:12:24.942Z</time></trkpt><trkpt lat="44.3411839" lon="10.7616779"><ele>699.0</ele><time>2026-04-18T14:12:25.942Z</time></trkpt><trkpt lat="44.3411323" lon="10.7618049"><ele>698.8000000000001</ele><time>2026-04-18T14:12:26.942Z</time></trkpt><trkpt lat="44.3410954" lon="10.7619166"><ele>698.6</ele><time>2026-04-18T14:12:27.941Z</time></trkpt><trkpt lat="44.3410629" lon="10.7620374"><ele>698.4</ele><time>2026-04-18T14:12:28.941Z</time></trkpt><trkpt lat="44.3410816" lon="10.7621665"><ele>698.2</ele><time>2026-04-18T14:12:29.942Z</time></trkpt><trkpt lat="44.3410955" lon="10.7622994"><ele>698.0</ele><time>2026-04-18T14:12:30.941Z</time></trkpt><trkpt lat="44.3411062" lon="10.7624095"><ele>698.0</ele><time>2026-04-18T14:12:31.941Z</time></trkpt><trkpt lat="44.3411136" lon="10.7625202"><ele>698.0</ele><time>2026-04-18T14:12:32.942Z</time></trkpt><trkpt lat="44.3411178" lon="10.7626256"><ele>698.0</ele><time>2026-04-18T14:12:33.942Z</time></trkpt><trkpt lat="44.3411253" lon="10.762733"><ele>698.0</ele><time>2026-04-18T14:12:34.941Z</time></trkpt><trkpt lat="44.3411412" lon="10.7628481"><ele>698.0</ele><time>2026-04-18T14:12:35.942Z</time></trkpt><trkpt lat="44.3411774" lon="10.762972"><ele>698.0</ele><time>2026-04-18T14:12:36.941Z</time></trkpt><trkpt lat="44.341228" lon="10.7631041"><ele>696.8</ele><time>2026-04-18T14:12:37.941Z</time></trkpt><trkpt lat="44.3412861" lon="10.7632309"><ele>695.5999999999999</ele><time>2026-04-18T14:12:38.942Z</time></trkpt><trkpt lat="44.3413512" lon="10.7633456"><ele>694.4000000000001</ele><time>2026-04-18T14:12:39.941Z</time></trkpt><trkpt lat="44.3414429" lon="10.7634266"><ele>693.2</ele><time>2026-04-18T14:12:40.942Z</time></trkpt><trkpt lat="44.3415478" lon="10.7634942"><ele>692.0</ele><time>2026-04-18T14:12:41.942Z</time></trkpt><trkpt lat="44.3416592" lon="10.7635488"><ele>692.0</ele><time>2026-04-18T14:12:42.942Z</time></trkpt><trkpt lat="44.3417674" lon="10.7636074"><ele>692.0</ele><time>2026-04-18T14:12:43.941Z</time></trkpt><trkpt lat="44.3418632" lon="10.763656"><ele>692.0</ele><time>2026-04-18T14:12:44.941Z</time></trkpt><trkpt lat="44.3419552" lon="10.7637048"><ele>692.0</ele><time>2026-04-18T14:12:45.941Z</time></trkpt><trkpt lat="44.3420341" lon="10.7637615"><ele>692.0</ele><time>2026-04-18T14:12:46.942Z</time></trkpt><trkpt lat="44.3421117" lon="10.7638463"><ele>692.0</ele><time>2026-04-18T14:12:47.942Z</time></trkpt><trkpt lat="44.3421727" lon="10.7639489"><ele>692.0</ele><time>2026-04-18T14:12:48.942Z</time></trkpt><trkpt lat="44.3422346" lon="10.7640677"><ele>692.0</ele><time>2026-04-18T14:12:49.942Z</time></trkpt><trkpt lat="44.3423178" lon="10.764176"><ele>692.0</ele><time>2026-04-18T14:12:50.941Z</time></trkpt><trkpt lat="44.3424166" lon="10.7642504"><ele>692.0</ele><time>2026-04-18T14:12:51.942Z</time></trkpt><trkpt lat="44.3425295" lon="10.764315"><ele>689.0</ele><time>2026-04-18T14:12:52.942Z</time></trkpt><trkpt lat="44.3426486" lon="10.7643579"><ele>686.0</ele><time>2026-04-18T14:12:53.941Z</time></trkpt><trkpt lat="44.342763" lon="10.7644107"><ele>683.0</ele><time>2026-04-18T14:12:54.941Z</time></trkpt><trkpt lat="44.3428688" lon="10.7644737"><ele>680.0</ele><time>2026-04-18T14:12:55.941Z</time></trkpt><trkpt lat="44.3429659" lon="10.7645438"><ele>681.8</ele><time>2026-04-18T14:12:56.942Z</time></trkpt><trkpt lat="44.3430545" lon="10.7646227"><ele>683.6</ele><time>2026-04-18T14:12:57.941Z</time></trkpt><trkpt lat="44.3431368" lon="10.7647142"><ele>685.4000000000001</ele><time>2026-04-18T14:12:58.942Z</time></trkpt><trkpt lat="44.3432025" lon="10.7648207"><ele>687.2</ele><time>2026-04-18T14:12:59.941Z</time></trkpt><trkpt lat="44.3432651" lon="10.7649317"><ele>689.0</ele><time>2026-04-18T14:13:00.941Z</time></trkpt><trkpt lat="44.3433042" lon="10.7650605"><ele>692.6</ele><time>2026-04-18T14:13:01.942Z</time></trkpt><trkpt lat="44.3433485" lon="10.7651959"><ele>696.2</ele><time>2026-04-18T14:13:02.941Z</time></trkpt><trkpt lat="44.3433996" lon="10.765325"><ele>699.8000000000001</ele><time>2026-04-18T14:13:03.942Z</time></trkpt><trkpt lat="44.3434681" lon="10.7654283"><ele>703.4000000000001</ele><time>2026-04-18T14:13:04.941Z</time></trkpt><trkpt lat="44.3435348" lon="10.7655232"><ele>707.0</ele><time>2026-04-18T14:13:05.941Z</time></trkpt><trkpt lat="44.3435917" lon="10.7656333"><ele>707.0</ele><time>2026-04-18T14:13:06.941Z</time></trkpt><trkpt lat="44.3436417" lon="10.7657674"><ele>707.0</ele><time>2026-04-18T14:13:07.942Z</time></trkpt><trkpt lat="44.3436974" lon="10.765891"><ele>707.0</ele><time>2026-04-18T14:13:08.942Z</time></trkpt><trkpt lat="44.3437682" lon="10.7659943"><ele>707.0</ele><time>2026-04-18T14:13:09.941Z</time></trkpt><trkpt lat="44.3438559" lon="10.7660662"><ele>707.0</ele><time>2026-04-18T14:13:10.941Z</time></trkpt><trkpt lat="44.3439589" lon="10.7661139"><ele>709.25</ele><time>2026-04-18T14:13:11.941Z</time></trkpt><trkpt lat="44.3440731" lon="10.7661488"><ele>711.5</ele><time>2026-04-18T14:13:12.941Z</time></trkpt><trkpt lat="44.3441826" lon="10.7661733"><ele>713.75</ele><time>2026-04-18T14:13:13.941Z</time></trkpt><trkpt lat="44.3442957" lon="10.766192"><ele>716.0</ele><time>2026-04-18T14:13:14.942Z</time></trkpt><trkpt lat="44.3444097" lon="10.7662053"><ele>716.0</ele><time>2026-04-18T14:13:15.941Z</time></trkpt><trkpt lat="44.3445196" lon="10.7662278"><ele>716.0</ele><time>2026-04-18T14:13:16.941Z</time></trkpt><trkpt lat="44.3446301" lon="10.7662591"><ele>716.0</ele><time>2026-04-18T14:13:17.942Z</time></trkpt><trkpt lat="44.3447256" lon="10.7663006"><ele>716.0</ele><time>2026-04-18T14:13:18.941Z</time></trkpt><trkpt lat="44.3448213" lon="10.7663616"><ele>716.0</ele><time>2026-04-18T14:13:19.941Z</time></trkpt><trkpt lat="44.3449178" lon="10.7664437"><ele>717.25</ele><time>2026-04-18T14:13:20.941Z</time></trkpt><trkpt lat="44.3450175" lon="10.7665328"><ele>718.5</ele><time>2026-04-18T14:13:21.942Z</time></trkpt><trkpt lat="44.3451183" lon="10.7666165"><ele>719.75</ele><time>2026-04-18T14:13:22.941Z</time></trkpt><trkpt lat="44.3452228" lon="10.766701"><ele>721.0</ele><time>2026-04-18T14:13:23.941Z</time></trkpt><trkpt lat="44.3453151" lon="10.766791"><ele>722.8333333333334</ele><time>2026-04-18T14:13:24.942Z</time></trkpt><trkpt lat="44.3454023" lon="10.7668688"><ele>724.6666666666667</ele><time>2026-04-18T14:13:25.942Z</time></trkpt><trkpt lat="44.3454896" lon="10.7669254"><ele>726.5</ele><time>2026-04-18T14:13:26.942Z</time></trkpt><trkpt lat="44.3455719" lon="10.7669754"><ele>728.3333333333334</ele><time>2026-04-18T14:13:27.941Z</time></trkpt><trkpt lat="44.3456521" lon="10.7670183"><ele>730.1666666666666</ele><time>2026-04-18T14:13:28.941Z</time></trkpt><trkpt lat="44.3457232" lon="10.7670454"><ele>732.0</ele><time>2026-04-18T14:13:29.942Z</time></trkpt><trkpt lat="44.3457943" lon="10.7670729"><ele>732.0</ele><time>2026-04-18T14:13:30.941Z</time></trkpt><trkpt lat="44.3458665" lon="10.7671"><ele>732.0</ele><time>2026-04-18T14:13:31.942Z</time></trkpt><trkpt lat="44.3459401" lon="10.7671225"><ele>732.0</ele><time>2026-04-18T14:13:32.942Z</time></trkpt><trkpt lat="44.3460067" lon="10.7671571"><ele>732.0</ele><time>2026-04-18T14:13:33.941Z</time></trkpt><trkpt lat="44.346076" lon="10.7671993"><ele>732.0</ele><time>2026-04-18T14:13:34.942Z</time></trkpt><trkpt lat="44.346097" lon="10.7673338"><ele>732.0</ele><time>2026-04-18T14:13:36.941Z</time></trkpt><trkpt lat="44.3460738" lon="10.7674624"><ele>732.0</ele><time>2026-04-18T14:13:38.941Z</time></trkpt><trkpt lat="44.3460396" lon="10.7675862"><ele>732.0</ele><time>2026-04-18T14:13:40.942Z</time></trkpt><trkpt lat="44.3460421" lon="10.7677394"><ele>732.0</ele><time>2026-04-18T14:13:42.941Z</time></trkpt><trkpt lat="44.3460419" lon="10.7679196"><ele>732.0</ele><time>2026-04-18T14:13:44.942Z</time></trkpt><trkpt lat="44.3460337" lon="10.7680224"><ele>732.0</ele><time>2026-04-18T14:13:45.942Z</time></trkpt><trkpt lat="44.3460355" lon="10.7681406"><ele>731.8</ele><time>2026-04-18T14:13:46.942Z</time></trkpt><trkpt lat="44.3460543" lon="10.7682643"><ele>731.6</ele><time>2026-04-18T14:13:47.941Z</time></trkpt><trkpt lat="44.3460758" lon="10.7683916"><ele>731.4</ele><time>2026-04-18T14:13:48.941Z</time></trkpt><trkpt lat="44.3460854" lon="10.7685272"><ele>731.1999999999999</ele><time>2026-04-18T14:13:49.941Z</time></trkpt><trkpt lat="44.3460846" lon="10.7686639"><ele>731.0</ele><time>2026-04-18T14:13:50.941Z</time></trkpt><trkpt lat="44.3460807" lon="10.7688006"><ele>729.3333333333333</ele><time>2026-04-18T14:13:51.942Z</time></trkpt><trkpt lat="44.346081" lon="10.7689225"><ele>727.6666666666666</ele><time>2026-04-18T14:13:52.941Z</time></trkpt><trkpt lat="44.3460861" lon="10.7690329"><ele>726.0</ele><time>2026-04-18T14:13:53.942Z</time></trkpt><trkpt lat="44.3461089" lon="10.76913"><ele>724.3333333333334</ele><time>2026-04-18T14:13:54.941Z</time></trkpt><trkpt lat="44.3461506" lon="10.7692052"><ele>722.6666666666667</ele><time>2026-04-18T14:13:55.942Z</time></trkpt><trkpt lat="44.3462225" lon="10.7692408"><ele>721.0</ele><time>2026-04-18T14:13:56.941Z</time></trkpt><trkpt lat="44.3463084" lon="10.7692453"><ele>719.3333333333334</ele><time>2026-04-18T14:13:57.942Z</time></trkpt><trkpt lat="44.3463955" lon="10.769235"><ele>717.6666666666667</ele><time>2026-04-18T14:13:58.941Z</time></trkpt><trkpt lat="44.3464725" lon="10.7692419"><ele>716.0</ele><time>2026-04-18T14:13:59.941Z</time></trkpt><trkpt lat="44.3465347" lon="10.7692901"><ele>714.3333333333334</ele><time>2026-04-18T14:14:00.941Z</time></trkpt><trkpt lat="44.3465824" lon="10.7693805"><ele>712.6666666666666</ele><time>2026-04-18T14:14:01.941Z</time></trkpt><trkpt lat="44.3466199" lon="10.7694952"><ele>711.0</ele><time>2026-04-18T14:14:02.941Z</time></trkpt><trkpt lat="44.3466686" lon="10.769634"><ele>709.25</ele><time>2026-04-18T14:14:03.942Z</time></trkpt><trkpt lat="44.3467213" lon="10.7697839"><ele>707.5</ele><time>2026-04-18T14:14:04.941Z</time></trkpt><trkpt lat="44.3467755" lon="10.7699335"><ele>705.75</ele><time>2026-04-18T14:14:05.942Z</time></trkpt><trkpt lat="44.3468264" lon="10.7700806"><ele>704.0</ele><time>2026-04-18T14:14:06.941Z</time></trkpt><trkpt lat="44.346877" lon="10.77022"><ele>702.25</ele><time>2026-04-18T14:14:07.941Z</time></trkpt><trkpt lat="44.3469329" lon="10.7703582"><ele>700.5</ele><time>2026-04-18T14:14:08.942Z</time></trkpt><trkpt lat="44.3470033" lon="10.7704993"><ele>698.75</ele><time>2026-04-18T14:14:09.942Z</time></trkpt><trkpt lat="44.34707" lon="10.7706365"><ele>697.0</ele><time>2026-04-18T14:14:10.942Z</time></trkpt><trkpt lat="44.3471339" lon="10.7707693"><ele>697.0</ele><time>2026-04-18T14:14:11.942Z</time></trkpt><trkpt lat="44.3471961" lon="10.7708989"><ele>697.0</ele><time>2026-04-18T14:14:12.941Z</time></trkpt><trkpt lat="44.3472503" lon="10.7710323"><ele>697.0</ele><time>2026-04-18T14:14:13.941Z</time></trkpt><trkpt lat="44.3472828" lon="10.771181"><ele>697.0</ele><time>2026-04-18T14:14:14.942Z</time></trkpt><trkpt lat="44.3472924" lon="10.7713312"><ele>697.0</ele><time>2026-04-18T14:14:15.941Z</time></trkpt><trkpt lat="44.3472822" lon="10.7714863"><ele>695.6</ele><time>2026-04-18T14:14:16.942Z</time></trkpt><trkpt lat="44.3472429" lon="10.7716494"><ele>694.2</ele><time>2026-04-18T14:14:17.941Z</time></trkpt><trkpt lat="44.3471917" lon="10.771788"><ele>692.8</ele><time>2026-04-18T14:14:18.941Z</time></trkpt><trkpt lat="44.3471473" lon="10.7719142"><ele>691.4</ele><time>2026-04-18T14:14:19.941Z</time></trkpt><trkpt lat="44.3471158" lon="10.7720236"><ele>690.0</ele><time>2026-04-18T14:14:20.941Z</time></trkpt><trkpt lat="44.3471044" lon="10.7721237"><ele>689.1666666666666</ele><time>2026-04-18T14:14:21.942Z</time></trkpt><trkpt lat="44.3471163" lon="10.7722158"><ele>688.3333333333334</ele><time>2026-04-18T14:14:22.942Z</time></trkpt><trkpt lat="44.3471618" lon="10.7722918"><ele>687.5</ele><time>2026-04-18T14:14:23.942Z</time></trkpt><trkpt lat="44.3472247" lon="10.772363"><ele>686.6666666666667</ele><time>2026-04-18T14:14:24.942Z</time></trkpt><trkpt lat="44.3473163" lon="10.772428"><ele>685.8333333333334</ele><time>2026-04-18T14:14:25.941Z</time></trkpt><trkpt lat="44.3474245" lon="10.772498"><ele>685.0</ele><time>2026-04-18T14:14:26.941Z</time></trkpt><trkpt lat="44.3475322" lon="10.7725545"><ele>682.3333333333334</ele><time>2026-04-18T14:14:27.941Z</time></trkpt><trkpt lat="44.3476372" lon="10.7725958"><ele>679.6666666666667</ele><time>2026-04-18T14:14:28.941Z</time></trkpt><trkpt lat="44.3477286" lon="10.7726182"><ele>677.0</ele><time>2026-04-18T14:14:29.941Z</time></trkpt><trkpt lat="44.3478067" lon="10.7726509"><ele>674.3333333333334</ele><time>2026-04-18T14:14:30.942Z</time></trkpt><trkpt lat="44.3478684" lon="10.7727165"><ele>671.6666666666666</ele><time>2026-04-18T14:14:31.942Z</time></trkpt><trkpt lat="44.3478987" lon="10.7728035"><ele>669.0</ele><time>2026-04-18T14:14:32.942Z</time></trkpt><trkpt lat="44.3478914" lon="10.7729077"><ele>667.8000000000001</ele><time>2026-04-18T14:14:33.942Z</time></trkpt><trkpt lat="44.3478503" lon="10.7730128"><ele>666.6</ele><time>2026-04-18T14:14:34.942Z</time></trkpt><trkpt lat="44.3477788" lon="10.7731289"><ele>665.4</ele><time>2026-04-18T14:14:35.941Z</time></trkpt><trkpt lat="44.3477006" lon="10.773265"><ele>664.2</ele><time>2026-04-18T14:14:36.942Z</time></trkpt><trkpt lat="44.3476428" lon="10.7734146"><ele>663.0</ele><time>2026-04-18T14:14:37.942Z</time></trkpt><trkpt lat="44.3476043" lon="10.7735686"><ele>661.5999999999999</ele><time>2026-04-18T14:14:38.941Z</time></trkpt><trkpt lat="44.3475721" lon="10.7737143"><ele>660.1999999999999</ele><time>2026-04-18T14:14:39.941Z</time></trkpt><trkpt lat="44.3475613" lon="10.7738587"><ele>658.8</ele><time>2026-04-18T14:14:40.942Z</time></trkpt><trkpt lat="44.3475726" lon="10.7740085"><ele>657.4</ele><time>2026-04-18T14:14:41.941Z</time></trkpt><trkpt lat="44.3475999" lon="10.7741638"><ele>656.0</ele><time>2026-04-18T14:14:42.941Z</time></trkpt><trkpt lat="44.3476282" lon="10.7743265"><ele>654.1999999999999</ele><time>2026-04-18T14:14:43.941Z</time></trkpt><trkpt lat="44.3476556" lon="10.7744785"><ele>652.4</ele><time>2026-04-18T14:14:44.941Z</time></trkpt><trkpt lat="44.3476794" lon="10.7746258"><ele>650.6</ele><time>2026-04-18T14:14:45.942Z</time></trkpt><trkpt lat="44.3476955" lon="10.7747754"><ele>648.8</ele><time>2026-04-18T14:14:46.941Z</time></trkpt><trkpt lat="44.3476977" lon="10.7749326"><ele>647.0</ele><time>2026-04-18T14:14:47.942Z</time></trkpt><trkpt lat="44.3476765" lon="10.775092"><ele>645.8</ele><time>2026-04-18T14:14:48.941Z</time></trkpt><trkpt lat="44.3476453" lon="10.7752411"><ele>644.6</ele><time>2026-04-18T14:14:49.941Z</time></trkpt><trkpt lat="44.3476088" lon="10.7753987"><ele>643.4</ele><time>2026-04-18T14:14:50.941Z</time></trkpt><trkpt lat="44.3475651" lon="10.7755501"><ele>642.1999999999999</ele><time>2026-04-18T14:14:51.941Z</time></trkpt><trkpt lat="44.3475197" lon="10.7756796"><ele>641.0</ele><time>2026-04-18T14:14:52.941Z</time></trkpt><trkpt lat="44.3474805" lon="10.7757906"><ele>641.0</ele><time>2026-04-18T14:14:53.942Z</time></trkpt><trkpt lat="44.3474597" lon="10.7759045"><ele>641.0</ele><time>2026-04-18T14:14:54.942Z</time></trkpt><trkpt lat="44.3474683" lon="10.7760288"><ele>641.0</ele><time>2026-04-18T14:14:55.941Z</time></trkpt><trkpt lat="44.3474932" lon="10.7761604"><ele>641.0</ele><time>2026-04-18T14:14:56.941Z</time></trkpt><trkpt lat="44.3475268" lon="10.7762881"><ele>641.0</ele><time>2026-04-18T14:14:57.942Z</time></trkpt><trkpt lat="44.3475651" lon="10.7764081"><ele>640.5</ele><time>2026-04-18T14:14:58.941Z</time></trkpt><trkpt lat="44.347613" lon="10.7765182"><ele>640.0</ele><time>2026-04-18T14:14:59.941Z</time></trkpt><trkpt lat="44.347664" lon="10.7766194"><ele>639.5</ele><time>2026-04-18T14:15:00.942Z</time></trkpt><trkpt lat="44.3477202" lon="10.7767194"><ele>639.0</ele><time>2026-04-18T14:15:01.942Z</time></trkpt><trkpt lat="44.3477608" lon="10.7768288"><ele>638.5</ele><time>2026-04-18T14:15:02.941Z</time></trkpt><trkpt lat="44.3477866" lon="10.7769312"><ele>638.0</ele><time>2026-04-18T14:15:03.942Z</time></trkpt><trkpt lat="44.3477948" lon="10.7770465"><ele>636.8333333333333</ele><time>2026-04-18T14:15:05.941Z</time></trkpt><trkpt lat="44.3477921" lon="10.7771387"><ele>635.6666666666666</ele><time>2026-04-18T14:15:09.942Z</time></trkpt><trkpt lat="44.3478201" lon="10.7772285"><ele>634.5</ele><time>2026-04-18T14:15:13.942Z</time></trkpt><trkpt lat="44.3479065" lon="10.7773341"><ele>633.3333333333334</ele><time>2026-04-18T14:15:15.941Z</time></trkpt><trkpt lat="44.3479861" lon="10.7773815"><ele>632.1666666666667</ele><time>2026-04-18T14:15:16.942Z</time></trkpt><trkpt lat="44.3480625" lon="10.7774136"><ele>631.0</ele><time>2026-04-18T14:15:17.942Z</time></trkpt><trkpt lat="44.3481443" lon="10.7774414"><ele>629.8</ele><time>2026-04-18T14:15:18.941Z</time></trkpt><trkpt lat="44.3482254" lon="10.7774687"><ele>628.6</ele><time>2026-04-18T14:15:19.941Z</time></trkpt><trkpt lat="44.348317" lon="10.7775251"><ele>627.4</ele><time>2026-04-18T14:15:20.941Z</time></trkpt><trkpt lat="44.348403" lon="10.7775871"><ele>626.2</ele><time>2026-04-18T14:15:21.942Z</time></trkpt><trkpt lat="44.3484923" lon="10.7776552"><ele>625.0</ele><time>2026-04-18T14:15:22.941Z</time></trkpt><trkpt lat="44.348581" lon="10.7777341"><ele>625.0</ele><time>2026-04-18T14:15:23.942Z</time></trkpt><trkpt lat="44.3486697" lon="10.7777915"><ele>625.0</ele><time>2026-04-18T14:15:24.942Z</time></trkpt><trkpt lat="44.3487543" lon="10.7778294"><ele>625.0</ele><time>2026-04-18T14:15:25.941Z</time></trkpt><trkpt lat="44.3488453" lon="10.7778331"><ele>625.0</ele><time>2026-04-18T14:15:26.941Z</time></trkpt><trkpt lat="44.3489455" lon="10.7778034"><ele>625.0</ele><time>2026-04-18T14:15:27.941Z</time></trkpt><trkpt lat="44.3490488" lon="10.7777735"><ele>620.5</ele><time>2026-04-18T14:15:28.942Z</time></trkpt><trkpt lat="44.3491656" lon="10.7777527"><ele>616.0</ele><time>2026-04-18T14:15:29.941Z</time></trkpt><trkpt lat="44.3492778" lon="10.7777315"><ele>611.5</ele><time>2026-04-18T14:15:30.942Z</time></trkpt><trkpt lat="44.3493962" lon="10.7776906"><ele>607.0</ele><time>2026-04-18T14:15:31.941Z</time></trkpt><trkpt lat="44.3495127" lon="10.7776556"><ele>607.0</ele><time>2026-04-18T14:15:32.942Z</time></trkpt><trkpt lat="44.3496285" lon="10.7776116"><ele>607.0</ele><time>2026-04-18T14:15:33.942Z</time></trkpt><trkpt lat="44.3497223" lon="10.7775831"><ele>607.0</ele><time>2026-04-18T14:15:34.941Z</time></trkpt><trkpt lat="44.3498057" lon="10.7775546"><ele>607.0</ele><time>2026-04-18T14:15:35.942Z</time></trkpt><trkpt lat="44.3498747" lon="10.7775366"><ele>607.0</ele><time>2026-04-18T14:15:36.941Z</time></trkpt><trkpt lat="44.3499443" lon="10.7775153"><ele>607.0</ele><time>2026-04-18T14:15:37.942Z</time></trkpt><trkpt lat="44.3500136" lon="10.7774929"><ele>604.3333333333334</ele><time>2026-04-18T14:15:38.941Z</time></trkpt><trkpt lat="44.3500831" lon="10.7774873"><ele>601.6666666666667</ele><time>2026-04-18T14:15:39.942Z</time></trkpt><trkpt lat="44.3501503" lon="10.7775149"><ele>599.0</ele><time>2026-04-18T14:15:40.941Z</time></trkpt><trkpt lat="44.3501964" lon="10.7775952"><ele>596.3333333333334</ele><time>2026-04-18T14:15:41.941Z</time></trkpt><trkpt lat="44.3502122" lon="10.7777039"><ele>593.6666666666666</ele><time>2026-04-18T14:15:42.942Z</time></trkpt><trkpt lat="44.3502089" lon="10.77783"><ele>591.0</ele><time>2026-04-18T14:15:43.942Z</time></trkpt><trkpt lat="44.3502061" lon="10.777966"><ele>589.6</ele><time>2026-04-18T14:15:44.941Z</time></trkpt><trkpt lat="44.3502144" lon="10.7781061"><ele>588.2</ele><time>2026-04-18T14:15:45.941Z</time></trkpt><trkpt lat="44.3502286" lon="10.7782471"><ele>586.8</ele><time>2026-04-18T14:15:46.941Z</time></trkpt><trkpt lat="44.3502252" lon="10.7783958"><ele>585.4</ele><time>2026-04-18T14:15:47.942Z</time></trkpt><trkpt lat="44.3502036" lon="10.7785437"><ele>584.0</ele><time>2026-04-18T14:15:48.942Z</time></trkpt><trkpt lat="44.3501677" lon="10.778691"><ele>581.25</ele><time>2026-04-18T14:15:49.941Z</time></trkpt><trkpt lat="44.3501318" lon="10.7788378"><ele>578.5</ele><time>2026-04-18T14:15:50.941Z</time></trkpt><trkpt lat="44.3501062" lon="10.7789963"><ele>575.75</ele><time>2026-04-18T14:15:51.942Z</time></trkpt><trkpt lat="44.350095" lon="10.7791535"><ele>573.0</ele><time>2026-04-18T14:15:52.942Z</time></trkpt><trkpt lat="44.350107" lon="10.7793082"><ele>569.75</ele><time>2026-04-18T14:15:53.942Z</time></trkpt><trkpt lat="44.3501307" lon="10.7794631"><ele>566.5</ele><time>2026-04-18T14:15:54.941Z</time></trkpt><trkpt lat="44.3501575" lon="10.7796152"><ele>563.25</ele><time>2026-04-18T14:15:55.942Z</time></trkpt><trkpt lat="44.3501817" lon="10.7797691"><ele>560.0</ele><time>2026-04-18T14:15:56.942Z</time></trkpt><trkpt lat="44.3501872" lon="10.7799276"><ele>560.0</ele><time>2026-04-18T14:15:57.941Z</time></trkpt><trkpt lat="44.3501753" lon="10.780083"><ele>560.0</ele><time>2026-04-18T14:15:58.942Z</time></trkpt><trkpt lat="44.3501561" lon="10.7802415"><ele>560.0</ele><time>2026-04-18T14:15:59.942Z</time></trkpt><trkpt lat="44.3501544" lon="10.7804159"><ele>560.0</ele><time>2026-04-18T14:16:00.942Z</time></trkpt><trkpt lat="44.3501739" lon="10.7805932"><ele>558.25</ele><time>2026-04-18T14:16:01.941Z</time></trkpt><trkpt lat="44.3502098" lon="10.7807691"><ele>556.5</ele><time>2026-04-18T14:16:02.942Z</time></trkpt><trkpt lat="44.3502402" lon="10.7809305"><ele>554.75</ele><time>2026-04-18T14:16:03.942Z</time></trkpt><trkpt lat="44.3502633" lon="10.7810643"><ele>553.0</ele><time>2026-04-18T14:16:04.942Z</time></trkpt><trkpt lat="44.3503036" lon="10.781198"><ele>551.8333333333334</ele><time>2026-04-18T14:16:05.941Z</time></trkpt><trkpt lat="44.3503489" lon="10.781313"><ele>550.6666666666667</ele><time>2026-04-18T14:16:06.941Z</time></trkpt><trkpt lat="44.3503929" lon="10.7814231"><ele>549.5</ele><time>2026-04-18T14:16:07.942Z</time></trkpt><trkpt lat="44.3504326" lon="10.7815322"><ele>548.3333333333334</ele><time>2026-04-18T14:16:08.941Z</time></trkpt><trkpt lat="44.3504693" lon="10.7816327"><ele>547.1666666666666</ele><time>2026-04-18T14:16:09.941Z</time></trkpt><trkpt lat="44.3504919" lon="10.7817407"><ele>546.0</ele><time>2026-04-18T14:16:10.941Z</time></trkpt><trkpt lat="44.3504911" lon="10.7818571"><ele>545.0</ele><time>2026-04-18T14:16:11.941Z</time></trkpt><trkpt lat="44.3504598" lon="10.7819753"><ele>544.0</ele><time>2026-04-18T14:16:12.941Z</time></trkpt><trkpt lat="44.3504091" lon="10.7820687"><ele>543.0</ele><time>2026-04-18T14:16:13.941Z</time></trkpt><trkpt lat="44.3503565" lon="10.7821488"><ele>542.0</ele><time>2026-04-18T14:16:14.942Z</time></trkpt><trkpt lat="44.3503181" lon="10.7822376"><ele>541.0</ele><time>2026-04-18T14:16:15.942Z</time></trkpt><trkpt lat="44.3502986" lon="10.7823403"><ele>540.0</ele><time>2026-04-18T14:16:16.941Z</time></trkpt><trkpt lat="44.3503091" lon="10.7824438"><ele>540.0</ele><time>2026-04-18T14:16:17.942Z</time></trkpt><trkpt lat="44.3503416" lon="10.782536"><ele>540.0</ele><time>2026-04-18T14:16:18.942Z</time></trkpt><trkpt lat="44.3503866" lon="10.782623"><ele>540.0</ele><time>2026-04-18T14:16:19.941Z</time></trkpt><trkpt lat="44.3504427" lon="10.7827049"><ele>540.0</ele><time>2026-04-18T14:16:20.941Z</time></trkpt><trkpt lat="44.3505125" lon="10.7827684"><ele>540.0</ele><time>2026-04-18T14:16:21.941Z</time></trkpt><trkpt lat="44.3505958" lon="10.7828142"><ele>540.0</ele><time>2026-04-18T14:16:22.941Z</time></trkpt><trkpt lat="44.3506922" lon="10.7828509"><ele>538.0</ele><time>2026-04-18T14:16:23.942Z</time></trkpt><trkpt lat="44.3507972" lon="10.7828718"><ele>536.0</ele><time>2026-04-18T14:16:24.941Z</time></trkpt><trkpt lat="44.3509029" lon="10.7828768"><ele>534.0</ele><time>2026-04-18T14:16:25.942Z</time></trkpt><trkpt lat="44.351012" lon="10.7828438"><ele>532.0</ele><time>2026-04-18T14:16:26.941Z</time></trkpt><trkpt lat="44.3511138" lon="10.7827781"><ele>530.0</ele><time>2026-04-18T14:16:27.942Z</time></trkpt><trkpt lat="44.3512135" lon="10.7826977"><ele>530.0</ele><time>2026-04-18T14:16:28.942Z</time></trkpt><trkpt lat="44.3513167" lon="10.7826232"><ele>530.0</ele><time>2026-04-18T14:16:29.941Z</time></trkpt><trkpt lat="44.3514204" lon="10.7825514"><ele>530.0</ele><time>2026-04-18T14:16:30.941Z</time></trkpt><trkpt lat="44.3515261" lon="10.7824901"><ele>530.0</ele><time>2026-04-18T14:16:31.941Z</time></trkpt><trkpt lat="44.3516282" lon="10.7824341"><ele>527.4</ele><time>2026-04-18T14:16:32.941Z</time></trkpt><trkpt lat="44.3517239" lon="10.7823697"><ele>524.8</ele><time>2026-04-18T14:16:33.941Z</time></trkpt><trkpt lat="44.3518128" lon="10.7822992"><ele>522.2</ele><time>2026-04-18T14:16:34.941Z</time></trkpt><trkpt lat="44.351894" lon="10.7822281"><ele>519.6</ele><time>2026-04-18T14:16:35.942Z</time></trkpt><trkpt lat="44.3519749" lon="10.7821566"><ele>517.0</ele><time>2026-04-18T14:16:36.941Z</time></trkpt><trkpt lat="44.3520471" lon="10.7820924"><ele>517.0</ele><time>2026-04-18T14:16:37.941Z</time></trkpt><trkpt lat="44.3521167" lon="10.7820254"><ele>517.0</ele><time>2026-04-18T14:16:38.941Z</time></trkpt><trkpt lat="44.3521731" lon="10.7819704"><ele>517.0</ele><time>2026-04-18T14:16:39.941Z</time></trkpt><trkpt lat="44.3522474" lon="10.7818784"><ele>517.0</ele><time>2026-04-18T14:16:41.941Z</time></trkpt><trkpt lat="44.3523074" lon="10.7818384"><ele>517.0</ele><time>2026-04-18T14:16:43.941Z</time></trkpt><trkpt lat="44.352372" lon="10.7819249"><ele>517.0</ele><time>2026-04-18T14:16:45.941Z</time></trkpt><trkpt lat="44.3524333" lon="10.7820486"><ele>516.0</ele><time>2026-04-18T14:16:47.941Z</time></trkpt><trkpt lat="44.3524696" lon="10.7821519"><ele>515.0</ele><time>2026-04-18T14:16:49.941Z</time></trkpt><trkpt lat="44.3525024" lon="10.7822796"><ele>514.0</ele><time>2026-04-18T14:16:51.941Z</time></trkpt><trkpt lat="44.3524983" lon="10.7824257"><ele>513.0</ele><time>2026-04-18T14:16:53.942Z</time></trkpt><trkpt lat="44.3524624" lon="10.782543"><ele>512.0</ele><time>2026-04-18T14:16:55.941Z</time></trkpt><trkpt lat="44.3524044" lon="10.7826787"><ele>512.8000000000001</ele><time>2026-04-18T14:16:57.942Z</time></trkpt><trkpt lat="44.352359" lon="10.7827609"><ele>513.6</ele><time>2026-04-18T14:16:58.942Z</time></trkpt><trkpt lat="44.352325" lon="10.7828551"><ele>514.4000000000001</ele><time>2026-04-18T14:16:59.942Z</time></trkpt><trkpt lat="44.3522891" lon="10.7829481"><ele>515.2</ele><time>2026-04-18T14:17:00.941Z</time></trkpt><trkpt lat="44.3522553" lon="10.7830975"><ele>516.0</ele><time>2026-04-18T14:17:02.942Z</time></trkpt><trkpt lat="44.3522675" lon="10.7832551"><ele>516.0</ele><time>2026-04-18T14:17:04.942Z</time></trkpt><trkpt lat="44.3522768" lon="10.7834276"><ele>516.0</ele><time>2026-04-18T14:17:06.941Z</time></trkpt><trkpt lat="44.3522787" lon="10.7835297"><ele>516.0</ele><time>2026-04-18T14:17:07.941Z</time></trkpt><trkpt lat="44.3522717" lon="10.7836222"><ele>516.0</ele><time>2026-04-18T14:17:08.942Z</time></trkpt><trkpt lat="44.3522656" lon="10.7837185"><ele>516.0</ele><time>2026-04-18T14:17:09.941Z</time></trkpt><trkpt lat="44.3522393" lon="10.7838846"><ele>515.6666666666666</ele><time>2026-04-18T14:17:11.941Z</time></trkpt><trkpt lat="44.3522264" lon="10.7839748"><ele>515.3333333333334</ele><time>2026-04-18T14:17:12.941Z</time></trkpt><trkpt lat="44.3521948" lon="10.7840605"><ele>515.0</ele><time>2026-04-18T14:17:13.941Z</time></trkpt><trkpt lat="44.3521579" lon="10.7841439"><ele>514.6666666666667</ele><time>2026-04-18T14:17:14.942Z</time></trkpt><trkpt lat="44.3521157" lon="10.7842194"><ele>514.3333333333334</ele><time>2026-04-18T14:17:15.942Z</time></trkpt><trkpt lat="44.3520345" lon="10.7843304"><ele>514.0</ele><time>2026-04-18T14:17:17.942Z</time></trkpt><trkpt lat="44.3519169" lon="10.7843922"><ele>515.0</ele><time>2026-04-18T14:17:19.942Z</time></trkpt><trkpt lat="44.3518104" lon="10.7844579"><ele>516.0</ele><time>2026-04-18T14:17:21.941Z</time></trkpt><trkpt lat="44.3517291" lon="10.7845008"><ele>517.0</ele><time>2026-04-18T14:17:23.941Z</time></trkpt><trkpt lat="44.3516281" lon="10.784533"><ele>518.0</ele><time>2026-04-18T14:17:25.942Z</time></trkpt><trkpt lat="44.3515661" lon="10.7845648"><ele>519.0</ele><time>2026-04-18T14:17:29.942Z</time></trkpt><trkpt lat="44.3515198" lon="10.7846513"><ele>519.0</ele><time>2026-04-18T14:17:39.942Z</time></trkpt><trkpt lat="44.3514653" lon="10.7847641"><ele>519.0</ele><time>2026-04-18T14:17:42.941Z</time></trkpt><trkpt lat="44.3514137" lon="10.7848382"><ele>519.0</ele><time>2026-04-18T14:17:45.942Z</time></trkpt><trkpt lat="44.3513514" lon="10.7848731"><ele>519.0</ele><time>2026-04-18T14:17:47.942Z</time></trkpt><trkpt lat="44.3512861" lon="10.78499"><ele>519.0</ele><time>2026-04-18T14:17:49.941Z</time></trkpt><trkpt lat="44.351246" lon="10.7851246"><ele>519.0</ele><time>2026-04-18T14:17:51.941Z</time></trkpt><trkpt lat="44.3512211" lon="10.7852735"><ele>519.0</ele><time>2026-04-18T14:17:53.941Z</time></trkpt><trkpt lat="44.3512023" lon="10.785382"><ele>519.0</ele><time>2026-04-18T14:17:55.942Z</time></trkpt><trkpt lat="44.3511535" lon="10.7854446"><ele>519.0</ele><time>2026-04-18T14:19:34.942Z</time></trkpt><trkpt lat="44.3510676" lon="10.7854441"><ele>519.0</ele><time>2026-04-18T14:19:37.942Z</time></trkpt><trkpt lat="44.3510345" lon="10.7853552"><ele>519.0</ele><time>2026-04-18T14:19:40.941Z</time></trkpt><trkpt lat="44.3509933" lon="10.7852768"><ele>519.0</ele><time>2026-04-18T14:19:58.942Z</time></trkpt><trkpt lat="44.3509299" lon="10.7852141"><ele>519.0</ele><time>2026-04-18T14:20:00.942Z</time></trkpt><trkpt lat="44.3508456" lon="10.7852279"><ele>519.0</ele><time>2026-04-18T14:20:02.941Z</time></trkpt><trkpt lat="44.3507623" lon="10.7852895"><ele>519.0</ele><time>2026-04-18T14:20:04.942Z</time></trkpt><trkpt lat="44.3506736" lon="10.7853606"><ele>519.0</ele><time>2026-04-18T14:20:06.941Z</time></trkpt><trkpt lat="44.3505931" lon="10.7854614"><ele>519.0</ele><time>2026-04-18T14:20:08.941Z</time></trkpt><trkpt lat="44.3504948" lon="10.7855578"><ele>518.8333333333334</ele><time>2026-04-18T14:20:10.941Z</time></trkpt><trkpt lat="44.3504396" lon="10.7856049"><ele>518.6666666666666</ele><time>2026-04-18T14:20:11.941Z</time></trkpt><trkpt lat="44.3503488" lon="10.7857018"><ele>518.5</ele><time>2026-04-18T14:20:13.942Z</time></trkpt><trkpt lat="44.3502601" lon="10.7858139"><ele>518.3333333333333</ele><time>2026-04-18T14:20:15.941Z</time></trkpt><trkpt lat="44.350212" lon="10.785873"><ele>518.1666666666666</ele><time>2026-04-18T14:20:16.942Z</time></trkpt><trkpt lat="44.350152" lon="10.7859242"><ele>518.0</ele><time>2026-04-18T14:20:17.942Z</time></trkpt><trkpt lat="44.3500902" lon="10.7859632"><ele>518.0</ele><time>2026-04-18T14:20:18.941Z</time></trkpt><trkpt lat="44.3500297" lon="10.7860057"><ele>518.0</ele><time>2026-04-18T14:20:19.941Z</time></trkpt><trkpt lat="44.3499659" lon="10.7860343"><ele>518.0</ele><time>2026-04-18T14:20:20.941Z</time></trkpt><trkpt lat="44.3499046" lon="10.7860679"><ele>518.0</ele><time>2026-04-18T14:20:21.941Z</time></trkpt><trkpt lat="44.349845" lon="10.7861067"><ele>518.0</ele><time>2026-04-18T14:20:22.942Z</time></trkpt><trkpt lat="44.3497888" lon="10.7861492"><ele>518.0</ele><time>2026-04-18T14:20:23.941Z</time></trkpt><trkpt lat="44.3497311" lon="10.7861864"><ele>518.0</ele><time>2026-04-18T14:20:24.941Z</time></trkpt><trkpt lat="44.3496741" lon="10.7862301"><ele>518.6666666666666</ele><time>2026-04-18T14:20:25.942Z</time></trkpt><trkpt lat="44.3495759" lon="10.7863306"><ele>519.3333333333333</ele><time>2026-04-18T14:20:27.941Z</time></trkpt><trkpt lat="44.3495329" lon="10.7863977"><ele>520.0</ele><time>2026-04-18T14:20:28.941Z</time></trkpt><trkpt lat="44.349493" lon="10.7864747"><ele>520.6666666666666</ele><time>2026-04-18T14:20:29.941Z</time></trkpt><trkpt lat="44.3494607" lon="10.7865526"><ele>521.3333333333334</ele><time>2026-04-18T14:20:30.941Z</time></trkpt><trkpt lat="44.3494302" lon="10.7866398"><ele>522.0</ele><time>2026-04-18T14:20:31.942Z</time></trkpt><trkpt lat="44.3494026" lon="10.7867251"><ele>522.4</ele><time>2026-04-18T14:20:32.941Z</time></trkpt><trkpt lat="44.3493785" lon="10.7868933"><ele>522.8000000000001</ele><time>2026-04-18T14:20:34.942Z</time></trkpt><trkpt lat="44.3494124" lon="10.7870292"><ele>523.2</ele><time>2026-04-18T14:20:36.941Z</time></trkpt><trkpt lat="44.3495085" lon="10.7871289"><ele>523.6</ele><time>2026-04-18T14:20:38.942Z</time></trkpt><trkpt lat="44.3495726" lon="10.7871717"><ele>524.0</ele><time>2026-04-18T14:20:39.942Z</time></trkpt><trkpt lat="44.3496285" lon="10.7872205"><ele>524.0</ele><time>2026-04-18T14:20:40.942Z</time></trkpt><trkpt lat="44.3496924" lon="10.7872542"><ele>524.0</ele><time>2026-04-18T14:20:41.941Z</time></trkpt><trkpt lat="44.3497554" lon="10.7872894"><ele>524.0</ele><time>2026-04-18T14:20:42.942Z</time></trkpt><trkpt lat="44.3498172" lon="10.7873239"><ele>524.0</ele><time>2026-04-18T14:20:43.941Z</time></trkpt><trkpt lat="44.3498855" lon="10.7873528"><ele>524.0</ele><time>2026-04-18T14:20:44.942Z</time></trkpt><trkpt lat="44.3499549" lon="10.787395"><ele>524.0</ele><time>2026-04-18T14:20:45.941Z</time></trkpt><trkpt lat="44.3500227" lon="10.7874374"><ele>524.0</ele><time>2026-04-18T14:20:46.942Z</time></trkpt><trkpt lat="44.350083" lon="10.787478"><ele>525.2857142857143</ele><time>2026-04-18T14:20:47.942Z</time></trkpt><trkpt lat="44.3501399" lon="10.7875186"><ele>526.5714285714287</ele><time>2026-04-18T14:20:48.941Z</time></trkpt><trkpt lat="44.3502061" lon="10.7875525"><ele>527.8571428571429</ele><time>2026-04-18T14:20:49.942Z</time></trkpt><trkpt lat="44.3502761" lon="10.7875861"><ele>529.1428571428571</ele><time>2026-04-18T14:20:50.941Z</time></trkpt><trkpt lat="44.350348" lon="10.78762"><ele>530.4285714285713</ele><time>2026-04-18T14:20:51.942Z</time></trkpt><trkpt lat="44.3504206" lon="10.7876522"><ele>531.7142857142857</ele><time>2026-04-18T14:20:52.942Z</time></trkpt><trkpt lat="44.3505015" lon="10.7876885"><ele>533.0</ele><time>2026-04-18T14:20:53.941Z</time></trkpt><trkpt lat="44.3505822" lon="10.7877291"><ele>535.0</ele><time>2026-04-18T14:20:54.941Z</time></trkpt><trkpt lat="44.3506614" lon="10.7877678"><ele>537.0</ele><time>2026-04-18T14:20:55.941Z</time></trkpt><trkpt lat="44.3507406" lon="10.7878083"><ele>539.0</ele><time>2026-04-18T14:20:56.941Z</time></trkpt><trkpt lat="44.3508163" lon="10.7878581"><ele>541.0</ele><time>2026-04-18T14:20:57.941Z</time></trkpt><trkpt lat="44.3508936" lon="10.787901"><ele>543.0</ele><time>2026-04-18T14:20:58.942Z</time></trkpt><trkpt lat="44.3509773" lon="10.7879978"><ele>545.0</ele><time>2026-04-18T14:21:00.942Z</time></trkpt><trkpt lat="44.3509937" lon="10.7881465"><ele>545.0</ele><time>2026-04-18T14:21:02.941Z</time></trkpt><trkpt lat="44.3509869" lon="10.7882451"><ele>545.0</ele><time>2026-04-18T14:21:03.941Z</time></trkpt><trkpt lat="44.3509868" lon="10.7883522"><ele>545.0</ele><time>2026-04-18T14:21:04.942Z</time></trkpt><trkpt lat="44.3510045" lon="10.7884627"><ele>545.0</ele><time>2026-04-18T14:21:05.942Z</time></trkpt><trkpt lat="44.351031" lon="10.7885736"><ele>545.0</ele><time>2026-04-18T14:21:06.941Z</time></trkpt><trkpt lat="44.3510637" lon="10.7886742"><ele>545.0</ele><time>2026-04-18T14:21:07.942Z</time></trkpt><trkpt lat="44.3510858" lon="10.7887635"><ele>547.2</ele><time>2026-04-18T14:21:08.942Z</time></trkpt><trkpt lat="44.3511066" lon="10.788937"><ele>549.4</ele><time>2026-04-18T14:21:10.942Z</time></trkpt><trkpt lat="44.3510809" lon="10.7890882"><ele>551.6</ele><time>2026-04-18T14:21:12.941Z</time></trkpt><trkpt lat="44.3510621" lon="10.7891781"><ele>553.8</ele><time>2026-04-18T14:21:14.941Z</time></trkpt><trkpt lat="44.3511479" lon="10.7892448"><ele>556.0</ele><time>2026-04-18T14:21:17.942Z</time></trkpt><trkpt lat="44.3512138" lon="10.789281"><ele>556.0</ele><time>2026-04-18T14:21:18.941Z</time></trkpt><trkpt lat="44.3512753" lon="10.7893153"><ele>556.0</ele><time>2026-04-18T14:21:19.941Z</time></trkpt><trkpt lat="44.3514091" lon="10.7893562"><ele>556.0</ele><time>2026-04-18T14:21:21.942Z</time></trkpt><trkpt lat="44.3514835" lon="10.7893735"><ele>556.0</ele><time>2026-04-18T14:21:22.942Z</time></trkpt><trkpt lat="44.3515516" lon="10.7894125"><ele>556.0</ele><time>2026-04-18T14:21:23.941Z</time></trkpt><trkpt lat="44.3516169" lon="10.7894424"><ele>556.0</ele><time>2026-04-18T14:21:24.941Z</time></trkpt><trkpt lat="44.351678" lon="10.7894865"><ele>555.6</ele><time>2026-04-18T14:21:25.942Z</time></trkpt><trkpt lat="44.3517786" lon="10.7894754"><ele>555.2</ele><time>2026-04-18T14:21:27.941Z</time></trkpt><trkpt lat="44.3518484" lon="10.7893324"><ele>554.8</ele><time>2026-04-18T14:21:29.941Z</time></trkpt><trkpt lat="44.3518698" lon="10.7892316"><ele>554.4</ele><time>2026-04-18T14:21:30.941Z</time></trkpt><trkpt lat="44.3518687" lon="10.7891125"><ele>554.0</ele><time>2026-04-18T14:21:31.942Z</time></trkpt><trkpt lat="44.3518803" lon="10.7889999"><ele>554.0</ele><time>2026-04-18T14:21:32.941Z</time></trkpt><trkpt lat="44.3519049" lon="10.7888774"><ele>554.0</ele><time>2026-04-18T14:21:33.942Z</time></trkpt><trkpt lat="44.3519421" lon="10.7887445"><ele>554.0</ele><time>2026-04-18T14:21:34.941Z</time></trkpt><trkpt lat="44.3519695" lon="10.7886112"><ele>554.0</ele><time>2026-04-18T14:21:35.941Z</time></trkpt><trkpt lat="44.352002" lon="10.7884687"><ele>554.0</ele><time>2026-04-18T14:21:36.941Z</time></trkpt><trkpt lat="44.3520293" lon="10.7883209"><ele>552.6</ele><time>2026-04-18T14:21:37.941Z</time></trkpt><trkpt lat="44.3520518" lon="10.7881774"><ele>551.2</ele><time>2026-04-18T14:21:38.942Z</time></trkpt><trkpt lat="44.352073" lon="10.7880445"><ele>549.8000000000001</ele><time>2026-04-18T14:21:39.942Z</time></trkpt><trkpt lat="44.3521005" lon="10.7879182"><ele>548.4</ele><time>2026-04-18T14:21:40.941Z</time></trkpt><trkpt lat="44.352135" lon="10.787808"><ele>547.0</ele><time>2026-04-18T14:21:41.941Z</time></trkpt><trkpt lat="44.3521838" lon="10.7877214"><ele>549.4</ele><time>2026-04-18T14:21:42.941Z</time></trkpt><trkpt lat="44.3522423" lon="10.7876345"><ele>551.8000000000001</ele><time>2026-04-18T14:21:43.941Z</time></trkpt><trkpt lat="44.3523091" lon="10.7875444"><ele>554.2</ele><time>2026-04-18T14:21:44.941Z</time></trkpt><trkpt lat="44.3523743" lon="10.787456"><ele>556.6</ele><time>2026-04-18T14:21:45.942Z</time></trkpt><trkpt lat="44.3524449" lon="10.787371"><ele>559.0</ele><time>2026-04-18T14:21:46.941Z</time></trkpt><trkpt lat="44.3525157" lon="10.7872894"><ele>559.0</ele><time>2026-04-18T14:21:47.942Z</time></trkpt><trkpt lat="44.3525786" lon="10.7872116"><ele>559.0</ele><time>2026-04-18T14:21:48.941Z</time></trkpt><trkpt lat="44.3526349" lon="10.7871395"><ele>559.0</ele><time>2026-04-18T14:21:49.941Z</time></trkpt><trkpt lat="44.3526896" lon="10.7870597"><ele>559.0</ele><time>2026-04-18T14:21:50.941Z</time></trkpt><trkpt lat="44.3527443" lon="10.786989"><ele>559.0</ele><time>2026-04-18T14:21:51.941Z</time></trkpt><trkpt lat="44.3528361" lon="10.7868694"><ele>559.0</ele><time>2026-04-18T14:21:53.942Z</time></trkpt><trkpt lat="44.3528951" lon="10.7867987"><ele>557.8571428571429</ele><time>2026-04-18T14:21:54.941Z</time></trkpt><trkpt lat="44.352954" lon="10.7867253"><ele>556.7142857142858</ele><time>2026-04-18T14:21:55.942Z</time></trkpt><trkpt lat="44.3530109" lon="10.7866517"><ele>555.5714285714286</ele><time>2026-04-18T14:21:56.941Z</time></trkpt><trkpt lat="44.3530611" lon="10.7865783"><ele>554.4285714285714</ele><time>2026-04-18T14:21:57.941Z</time></trkpt><trkpt lat="44.3530858" lon="10.7864924"><ele>553.2857142857142</ele><time>2026-04-18T14:21:58.941Z</time></trkpt><trkpt lat="44.3531055" lon="10.7863964"><ele>552.1428571428571</ele><time>2026-04-18T14:21:59.941Z</time></trkpt><trkpt lat="44.3531087" lon="10.7862926"><ele>551.0</ele><time>2026-04-18T14:22:00.942Z</time></trkpt><trkpt lat="44.3531148" lon="10.7861762"><ele>553.8333333333333</ele><time>2026-04-18T14:22:01.942Z</time></trkpt><trkpt lat="44.3531197" lon="10.7860667"><ele>556.6666666666666</ele><time>2026-04-18T14:22:02.941Z</time></trkpt><trkpt lat="44.3531209" lon="10.7859645"><ele>559.5</ele><time>2026-04-18T14:22:03.941Z</time></trkpt><trkpt lat="44.353136" lon="10.7858513"><ele>562.3333333333334</ele><time>2026-04-18T14:22:04.941Z</time></trkpt><trkpt lat="44.3531573" lon="10.7857325"><ele>565.1666666666667</ele><time>2026-04-18T14:22:05.941Z</time></trkpt><trkpt lat="44.3531928" lon="10.7856174"><ele>568.0</ele><time>2026-04-18T14:22:06.941Z</time></trkpt><trkpt lat="44.353238" lon="10.7855069"><ele>568.0</ele><time>2026-04-18T14:22:07.941Z</time></trkpt><trkpt lat="44.3532951" lon="10.7854054"><ele>568.0</ele><time>2026-04-18T14:22:08.942Z</time></trkpt><trkpt lat="44.3533605" lon="10.7853072"><ele>568.0</ele><time>2026-04-18T14:22:09.942Z</time></trkpt><trkpt lat="44.3534247" lon="10.7852174"><ele>568.0</ele><time>2026-04-18T14:22:10.942Z</time></trkpt><trkpt lat="44.3534902" lon="10.7851355"><ele>568.0</ele><time>2026-04-18T14:22:11.941Z</time></trkpt><trkpt lat="44.3535608" lon="10.7850567"><ele>565.8</ele><time>2026-04-18T14:22:12.941Z</time></trkpt><trkpt lat="44.3536323" lon="10.7849777"><ele>563.5999999999999</ele><time>2026-04-18T14:22:13.941Z</time></trkpt><trkpt lat="44.353713" lon="10.7849022"><ele>561.4000000000001</ele><time>2026-04-18T14:22:14.941Z</time></trkpt><trkpt lat="44.3537979" lon="10.7848147"><ele>559.2</ele><time>2026-04-18T14:22:15.941Z</time></trkpt><trkpt lat="44.3538777" lon="10.7847287"><ele>557.0</ele><time>2026-04-18T14:22:16.941Z</time></trkpt><trkpt lat="44.3539548" lon="10.7846363"><ele>560.0</ele><time>2026-04-18T14:22:17.942Z</time></trkpt><trkpt lat="44.35403" lon="10.784543"><ele>563.0</ele><time>2026-04-18T14:22:18.941Z</time></trkpt><trkpt lat="44.3541029" lon="10.7844503"><ele>566.0</ele><time>2026-04-18T14:22:19.941Z</time></trkpt><trkpt lat="44.3541796" lon="10.7843553"><ele>569.0</ele><time>2026-04-18T14:22:20.942Z</time></trkpt><trkpt lat="44.354246" lon="10.784268"><ele>572.0</ele><time>2026-04-18T14:22:21.941Z</time></trkpt><trkpt lat="44.3543045" lon="10.78416"><ele>572.0</ele><time>2026-04-18T14:22:22.942Z</time></trkpt><trkpt lat="44.35436" lon="10.7840637"><ele>572.0</ele><time>2026-04-18T14:22:23.941Z</time></trkpt><trkpt lat="44.3543999" lon="10.7839945"><ele>572.0</ele><time>2026-04-18T14:22:24.941Z</time></trkpt><trkpt lat="44.3544897" lon="10.7839351"><ele>572.0</ele><time>2026-04-18T14:22:26.941Z</time></trkpt><trkpt lat="44.3545979" lon="10.784021"><ele>572.0</ele><time>2026-04-18T14:22:28.942Z</time></trkpt><trkpt lat="44.3546575" lon="10.78409"><ele>573.8333333333333</ele><time>2026-04-18T14:22:29.941Z</time></trkpt><trkpt lat="44.3547288" lon="10.7841342"><ele>575.6666666666666</ele><time>2026-04-18T14:22:30.941Z</time></trkpt><trkpt lat="44.3548004" lon="10.7841903"><ele>577.5</ele><time>2026-04-18T14:22:31.942Z</time></trkpt><trkpt lat="44.3548634" lon="10.7842747"><ele>579.3333333333334</ele><time>2026-04-18T14:22:32.942Z</time></trkpt><trkpt lat="44.3549187" lon="10.7843596"><ele>581.1666666666667</ele><time>2026-04-18T14:22:33.942Z</time></trkpt><trkpt lat="44.354962" lon="10.7844588"><ele>583.0</ele><time>2026-04-18T14:22:34.941Z</time></trkpt><trkpt lat="44.3550343" lon="10.7845299"><ele>586.1666666666667</ele><time>2026-04-18T14:22:35.942Z</time></trkpt><trkpt lat="44.3551089" lon="10.7846069"><ele>589.3333333333334</ele><time>2026-04-18T14:22:36.942Z</time></trkpt><trkpt lat="44.3551712" lon="10.7846899"><ele>592.5</ele><time>2026-04-18T14:22:37.942Z</time></trkpt><trkpt lat="44.3552404" lon="10.7847633"><ele>595.6666666666666</ele><time>2026-04-18T14:22:38.941Z</time></trkpt><trkpt lat="44.3552951" lon="10.7848176"><ele>598.8333333333333</ele><time>2026-04-18T14:22:39.941Z</time></trkpt><trkpt lat="44.3553698" lon="10.7849213"><ele>602.0</ele><time>2026-04-18T14:22:41.941Z</time></trkpt><trkpt lat="44.3554414" lon="10.78508"><ele>602.0</ele><time>2026-04-18T14:22:43.942Z</time></trkpt><trkpt lat="44.355485" lon="10.7851566"><ele>602.0</ele><time>2026-04-18T14:22:44.941Z</time></trkpt><trkpt lat="44.3555296" lon="10.7852431"><ele>602.0</ele><time>2026-04-18T14:22:45.941Z</time></trkpt><trkpt lat="44.3555847" lon="10.7853337"><ele>602.0</ele><time>2026-04-18T14:22:46.942Z</time></trkpt><trkpt lat="44.3556342" lon="10.7854193"><ele>602.0</ele><time>2026-04-18T14:22:47.941Z</time></trkpt><trkpt lat="44.3556794" lon="10.7855123"><ele>602.0</ele><time>2026-04-18T14:22:48.942Z</time></trkpt><trkpt lat="44.3557115" lon="10.7856014"><ele>602.0</ele><time>2026-04-18T14:22:49.941Z</time></trkpt><trkpt lat="44.3557241" lon="10.785703"><ele>602.0</ele><time>2026-04-18T14:22:50.941Z</time></trkpt><trkpt lat="44.3557282" lon="10.7857992"><ele>602.0</ele><time>2026-04-18T14:22:51.941Z</time></trkpt><trkpt lat="44.3556995" lon="10.785922"><ele>602.0</ele><time>2026-04-18T14:22:53.942Z</time></trkpt><trkpt lat="44.3556279" lon="10.7859392"><ele>602.0</ele><time>2026-04-18T14:22:55.941Z</time></trkpt><trkpt lat="44.3555134" lon="10.7859464"><ele>602.0</ele><time>2026-04-18T14:22:57.942Z</time></trkpt><trkpt lat="44.3554412" lon="10.7859518"><ele>603.3333333333333</ele><time>2026-04-18T14:22:58.942Z</time></trkpt><trkpt lat="44.35536" lon="10.7859519"><ele>604.6666666666666</ele><time>2026-04-18T14:22:59.941Z</time></trkpt><trkpt lat="44.3552775" lon="10.7859463"><ele>606.0</ele><time>2026-04-18T14:23:00.941Z</time></trkpt><trkpt lat="44.3551924" lon="10.7859325"><ele>607.3333333333334</ele><time>2026-04-18T14:23:01.941Z</time></trkpt><trkpt lat="44.3551072" lon="10.7859227"><ele>608.6666666666667</ele><time>2026-04-18T14:23:02.942Z</time></trkpt><trkpt lat="44.3550318" lon="10.785915"><ele>610.0</ele><time>2026-04-18T14:23:03.942Z</time></trkpt><trkpt lat="44.3549657" lon="10.7859164"><ele>611.2</ele><time>2026-04-18T14:23:04.941Z</time></trkpt><trkpt lat="44.3549301" lon="10.7860143"><ele>612.4</ele><time>2026-04-18T14:23:06.942Z</time></trkpt><trkpt lat="44.3549798" lon="10.7861622"><ele>613.6</ele><time>2026-04-18T14:23:08.941Z</time></trkpt><trkpt lat="44.3550255" lon="10.786268"><ele>614.8</ele><time>2026-04-18T14:23:09.942Z</time></trkpt><trkpt lat="44.3550688" lon="10.7863836"><ele>616.0</ele><time>2026-04-18T14:23:10.941Z</time></trkpt><trkpt lat="44.3551168" lon="10.7864994"><ele>616.0</ele><time>2026-04-18T14:23:11.942Z</time></trkpt><trkpt lat="44.3551694" lon="10.7866229"><ele>616.0</ele><time>2026-04-18T14:23:12.942Z</time></trkpt><trkpt lat="44.3552195" lon="10.7867433"><ele>616.0</ele><time>2026-04-18T14:23:13.941Z</time></trkpt><trkpt lat="44.3552696" lon="10.7868627"><ele>616.0</ele><time>2026-04-18T14:23:14.941Z</time></trkpt><trkpt lat="44.3553354" lon="10.786985"><ele>616.0</ele><time>2026-04-18T14:23:15.941Z</time></trkpt><trkpt lat="44.3554128" lon="10.7870913"><ele>617.6</ele><time>2026-04-18T14:23:16.941Z</time></trkpt><trkpt lat="44.355496" lon="10.7871935"><ele>619.2</ele><time>2026-04-18T14:23:17.941Z</time></trkpt><trkpt lat="44.3555767" lon="10.7873004"><ele>620.8</ele><time>2026-04-18T14:23:18.942Z</time></trkpt><trkpt lat="44.3556494" lon="10.787415"><ele>622.4</ele><time>2026-04-18T14:23:19.941Z</time></trkpt><trkpt lat="44.3557218" lon="10.787538"><ele>624.0</ele><time>2026-04-18T14:23:20.942Z</time></trkpt><trkpt lat="44.355789" lon="10.787661"><ele>628.4</ele><time>2026-04-18T14:23:21.941Z</time></trkpt><trkpt lat="44.3558565" lon="10.7877812"><ele>632.8</ele><time>2026-04-18T14:23:22.941Z</time></trkpt><trkpt lat="44.3559165" lon="10.7878986"><ele>637.1999999999999</ele><time>2026-04-18T14:23:23.941Z</time></trkpt><trkpt lat="44.355963" lon="10.7880232"><ele>641.5999999999999</ele><time>2026-04-18T14:23:24.942Z</time></trkpt><trkpt lat="44.3559831" lon="10.7881469"><ele>646.0</ele><time>2026-04-18T14:23:25.941Z</time></trkpt><trkpt lat="44.3559935" lon="10.7882609"><ele>646.0</ele><time>2026-04-18T14:23:26.942Z</time></trkpt><trkpt lat="44.356016" lon="10.7883612"><ele>646.0</ele><time>2026-04-18T14:23:27.942Z</time></trkpt><trkpt lat="44.3560458" lon="10.7884578"><ele>646.0</ele><time>2026-04-18T14:23:28.942Z</time></trkpt><trkpt lat="44.3561071" lon="10.7885474"><ele>646.0</ele><time>2026-04-18T14:23:29.941Z</time></trkpt><trkpt lat="44.3561622" lon="10.7886376"><ele>646.0</ele><time>2026-04-18T14:23:30.942Z</time></trkpt><trkpt lat="44.3562483" lon="10.7886745"><ele>646.0</ele><time>2026-04-18T14:23:31.942Z</time></trkpt><trkpt lat="44.3563263" lon="10.7887175"><ele>649.1999999999999</ele><time>2026-04-18T14:23:32.941Z</time></trkpt><trkpt lat="44.3564034" lon="10.7887642"><ele>652.4</ele><time>2026-04-18T14:23:33.942Z</time></trkpt><trkpt lat="44.3564861" lon="10.7888217"><ele>655.6</ele><time>2026-04-18T14:23:34.941Z</time></trkpt><trkpt lat="44.356569" lon="10.7888916"><ele>658.8</ele><time>2026-04-18T14:23:35.941Z</time></trkpt><trkpt lat="44.3566485" lon="10.7889741"><ele>662.0</ele><time>2026-04-18T14:23:36.941Z</time></trkpt><trkpt lat="44.3567107" lon="10.7890802"><ele>662.0</ele><time>2026-04-18T14:23:37.941Z</time></trkpt><trkpt lat="44.3567703" lon="10.7891969"><ele>662.0</ele><time>2026-04-18T14:23:38.941Z</time></trkpt><trkpt lat="44.3568285" lon="10.7893209"><ele>662.0</ele><time>2026-04-18T14:23:39.942Z</time></trkpt><trkpt lat="44.3568876" lon="10.789446"><ele>662.0</ele><time>2026-04-18T14:23:40.941Z</time></trkpt><trkpt lat="44.3569456" lon="10.7895721"><ele>662.0</ele><time>2026-04-18T14:23:41.942Z</time></trkpt><trkpt lat="44.357007" lon="10.7896975"><ele>663.6</ele><time>2026-04-18T14:23:42.942Z</time></trkpt><trkpt lat="44.3570668" lon="10.7898198"><ele>665.2</ele><time>2026-04-18T14:23:43.942Z</time></trkpt><trkpt lat="44.3571229" lon="10.789941"><ele>666.8</ele><time>2026-04-18T14:23:44.941Z</time></trkpt><trkpt lat="44.3571811" lon="10.7900508"><ele>668.4</ele><time>2026-04-18T14:23:45.941Z</time></trkpt><trkpt lat="44.3572463" lon="10.7901632"><ele>670.0</ele><time>2026-04-18T14:23:46.941Z</time></trkpt><trkpt lat="44.3573179" lon="10.7902653"><ele>674.8</ele><time>2026-04-18T14:23:47.942Z</time></trkpt><trkpt lat="44.3574004" lon="10.790356"><ele>679.6</ele><time>2026-04-18T14:23:48.942Z</time></trkpt><trkpt lat="44.3574921" lon="10.7904382"><ele>684.4000000000001</ele><time>2026-04-18T14:23:49.941Z</time></trkpt><trkpt lat="44.3575863" lon="10.7905158"><ele>689.2</ele><time>2026-04-18T14:23:50.942Z</time></trkpt><trkpt lat="44.3576796" lon="10.7905911"><ele>694.0</ele><time>2026-04-18T14:23:51.941Z</time></trkpt><trkpt lat="44.3577622" lon="10.7906674"><ele>694.0</ele><time>2026-04-18T14:23:52.941Z</time></trkpt><trkpt lat="44.3578422" lon="10.7907502"><ele>694.0</ele><time>2026-04-18T14:23:53.942Z</time></trkpt><trkpt lat="44.3579313" lon="10.7907993"><ele>694.0</ele><time>2026-04-18T14:23:54.942Z</time></trkpt><trkpt lat="44.3580233" lon="10.790857"><ele>694.0</ele><time>2026-04-18T14:23:55.941Z</time></trkpt><trkpt lat="44.3581129" lon="10.7909134"><ele>694.0</ele><time>2026-04-18T14:23:56.942Z</time></trkpt><trkpt lat="44.3582067" lon="10.7909762"><ele>698.2</ele><time>2026-04-18T14:23:57.942Z</time></trkpt><trkpt lat="44.3582964" lon="10.791042"><ele>702.4000000000001</ele><time>2026-04-18T14:23:58.942Z</time></trkpt><trkpt lat="44.3583723" lon="10.7911211"><ele>706.6</ele><time>2026-04-18T14:23:59.941Z</time></trkpt><trkpt lat="44.3584452" lon="10.7912071"><ele>710.8</ele><time>2026-04-18T14:24:00.942Z</time></trkpt><trkpt lat="44.3585192" lon="10.7912914"><ele>715.0</ele><time>2026-04-18T14:24:01.941Z</time></trkpt><trkpt lat="44.3586005" lon="10.7913452"><ele>715.0</ele><time>2026-04-18T14:24:02.942Z</time></trkpt><trkpt lat="44.3586886" lon="10.7913719"><ele>715.0</ele><time>2026-04-18T14:24:03.941Z</time></trkpt><trkpt lat="44.358783" lon="10.7913672"><ele>715.0</ele><time>2026-04-18T14:24:04.941Z</time></trkpt><trkpt lat="44.358881" lon="10.791374"><ele>715.0</ele><time>2026-04-18T14:24:05.942Z</time></trkpt><trkpt lat="44.3589835" lon="10.7914106"><ele>715.0</ele><time>2026-04-18T14:24:06.941Z</time></trkpt><trkpt lat="44.3590801" lon="10.7914614"><ele>716.8</ele><time>2026-04-18T14:24:07.941Z</time></trkpt><trkpt lat="44.3591743" lon="10.7915246"><ele>718.6</ele><time>2026-04-18T14:24:08.942Z</time></trkpt><trkpt lat="44.3592703" lon="10.7915982"><ele>720.4000000000001</ele><time>2026-04-18T14:24:09.941Z</time></trkpt><trkpt lat="44.3593632" lon="10.7916901"><ele>722.2</ele><time>2026-04-18T14:24:10.942Z</time></trkpt><trkpt lat="44.3594449" lon="10.7917997"><ele>724.0</ele><time>2026-04-18T14:24:11.942Z</time></trkpt><trkpt lat="44.3595236" lon="10.7919137"><ele>725.0</ele><time>2026-04-18T14:24:12.941Z</time></trkpt><trkpt lat="44.3596051" lon="10.7920195"><ele>726.0</ele><time>2026-04-18T14:24:13.942Z</time></trkpt><trkpt lat="44.3596872" lon="10.7921263"><ele>727.0</ele><time>2026-04-18T14:24:14.942Z</time></trkpt><trkpt lat="44.3597659" lon="10.7922369"><ele>728.0</ele><time>2026-04-18T14:24:15.941Z</time></trkpt><trkpt lat="44.3598333" lon="10.7923556"><ele>729.0</ele><time>2026-04-18T14:24:16.942Z</time></trkpt><trkpt lat="44.3598812" lon="10.7924863"><ele>730.6666666666666</ele><time>2026-04-18T14:24:17.942Z</time></trkpt><trkpt lat="44.359901" lon="10.7926183"><ele>732.3333333333334</ele><time>2026-04-18T14:24:18.941Z</time></trkpt><trkpt lat="44.3599153" lon="10.7927463"><ele>734.0</ele><time>2026-04-18T14:24:19.942Z</time></trkpt><trkpt lat="44.3599473" lon="10.7928451"><ele>735.6666666666667</ele><time>2026-04-18T14:24:20.942Z</time></trkpt><trkpt lat="44.3600026" lon="10.7929183"><ele>737.3333333333334</ele><time>2026-04-18T14:24:21.941Z</time></trkpt><trkpt lat="44.3600757" lon="10.7929882"><ele>739.0</ele><time>2026-04-18T14:24:22.941Z</time></trkpt><trkpt lat="44.3601674" lon="10.7930524"><ele>740.0</ele><time>2026-04-18T14:24:23.942Z</time></trkpt><trkpt lat="44.3602656" lon="10.7931185"><ele>741.0</ele><time>2026-04-18T14:24:24.941Z</time></trkpt><trkpt lat="44.3603923" lon="10.7931846"><ele>742.0</ele><time>2026-04-18T14:24:25.941Z</time></trkpt><trkpt lat="44.3605219" lon="10.7932537"><ele>743.0</ele><time>2026-04-18T14:24:26.941Z</time></trkpt><trkpt lat="44.3606433" lon="10.7933076"><ele>744.2</ele><time>2026-04-18T14:24:27.941Z</time></trkpt><trkpt lat="44.3607481" lon="10.7933451"><ele>745.4</ele><time>2026-04-18T14:24:28.941Z</time></trkpt><trkpt lat="44.3608429" lon="10.7933868"><ele>746.6</ele><time>2026-04-18T14:24:29.942Z</time></trkpt><trkpt lat="44.3609378" lon="10.7934408"><ele>747.8000000000001</ele><time>2026-04-18T14:24:30.942Z</time></trkpt><trkpt lat="44.3610261" lon="10.7934949"><ele>749.0</ele><time>2026-04-18T14:24:31.941Z</time></trkpt><trkpt lat="44.3610954" lon="10.7935717"><ele>749.3333333333333</ele><time>2026-04-18T14:24:32.942Z</time></trkpt><trkpt lat="44.3611463" lon="10.7936363"><ele>749.6666666666666</ele><time>2026-04-18T14:24:33.941Z</time></trkpt><trkpt lat="44.3612029" lon="10.7936935"><ele>750.0</ele><time>2026-04-18T14:24:34.942Z</time></trkpt><trkpt lat="44.3612755" lon="10.7938151"><ele>750.3333333333334</ele><time>2026-04-18T14:24:36.941Z</time></trkpt><trkpt lat="44.3613129" lon="10.7938982"><ele>750.6666666666667</ele><time>2026-04-18T14:24:37.941Z</time></trkpt><trkpt lat="44.361364" lon="10.7940017"><ele>751.0</ele><time>2026-04-18T14:24:38.941Z</time></trkpt><trkpt lat="44.3614259" lon="10.7941283"><ele>751.0</ele><time>2026-04-18T14:24:39.942Z</time></trkpt><trkpt lat="44.361496" lon="10.7942742"><ele>751.0</ele><time>2026-04-18T14:24:40.941Z</time></trkpt><trkpt lat="44.3615757" lon="10.7944349"><ele>751.0</ele><time>2026-04-18T14:24:41.941Z</time></trkpt><trkpt lat="44.3616651" lon="10.7946087"><ele>751.0</ele><time>2026-04-18T14:24:42.942Z</time></trkpt><trkpt lat="44.361749" lon="10.7947668"><ele>750.25</ele><time>2026-04-18T14:24:43.941Z</time></trkpt><trkpt lat="44.3618272" lon="10.794911"><ele>749.5</ele><time>2026-04-18T14:24:44.942Z</time></trkpt><trkpt lat="44.3618998" lon="10.7950517"><ele>748.75</ele><time>2026-04-18T14:24:45.941Z</time></trkpt><trkpt lat="44.3619635" lon="10.7952059"><ele>748.0</ele><time>2026-04-18T14:24:46.941Z</time></trkpt><trkpt lat="44.3620126" lon="10.7953697"><ele>748.0</ele><time>2026-04-18T14:24:47.941Z</time></trkpt><trkpt lat="44.3620609" lon="10.7955395"><ele>748.0</ele><time>2026-04-18T14:24:48.942Z</time></trkpt><trkpt lat="44.3621039" lon="10.7957165"><ele>748.0</ele><time>2026-04-18T14:24:49.941Z</time></trkpt><trkpt lat="44.3621512" lon="10.7958924"><ele>748.0</ele><time>2026-04-18T14:24:50.941Z</time></trkpt><trkpt lat="44.3621965" lon="10.7960568"><ele>749.5</ele><time>2026-04-18T14:24:51.942Z</time></trkpt><trkpt lat="44.3622378" lon="10.796206"><ele>751.0</ele><time>2026-04-18T14:24:52.941Z</time></trkpt><trkpt lat="44.3622855" lon="10.7963674"><ele>752.5</ele><time>2026-04-18T14:24:53.941Z</time></trkpt><trkpt lat="44.362336" lon="10.7965331"><ele>754.0</ele><time>2026-04-18T14:24:54.942Z</time></trkpt><trkpt lat="44.362384" lon="10.7966922"><ele>753.75</ele><time>2026-04-18T14:24:55.942Z</time></trkpt><trkpt lat="44.3624257" lon="10.7968421"><ele>753.5</ele><time>2026-04-18T14:24:56.942Z</time></trkpt><trkpt lat="44.3624694" lon="10.7969935"><ele>753.25</ele><time>2026-04-18T14:24:57.941Z</time></trkpt><trkpt lat="44.3625108" lon="10.7971425"><ele>753.0</ele><time>2026-04-18T14:24:58.942Z</time></trkpt><trkpt lat="44.3625524" lon="10.7972866"><ele>753.0</ele><time>2026-04-18T14:24:59.942Z</time></trkpt><trkpt lat="44.3625975" lon="10.7974223"><ele>753.0</ele><time>2026-04-18T14:25:00.942Z</time></trkpt><trkpt lat="44.3626327" lon="10.7975614"><ele>753.0</ele><time>2026-04-18T14:25:01.941Z</time></trkpt><trkpt lat="44.3626548" lon="10.7976948"><ele>753.0</ele><time>2026-04-18T14:25:02.941Z</time></trkpt><trkpt lat="44.3626828" lon="10.7978286"><ele>753.0</ele><time>2026-04-18T14:25:03.941Z</time></trkpt><trkpt lat="44.3627272" lon="10.7979606"><ele>752.5999999999999</ele><time>2026-04-18T14:25:04.942Z</time></trkpt><trkpt lat="44.3627912" lon="10.7980847"><ele>752.1999999999999</ele><time>2026-04-18T14:25:05.941Z</time></trkpt><trkpt lat="44.362865" lon="10.7982066"><ele>751.8</ele><time>2026-04-18T14:25:06.941Z</time></trkpt><trkpt lat="44.362946" lon="10.7983184"><ele>751.4</ele><time>2026-04-18T14:25:07.942Z</time></trkpt><trkpt lat="44.363031" lon="10.79841"><ele>751.0</ele><time>2026-04-18T14:25:08.941Z</time></trkpt><trkpt lat="44.3631271" lon="10.7984843"><ele>751.0</ele><time>2026-04-18T14:25:09.941Z</time></trkpt><trkpt lat="44.3632276" lon="10.7985506"><ele>751.0</ele><time>2026-04-18T14:25:10.941Z</time></trkpt><trkpt lat="44.3633196" lon="10.7986016"><ele>751.0</ele><time>2026-04-18T14:25:11.942Z</time></trkpt><trkpt lat="44.3634071" lon="10.7986613"><ele>751.0</ele><time>2026-04-18T14:25:12.941Z</time></trkpt><trkpt lat="44.3634838" lon="10.7987441"><ele>751.0</ele><time>2026-04-18T14:25:13.941Z</time></trkpt><trkpt lat="44.363547" lon="10.7988404"><ele>751.0</ele><time>2026-04-18T14:25:14.941Z</time></trkpt><trkpt lat="44.3636128" lon="10.7989408"><ele>751.0</ele><time>2026-04-18T14:25:15.942Z</time></trkpt><trkpt lat="44.3636951" lon="10.7990256"><ele>751.0</ele><time>2026-04-18T14:25:16.941Z</time></trkpt><trkpt lat="44.3637879" lon="10.7991078"><ele>751.0</ele><time>2026-04-18T14:25:17.941Z</time></trkpt><trkpt lat="44.3638814" lon="10.7991946"><ele>751.0</ele><time>2026-04-18T14:25:18.942Z</time></trkpt><trkpt lat="44.3639799" lon="10.7992868"><ele>749.25</ele><time>2026-04-18T14:25:19.941Z</time></trkpt><trkpt lat="44.3640833" lon="10.7993816"><ele>747.5</ele><time>2026-04-18T14:25:20.941Z</time></trkpt><trkpt lat="44.3641859" lon="10.7994882"><ele>745.75</ele><time>2026-04-18T14:25:21.942Z</time></trkpt><trkpt lat="44.3642873" lon="10.7996077"><ele>744.0</ele><time>2026-04-18T14:25:22.941Z</time></trkpt><trkpt lat="44.3643941" lon="10.7997275"><ele>744.0</ele><time>2026-04-18T14:25:23.942Z</time></trkpt><trkpt lat="44.3645105" lon="10.7998598"><ele>744.0</ele><time>2026-04-18T14:25:24.942Z</time></trkpt><trkpt lat="44.3646294" lon="10.7999874"><ele>744.0</ele><time>2026-04-18T14:25:25.942Z</time></trkpt><trkpt lat="44.364748" lon="10.800117"><ele>742.3333333333334</ele><time>2026-04-18T14:25:26.941Z</time></trkpt><trkpt lat="44.3648704" lon="10.8002458"><ele>740.6666666666667</ele><time>2026-04-18T14:25:27.942Z</time></trkpt><trkpt lat="44.364991" lon="10.8003652"><ele>739.0</ele><time>2026-04-18T14:25:28.942Z</time></trkpt><trkpt lat="44.3651166" lon="10.800483"><ele>739.0</ele><time>2026-04-18T14:25:29.941Z</time></trkpt><trkpt lat="44.3652364" lon="10.8005979"><ele>739.0</ele><time>2026-04-18T14:25:30.942Z</time></trkpt><trkpt lat="44.3653568" lon="10.800712"><ele>739.0</ele><time>2026-04-18T14:25:31.941Z</time></trkpt><trkpt lat="44.3654777" lon="10.8008314"><ele>739.0</ele><time>2026-04-18T14:25:32.941Z</time></trkpt><trkpt lat="44.3655988" lon="10.800948"><ele>737.75</ele><time>2026-04-18T14:25:33.942Z</time></trkpt><trkpt lat="44.365722" lon="10.8010537"><ele>736.5</ele><time>2026-04-18T14:25:34.941Z</time></trkpt><trkpt lat="44.3658468" lon="10.8011417"><ele>735.25</ele><time>2026-04-18T14:25:35.941Z</time></trkpt><trkpt lat="44.3659736" lon="10.8012152"><ele>734.0</ele><time>2026-04-18T14:25:36.941Z</time></trkpt><trkpt lat="44.3661046" lon="10.8012693"><ele>734.0</ele><time>2026-04-18T14:25:37.941Z</time></trkpt><trkpt lat="44.366237" lon="10.8013126"><ele>734.0</ele><time>2026-04-18T14:25:38.941Z</time></trkpt><trkpt lat="44.3663674" lon="10.8013579"><ele>734.0</ele><time>2026-04-18T14:25:39.941Z</time></trkpt><trkpt lat="44.3665039" lon="10.8014198"><ele>734.0</ele><time>2026-04-18T14:25:40.942Z</time></trkpt><trkpt lat="44.3666344" lon="10.8014959"><ele>733.75</ele><time>2026-04-18T14:25:41.942Z</time></trkpt><trkpt lat="44.3667652" lon="10.8015838"><ele>733.5</ele><time>2026-04-18T14:25:42.942Z</time></trkpt><trkpt lat="44.3668932" lon="10.8016776"><ele>733.25</ele><time>2026-04-18T14:25:43.941Z</time></trkpt><trkpt lat="44.3670262" lon="10.8017681"><ele>733.0</ele><time>2026-04-18T14:25:44.941Z</time></trkpt><trkpt lat="44.3671614" lon="10.8018536"><ele>731.25</ele><time>2026-04-18T14:25:45.942Z</time></trkpt><trkpt lat="44.3672967" lon="10.80193"><ele>729.5</ele><time>2026-04-18T14:25:46.942Z</time></trkpt><trkpt lat="44.3674348" lon="10.8020003"><ele>727.75</ele><time>2026-04-18T14:25:47.942Z</time></trkpt><trkpt lat="44.3675754" lon="10.8020511"><ele>726.0</ele><time>2026-04-18T14:25:48.941Z</time></trkpt><trkpt lat="44.3677216" lon="10.802082"><ele>726.0</ele><time>2026-04-18T14:25:49.942Z</time></trkpt><trkpt lat="44.3678704" lon="10.8020949"><ele>726.0</ele><time>2026-04-18T14:25:50.941Z</time></trkpt><trkpt lat="44.3680219" lon="10.8020991"><ele>726.0</ele><time>2026-04-18T14:25:51.941Z</time></trkpt><trkpt lat="44.3681783" lon="10.8021048"><ele>725.6666666666666</ele><time>2026-04-18T14:25:52.941Z</time></trkpt><trkpt lat="44.3683287" lon="10.8021107"><ele>725.3333333333333</ele><time>2026-04-18T14:25:53.941Z</time></trkpt><trkpt lat="44.3684834" lon="10.8021158"><ele>725.0</ele><time>2026-04-18T14:25:54.942Z</time></trkpt><trkpt lat="44.3686371" lon="10.8021126"><ele>725.0</ele><time>2026-04-18T14:25:55.941Z</time></trkpt><trkpt lat="44.3687848" lon="10.8021082"><ele>725.0</ele><time>2026-04-18T14:25:56.942Z</time></trkpt><trkpt lat="44.3689291" lon="10.8021102"><ele>725.0</ele><time>2026-04-18T14:25:57.941Z</time></trkpt><trkpt lat="44.3690682" lon="10.8021324"><ele>725.0</ele><time>2026-04-18T14:25:58.942Z</time></trkpt><trkpt lat="44.3692022" lon="10.8021703"><ele>726.0</ele><time>2026-04-18T14:25:59.941Z</time></trkpt><trkpt lat="44.3693336" lon="10.8022175"><ele>727.0</ele><time>2026-04-18T14:26:00.942Z</time></trkpt><trkpt lat="44.3694631" lon="10.8022674"><ele>728.0</ele><time>2026-04-18T14:26:01.941Z</time></trkpt><trkpt lat="44.3695923" lon="10.8023182"><ele>729.0</ele><time>2026-04-18T14:26:02.941Z</time></trkpt><trkpt lat="44.3697239" lon="10.8023773"><ele>729.0</ele><time>2026-04-18T14:26:03.941Z</time></trkpt><trkpt lat="44.3698558" lon="10.8024424"><ele>729.0</ele><time>2026-04-18T14:26:04.941Z</time></trkpt><trkpt lat="44.3699898" lon="10.8025215"><ele>729.0</ele><time>2026-04-18T14:26:05.941Z</time></trkpt><trkpt lat="44.3701258" lon="10.8026061"><ele>729.0</ele><time>2026-04-18T14:26:06.942Z</time></trkpt><trkpt lat="44.3702613" lon="10.8026957"><ele>729.0</ele><time>2026-04-18T14:26:07.942Z</time></trkpt><trkpt lat="44.370398" lon="10.8027854"><ele>729.0</ele><time>2026-04-18T14:26:08.941Z</time></trkpt><trkpt lat="44.3705395" lon="10.8028758"><ele>729.0</ele><time>2026-04-18T14:26:09.942Z</time></trkpt><trkpt lat="44.3706803" lon="10.8029556"><ele>729.0</ele><time>2026-04-18T14:26:10.941Z</time></trkpt><trkpt lat="44.3708195" lon="10.8030344"><ele>729.0</ele><time>2026-04-18T14:26:11.942Z</time></trkpt><trkpt lat="44.3709565" lon="10.8031095"><ele>729.0</ele><time>2026-04-18T14:26:12.942Z</time></trkpt><trkpt lat="44.3710904" lon="10.8031857"><ele>729.0</ele><time>2026-04-18T14:26:13.942Z</time></trkpt><trkpt lat="44.3712209" lon="10.8032587"><ele>729.0</ele><time>2026-04-18T14:26:14.942Z</time></trkpt><trkpt lat="44.3713551" lon="10.8033274"><ele>729.0</ele><time>2026-04-18T14:26:15.941Z</time></trkpt><trkpt lat="44.3714922" lon="10.8033896"><ele>729.0</ele><time>2026-04-18T14:26:16.941Z</time></trkpt><trkpt lat="44.3716273" lon="10.8034515"><ele>729.0</ele><time>2026-04-18T14:26:17.941Z</time></trkpt><trkpt lat="44.3717558" lon="10.8035262"><ele>729.25</ele><time>2026-04-18T14:26:18.941Z</time></trkpt><trkpt lat="44.3718788" lon="10.8035937"><ele>729.5</ele><time>2026-04-18T14:26:19.941Z</time></trkpt><trkpt lat="44.3720081" lon="10.8036591"><ele>729.75</ele><time>2026-04-18T14:26:20.942Z</time></trkpt><trkpt lat="44.3721456" lon="10.8037125"><ele>730.0</ele><time>2026-04-18T14:26:21.942Z</time></trkpt><trkpt lat="44.3722883" lon="10.8037605"><ele>730.0</ele><time>2026-04-18T14:26:22.941Z</time></trkpt><trkpt lat="44.3724383" lon="10.8038001"><ele>730.0</ele><time>2026-04-18T14:26:23.942Z</time></trkpt><trkpt lat="44.3725878" lon="10.8038431"><ele>730.0</ele><time>2026-04-18T14:26:24.941Z</time></trkpt><trkpt lat="44.3727345" lon="10.8038873"><ele>730.0</ele><time>2026-04-18T14:26:25.941Z</time></trkpt><trkpt lat="44.372881" lon="10.8039296"><ele>730.0</ele><time>2026-04-18T14:26:26.941Z</time></trkpt><trkpt lat="44.3730143" lon="10.8039683"><ele>730.0</ele><time>2026-04-18T14:26:27.941Z</time></trkpt><trkpt lat="44.3731348" lon="10.8040018"><ele>730.0</ele><time>2026-04-18T14:26:28.941Z</time></trkpt><trkpt lat="44.3732476" lon="10.8040292"><ele>730.6</ele><time>2026-04-18T14:26:29.942Z</time></trkpt><trkpt lat="44.3733459" lon="10.8040451"><ele>731.2</ele><time>2026-04-18T14:26:30.941Z</time></trkpt><trkpt lat="44.3734248" lon="10.804051"><ele>731.8</ele><time>2026-04-18T14:26:31.941Z</time></trkpt><trkpt lat="44.3734962" lon="10.8040475"><ele>732.4</ele><time>2026-04-18T14:26:32.942Z</time></trkpt><trkpt lat="44.3735993" lon="10.8040643"><ele>733.0</ele><time>2026-04-18T14:26:34.942Z</time></trkpt><trkpt lat="44.3737086" lon="10.8041863"><ele>733.0</ele><time>2026-04-18T14:26:36.942Z</time></trkpt><trkpt lat="44.3737913" lon="10.8042669"><ele>733.0</ele><time>2026-04-18T14:26:37.941Z</time></trkpt><trkpt lat="44.3738948" lon="10.8043341"><ele>733.0</ele><time>2026-04-18T14:26:38.941Z</time></trkpt><trkpt lat="44.3740186" lon="10.8043737"><ele>733.0</ele><time>2026-04-18T14:26:39.941Z</time></trkpt><trkpt lat="44.3741518" lon="10.8043773"><ele>732.5</ele><time>2026-04-18T14:26:40.941Z</time></trkpt><trkpt lat="44.3742923" lon="10.8043444"><ele>732.0</ele><time>2026-04-18T14:26:41.941Z</time></trkpt><trkpt lat="44.3744324" lon="10.80428"><ele>731.5</ele><time>2026-04-18T14:26:42.941Z</time></trkpt><trkpt lat="44.3745724" lon="10.8042213"><ele>731.0</ele><time>2026-04-18T14:26:43.942Z</time></trkpt><trkpt lat="44.3746907" lon="10.8042007"><ele>733.25</ele><time>2026-04-18T14:26:44.942Z</time></trkpt><trkpt lat="44.3748186" lon="10.8042144"><ele>735.5</ele><time>2026-04-18T14:26:45.942Z</time></trkpt><trkpt lat="44.3749411" lon="10.8042647"><ele>737.75</ele><time>2026-04-18T14:26:46.941Z</time></trkpt><trkpt lat="44.3750603" lon="10.8043459"><ele>740.0</ele><time>2026-04-18T14:26:47.941Z</time></trkpt><trkpt lat="44.3751807" lon="10.8044421"><ele>740.0</ele><time>2026-04-18T14:26:48.941Z</time></trkpt><trkpt lat="44.375293" lon="10.8045657"><ele>740.0</ele><time>2026-04-18T14:26:49.941Z</time></trkpt><trkpt lat="44.3753881" lon="10.8047178"><ele>740.0</ele><time>2026-04-18T14:26:50.941Z</time></trkpt><trkpt lat="44.3754575" lon="10.8048715"><ele>740.0</ele><time>2026-04-18T14:26:51.941Z</time></trkpt><trkpt lat="44.3755167" lon="10.8050324"><ele>740.75</ele><time>2026-04-18T14:26:52.941Z</time></trkpt><trkpt lat="44.3755783" lon="10.8052036"><ele>741.5</ele><time>2026-04-18T14:26:53.942Z</time></trkpt><trkpt lat="44.375635" lon="10.8053778"><ele>742.25</ele><time>2026-04-18T14:26:54.942Z</time></trkpt><trkpt lat="44.3756802" lon="10.8055566"><ele>743.0</ele><time>2026-04-18T14:26:55.941Z</time></trkpt><trkpt lat="44.3756984" lon="10.8057206"><ele>743.0</ele><time>2026-04-18T14:26:56.942Z</time></trkpt><trkpt lat="44.3757001" lon="10.8058797"><ele>743.0</ele><time>2026-04-18T14:26:57.941Z</time></trkpt><trkpt lat="44.375683" lon="10.806043"><ele>743.0</ele><time>2026-04-18T14:26:58.942Z</time></trkpt><trkpt lat="44.3756581" lon="10.8062149"><ele>743.0</ele><time>2026-04-18T14:26:59.942Z</time></trkpt><trkpt lat="44.375625" lon="10.8064001"><ele>742.5</ele><time>2026-04-18T14:27:00.942Z</time></trkpt><trkpt lat="44.3756008" lon="10.8065666"><ele>742.0</ele><time>2026-04-18T14:27:01.941Z</time></trkpt><trkpt lat="44.3755874" lon="10.8067282"><ele>741.5</ele><time>2026-04-18T14:27:02.942Z</time></trkpt><trkpt lat="44.375584" lon="10.8068828"><ele>741.0</ele><time>2026-04-18T14:27:03.941Z</time></trkpt><trkpt lat="44.3756073" lon="10.8070345"><ele>741.0</ele><time>2026-04-18T14:27:04.942Z</time></trkpt><trkpt lat="44.3756584" lon="10.8071737"><ele>741.0</ele><time>2026-04-18T14:27:05.941Z</time></trkpt><trkpt lat="44.3757336" lon="10.8073106"><ele>741.0</ele><time>2026-04-18T14:27:06.942Z</time></trkpt><trkpt lat="44.3758195" lon="10.8074501"><ele>741.0</ele><time>2026-04-18T14:27:07.942Z</time></trkpt><trkpt lat="44.375921" lon="10.8075993"><ele>738.6666666666666</ele><time>2026-04-18T14:27:08.941Z</time></trkpt><trkpt lat="44.3760182" lon="10.8077582"><ele>736.3333333333333</ele><time>2026-04-18T14:27:09.941Z</time></trkpt><trkpt lat="44.376113" lon="10.8079274"><ele>734.0</ele><time>2026-04-18T14:27:10.941Z</time></trkpt><trkpt lat="44.3762054" lon="10.8080967"><ele>734.0</ele><time>2026-04-18T14:27:11.941Z</time></trkpt><trkpt lat="44.3762914" lon="10.8082587"><ele>734.0</ele><time>2026-04-18T14:27:12.941Z</time></trkpt><trkpt lat="44.3763782" lon="10.8084135"><ele>734.0</ele><time>2026-04-18T14:27:13.941Z</time></trkpt><trkpt lat="44.376472" lon="10.8085695"><ele>734.0</ele><time>2026-04-18T14:27:14.941Z</time></trkpt><trkpt lat="44.3765733" lon="10.8087179"><ele>734.75</ele><time>2026-04-18T14:27:15.942Z</time></trkpt><trkpt lat="44.3766865" lon="10.8088556"><ele>735.5</ele><time>2026-04-18T14:27:16.941Z</time></trkpt><trkpt lat="44.3768042" lon="10.8089828"><ele>736.25</ele><time>2026-04-18T14:27:17.941Z</time></trkpt><trkpt lat="44.3769269" lon="10.8090974"><ele>737.0</ele><time>2026-04-18T14:27:18.942Z</time></trkpt><trkpt lat="44.3770478" lon="10.8091912"><ele>737.0</ele><time>2026-04-18T14:27:19.942Z</time></trkpt><trkpt lat="44.3771598" lon="10.8092664"><ele>737.0</ele><time>2026-04-18T14:27:20.941Z</time></trkpt><trkpt lat="44.3772685" lon="10.8093293"><ele>737.0</ele><time>2026-04-18T14:27:21.942Z</time></trkpt><trkpt lat="44.3773763" lon="10.8093902"><ele>737.0</ele><time>2026-04-18T14:27:22.942Z</time></trkpt><trkpt lat="44.3774806" lon="10.8094465"><ele>735.75</ele><time>2026-04-18T14:27:23.941Z</time></trkpt><trkpt lat="44.3775828" lon="10.8094943"><ele>734.5</ele><time>2026-04-18T14:27:24.942Z</time></trkpt><trkpt lat="44.3776843" lon="10.8095514"><ele>733.25</ele><time>2026-04-18T14:27:25.941Z</time></trkpt><trkpt lat="44.3777927" lon="10.8096204"><ele>732.0</ele><time>2026-04-18T14:27:26.941Z</time></trkpt><trkpt lat="44.377902" lon="10.8097096"><ele>732.0</ele><time>2026-04-18T14:27:27.942Z</time></trkpt><trkpt lat="44.3780032" lon="10.8098135"><ele>732.0</ele><time>2026-04-18T14:27:28.942Z</time></trkpt><trkpt lat="44.3780983" lon="10.8099269"><ele>732.0</ele><time>2026-04-18T14:27:29.941Z</time></trkpt><trkpt lat="44.3781821" lon="10.8100483"><ele>732.0</ele><time>2026-04-18T14:27:30.941Z</time></trkpt><trkpt lat="44.3782625" lon="10.8101662"><ele>730.25</ele><time>2026-04-18T14:27:31.941Z</time></trkpt><trkpt lat="44.3783456" lon="10.8102786"><ele>728.5</ele><time>2026-04-18T14:27:32.942Z</time></trkpt><trkpt lat="44.3784398" lon="10.8103916"><ele>726.75</ele><time>2026-04-18T14:27:33.941Z</time></trkpt><trkpt lat="44.3785357" lon="10.8104928"><ele>725.0</ele><time>2026-04-18T14:27:34.941Z</time></trkpt><trkpt lat="44.3786297" lon="10.8105784"><ele>725.0</ele><time>2026-04-18T14:27:35.941Z</time></trkpt><trkpt lat="44.3787268" lon="10.8106503"><ele>725.0</ele><time>2026-04-18T14:27:36.941Z</time></trkpt><trkpt lat="44.3788255" lon="10.8106985"><ele>725.0</ele><time>2026-04-18T14:27:37.942Z</time></trkpt><trkpt lat="44.3789301" lon="10.8107262"><ele>725.0</ele><time>2026-04-18T14:27:38.941Z</time></trkpt><trkpt lat="44.3790393" lon="10.8107427"><ele>725.0</ele><time>2026-04-18T14:27:39.942Z</time></trkpt><trkpt lat="44.379147" lon="10.8107801"><ele>725.4</ele><time>2026-04-18T14:27:40.941Z</time></trkpt><trkpt lat="44.3792469" lon="10.8108222"><ele>725.8</ele><time>2026-04-18T14:27:41.941Z</time></trkpt><trkpt lat="44.3793388" lon="10.8108712"><ele>726.2</ele><time>2026-04-18T14:27:42.941Z</time></trkpt><trkpt lat="44.3794315" lon="10.810912"><ele>726.6</ele><time>2026-04-18T14:27:43.942Z</time></trkpt><trkpt lat="44.3795294" lon="10.8109512"><ele>727.0</ele><time>2026-04-18T14:27:44.941Z</time></trkpt><trkpt lat="44.37963" lon="10.810988"><ele>726.4000000000001</ele><time>2026-04-18T14:27:45.942Z</time></trkpt><trkpt lat="44.3797269" lon="10.8110157"><ele>725.8000000000001</ele><time>2026-04-18T14:27:46.942Z</time></trkpt><trkpt lat="44.3798204" lon="10.8110387"><ele>725.2</ele><time>2026-04-18T14:27:47.942Z</time></trkpt><trkpt lat="44.3799052" lon="10.8110637"><ele>724.6</ele><time>2026-04-18T14:27:48.942Z</time></trkpt><trkpt lat="44.3799877" lon="10.8110881"><ele>724.0</ele><time>2026-04-18T14:27:49.941Z</time></trkpt><trkpt lat="44.3800763" lon="10.8111093"><ele>724.0</ele><time>2026-04-18T14:27:50.942Z</time></trkpt><trkpt lat="44.3801712" lon="10.8111305"><ele>724.0</ele><time>2026-04-18T14:27:51.942Z</time></trkpt><trkpt lat="44.3802702" lon="10.8111456"><ele>724.0</ele><time>2026-04-18T14:27:52.941Z</time></trkpt><trkpt lat="44.3803727" lon="10.8111621"><ele>724.0</ele><time>2026-04-18T14:27:53.941Z</time></trkpt><trkpt lat="44.3804852" lon="10.8111718"><ele>724.0</ele><time>2026-04-18T14:27:54.941Z</time></trkpt><trkpt lat="44.3805957" lon="10.8111843"><ele>725.4000000000001</ele><time>2026-04-18T14:27:55.942Z</time></trkpt><trkpt lat="44.3807096" lon="10.8111821"><ele>726.8</ele><time>2026-04-18T14:27:56.942Z</time></trkpt><trkpt lat="44.3808181" lon="10.8111814"><ele>728.2</ele><time>2026-04-18T14:27:57.942Z</time></trkpt><trkpt lat="44.3809258" lon="10.8111827"><ele>729.5999999999999</ele><time>2026-04-18T14:27:58.942Z</time></trkpt><trkpt lat="44.3810275" lon="10.8111835"><ele>731.0</ele><time>2026-04-18T14:27:59.941Z</time></trkpt><trkpt lat="44.381114" lon="10.811193"><ele>731.0</ele><time>2026-04-18T14:28:00.942Z</time></trkpt><trkpt lat="44.3811927" lon="10.8112224"><ele>731.0</ele><time>2026-04-18T14:28:01.941Z</time></trkpt><trkpt lat="44.3812707" lon="10.8112582"><ele>731.0</ele><time>2026-04-18T14:28:02.942Z</time></trkpt><trkpt lat="44.3813506" lon="10.8113"><ele>731.0</ele><time>2026-04-18T14:28:03.941Z</time></trkpt><trkpt lat="44.3814317" lon="10.8113494"><ele>731.0</ele><time>2026-04-18T14:28:04.942Z</time></trkpt><trkpt lat="44.3815128" lon="10.8114023"><ele>731.0</ele><time>2026-04-18T14:28:05.941Z</time></trkpt><trkpt lat="44.3815972" lon="10.8114537"><ele>732.4</ele><time>2026-04-18T14:28:06.941Z</time></trkpt><trkpt lat="44.3816836" lon="10.8115009"><ele>733.8</ele><time>2026-04-18T14:28:07.942Z</time></trkpt><trkpt lat="44.3817675" lon="10.8115552"><ele>735.1999999999999</ele><time>2026-04-18T14:28:08.941Z</time></trkpt><trkpt lat="44.3818539" lon="10.8116071"><ele>736.5999999999999</ele><time>2026-04-18T14:28:09.942Z</time></trkpt><trkpt lat="44.3819402" lon="10.8116451"><ele>738.0</ele><time>2026-04-18T14:28:10.942Z</time></trkpt><trkpt lat="44.3820249" lon="10.8116537"><ele>738.0</ele><time>2026-04-18T14:28:11.941Z</time></trkpt><trkpt lat="44.3820982" lon="10.8116393"><ele>738.0</ele><time>2026-04-18T14:28:12.941Z</time></trkpt><trkpt lat="44.3821756" lon="10.8116151"><ele>738.0</ele><time>2026-04-18T14:28:13.941Z</time></trkpt><trkpt lat="44.3822598" lon="10.8115891"><ele>738.0</ele><time>2026-04-18T14:28:14.941Z</time></trkpt><trkpt lat="44.3823413" lon="10.8115792"><ele>738.0</ele><time>2026-04-18T14:28:15.941Z</time></trkpt><trkpt lat="44.3824251" lon="10.8115803"><ele>738.0</ele><time>2026-04-18T14:28:16.942Z</time></trkpt><trkpt lat="44.3825108" lon="10.8115948"><ele>739.5</ele><time>2026-04-18T14:28:17.942Z</time></trkpt><trkpt lat="44.3825884" lon="10.8116247"><ele>741.0</ele><time>2026-04-18T14:28:18.942Z</time></trkpt><trkpt lat="44.3826603" lon="10.8116743"><ele>742.5</ele><time>2026-04-18T14:28:19.941Z</time></trkpt><trkpt lat="44.382735" lon="10.8117322"><ele>744.0</ele><time>2026-04-18T14:28:20.942Z</time></trkpt><trkpt lat="44.3828164" lon="10.811788"><ele>745.5</ele><time>2026-04-18T14:28:21.941Z</time></trkpt><trkpt lat="44.3828935" lon="10.8118472"><ele>747.0</ele><time>2026-04-18T14:28:22.942Z</time></trkpt><trkpt lat="44.3829723" lon="10.8119256"><ele>750.4000000000001</ele><time>2026-04-18T14:28:23.942Z</time></trkpt><trkpt lat="44.3830647" lon="10.8119955"><ele>753.8000000000001</ele><time>2026-04-18T14:28:24.941Z</time></trkpt><trkpt lat="44.3831615" lon="10.8120666"><ele>757.2</ele><time>2026-04-18T14:28:25.941Z</time></trkpt><trkpt lat="44.3832539" lon="10.8121289"><ele>760.6</ele><time>2026-04-18T14:28:26.941Z</time></trkpt><trkpt lat="44.3833437" lon="10.8121886"><ele>764.0</ele><time>2026-04-18T14:28:27.942Z</time></trkpt><trkpt lat="44.3834226" lon="10.8122386"><ele>764.0</ele><time>2026-04-18T14:28:28.941Z</time></trkpt><trkpt lat="44.3834865" lon="10.8123046"><ele>764.0</ele><time>2026-04-18T14:28:29.941Z</time></trkpt><trkpt lat="44.3835414" lon="10.8123932"><ele>764.0</ele><time>2026-04-18T14:28:30.942Z</time></trkpt><trkpt lat="44.383615" lon="10.812474"><ele>764.0</ele><time>2026-04-18T14:28:31.941Z</time></trkpt><trkpt lat="44.3836983" lon="10.8125673"><ele>764.0</ele><time>2026-04-18T14:28:32.941Z</time></trkpt><trkpt lat="44.3837887" lon="10.8126499"><ele>763.0</ele><time>2026-04-18T14:28:33.941Z</time></trkpt><trkpt lat="44.3838843" lon="10.812734"><ele>762.0</ele><time>2026-04-18T14:28:34.942Z</time></trkpt><trkpt lat="44.3839722" lon="10.8127989"><ele>761.0</ele><time>2026-04-18T14:28:35.942Z</time></trkpt><trkpt lat="44.3840671" lon="10.8128548"><ele>760.0</ele><time>2026-04-18T14:28:36.942Z</time></trkpt><trkpt lat="44.3841723" lon="10.8128912"><ele>759.0</ele><time>2026-04-18T14:28:37.941Z</time></trkpt><trkpt lat="44.3842704" lon="10.8129451"><ele>759.0</ele><time>2026-04-18T14:28:38.942Z</time></trkpt><trkpt lat="44.3843503" lon="10.8129926"><ele>759.0</ele><time>2026-04-18T14:28:39.942Z</time></trkpt><trkpt lat="44.3844239" lon="10.8130411"><ele>759.0</ele><time>2026-04-18T14:28:40.942Z</time></trkpt><trkpt lat="44.3845062" lon="10.8131003"><ele>759.0</ele><time>2026-04-18T14:28:41.941Z</time></trkpt><trkpt lat="44.3845773" lon="10.8131576"><ele>759.0</ele><time>2026-04-18T14:28:42.942Z</time></trkpt><trkpt lat="44.384655" lon="10.8132066"><ele>759.0</ele><time>2026-04-18T14:28:43.942Z</time></trkpt><trkpt lat="44.3847361" lon="10.8132601"><ele>758.2</ele><time>2026-04-18T14:28:44.941Z</time></trkpt><trkpt lat="44.3848137" lon="10.813311"><ele>757.4000000000001</ele><time>2026-04-18T14:28:45.941Z</time></trkpt><trkpt lat="44.3849098" lon="10.8133688"><ele>756.6</ele><time>2026-04-18T14:28:46.941Z</time></trkpt><trkpt lat="44.3850084" lon="10.8134417"><ele>755.8</ele><time>2026-04-18T14:28:47.942Z</time></trkpt><trkpt lat="44.3850981" lon="10.8135159"><ele>755.0</ele><time>2026-04-18T14:28:48.942Z</time></trkpt><trkpt lat="44.3851825" lon="10.8135891"><ele>754.6</ele><time>2026-04-18T14:28:49.941Z</time></trkpt><trkpt lat="44.3852698" lon="10.8136966"><ele>754.2</ele><time>2026-04-18T14:28:50.941Z</time></trkpt><trkpt lat="44.3853432" lon="10.8138056"><ele>753.8</ele><time>2026-04-18T14:28:51.941Z</time></trkpt><trkpt lat="44.3854064" lon="10.8139206"><ele>753.4</ele><time>2026-04-18T14:28:52.941Z</time></trkpt><trkpt lat="44.3854564" lon="10.8140124"><ele>753.0</ele><time>2026-04-18T14:28:53.941Z</time></trkpt><trkpt lat="44.3854899" lon="10.8140961"><ele>753.6666666666666</ele><time>2026-04-18T14:28:56.941Z</time></trkpt><trkpt lat="44.3855359" lon="10.8141888"><ele>754.3333333333334</ele><time>2026-04-18T14:29:44.941Z</time></trkpt><trkpt lat="44.3855697" lon="10.8142639"><ele>755.0</ele><time>2026-04-18T14:29:45.941Z</time></trkpt><trkpt lat="44.3856098" lon="10.814353"><ele>755.6666666666667</ele><time>2026-04-18T14:29:46.942Z</time></trkpt><trkpt lat="44.3856655" lon="10.8144584"><ele>756.3333333333334</ele><time>2026-04-18T14:29:47.941Z</time></trkpt><trkpt lat="44.3857224" lon="10.8145572"><ele>757.0</ele><time>2026-04-18T14:29:48.942Z</time></trkpt><trkpt lat="44.3857867" lon="10.8146365"><ele>757.5</ele><time>2026-04-18T14:29:49.941Z</time></trkpt><trkpt lat="44.3858496" lon="10.8147101"><ele>758.0</ele><time>2026-04-18T14:29:50.941Z</time></trkpt><trkpt lat="44.385922" lon="10.8147561"><ele>758.5</ele><time>2026-04-18T14:29:51.941Z</time></trkpt><trkpt lat="44.3859975" lon="10.8147959"><ele>759.0</ele><time>2026-04-18T14:29:52.942Z</time></trkpt><trkpt lat="44.3860725" lon="10.814832"><ele>759.5</ele><time>2026-04-18T14:29:53.942Z</time></trkpt><trkpt lat="44.3861587" lon="10.8148474"><ele>760.0</ele><time>2026-04-18T14:29:54.941Z</time></trkpt><trkpt lat="44.3862433" lon="10.8148807"><ele>760.0</ele><time>2026-04-18T14:29:55.942Z</time></trkpt><trkpt lat="44.3863402" lon="10.8149053"><ele>760.0</ele><time>2026-04-18T14:29:56.942Z</time></trkpt><trkpt lat="44.3864305" lon="10.814896"><ele>760.0</ele><time>2026-04-18T14:29:57.942Z</time></trkpt><trkpt lat="44.3865187" lon="10.8149013"><ele>760.0</ele><time>2026-04-18T14:29:58.942Z</time></trkpt><trkpt lat="44.3865959" lon="10.8149239"><ele>760.0</ele><time>2026-04-18T14:29:59.942Z</time></trkpt><trkpt lat="44.3866693" lon="10.814931"><ele>760.0</ele><time>2026-04-18T14:30:00.942Z</time></trkpt><trkpt lat="44.3867355" lon="10.8149208"><ele>760.3333333333334</ele><time>2026-04-18T14:30:01.941Z</time></trkpt><trkpt lat="44.3868302" lon="10.8149412"><ele>760.6666666666667</ele><time>2026-04-18T14:30:03.941Z</time></trkpt><trkpt lat="44.3868941" lon="10.8149791"><ele>761.0</ele><time>2026-04-18T14:30:13.941Z</time></trkpt><trkpt lat="44.3869615" lon="10.8149492"><ele>761.3333333333334</ele><time>2026-04-18T14:30:14.942Z</time></trkpt><trkpt lat="44.3870225" lon="10.8148986"><ele>761.6666666666666</ele><time>2026-04-18T14:30:15.941Z</time></trkpt><trkpt lat="44.3870812" lon="10.8148388"><ele>762.0</ele><time>2026-04-18T14:30:16.941Z</time></trkpt><trkpt lat="44.3871402" lon="10.8147825"><ele>763.2</ele><time>2026-04-18T14:30:17.941Z</time></trkpt><trkpt lat="44.3872319" lon="10.8146928"><ele>764.4000000000001</ele><time>2026-04-18T14:30:19.942Z</time></trkpt><trkpt lat="44.3873019" lon="10.814626"><ele>765.5999999999999</ele><time>2026-04-18T14:30:22.941Z</time></trkpt><trkpt lat="44.3873978" lon="10.814553"><ele>766.8</ele><time>2026-04-18T14:30:36.941Z</time></trkpt><trkpt lat="44.3874895" lon="10.8144679"><ele>768.0</ele><time>2026-04-18T14:30:38.941Z</time></trkpt><trkpt lat="44.3875711" lon="10.8143889"><ele>767.5</ele><time>2026-04-18T14:30:40.941Z</time></trkpt><trkpt lat="44.3876616" lon="10.8142968"><ele>767.0</ele><time>2026-04-18T14:30:42.941Z</time></trkpt><trkpt lat="44.3877161" lon="10.8142481"><ele>766.5</ele><time>2026-04-18T14:30:43.941Z</time></trkpt><trkpt lat="44.3877762" lon="10.81419"><ele>766.0</ele><time>2026-04-18T14:30:44.942Z</time></trkpt><trkpt lat="44.3878413" lon="10.8141202"><ele>765.5</ele><time>2026-04-18T14:30:45.942Z</time></trkpt><trkpt lat="44.3879197" lon="10.8140569"><ele>765.0</ele><time>2026-04-18T14:30:46.942Z</time></trkpt><trkpt lat="44.3880002" lon="10.8139863"><ele>764.4</ele><time>2026-04-18T14:30:47.941Z</time></trkpt><trkpt lat="44.3880928" lon="10.8139053"><ele>763.8</ele><time>2026-04-18T14:30:48.941Z</time></trkpt><trkpt lat="44.3881827" lon="10.813822"><ele>763.2</ele><time>2026-04-18T14:30:49.941Z</time></trkpt><trkpt lat="44.38828" lon="10.8137386"><ele>762.6</ele><time>2026-04-18T14:30:50.941Z</time></trkpt><trkpt lat="44.3883784" lon="10.8136506"><ele>762.0</ele><time>2026-04-18T14:30:51.942Z</time></trkpt><trkpt lat="44.3884849" lon="10.8135585"><ele>761.4000000000001</ele><time>2026-04-18T14:30:52.941Z</time></trkpt><trkpt lat="44.38859" lon="10.8134594"><ele>760.8000000000001</ele><time>2026-04-18T14:30:53.941Z</time></trkpt><trkpt lat="44.3886866" lon="10.8133692"><ele>760.2</ele><time>2026-04-18T14:30:54.941Z</time></trkpt><trkpt lat="44.3887703" lon="10.8132892"><ele>759.6</ele><time>2026-04-18T14:30:55.941Z</time></trkpt><trkpt lat="44.3888493" lon="10.8132144"><ele>759.0</ele><time>2026-04-18T14:30:56.941Z</time></trkpt><trkpt lat="44.3889265" lon="10.813138"><ele>760.4000000000001</ele><time>2026-04-18T14:30:57.941Z</time></trkpt><trkpt lat="44.3890099" lon="10.8130535"><ele>761.8</ele><time>2026-04-18T14:30:58.942Z</time></trkpt><trkpt lat="44.3891005" lon="10.8129638"><ele>763.2</ele><time>2026-04-18T14:30:59.942Z</time></trkpt><trkpt lat="44.3891893" lon="10.8128742"><ele>764.5999999999999</ele><time>2026-04-18T14:31:00.941Z</time></trkpt><trkpt lat="44.3892715" lon="10.8127884"><ele>766.0</ele><time>2026-04-18T14:31:01.942Z</time></trkpt><trkpt lat="44.3893466" lon="10.8127091"><ele>766.0</ele><time>2026-04-18T14:31:02.941Z</time></trkpt><trkpt lat="44.3894125" lon="10.8126344"><ele>766.0</ele><time>2026-04-18T14:31:03.941Z</time></trkpt><trkpt lat="44.389472" lon="10.8125565"><ele>766.0</ele><time>2026-04-18T14:31:04.941Z</time></trkpt><trkpt lat="44.3895295" lon="10.8124831"><ele>766.0</ele><time>2026-04-18T14:31:05.942Z</time></trkpt><trkpt lat="44.3895814" lon="10.8124222"><ele>766.0</ele><time>2026-04-18T14:31:06.941Z</time></trkpt><trkpt lat="44.3896827" lon="10.8123472"><ele>766.0</ele><time>2026-04-18T14:31:08.942Z</time></trkpt><trkpt lat="44.3897762" lon="10.8123758"><ele>766.0</ele><time>2026-04-18T14:31:10.941Z</time></trkpt><trkpt lat="44.3898438" lon="10.8124096"><ele>766.0</ele><time>2026-04-18T14:31:11.942Z</time></trkpt><trkpt lat="44.3899036" lon="10.8124487"><ele>766.0</ele><time>2026-04-18T14:31:12.942Z</time></trkpt><trkpt lat="44.389967" lon="10.8124737"><ele>766.0</ele><time>2026-04-18T14:31:13.942Z</time></trkpt><trkpt lat="44.3900409" lon="10.8124545"><ele>766.0</ele><time>2026-04-18T14:31:14.941Z</time></trkpt><trkpt lat="44.3901129" lon="10.8124074"><ele>766.0</ele><time>2026-04-18T14:31:15.942Z</time></trkpt><trkpt lat="44.3901851" lon="10.8123607"><ele>766.0</ele><time>2026-04-18T14:31:16.941Z</time></trkpt><trkpt lat="44.3902572" lon="10.8123231"><ele>766.0</ele><time>2026-04-18T14:31:17.942Z</time></trkpt><trkpt lat="44.3903278" lon="10.8122751"><ele>766.0</ele><time>2026-04-18T14:31:18.942Z</time></trkpt><trkpt lat="44.3904085" lon="10.8122379"><ele>766.0</ele><time>2026-04-18T14:31:19.941Z</time></trkpt><trkpt lat="44.3904822" lon="10.8122009"><ele>766.0</ele><time>2026-04-18T14:31:20.942Z</time></trkpt><trkpt lat="44.3905516" lon="10.8121676"><ele>766.0</ele><time>2026-04-18T14:31:21.942Z</time></trkpt><trkpt lat="44.3906159" lon="10.8121525"><ele>766.0</ele><time>2026-04-18T14:31:22.941Z</time></trkpt><trkpt lat="44.3906984" lon="10.8121463"><ele>765.8333333333334</ele><time>2026-04-18T14:31:23.941Z</time></trkpt><trkpt lat="44.3907694" lon="10.812141"><ele>765.6666666666667</ele><time>2026-04-18T14:31:24.942Z</time></trkpt><trkpt lat="44.3908541" lon="10.8121381"><ele>765.5</ele><time>2026-04-18T14:31:25.941Z</time></trkpt><trkpt lat="44.3909435" lon="10.8121349"><ele>765.3333333333334</ele><time>2026-04-18T14:31:26.941Z</time></trkpt><trkpt lat="44.3910343" lon="10.8121232"><ele>765.1666666666666</ele><time>2026-04-18T14:31:27.942Z</time></trkpt><trkpt lat="44.3911229" lon="10.8120984"><ele>765.0</ele><time>2026-04-18T14:31:28.941Z</time></trkpt><trkpt lat="44.3912143" lon="10.8120727"><ele>765.0</ele><time>2026-04-18T14:31:29.941Z</time></trkpt><trkpt lat="44.3912936" lon="10.8120432"><ele>765.0</ele><time>2026-04-18T14:31:30.941Z</time></trkpt><trkpt lat="44.3913741" lon="10.812018"><ele>765.0</ele><time>2026-04-18T14:31:31.941Z</time></trkpt><trkpt lat="44.3914546" lon="10.8119813"><ele>765.0</ele><time>2026-04-18T14:31:32.942Z</time></trkpt><trkpt lat="44.3915391" lon="10.8119445"><ele>765.0</ele><time>2026-04-18T14:31:33.941Z</time></trkpt><trkpt lat="44.3916264" lon="10.8119009"><ele>765.0</ele><time>2026-04-18T14:31:34.942Z</time></trkpt><trkpt lat="44.3917189" lon="10.8118719"><ele>764.5</ele><time>2026-04-18T14:31:35.941Z</time></trkpt><trkpt lat="44.3918089" lon="10.8118388"><ele>764.0</ele><time>2026-04-18T14:31:36.942Z</time></trkpt><trkpt lat="44.3918989" lon="10.8118083"><ele>763.5</ele><time>2026-04-18T14:31:37.941Z</time></trkpt><trkpt lat="44.3919788" lon="10.8117844"><ele>763.0</ele><time>2026-04-18T14:31:38.941Z</time></trkpt><trkpt lat="44.3920526" lon="10.8117606"><ele>762.5</ele><time>2026-04-18T14:31:39.942Z</time></trkpt><trkpt lat="44.3921323" lon="10.8117374"><ele>762.0</ele><time>2026-04-18T14:31:40.942Z</time></trkpt><trkpt lat="44.3922058" lon="10.8117139"><ele>763.0</ele><time>2026-04-18T14:31:41.942Z</time></trkpt><trkpt lat="44.3923017" lon="10.8116895"><ele>764.0</ele><time>2026-04-18T14:31:43.941Z</time></trkpt><trkpt lat="44.3923711" lon="10.8116644"><ele>765.0</ele><time>2026-04-18T14:31:45.941Z</time></trkpt><trkpt lat="44.3924641" lon="10.8116319"><ele>766.0</ele><time>2026-04-18T14:31:47.942Z</time></trkpt><trkpt lat="44.3925301" lon="10.8116136"><ele>767.0</ele><time>2026-04-18T14:31:48.941Z</time></trkpt><trkpt lat="44.3925986" lon="10.8115955"><ele>768.0</ele><time>2026-04-18T14:31:49.941Z</time></trkpt><trkpt lat="44.3926635" lon="10.8115794"><ele>768.0</ele><time>2026-04-18T14:31:50.941Z</time></trkpt><trkpt lat="44.3927365" lon="10.8115602"><ele>768.0</ele><time>2026-04-18T14:31:51.942Z</time></trkpt><trkpt lat="44.3928021" lon="10.8115361"><ele>768.0</ele><time>2026-04-18T14:31:52.941Z</time></trkpt><trkpt lat="44.3928864" lon="10.8115111"><ele>768.0</ele><time>2026-04-18T14:31:53.941Z</time></trkpt><trkpt lat="44.3929583" lon="10.8114863"><ele>768.0</ele><time>2026-04-18T14:31:54.942Z</time></trkpt><trkpt lat="44.3930416" lon="10.8114661"><ele>768.0</ele><time>2026-04-18T14:31:55.941Z</time></trkpt><trkpt lat="44.3931068" lon="10.8114411"><ele>767.5999999999999</ele><time>2026-04-18T14:31:56.941Z</time></trkpt><trkpt lat="44.3931717" lon="10.8114252"><ele>767.1999999999999</ele><time>2026-04-18T14:31:57.942Z</time></trkpt><trkpt lat="44.3932867" lon="10.8114287"><ele>766.8</ele><time>2026-04-18T14:31:59.941Z</time></trkpt><trkpt lat="44.393395" lon="10.8114438"><ele>766.4</ele><time>2026-04-18T14:32:01.942Z</time></trkpt><trkpt lat="44.3935164" lon="10.8114752"><ele>766.0</ele><time>2026-04-18T14:32:03.941Z</time></trkpt><trkpt lat="44.3935901" lon="10.8114879"><ele>766.0</ele><time>2026-04-18T14:32:04.941Z</time></trkpt><trkpt lat="44.3936749" lon="10.8115047"><ele>766.0</ele><time>2026-04-18T14:32:05.941Z</time></trkpt><trkpt lat="44.3937479" lon="10.8115172"><ele>766.0</ele><time>2026-04-18T14:32:06.942Z</time></trkpt><trkpt lat="44.3938169" lon="10.8115177"><ele>766.0</ele><time>2026-04-18T14:32:07.942Z</time></trkpt><trkpt lat="44.3938873" lon="10.8115141"><ele>766.0</ele><time>2026-04-18T14:32:08.941Z</time></trkpt><trkpt lat="44.3939735" lon="10.811496"><ele>766.0</ele><time>2026-04-18T14:32:09.942Z</time></trkpt><trkpt lat="44.3940583" lon="10.8114877"><ele>766.4</ele><time>2026-04-18T14:32:10.942Z</time></trkpt><trkpt lat="44.3941523" lon="10.8114766"><ele>766.8</ele><time>2026-04-18T14:32:11.941Z</time></trkpt><trkpt lat="44.3942505" lon="10.8114597"><ele>767.1999999999999</ele><time>2026-04-18T14:32:12.941Z</time></trkpt><trkpt lat="44.3943573" lon="10.8114497"><ele>767.5999999999999</ele><time>2026-04-18T14:32:13.942Z</time></trkpt><trkpt lat="44.3944585" lon="10.8114305"><ele>768.0</ele><time>2026-04-18T14:32:14.941Z</time></trkpt><trkpt lat="44.3945644" lon="10.8114073"><ele>768.0</ele><time>2026-04-18T14:32:15.942Z</time></trkpt><trkpt lat="44.3946676" lon="10.8113755"><ele>768.0</ele><time>2026-04-18T14:32:16.941Z</time></trkpt><trkpt lat="44.3947712" lon="10.8113458"><ele>768.0</ele><time>2026-04-18T14:32:17.941Z</time></trkpt><trkpt lat="44.3948715" lon="10.8113108"><ele>768.0</ele><time>2026-04-18T14:32:18.941Z</time></trkpt><trkpt lat="44.3949655" lon="10.8112755"><ele>768.0</ele><time>2026-04-18T14:32:19.942Z</time></trkpt><trkpt lat="44.3950606" lon="10.8112322"><ele>768.25</ele><time>2026-04-18T14:32:20.941Z</time></trkpt><trkpt lat="44.3951559" lon="10.811169"><ele>768.5</ele><time>2026-04-18T14:32:21.941Z</time></trkpt><trkpt lat="44.3952698" lon="10.8110868"><ele>768.75</ele><time>2026-04-18T14:32:22.942Z</time></trkpt><trkpt lat="44.3953976" lon="10.8110016"><ele>769.0</ele><time>2026-04-18T14:32:23.942Z</time></trkpt><trkpt lat="44.395498" lon="10.8109416"><ele>767.4000000000001</ele><time>2026-04-18T14:32:24.941Z</time></trkpt><trkpt lat="44.3955869" lon="10.8108771"><ele>765.8</ele><time>2026-04-18T14:32:25.941Z</time></trkpt><trkpt lat="44.3956634" lon="10.8107837"><ele>764.2</ele><time>2026-04-18T14:32:26.942Z</time></trkpt><trkpt lat="44.395754" lon="10.810672"><ele>762.5999999999999</ele><time>2026-04-18T14:32:27.941Z</time></trkpt><trkpt lat="44.3958609" lon="10.8105885"><ele>761.0</ele><time>2026-04-18T14:32:28.941Z</time></trkpt><trkpt lat="44.3959661" lon="10.8105068"><ele>761.0</ele><time>2026-04-18T14:32:29.941Z</time></trkpt><trkpt lat="44.3960636" lon="10.8104327"><ele>761.0</ele><time>2026-04-18T14:32:30.941Z</time></trkpt><trkpt lat="44.3961633" lon="10.8103663"><ele>761.0</ele><time>2026-04-18T14:32:31.942Z</time></trkpt><trkpt lat="44.3962711" lon="10.810308"><ele>761.0</ele><time>2026-04-18T14:32:32.942Z</time></trkpt><trkpt lat="44.3963943" lon="10.8102544"><ele>760.0</ele><time>2026-04-18T14:32:33.941Z</time></trkpt><trkpt lat="44.39653" lon="10.810232"><ele>759.0</ele><time>2026-04-18T14:32:34.941Z</time></trkpt><trkpt lat="44.3966515" lon="10.8101902"><ele>758.0</ele><time>2026-04-18T14:32:35.942Z</time></trkpt><trkpt lat="44.3967647" lon="10.8101299"><ele>757.0</ele><time>2026-04-18T14:32:36.942Z</time></trkpt><trkpt lat="44.3968809" lon="10.8100615"><ele>757.0</ele><time>2026-04-18T14:32:37.942Z</time></trkpt><trkpt lat="44.3969859" lon="10.8099975"><ele>757.0</ele><time>2026-04-18T14:32:38.941Z</time></trkpt><trkpt lat="44.3970733" lon="10.809946"><ele>757.0</ele><time>2026-04-18T14:32:39.941Z</time></trkpt><trkpt lat="44.3971534" lon="10.8098881"><ele>757.0</ele><time>2026-04-18T14:32:40.942Z</time></trkpt><trkpt lat="44.3972301" lon="10.8098377"><ele>757.0</ele><time>2026-04-18T14:32:41.942Z</time></trkpt><trkpt lat="44.3973346" lon="10.809755"><ele>757.0</ele><time>2026-04-18T14:32:42.942Z</time></trkpt><trkpt lat="44.3974473" lon="10.8096459"><ele>757.0</ele><time>2026-04-18T14:32:43.942Z</time></trkpt><trkpt lat="44.3975727" lon="10.8095291"><ele>757.0</ele><time>2026-04-18T14:32:44.941Z</time></trkpt><trkpt lat="44.3976889" lon="10.8094206"><ele>757.0</ele><time>2026-04-18T14:32:45.941Z</time></trkpt><trkpt lat="44.3977767" lon="10.8093086"><ele>757.0</ele><time>2026-04-18T14:32:46.942Z</time></trkpt><trkpt lat="44.397869" lon="10.8091833"><ele>757.0</ele><time>2026-04-18T14:32:47.941Z</time></trkpt><trkpt lat="44.3979564" lon="10.8090496"><ele>757.0</ele><time>2026-04-18T14:32:48.942Z</time></trkpt><trkpt lat="44.3980455" lon="10.8089044"><ele>757.0</ele><time>2026-04-18T14:32:49.942Z</time></trkpt><trkpt lat="44.3981288" lon="10.8087535"><ele>756.0</ele><time>2026-04-18T14:32:50.941Z</time></trkpt><trkpt lat="44.398203" lon="10.8086136"><ele>755.0</ele><time>2026-04-18T14:32:51.942Z</time></trkpt><trkpt lat="44.3982737" lon="10.8084809"><ele>754.0</ele><time>2026-04-18T14:32:52.941Z</time></trkpt><trkpt lat="44.3983428" lon="10.8083548"><ele>753.0</ele><time>2026-04-18T14:32:53.941Z</time></trkpt><trkpt lat="44.398412" lon="10.808226"><ele>752.75</ele><time>2026-04-18T14:32:54.941Z</time></trkpt><trkpt lat="44.3984853" lon="10.8080985"><ele>752.5</ele><time>2026-04-18T14:32:55.941Z</time></trkpt><trkpt lat="44.3985614" lon="10.8079696"><ele>752.25</ele><time>2026-04-18T14:32:56.941Z</time></trkpt><trkpt lat="44.3986429" lon="10.8078499"><ele>752.0</ele><time>2026-04-18T14:32:57.941Z</time></trkpt><trkpt lat="44.3987317" lon="10.8077478"><ele>751.75</ele><time>2026-04-18T14:32:58.941Z</time></trkpt><trkpt lat="44.3988305" lon="10.8076578"><ele>751.5</ele><time>2026-04-18T14:32:59.942Z</time></trkpt><trkpt lat="44.398943" lon="10.8075856"><ele>751.25</ele><time>2026-04-18T14:33:00.942Z</time></trkpt><trkpt lat="44.3990699" lon="10.8075276"><ele>751.0</ele><time>2026-04-18T14:33:01.941Z</time></trkpt><trkpt lat="44.3992033" lon="10.8074668"><ele>749.0</ele><time>2026-04-18T14:33:02.942Z</time></trkpt><trkpt lat="44.3993448" lon="10.8074004"><ele>747.0</ele><time>2026-04-18T14:33:03.942Z</time></trkpt><trkpt lat="44.3994879" lon="10.807332"><ele>745.0</ele><time>2026-04-18T14:33:04.941Z</time></trkpt><trkpt lat="44.3996375" lon="10.807258"><ele>742.6666666666667</ele><time>2026-04-18T14:33:05.942Z</time></trkpt><trkpt lat="44.3997874" lon="10.8071934"><ele>740.3333333333334</ele><time>2026-04-18T14:33:06.941Z</time></trkpt><trkpt lat="44.399939" lon="10.8071264"><ele>738.0</ele><time>2026-04-18T14:33:07.942Z</time></trkpt><trkpt lat="44.4000873" lon="10.8070605"><ele>738.0</ele><time>2026-04-18T14:33:08.941Z</time></trkpt><trkpt lat="44.4002319" lon="10.8070007"><ele>738.0</ele><time>2026-04-18T14:33:09.941Z</time></trkpt><trkpt lat="44.4003758" lon="10.8069459"><ele>738.0</ele><time>2026-04-18T14:33:10.942Z</time></trkpt><trkpt lat="44.4005171" lon="10.8068848"><ele>738.0</ele><time>2026-04-18T14:33:11.942Z</time></trkpt><trkpt lat="44.4006549" lon="10.8068263"><ele>735.5</ele><time>2026-04-18T14:33:12.942Z</time></trkpt><trkpt lat="44.4007932" lon="10.8067734"><ele>733.0</ele><time>2026-04-18T14:33:13.942Z</time></trkpt><trkpt lat="44.4009304" lon="10.8067319"><ele>730.5</ele><time>2026-04-18T14:33:14.942Z</time></trkpt><trkpt lat="44.4010676" lon="10.8066903"><ele>728.0</ele><time>2026-04-18T14:33:15.941Z</time></trkpt><trkpt lat="44.4012019" lon="10.8066556"><ele>726.75</ele><time>2026-04-18T14:33:16.941Z</time></trkpt><trkpt lat="44.4013323" lon="10.8066172"><ele>725.5</ele><time>2026-04-18T14:33:17.941Z</time></trkpt><trkpt lat="44.40146" lon="10.8065839"><ele>724.25</ele><time>2026-04-18T14:33:18.942Z</time></trkpt><trkpt lat="44.4015878" lon="10.8065495"><ele>723.0</ele><time>2026-04-18T14:33:19.941Z</time></trkpt><trkpt lat="44.4017098" lon="10.806513"><ele>723.0</ele><time>2026-04-18T14:33:20.942Z</time></trkpt><trkpt lat="44.4018332" lon="10.8064714"><ele>723.0</ele><time>2026-04-18T14:33:21.941Z</time></trkpt><trkpt lat="44.4019598" lon="10.8064129"><ele>723.0</ele><time>2026-04-18T14:33:22.942Z</time></trkpt><trkpt lat="44.4020799" lon="10.8063182"><ele>723.0</ele><time>2026-04-18T14:33:23.942Z</time></trkpt><trkpt lat="44.4021977" lon="10.8062274"><ele>722.5</ele><time>2026-04-18T14:33:24.941Z</time></trkpt><trkpt lat="44.4023183" lon="10.8061238"><ele>722.0</ele><time>2026-04-18T14:33:25.941Z</time></trkpt><trkpt lat="44.4024316" lon="10.806026"><ele>721.5</ele><time>2026-04-18T14:33:26.941Z</time></trkpt><trkpt lat="44.4025358" lon="10.8059251"><ele>721.0</ele><time>2026-04-18T14:33:27.941Z</time></trkpt><trkpt lat="44.4026318" lon="10.8058272"><ele>719.5999999999999</ele><time>2026-04-18T14:33:28.941Z</time></trkpt><trkpt lat="44.4027176" lon="10.805719"><ele>718.2</ele><time>2026-04-18T14:33:29.941Z</time></trkpt><trkpt lat="44.4027754" lon="10.8055959"><ele>716.8</ele><time>2026-04-18T14:33:30.941Z</time></trkpt><trkpt lat="44.4027925" lon="10.805463"><ele>715.4000000000001</ele><time>2026-04-18T14:33:31.942Z</time></trkpt><trkpt lat="44.4027764" lon="10.8053401"><ele>714.0</ele><time>2026-04-18T14:33:32.942Z</time></trkpt><trkpt lat="44.4027522" lon="10.8052404"><ele>712.6</ele><time>2026-04-18T14:33:33.941Z</time></trkpt><trkpt lat="44.4028092" lon="10.805075"><ele>711.2</ele><time>2026-04-18T14:33:35.942Z</time></trkpt><trkpt lat="44.4028765" lon="10.8049986"><ele>709.8000000000001</ele><time>2026-04-18T14:33:36.942Z</time></trkpt><trkpt lat="44.4029469" lon="10.8049296"><ele>708.4000000000001</ele><time>2026-04-18T14:33:37.941Z</time></trkpt><trkpt lat="44.4030162" lon="10.8048708"><ele>707.0</ele><time>2026-04-18T14:33:38.941Z</time></trkpt><trkpt lat="44.403081" lon="10.8048177"><ele>706.6</ele><time>2026-04-18T14:33:39.941Z</time></trkpt><trkpt lat="44.4031486" lon="10.8047768"><ele>706.2</ele><time>2026-04-18T14:33:40.942Z</time></trkpt><trkpt lat="44.4032104" lon="10.8047419"><ele>705.8</ele><time>2026-04-18T14:33:41.942Z</time></trkpt><trkpt lat="44.4032685" lon="10.8047067"><ele>705.4</ele><time>2026-04-18T14:33:42.941Z</time></trkpt><trkpt lat="44.4033816" lon="10.8046812"><ele>705.0</ele><time>2026-04-18T14:33:44.941Z</time></trkpt><trkpt lat="44.4034835" lon="10.804804"><ele>705.0</ele><time>2026-04-18T14:33:46.942Z</time></trkpt><trkpt lat="44.4035422" lon="10.804884"><ele>705.0</ele><time>2026-04-18T14:33:47.941Z</time></trkpt><trkpt lat="44.4036096" lon="10.8049854"><ele>705.0</ele><time>2026-04-18T14:33:48.941Z</time></trkpt><trkpt lat="44.4036619" lon="10.8051049"><ele>705.0</ele><time>2026-04-18T14:33:49.942Z</time></trkpt><trkpt lat="44.4037123" lon="10.8052298"><ele>705.0</ele><time>2026-04-18T14:33:50.941Z</time></trkpt><trkpt lat="44.4037657" lon="10.8053486"><ele>704.8</ele><time>2026-04-18T14:33:51.941Z</time></trkpt><trkpt lat="44.4038174" lon="10.8054545"><ele>704.6</ele><time>2026-04-18T14:33:52.941Z</time></trkpt><trkpt lat="44.4038732" lon="10.8055461"><ele>704.4000000000001</ele><time>2026-04-18T14:33:53.942Z</time></trkpt><trkpt lat="44.403937" lon="10.8056411"><ele>704.2</ele><time>2026-04-18T14:33:54.941Z</time></trkpt><trkpt lat="44.4040141" lon="10.8057371"><ele>704.0</ele><time>2026-04-18T14:33:55.941Z</time></trkpt><trkpt lat="44.4040857" lon="10.8058359"><ele>703.0</ele><time>2026-04-18T14:33:56.941Z</time></trkpt><trkpt lat="44.4041512" lon="10.8059416"><ele>702.0</ele><time>2026-04-18T14:33:57.941Z</time></trkpt><trkpt lat="44.4042079" lon="10.806049"><ele>701.0</ele><time>2026-04-18T14:33:58.942Z</time></trkpt><trkpt lat="44.4042568" lon="10.8061606"><ele>700.0</ele><time>2026-04-18T14:33:59.942Z</time></trkpt><trkpt lat="44.4042981" lon="10.8062813"><ele>699.0</ele><time>2026-04-18T14:34:00.941Z</time></trkpt><trkpt lat="44.4043369" lon="10.8064083"><ele>699.0</ele><time>2026-04-18T14:34:01.941Z</time></trkpt><trkpt lat="44.4043695" lon="10.806532"><ele>699.0</ele><time>2026-04-18T14:34:02.941Z</time></trkpt><trkpt lat="44.404408" lon="10.8066615"><ele>699.0</ele><time>2026-04-18T14:34:03.941Z</time></trkpt><trkpt lat="44.404448" lon="10.8067753"><ele>699.0</ele><time>2026-04-18T14:34:04.941Z</time></trkpt><trkpt lat="44.4044835" lon="10.8068906"><ele>699.0</ele><time>2026-04-18T14:34:05.941Z</time></trkpt><trkpt lat="44.4045225" lon="10.8070046"><ele>699.0</ele><time>2026-04-18T14:34:06.942Z</time></trkpt><trkpt lat="44.4045651" lon="10.8071105"><ele>699.0</ele><time>2026-04-18T14:34:07.942Z</time></trkpt><trkpt lat="44.404628" lon="10.8072022"><ele>699.0</ele><time>2026-04-18T14:34:08.942Z</time></trkpt><trkpt lat="44.4047031" lon="10.8072834"><ele>699.0</ele><time>2026-04-18T14:34:09.942Z</time></trkpt><trkpt lat="44.4047913" lon="10.8073627"><ele>699.0</ele><time>2026-04-18T14:34:10.942Z</time></trkpt><trkpt lat="44.4048878" lon="10.8074398"><ele>697.8000000000001</ele><time>2026-04-18T14:34:11.942Z</time></trkpt><trkpt lat="44.4049842" lon="10.8075148"><ele>696.6</ele><time>2026-04-18T14:34:12.941Z</time></trkpt><trkpt lat="44.4050779" lon="10.8075878"><ele>695.4</ele><time>2026-04-18T14:34:13.941Z</time></trkpt><trkpt lat="44.4051739" lon="10.807648"><ele>694.2</ele><time>2026-04-18T14:34:14.941Z</time></trkpt><trkpt lat="44.4052708" lon="10.8077021"><ele>693.0</ele><time>2026-04-18T14:34:15.941Z</time></trkpt><trkpt lat="44.405362" lon="10.8077433"><ele>693.0</ele><time>2026-04-18T14:34:16.941Z</time></trkpt><trkpt lat="44.4054458" lon="10.8077621"><ele>693.0</ele><time>2026-04-18T14:34:17.941Z</time></trkpt><trkpt lat="44.4055238" lon="10.8077743"><ele>693.0</ele><time>2026-04-18T14:34:18.941Z</time></trkpt><trkpt lat="44.4055944" lon="10.8077987"><ele>693.0</ele><time>2026-04-18T14:34:19.942Z</time></trkpt><trkpt lat="44.4056628" lon="10.807825"><ele>693.0</ele><time>2026-04-18T14:34:20.942Z</time></trkpt><trkpt lat="44.4057304" lon="10.8078596"><ele>693.0</ele><time>2026-04-18T14:34:21.941Z</time></trkpt><trkpt lat="44.4058441" lon="10.8079579"><ele>692.3333333333334</ele><time>2026-04-18T14:34:23.941Z</time></trkpt><trkpt lat="44.405907" lon="10.8080128"><ele>691.6666666666666</ele><time>2026-04-18T14:34:24.941Z</time></trkpt><trkpt lat="44.4059615" lon="10.8080859"><ele>691.0</ele><time>2026-04-18T14:34:25.942Z</time></trkpt><trkpt lat="44.4060096" lon="10.8081858"><ele>690.3333333333333</ele><time>2026-04-18T14:34:26.941Z</time></trkpt><trkpt lat="44.4060617" lon="10.8082899"><ele>689.6666666666666</ele><time>2026-04-18T14:34:27.941Z</time></trkpt><trkpt lat="44.4061171" lon="10.8084001"><ele>689.0</ele><time>2026-04-18T14:34:28.942Z</time></trkpt><trkpt lat="44.4061744" lon="10.8085104"><ele>689.0</ele><time>2026-04-18T14:34:29.941Z</time></trkpt><trkpt lat="44.4062365" lon="10.8086176"><ele>689.0</ele><time>2026-04-18T14:34:30.941Z</time></trkpt><trkpt lat="44.4062947" lon="10.8087185"><ele>689.0</ele><time>2026-04-18T14:34:31.941Z</time></trkpt><trkpt lat="44.406343" lon="10.8088041"><ele>689.0</ele><time>2026-04-18T14:34:32.941Z</time></trkpt><trkpt lat="44.4064254" lon="10.8088985"><ele>689.0</ele><time>2026-04-18T14:34:34.942Z</time></trkpt><trkpt lat="44.4065227" lon="10.808955"><ele>687.1666666666666</ele><time>2026-04-18T14:34:36.942Z</time></trkpt><trkpt lat="44.4065867" lon="10.8089507"><ele>685.3333333333333</ele><time>2026-04-18T14:34:37.941Z</time></trkpt><trkpt lat="44.4066653" lon="10.8089259"><ele>683.5</ele><time>2026-04-18T14:34:38.941Z</time></trkpt><trkpt lat="44.4067418" lon="10.8088935"><ele>681.6666666666666</ele><time>2026-04-18T14:34:39.942Z</time></trkpt><trkpt lat="44.4068165" lon="10.808858"><ele>679.8333333333334</ele><time>2026-04-18T14:34:40.941Z</time></trkpt><trkpt lat="44.4068858" lon="10.8087992"><ele>678.0</ele><time>2026-04-18T14:34:41.942Z</time></trkpt><trkpt lat="44.4069563" lon="10.8087214"><ele>678.0</ele><time>2026-04-18T14:34:42.941Z</time></trkpt><trkpt lat="44.407027" lon="10.8086323"><ele>678.0</ele><time>2026-04-18T14:34:43.941Z</time></trkpt><trkpt lat="44.4071036" lon="10.8085318"><ele>678.0</ele><time>2026-04-18T14:34:44.941Z</time></trkpt><trkpt lat="44.4071817" lon="10.8084287"><ele>678.0</ele><time>2026-04-18T14:34:45.941Z</time></trkpt><trkpt lat="44.4072524" lon="10.8083396"><ele>678.0</ele><time>2026-04-18T14:34:46.941Z</time></trkpt><trkpt lat="44.4073253" lon="10.8082598"><ele>678.1666666666666</ele><time>2026-04-18T14:34:47.941Z</time></trkpt><trkpt lat="44.4073909" lon="10.8081776"><ele>678.3333333333334</ele><time>2026-04-18T14:34:48.942Z</time></trkpt><trkpt lat="44.4074481" lon="10.8080904"><ele>678.5</ele><time>2026-04-18T14:34:49.942Z</time></trkpt><trkpt lat="44.407501" lon="10.8080012"><ele>678.6666666666667</ele><time>2026-04-18T14:34:50.941Z</time></trkpt><trkpt lat="44.4075448" lon="10.8079052"><ele>678.8333333333334</ele><time>2026-04-18T14:34:51.941Z</time></trkpt><trkpt lat="44.4075882" lon="10.8077982"><ele>679.0</ele><time>2026-04-18T14:34:52.942Z</time></trkpt><trkpt lat="44.4076286" lon="10.8076929"><ele>679.8000000000001</ele><time>2026-04-18T14:34:53.941Z</time></trkpt><trkpt lat="44.4076625" lon="10.8076114"><ele>680.6</ele><time>2026-04-18T14:34:54.941Z</time></trkpt><trkpt lat="44.4077199" lon="10.8075193"><ele>681.4</ele><time>2026-04-18T14:34:56.941Z</time></trkpt><trkpt lat="44.4077811" lon="10.8074981"><ele>682.2</ele><time>2026-04-18T14:34:59.941Z</time></trkpt><trkpt lat="44.4078504" lon="10.8073833"><ele>683.0</ele><time>2026-04-18T14:35:12.941Z</time></trkpt><trkpt lat="44.4078997" lon="10.8072133"><ele>683.0</ele><time>2026-04-18T14:35:14.941Z</time></trkpt><trkpt lat="44.4079227" lon="10.8071178"><ele>683.0</ele><time>2026-04-18T14:35:15.941Z</time></trkpt><trkpt lat="44.4079453" lon="10.8070192"><ele>683.0</ele><time>2026-04-18T14:35:16.942Z</time></trkpt><trkpt lat="44.4079745" lon="10.806912"><ele>683.0</ele><time>2026-04-18T14:35:17.941Z</time></trkpt><trkpt lat="44.4080051" lon="10.8068087"><ele>683.0</ele><time>2026-04-18T14:35:18.942Z</time></trkpt><trkpt lat="44.4080356" lon="10.8067219"><ele>683.0</ele><time>2026-04-18T14:35:19.942Z</time></trkpt><trkpt lat="44.4081101" lon="10.8065749"><ele>682.4</ele><time>2026-04-18T14:35:21.942Z</time></trkpt><trkpt lat="44.408198" lon="10.8064445"><ele>681.8</ele><time>2026-04-18T14:35:23.942Z</time></trkpt><trkpt lat="44.4082352" lon="10.806373"><ele>681.2</ele><time>2026-04-18T14:35:24.942Z</time></trkpt><trkpt lat="44.4082661" lon="10.8062205"><ele>680.6</ele><time>2026-04-18T14:35:26.941Z</time></trkpt><trkpt lat="44.4082592" lon="10.8061242"><ele>680.0</ele><time>2026-04-18T14:35:27.941Z</time></trkpt><trkpt lat="44.4082513" lon="10.8060171"><ele>679.8333333333333</ele><time>2026-04-18T14:35:28.941Z</time></trkpt><trkpt lat="44.4082514" lon="10.8059181"><ele>679.6666666666666</ele><time>2026-04-18T14:35:29.941Z</time></trkpt><trkpt lat="44.4082543" lon="10.8058296"><ele>679.5</ele><time>2026-04-18T14:35:30.941Z</time></trkpt><trkpt lat="44.4082782" lon="10.805678"><ele>679.3333333333334</ele><time>2026-04-18T14:35:32.941Z</time></trkpt><trkpt lat="44.4083176" lon="10.8055891"><ele>679.1666666666667</ele><time>2026-04-18T14:35:34.941Z</time></trkpt><trkpt lat="44.4083945" lon="10.8055471"><ele>679.0</ele><time>2026-04-18T14:35:36.942Z</time></trkpt><trkpt lat="44.4085105" lon="10.805565"><ele>679.0</ele><time>2026-04-18T14:35:38.941Z</time></trkpt><trkpt lat="44.408586" lon="10.8055914"><ele>679.0</ele><time>2026-04-18T14:35:39.941Z</time></trkpt><trkpt lat="44.4086694" lon="10.8056234"><ele>679.0</ele><time>2026-04-18T14:35:40.942Z</time></trkpt><trkpt lat="44.408754" lon="10.805653"><ele>679.0</ele><time>2026-04-18T14:35:41.941Z</time></trkpt><trkpt lat="44.4088384" lon="10.8056808"><ele>679.0</ele><time>2026-04-18T14:35:42.941Z</time></trkpt><trkpt lat="44.4089216" lon="10.8057001"><ele>679.0</ele><time>2026-04-18T14:35:43.941Z</time></trkpt><trkpt lat="44.4090006" lon="10.8057071"><ele>680.3333333333334</ele><time>2026-04-18T14:35:44.942Z</time></trkpt><trkpt lat="44.4090829" lon="10.8057107"><ele>681.6666666666667</ele><time>2026-04-18T14:35:45.942Z</time></trkpt><trkpt lat="44.4091563" lon="10.8057309"><ele>683.0</ele><time>2026-04-18T14:35:46.941Z</time></trkpt><trkpt lat="44.4092512" lon="10.8057553"><ele>684.3333333333334</ele><time>2026-04-18T14:35:47.942Z</time></trkpt><trkpt lat="44.4093167" lon="10.8057708"><ele>685.6666666666666</ele><time>2026-04-18T14:35:48.942Z</time></trkpt><trkpt lat="44.409394" lon="10.8058033"><ele>687.0</ele><time>2026-04-18T14:35:49.941Z</time></trkpt><trkpt lat="44.4094742" lon="10.8058476"><ele>687.0</ele><time>2026-04-18T14:35:50.941Z</time></trkpt><trkpt lat="44.4095992" lon="10.8058778"><ele>687.0</ele><time>2026-04-18T14:35:52.941Z</time></trkpt><trkpt lat="44.4096897" lon="10.8058882"><ele>687.0</ele><time>2026-04-18T14:35:54.941Z</time></trkpt><trkpt lat="44.4097534" lon="10.8058668"><ele>687.0</ele><time>2026-04-18T14:35:56.941Z</time></trkpt><trkpt lat="44.4098158" lon="10.8058022"><ele>687.0</ele><time>2026-04-18T14:35:58.941Z</time></trkpt><trkpt lat="44.4099224" lon="10.8057446"><ele>688.0</ele><time>2026-04-18T14:36:00.941Z</time></trkpt><trkpt lat="44.4100014" lon="10.8057657"><ele>689.0</ele><time>2026-04-18T14:36:01.941Z</time></trkpt><trkpt lat="44.410069" lon="10.8058076"><ele>690.0</ele><time>2026-04-18T14:36:02.941Z</time></trkpt><trkpt lat="44.4101407" lon="10.8058504"><ele>691.0</ele><time>2026-04-18T14:36:03.941Z</time></trkpt><trkpt lat="44.4102263" lon="10.8058816"><ele>692.0</ele><time>2026-04-18T14:36:04.941Z</time></trkpt><trkpt lat="44.4102963" lon="10.8058934"><ele>693.0</ele><time>2026-04-18T14:36:05.941Z</time></trkpt><trkpt lat="44.4103605" lon="10.8059012"><ele>693.0</ele><time>2026-04-18T14:36:06.941Z</time></trkpt><trkpt lat="44.4104272" lon="10.8058953"><ele>693.0</ele><time>2026-04-18T14:36:07.941Z</time></trkpt><trkpt lat="44.4105402" lon="10.8058593"><ele>693.0</ele><time>2026-04-18T14:36:09.942Z</time></trkpt><trkpt lat="44.4106409" lon="10.8058212"><ele>693.0</ele><time>2026-04-18T14:36:11.941Z</time></trkpt><trkpt lat="44.4107071" lon="10.8058102"><ele>693.0</ele><time>2026-04-18T14:36:13.942Z</time></trkpt><trkpt lat="44.4108118" lon="10.8057829"><ele>692.5</ele><time>2026-04-18T14:36:16.942Z</time></trkpt><trkpt lat="44.4108897" lon="10.8057779"><ele>692.0</ele><time>2026-04-18T14:36:18.942Z</time></trkpt><trkpt lat="44.410964" lon="10.8057699"><ele>691.5</ele><time>2026-04-18T14:36:20.941Z</time></trkpt><trkpt lat="44.4110351" lon="10.8057367"><ele>691.0</ele><time>2026-04-18T14:36:22.942Z</time></trkpt><trkpt lat="44.411118" lon="10.8056648"><ele>690.5</ele><time>2026-04-18T14:36:24.942Z</time></trkpt><trkpt lat="44.4112105" lon="10.8055626"><ele>690.0</ele><time>2026-04-18T14:36:26.942Z</time></trkpt><trkpt lat="44.4112879" lon="10.8054457"><ele>690.8333333333334</ele><time>2026-04-18T14:36:28.941Z</time></trkpt><trkpt lat="44.4113318" lon="10.8053718"><ele>691.6666666666666</ele><time>2026-04-18T14:36:29.941Z</time></trkpt><trkpt lat="44.4113749" lon="10.8052966"><ele>692.5</ele><time>2026-04-18T14:36:30.941Z</time></trkpt><trkpt lat="44.4114197" lon="10.8052202"><ele>693.3333333333333</ele><time>2026-04-18T14:36:31.941Z</time></trkpt><trkpt lat="44.4114691" lon="10.8051442"><ele>694.1666666666666</ele><time>2026-04-18T14:36:32.941Z</time></trkpt><trkpt lat="44.4115138" lon="10.8050712"><ele>695.0</ele><time>2026-04-18T14:36:33.941Z</time></trkpt><trkpt lat="44.4115794" lon="10.8049545"><ele>695.1666666666666</ele><time>2026-04-18T14:36:35.941Z</time></trkpt><trkpt lat="44.4116323" lon="10.8048618"><ele>695.3333333333333</ele><time>2026-04-18T14:37:04.942Z</time></trkpt><trkpt lat="44.4116345" lon="10.8047688"><ele>695.5</ele><time>2026-04-18T14:37:06.941Z</time></trkpt><trkpt lat="44.411662" lon="10.8045971"><ele>695.6666666666666</ele><time>2026-04-18T14:37:08.941Z</time></trkpt><trkpt lat="44.4116829" lon="10.8044942"><ele>695.8333333333334</ele><time>2026-04-18T14:37:09.942Z</time></trkpt><trkpt lat="44.4117097" lon="10.8043796"><ele>696.0</ele><time>2026-04-18T14:37:10.941Z</time></trkpt><trkpt lat="44.4117333" lon="10.8042649"><ele>696.0</ele><time>2026-04-18T14:37:11.942Z</time></trkpt><trkpt lat="44.4117478" lon="10.8041487"><ele>696.0</ele><time>2026-04-18T14:37:12.941Z</time></trkpt><trkpt lat="44.4117565" lon="10.8040214"><ele>696.0</ele><time>2026-04-18T14:37:13.941Z</time></trkpt><trkpt lat="44.4117579" lon="10.8038973"><ele>696.0</ele><time>2026-04-18T14:37:14.941Z</time></trkpt><trkpt lat="44.4117678" lon="10.8037836"><ele>696.0</ele><time>2026-04-18T14:37:15.941Z</time></trkpt><trkpt lat="44.4117833" lon="10.8036816"><ele>696.0</ele><time>2026-04-18T14:37:16.942Z</time></trkpt><trkpt lat="44.4117943" lon="10.8035793"><ele>695.6666666666666</ele><time>2026-04-18T14:37:17.941Z</time></trkpt><trkpt lat="44.4118061" lon="10.8034855"><ele>695.3333333333334</ele><time>2026-04-18T14:37:18.942Z</time></trkpt><trkpt lat="44.4118134" lon="10.8033963"><ele>695.0</ele><time>2026-04-18T14:37:19.941Z</time></trkpt><trkpt lat="44.4118404" lon="10.8033104"><ele>694.6666666666667</ele><time>2026-04-18T14:37:20.942Z</time></trkpt><trkpt lat="44.4119075" lon="10.8031858"><ele>694.3333333333334</ele><time>2026-04-18T14:37:22.941Z</time></trkpt><trkpt lat="44.4119812" lon="10.8031616"><ele>694.0</ele><time>2026-04-18T14:37:23.941Z</time></trkpt><trkpt lat="44.4120419" lon="10.8031054"><ele>694.0</ele><time>2026-04-18T14:37:24.942Z</time></trkpt><trkpt lat="44.4121045" lon="10.8030294"><ele>694.0</ele><time>2026-04-18T14:37:25.942Z</time></trkpt><trkpt lat="44.4121634" lon="10.8029513"><ele>694.0</ele><time>2026-04-18T14:37:26.942Z</time></trkpt><trkpt lat="44.4122183" lon="10.8028742"><ele>694.0</ele><time>2026-04-18T14:37:27.941Z</time></trkpt><trkpt lat="44.4122743" lon="10.8027963"><ele>694.0</ele><time>2026-04-18T14:37:28.942Z</time></trkpt><trkpt lat="44.4123231" lon="10.8027069"><ele>694.0</ele><time>2026-04-18T14:37:29.942Z</time></trkpt><trkpt lat="44.4123637" lon="10.8025997"><ele>695.1666666666667</ele><time>2026-04-18T14:37:30.941Z</time></trkpt><trkpt lat="44.4124011" lon="10.8024839"><ele>696.3333333333334</ele><time>2026-04-18T14:37:31.942Z</time></trkpt><trkpt lat="44.4124349" lon="10.8023701"><ele>697.5</ele><time>2026-04-18T14:37:32.941Z</time></trkpt><trkpt lat="44.4124679" lon="10.802266"><ele>698.6666666666666</ele><time>2026-04-18T14:37:33.941Z</time></trkpt><trkpt lat="44.4125007" lon="10.802171"><ele>699.8333333333333</ele><time>2026-04-18T14:37:34.941Z</time></trkpt><trkpt lat="44.4125353" lon="10.8020847"><ele>701.0</ele><time>2026-04-18T14:37:35.942Z</time></trkpt><trkpt lat="44.4125672" lon="10.8020031"><ele>701.0</ele><time>2026-04-18T14:37:36.941Z</time></trkpt><trkpt lat="44.4126216" lon="10.8018533"><ele>701.0</ele><time>2026-04-18T14:37:38.941Z</time></trkpt><trkpt lat="44.4126916" lon="10.8017042"><ele>701.0</ele><time>2026-04-18T14:37:40.941Z</time></trkpt><trkpt lat="44.4127274" lon="10.8016252"><ele>701.0</ele><time>2026-04-18T14:37:41.941Z</time></trkpt><trkpt lat="44.4127583" lon="10.8015437"><ele>701.0</ele><time>2026-04-18T14:37:42.941Z</time></trkpt><trkpt lat="44.412792" lon="10.8014545"><ele>700.8</ele><time>2026-04-18T14:37:43.941Z</time></trkpt><trkpt lat="44.4128268" lon="10.8013579"><ele>700.5999999999999</ele><time>2026-04-18T14:37:44.941Z</time></trkpt><trkpt lat="44.412863" lon="10.8012502"><ele>700.4</ele><time>2026-04-18T14:37:45.942Z</time></trkpt><trkpt lat="44.4129065" lon="10.801135"><ele>700.2</ele><time>2026-04-18T14:37:46.941Z</time></trkpt><trkpt lat="44.4129548" lon="10.8010183"><ele>700.0</ele><time>2026-04-18T14:37:47.942Z</time></trkpt><trkpt lat="44.4130042" lon="10.8008956"><ele>701.0</ele><time>2026-04-18T14:37:48.941Z</time></trkpt><trkpt lat="44.413055" lon="10.800769"><ele>702.0</ele><time>2026-04-18T14:37:49.941Z</time></trkpt><trkpt lat="44.4131092" lon="10.8006281"><ele>703.0</ele><time>2026-04-18T14:37:50.941Z</time></trkpt><trkpt lat="44.4131672" lon="10.8004854"><ele>704.0</ele><time>2026-04-18T14:37:51.942Z</time></trkpt><trkpt lat="44.4132239" lon="10.8003354"><ele>704.0</ele><time>2026-04-18T14:37:52.942Z</time></trkpt><trkpt lat="44.4132667" lon="10.8001744"><ele>704.0</ele><time>2026-04-18T14:37:53.941Z</time></trkpt><trkpt lat="44.4132992" lon="10.7999978"><ele>704.0</ele><time>2026-04-18T14:37:54.942Z</time></trkpt><trkpt lat="44.4133286" lon="10.7998199"><ele>704.0</ele><time>2026-04-18T14:37:55.941Z</time></trkpt><trkpt lat="44.413356" lon="10.7996451"><ele>704.25</ele><time>2026-04-18T14:37:56.942Z</time></trkpt><trkpt lat="44.4133824" lon="10.7994672"><ele>704.5</ele><time>2026-04-18T14:37:57.942Z</time></trkpt><trkpt lat="44.4134066" lon="10.7992882"><ele>704.75</ele><time>2026-04-18T14:37:58.942Z</time></trkpt><trkpt lat="44.4134306" lon="10.7991185"><ele>705.0</ele><time>2026-04-18T14:37:59.941Z</time></trkpt><trkpt lat="44.4134528" lon="10.7989527"><ele>705.0</ele><time>2026-04-18T14:38:00.941Z</time></trkpt><trkpt lat="44.4134787" lon="10.7987936"><ele>705.0</ele><time>2026-04-18T14:38:01.942Z</time></trkpt><trkpt lat="44.4135016" lon="10.7986418"><ele>705.0</ele><time>2026-04-18T14:38:02.941Z</time></trkpt><trkpt lat="44.4135232" lon="10.7984892"><ele>705.0</ele><time>2026-04-18T14:38:03.942Z</time></trkpt><trkpt lat="44.4135486" lon="10.798337"><ele>705.75</ele><time>2026-04-18T14:38:04.942Z</time></trkpt><trkpt lat="44.4135736" lon="10.7981803"><ele>706.5</ele><time>2026-04-18T14:38:05.941Z</time></trkpt><trkpt lat="44.4135981" lon="10.7980282"><ele>707.25</ele><time>2026-04-18T14:38:06.941Z</time></trkpt><trkpt lat="44.413625" lon="10.7978753"><ele>708.0</ele><time>2026-04-18T14:38:07.942Z</time></trkpt><trkpt lat="44.4136506" lon="10.797719"><ele>707.8</ele><time>2026-04-18T14:38:08.942Z</time></trkpt><trkpt lat="44.4136757" lon="10.7975673"><ele>707.5999999999999</ele><time>2026-04-18T14:38:09.942Z</time></trkpt><trkpt lat="44.4137005" lon="10.7974217"><ele>707.4000000000001</ele><time>2026-04-18T14:38:10.942Z</time></trkpt><trkpt lat="44.4137218" lon="10.7972841"><ele>707.2</ele><time>2026-04-18T14:38:11.941Z</time></trkpt><trkpt lat="44.4137415" lon="10.7971498"><ele>707.0</ele><time>2026-04-18T14:38:12.941Z</time></trkpt><trkpt lat="44.4137624" lon="10.7970218"><ele>707.0</ele><time>2026-04-18T14:38:13.941Z</time></trkpt><trkpt lat="44.4137816" lon="10.7968993"><ele>707.0</ele><time>2026-04-18T14:38:14.941Z</time></trkpt><trkpt lat="44.4138007" lon="10.7968013"><ele>707.0</ele><time>2026-04-18T14:38:15.941Z</time></trkpt><trkpt lat="44.4138372" lon="10.7966901"><ele>707.0</ele><time>2026-04-18T14:38:17.941Z</time></trkpt><trkpt lat="44.4139381" lon="10.7966455"><ele>707.0</ele><time>2026-04-18T14:42:06.941Z</time></trkpt><trkpt lat="44.4140383" lon="10.7967381"><ele>707.8</ele><time>2026-04-18T14:42:08.941Z</time></trkpt><trkpt lat="44.4141199" lon="10.7968237"><ele>708.6</ele><time>2026-04-18T14:42:10.941Z</time></trkpt><trkpt lat="44.4141942" lon="10.7968849"><ele>709.4</ele><time>2026-04-18T14:42:18.942Z</time></trkpt><trkpt lat="44.4143125" lon="10.796969"><ele>710.1999999999999</ele><time>2026-04-18T14:42:20.941Z</time></trkpt><trkpt lat="44.414387" lon="10.7970272"><ele>711.0</ele><time>2026-04-18T14:42:21.942Z</time></trkpt><trkpt lat="44.4144708" lon="10.7970981"><ele>710.8</ele><time>2026-04-18T14:42:22.942Z</time></trkpt><trkpt lat="44.4145573" lon="10.7971748"><ele>710.5999999999999</ele><time>2026-04-18T14:42:23.942Z</time></trkpt><trkpt lat="44.4146415" lon="10.7972691"><ele>710.4</ele><time>2026-04-18T14:42:24.941Z</time></trkpt><trkpt lat="44.4147151" lon="10.7973897"><ele>710.2</ele><time>2026-04-18T14:42:25.942Z</time></trkpt><trkpt lat="44.4147656" lon="10.7975236"><ele>710.0</ele><time>2026-04-18T14:42:26.941Z</time></trkpt><trkpt lat="44.4148238" lon="10.7976556"><ele>713.0</ele><time>2026-04-18T14:42:27.941Z</time></trkpt><trkpt lat="44.414906" lon="10.7977705"><ele>716.0</ele><time>2026-04-18T14:42:28.942Z</time></trkpt><trkpt lat="44.415007" lon="10.7978519"><ele>719.0</ele><time>2026-04-18T14:42:29.941Z</time></trkpt><trkpt lat="44.4151232" lon="10.7978826"><ele>722.0</ele><time>2026-04-18T14:42:30.941Z</time></trkpt><trkpt lat="44.4152442" lon="10.7978688"><ele>722.0</ele><time>2026-04-18T14:42:31.942Z</time></trkpt><trkpt lat="44.4153661" lon="10.7978157"><ele>722.0</ele><time>2026-04-18T14:42:32.941Z</time></trkpt><trkpt lat="44.4154818" lon="10.7977324"><ele>722.0</ele><time>2026-04-18T14:42:33.941Z</time></trkpt><trkpt lat="44.4155873" lon="10.7976283"><ele>722.0</ele><time>2026-04-18T14:42:34.942Z</time></trkpt><trkpt lat="44.4156809" lon="10.7975055"><ele>722.25</ele><time>2026-04-18T14:42:35.941Z</time></trkpt><trkpt lat="44.4157686" lon="10.797371"><ele>722.5</ele><time>2026-04-18T14:42:36.941Z</time></trkpt><trkpt lat="44.4158537" lon="10.797237"><ele>722.75</ele><time>2026-04-18T14:42:37.941Z</time></trkpt><trkpt lat="44.4159433" lon="10.7971123"><ele>723.0</ele><time>2026-04-18T14:42:38.941Z</time></trkpt><trkpt lat="44.416043" lon="10.7969932"><ele>723.0</ele><time>2026-04-18T14:42:39.941Z</time></trkpt><trkpt lat="44.4161537" lon="10.7968847"><ele>723.0</ele><time>2026-04-18T14:42:40.942Z</time></trkpt><trkpt lat="44.4162725" lon="10.7968078"><ele>723.0</ele><time>2026-04-18T14:42:41.941Z</time></trkpt><trkpt lat="44.4164032" lon="10.7967607"><ele>723.0</ele><time>2026-04-18T14:42:42.941Z</time></trkpt><trkpt lat="44.4165421" lon="10.7967328"><ele>724.0</ele><time>2026-04-18T14:42:43.941Z</time></trkpt><trkpt lat="44.4166784" lon="10.7967102"><ele>725.0</ele><time>2026-04-18T14:42:44.941Z</time></trkpt><trkpt lat="44.416814" lon="10.7966814"><ele>726.0</ele><time>2026-04-18T14:42:45.941Z</time></trkpt><trkpt lat="44.4169418" lon="10.7966459"><ele>727.0</ele><time>2026-04-18T14:42:46.941Z</time></trkpt><trkpt lat="44.4170621" lon="10.7965805"><ele>730.25</ele><time>2026-04-18T14:42:47.941Z</time></trkpt><trkpt lat="44.4171647" lon="10.796476"><ele>733.5</ele><time>2026-04-18T14:42:48.942Z</time></trkpt><trkpt lat="44.4172506" lon="10.7963389"><ele>736.75</ele><time>2026-04-18T14:42:49.942Z</time></trkpt><trkpt lat="44.4173251" lon="10.7961885"><ele>740.0</ele><time>2026-04-18T14:42:50.941Z</time></trkpt><trkpt lat="44.4173982" lon="10.7960251"><ele>738.25</ele><time>2026-04-18T14:42:51.942Z</time></trkpt><trkpt lat="44.4174716" lon="10.7958681"><ele>736.5</ele><time>2026-04-18T14:42:52.941Z</time></trkpt><trkpt lat="44.4175415" lon="10.7957209"><ele>734.75</ele><time>2026-04-18T14:42:53.942Z</time></trkpt><trkpt lat="44.417598" lon="10.7955808"><ele>733.0</ele><time>2026-04-18T14:42:54.942Z</time></trkpt><trkpt lat="44.4176322" lon="10.7954277"><ele>733.0</ele><time>2026-04-18T14:42:55.942Z</time></trkpt><trkpt lat="44.4176208" lon="10.7952655"><ele>733.0</ele><time>2026-04-18T14:42:56.942Z</time></trkpt><trkpt lat="44.4175817" lon="10.7951197"><ele>733.0</ele><time>2026-04-18T14:42:57.941Z</time></trkpt><trkpt lat="44.4175183" lon="10.7949779"><ele>733.0</ele><time>2026-04-18T14:42:58.942Z</time></trkpt><trkpt lat="44.4174461" lon="10.7948405"><ele>733.75</ele><time>2026-04-18T14:42:59.941Z</time></trkpt><trkpt lat="44.4173719" lon="10.7947047"><ele>734.5</ele><time>2026-04-18T14:43:00.941Z</time></trkpt><trkpt lat="44.4173042" lon="10.7945611"><ele>735.25</ele><time>2026-04-18T14:43:01.941Z</time></trkpt><trkpt lat="44.4172536" lon="10.7943994"><ele>736.0</ele><time>2026-04-18T14:43:02.941Z</time></trkpt><trkpt lat="44.4172138" lon="10.7942297"><ele>735.25</ele><time>2026-04-18T14:43:03.942Z</time></trkpt><trkpt lat="44.417183" lon="10.7940499"><ele>734.5</ele><time>2026-04-18T14:43:04.941Z</time></trkpt><trkpt lat="44.4171504" lon="10.7938644"><ele>733.75</ele><time>2026-04-18T14:43:05.941Z</time></trkpt><trkpt lat="44.417115" lon="10.7936698"><ele>733.0</ele><time>2026-04-18T14:43:06.942Z</time></trkpt><trkpt lat="44.4170823" lon="10.7934724"><ele>733.0</ele><time>2026-04-18T14:43:07.941Z</time></trkpt><trkpt lat="44.417048" lon="10.7932745"><ele>733.0</ele><time>2026-04-18T14:43:08.942Z</time></trkpt><trkpt lat="44.4170218" lon="10.7930877"><ele>733.0</ele><time>2026-04-18T14:43:09.941Z</time></trkpt><trkpt lat="44.4170158" lon="10.7929028"><ele>733.0</ele><time>2026-04-18T14:43:10.941Z</time></trkpt><trkpt lat="44.4170452" lon="10.7927314"><ele>733.75</ele><time>2026-04-18T14:43:11.941Z</time></trkpt><trkpt lat="44.4171037" lon="10.7925815"><ele>734.5</ele><time>2026-04-18T14:43:12.941Z</time></trkpt><trkpt lat="44.4171877" lon="10.7924484"><ele>735.25</ele><time>2026-04-18T14:43:13.941Z</time></trkpt><trkpt lat="44.417288" lon="10.7923339"><ele>736.0</ele><time>2026-04-18T14:43:14.941Z</time></trkpt><trkpt lat="44.4174032" lon="10.7922354"><ele>741.0</ele><time>2026-04-18T14:43:15.942Z</time></trkpt><trkpt lat="44.4175265" lon="10.7921513"><ele>746.0</ele><time>2026-04-18T14:43:16.941Z</time></trkpt><trkpt lat="44.4176567" lon="10.7920962"><ele>751.0</ele><time>2026-04-18T14:43:17.942Z</time></trkpt><trkpt lat="44.4177946" lon="10.7920644"><ele>756.0</ele><time>2026-04-18T14:43:18.941Z</time></trkpt><trkpt lat="44.4179305" lon="10.7920403"><ele>758.5</ele><time>2026-04-18T14:43:19.941Z</time></trkpt><trkpt lat="44.4180682" lon="10.7920199"><ele>761.0</ele><time>2026-04-18T14:43:20.941Z</time></trkpt><trkpt lat="44.4181994" lon="10.7920113"><ele>763.5</ele><time>2026-04-18T14:43:21.941Z</time></trkpt><trkpt lat="44.4183307" lon="10.7920349"><ele>766.0</ele><time>2026-04-18T14:43:22.942Z</time></trkpt><trkpt lat="44.4184516" lon="10.7920683"><ele>766.0</ele><time>2026-04-18T14:43:23.942Z</time></trkpt><trkpt lat="44.4185654" lon="10.7920728"><ele>766.0</ele><time>2026-04-18T14:43:24.941Z</time></trkpt><trkpt lat="44.4186689" lon="10.7920239"><ele>766.0</ele><time>2026-04-18T14:43:25.941Z</time></trkpt><trkpt lat="44.418766" lon="10.791969"><ele>766.0</ele><time>2026-04-18T14:43:26.942Z</time></trkpt><trkpt lat="44.4188488" lon="10.7918415"><ele>767.25</ele><time>2026-04-18T14:43:27.942Z</time></trkpt><trkpt lat="44.4189365" lon="10.7917321"><ele>768.5</ele><time>2026-04-18T14:43:28.941Z</time></trkpt><trkpt lat="44.4190062" lon="10.7916053"><ele>769.75</ele><time>2026-04-18T14:43:29.942Z</time></trkpt><trkpt lat="44.4190443" lon="10.7914545"><ele>771.0</ele><time>2026-04-18T14:43:30.942Z</time></trkpt><trkpt lat="44.4190529" lon="10.7912904"><ele>771.0</ele><time>2026-04-18T14:43:31.941Z</time></trkpt><trkpt lat="44.4190368" lon="10.7911216"><ele>771.0</ele><time>2026-04-18T14:43:32.941Z</time></trkpt><trkpt lat="44.4190083" lon="10.7909434"><ele>771.0</ele><time>2026-04-18T14:43:33.942Z</time></trkpt><trkpt lat="44.4189855" lon="10.7907626"><ele>771.0</ele><time>2026-04-18T14:43:34.942Z</time></trkpt><trkpt lat="44.418967" lon="10.7906012"><ele>771.5</ele><time>2026-04-18T14:43:35.942Z</time></trkpt><trkpt lat="44.4189605" lon="10.7904472"><ele>772.0</ele><time>2026-04-18T14:43:36.941Z</time></trkpt><trkpt lat="44.4189697" lon="10.7902907"><ele>772.5</ele><time>2026-04-18T14:43:37.941Z</time></trkpt><trkpt lat="44.4190412" lon="10.7901664"><ele>773.0</ele><time>2026-04-18T14:43:38.941Z</time></trkpt><trkpt lat="44.4191325" lon="10.7900725"><ele>771.75</ele><time>2026-04-18T14:43:39.942Z</time></trkpt><trkpt lat="44.419246" lon="10.7900111"><ele>770.5</ele><time>2026-04-18T14:43:40.941Z</time></trkpt><trkpt lat="44.4193723" lon="10.7899796"><ele>769.25</ele><time>2026-04-18T14:43:41.941Z</time></trkpt><trkpt lat="44.4195055" lon="10.7899501"><ele>768.0</ele><time>2026-04-18T14:43:42.941Z</time></trkpt><trkpt lat="44.4196329" lon="10.789914"><ele>772.75</ele><time>2026-04-18T14:43:43.942Z</time></trkpt><trkpt lat="44.4197567" lon="10.7898508"><ele>777.5</ele><time>2026-04-18T14:43:44.941Z</time></trkpt><trkpt lat="44.4198685" lon="10.7897604"><ele>782.25</ele><time>2026-04-18T14:43:45.942Z</time></trkpt><trkpt lat="44.4199751" lon="10.7896563"><ele>787.0</ele><time>2026-04-18T14:43:46.942Z</time></trkpt><trkpt lat="44.4200822" lon="10.7895509"><ele>787.0</ele><time>2026-04-18T14:43:47.941Z</time></trkpt><trkpt lat="44.4201976" lon="10.789463"><ele>787.0</ele><time>2026-04-18T14:43:48.942Z</time></trkpt><trkpt lat="44.4203218" lon="10.7894201"><ele>787.0</ele><time>2026-04-18T14:43:49.942Z</time></trkpt><trkpt lat="44.4204453" lon="10.7894165"><ele>787.0</ele><time>2026-04-18T14:43:50.941Z</time></trkpt><trkpt lat="44.4205691" lon="10.7894473"><ele>789.0</ele><time>2026-04-18T14:43:51.942Z</time></trkpt><trkpt lat="44.4206922" lon="10.7895103"><ele>791.0</ele><time>2026-04-18T14:43:52.942Z</time></trkpt><trkpt lat="44.4208101" lon="10.7895798"><ele>793.0</ele><time>2026-04-18T14:43:53.942Z</time></trkpt><trkpt lat="44.4209341" lon="10.7896313"><ele>795.0</ele><time>2026-04-18T14:43:54.941Z</time></trkpt><trkpt lat="44.4210516" lon="10.7896409"><ele>795.0</ele><time>2026-04-18T14:43:55.942Z</time></trkpt><trkpt lat="44.421154" lon="10.789586"><ele>795.0</ele><time>2026-04-18T14:43:56.941Z</time></trkpt><trkpt lat="44.4212408" lon="10.7894886"><ele>795.0</ele><time>2026-04-18T14:43:57.942Z</time></trkpt><trkpt lat="44.4213251" lon="10.7893731"><ele>795.0</ele><time>2026-04-18T14:43:58.941Z</time></trkpt><trkpt lat="44.4214149" lon="10.789258"><ele>793.4</ele><time>2026-04-18T14:43:59.941Z</time></trkpt><trkpt lat="44.42152" lon="10.7891794"><ele>791.8</ele><time>2026-04-18T14:44:00.941Z</time></trkpt><trkpt lat="44.4216284" lon="10.7891183"><ele>790.2</ele><time>2026-04-18T14:44:01.941Z</time></trkpt><trkpt lat="44.4217324" lon="10.7890884"><ele>788.6</ele><time>2026-04-18T14:44:02.942Z</time></trkpt><trkpt lat="44.4218287" lon="10.789106"><ele>787.0</ele><time>2026-04-18T14:44:03.941Z</time></trkpt><trkpt lat="44.421911" lon="10.7891442"><ele>786.9999999999999</ele><time>2026-04-18T14:44:04.941Z</time></trkpt><trkpt lat="44.4219929" lon="10.78919"><ele>787.0</ele><time>2026-04-18T14:44:05.941Z</time></trkpt><trkpt lat="44.4220753" lon="10.789252"><ele>787.0</ele><time>2026-04-18T14:44:06.941Z</time></trkpt><trkpt lat="44.4221536" lon="10.7893142"><ele>787.0</ele><time>2026-04-18T14:44:07.942Z</time></trkpt><trkpt lat="44.4222223" lon="10.7893639"><ele>786.9999999999999</ele><time>2026-04-18T14:44:08.941Z</time></trkpt><trkpt lat="44.422286" lon="10.789418"><ele>787.0</ele><time>2026-04-18T14:44:09.941Z</time></trkpt><trkpt lat="44.4223995" lon="10.7895106"><ele>787.9999999999999</ele><time>2026-04-18T14:44:11.941Z</time></trkpt><trkpt lat="44.4224697" lon="10.789561"><ele>789.0</ele><time>2026-04-18T14:44:12.941Z</time></trkpt><trkpt lat="44.4225451" lon="10.7896201"><ele>790.0</ele><time>2026-04-18T14:44:13.942Z</time></trkpt><trkpt lat="44.4226202" lon="10.7896747"><ele>791.0</ele><time>2026-04-18T14:44:14.941Z</time></trkpt><trkpt lat="44.4226806" lon="10.7897035"><ele>791.9999999999999</ele><time>2026-04-18T14:44:15.941Z</time></trkpt><trkpt lat="44.4226537" lon="10.7898282"><ele>793.0</ele><time>2026-04-18T14:44:17.941Z</time></trkpt><trkpt lat="44.4226239" lon="10.7899061"><ele>793.0</ele><time>2026-04-18T14:44:18.941Z</time></trkpt><trkpt lat="44.4225978" lon="10.7900083"><ele>793.0</ele><time>2026-04-18T14:44:19.942Z</time></trkpt><trkpt lat="44.4225702" lon="10.7901224"><ele>793.0</ele><time>2026-04-18T14:44:20.941Z</time></trkpt><trkpt lat="44.4225298" lon="10.7902411"><ele>793.0</ele><time>2026-04-18T14:44:21.942Z</time></trkpt><trkpt lat="44.422488" lon="10.7903566"><ele>793.0</ele><time>2026-04-18T14:44:22.941Z</time></trkpt><trkpt lat="44.4224344" lon="10.7905035"><ele>791.2</ele><time>2026-04-18T14:44:23.941Z</time></trkpt><trkpt lat="44.4223769" lon="10.7906661"><ele>789.4</ele><time>2026-04-18T14:44:24.941Z</time></trkpt><trkpt lat="44.4223199" lon="10.7908078"><ele>787.6</ele><time>2026-04-18T14:44:25.941Z</time></trkpt><trkpt lat="44.4222707" lon="10.7909421"><ele>785.8000000000001</ele><time>2026-04-18T14:44:26.942Z</time></trkpt><trkpt lat="44.4222415" lon="10.7910588"><ele>784.0</ele><time>2026-04-18T14:44:27.942Z</time></trkpt><trkpt lat="44.4222213" lon="10.7911793"><ele>782.0</ele><time>2026-04-18T14:44:28.941Z</time></trkpt><trkpt lat="44.4222036" lon="10.791292"><ele>780.0</ele><time>2026-04-18T14:44:29.942Z</time></trkpt><trkpt lat="44.4221901" lon="10.7914145"><ele>778.0</ele><time>2026-04-18T14:44:30.941Z</time></trkpt><trkpt lat="44.4221729" lon="10.7915503"><ele>776.0</ele><time>2026-04-18T14:44:31.941Z</time></trkpt><trkpt lat="44.4221574" lon="10.791687"><ele>774.0</ele><time>2026-04-18T14:44:32.942Z</time></trkpt><trkpt lat="44.4221393" lon="10.7918203"><ele>777.2</ele><time>2026-04-18T14:44:33.941Z</time></trkpt><trkpt lat="44.4221214" lon="10.7919519"><ele>780.4000000000001</ele><time>2026-04-18T14:44:34.941Z</time></trkpt><trkpt lat="44.4221004" lon="10.7920865"><ele>783.6</ele><time>2026-04-18T14:44:35.942Z</time></trkpt><trkpt lat="44.4220758" lon="10.7922366"><ele>786.8</ele><time>2026-04-18T14:44:36.942Z</time></trkpt><trkpt lat="44.422049" lon="10.7923945"><ele>790.0</ele><time>2026-04-18T14:44:37.941Z</time></trkpt><trkpt lat="44.4220165" lon="10.7925535"><ele>788.4999999999999</ele><time>2026-04-18T14:44:38.941Z</time></trkpt><trkpt lat="44.4219949" lon="10.7927037"><ele>787.0</ele><time>2026-04-18T14:44:39.941Z</time></trkpt><trkpt lat="44.4219717" lon="10.7928341"><ele>785.5</ele><time>2026-04-18T14:44:40.941Z</time></trkpt><trkpt lat="44.4219518" lon="10.7929504"><ele>784.0</ele><time>2026-04-18T14:44:41.941Z</time></trkpt><trkpt lat="44.4219415" lon="10.7930575"><ele>782.4999999999999</ele><time>2026-04-18T14:44:42.941Z</time></trkpt><trkpt lat="44.421939" lon="10.7931551"><ele>781.0</ele><time>2026-04-18T14:44:43.942Z</time></trkpt><trkpt lat="44.4219706" lon="10.793297"><ele>780.9999999999999</ele><time>2026-04-18T14:44:45.941Z</time></trkpt><trkpt lat="44.422015" lon="10.7933795"><ele>781.0</ele><time>2026-04-18T14:44:47.941Z</time></trkpt><trkpt lat="44.4220864" lon="10.7933604"><ele>781.0</ele><time>2026-04-18T14:44:49.942Z</time></trkpt><trkpt lat="44.42212" lon="10.7932351"><ele>781.0</ele><time>2026-04-18T14:44:51.942Z</time></trkpt><trkpt lat="44.4221179" lon="10.7931319"><ele>780.9999999999999</ele><time>2026-04-18T14:44:52.942Z</time></trkpt><trkpt lat="44.4221208" lon="10.7930134"><ele>781.0</ele><time>2026-04-18T14:44:53.941Z</time></trkpt><trkpt lat="44.4221431" lon="10.7928721"><ele>778.6666666666666</ele><time>2026-04-18T14:44:54.942Z</time></trkpt><trkpt lat="44.4221742" lon="10.7927444"><ele>776.3333333333333</ele><time>2026-04-18T14:44:55.942Z</time></trkpt><trkpt lat="44.4222117" lon="10.792628"><ele>774.0</ele><time>2026-04-18T14:44:56.942Z</time></trkpt><trkpt lat="44.422254" lon="10.7925271"><ele>771.6666666666666</ele><time>2026-04-18T14:44:57.941Z</time></trkpt><trkpt lat="44.422303" lon="10.7924502"><ele>769.3333333333333</ele><time>2026-04-18T14:44:58.941Z</time></trkpt><trkpt lat="44.422361" lon="10.7923998"><ele>767.0</ele><time>2026-04-18T14:44:59.941Z</time></trkpt><trkpt lat="44.4224228" lon="10.7923774"><ele>767.0</ele><time>2026-04-18T14:45:00.941Z</time></trkpt><trkpt lat="44.4224934" lon="10.792381"><ele>767.0</ele><time>2026-04-18T14:45:01.941Z</time></trkpt><trkpt lat="44.4225661" lon="10.7923858"><ele>767.0</ele><time>2026-04-18T14:45:02.941Z</time></trkpt><trkpt lat="44.4226565" lon="10.7923725"><ele>767.0</ele><time>2026-04-18T14:45:04.941Z</time></trkpt><trkpt lat="44.4227513" lon="10.7923666"><ele>767.0</ele><time>2026-04-18T14:45:06.942Z</time></trkpt><trkpt lat="44.4228494" lon="10.7923573"><ele>767.0</ele><time>2026-04-18T14:45:08.941Z</time></trkpt><trkpt lat="44.4229516" lon="10.7923623"><ele>764.0</ele><time>2026-04-18T14:45:10.941Z</time></trkpt><trkpt lat="44.4230523" lon="10.7923644"><ele>761.0</ele><time>2026-04-18T14:45:12.942Z</time></trkpt><trkpt lat="44.4231881" lon="10.792367"><ele>758.0</ele><time>2026-04-18T14:45:14.941Z</time></trkpt><trkpt lat="44.4232547" lon="10.7923735"><ele>755.0</ele><time>2026-04-18T14:45:15.941Z</time></trkpt><trkpt lat="44.4233311" lon="10.7923853"><ele>752.0</ele><time>2026-04-18T14:45:16.941Z</time></trkpt><trkpt lat="44.423416" lon="10.7924031"><ele>752.0</ele><time>2026-04-18T14:45:17.941Z</time></trkpt><trkpt lat="44.4235014" lon="10.7924287"><ele>752.0</ele><time>2026-04-18T14:45:18.941Z</time></trkpt><trkpt lat="44.4235957" lon="10.7924621"><ele>752.0</ele><time>2026-04-18T14:45:19.941Z</time></trkpt><trkpt lat="44.4236807" lon="10.792478"><ele>752.0</ele><time>2026-04-18T14:45:20.941Z</time></trkpt><trkpt lat="44.4237774" lon="10.7924699"><ele>752.0</ele><time>2026-04-18T14:45:21.941Z</time></trkpt><trkpt lat="44.423872" lon="10.7924451"><ele>749.6</ele><time>2026-04-18T14:45:22.941Z</time></trkpt><trkpt lat="44.4239606" lon="10.7923897"><ele>747.2</ele><time>2026-04-18T14:45:23.941Z</time></trkpt><trkpt lat="44.4240419" lon="10.7923213"><ele>744.8</ele><time>2026-04-18T14:45:24.942Z</time></trkpt><trkpt lat="44.4241313" lon="10.7922406"><ele>742.4</ele><time>2026-04-18T14:45:25.941Z</time></trkpt><trkpt lat="44.4242243" lon="10.7921885"><ele>740.0</ele><time>2026-04-18T14:45:26.942Z</time></trkpt><trkpt lat="44.4243242" lon="10.7921464"><ele>740.0</ele><time>2026-04-18T14:45:27.941Z</time></trkpt><trkpt lat="44.4244333" lon="10.7921164"><ele>740.0</ele><time>2026-04-18T14:45:28.941Z</time></trkpt><trkpt lat="44.4245326" lon="10.792098"><ele>740.0</ele><time>2026-04-18T14:45:29.941Z</time></trkpt><trkpt lat="44.4246224" lon="10.792092"><ele>740.0</ele><time>2026-04-18T14:45:30.941Z</time></trkpt><trkpt lat="44.4247002" lon="10.7921204"><ele>740.0</ele><time>2026-04-18T14:45:31.941Z</time></trkpt><trkpt lat="44.424779" lon="10.7921786"><ele>737.6</ele><time>2026-04-18T14:45:32.942Z</time></trkpt><trkpt lat="44.4248689" lon="10.7922614"><ele>735.2</ele><time>2026-04-18T14:45:33.941Z</time></trkpt><trkpt lat="44.424946" lon="10.7923368"><ele>732.8</ele><time>2026-04-18T14:45:34.941Z</time></trkpt><trkpt lat="44.4250365" lon="10.792399"><ele>730.4</ele><time>2026-04-18T14:45:35.941Z</time></trkpt><trkpt lat="44.4251204" lon="10.7924644"><ele>728.0</ele><time>2026-04-18T14:45:36.942Z</time></trkpt><trkpt lat="44.4252181" lon="10.7925448"><ele>728.0</ele><time>2026-04-18T14:45:37.942Z</time></trkpt><trkpt lat="44.4253063" lon="10.7926292"><ele>728.0</ele><time>2026-04-18T14:45:38.942Z</time></trkpt><trkpt lat="44.4253939" lon="10.7927176"><ele>728.0</ele><time>2026-04-18T14:45:39.941Z</time></trkpt><trkpt lat="44.4254857" lon="10.7928072"><ele>728.0</ele><time>2026-04-18T14:45:40.942Z</time></trkpt><trkpt lat="44.4255898" lon="10.7928963"><ele>728.0</ele><time>2026-04-18T14:45:41.942Z</time></trkpt><trkpt lat="44.4256918" lon="10.7929852"><ele>720.25</ele><time>2026-04-18T14:45:42.941Z</time></trkpt><trkpt lat="44.4258138" lon="10.7930855"><ele>712.5</ele><time>2026-04-18T14:45:43.942Z</time></trkpt><trkpt lat="44.4259331" lon="10.7931544"><ele>704.75</ele><time>2026-04-18T14:45:44.941Z</time></trkpt><trkpt lat="44.4260447" lon="10.7932241"><ele>697.0</ele><time>2026-04-18T14:45:45.941Z</time></trkpt><trkpt lat="44.4261586" lon="10.793286"><ele>697.0</ele><time>2026-04-18T14:45:46.942Z</time></trkpt><trkpt lat="44.4262674" lon="10.7933341"><ele>697.0</ele><time>2026-04-18T14:45:47.942Z</time></trkpt><trkpt lat="44.4263768" lon="10.793367"><ele>697.0</ele><time>2026-04-18T14:45:48.942Z</time></trkpt><trkpt lat="44.4264804" lon="10.7933927"><ele>697.0</ele><time>2026-04-18T14:45:49.941Z</time></trkpt><trkpt lat="44.4265845" lon="10.7934069"><ele>697.0</ele><time>2026-04-18T14:45:50.941Z</time></trkpt><trkpt lat="44.4266834" lon="10.7934172"><ele>696.8333333333334</ele><time>2026-04-18T14:45:51.942Z</time></trkpt><trkpt lat="44.4267748" lon="10.7934208"><ele>696.6666666666667</ele><time>2026-04-18T14:45:52.941Z</time></trkpt><trkpt lat="44.4268608" lon="10.793422"><ele>696.5</ele><time>2026-04-18T14:45:53.942Z</time></trkpt><trkpt lat="44.4269481" lon="10.7934201"><ele>696.3333333333334</ele><time>2026-04-18T14:45:54.941Z</time></trkpt><trkpt lat="44.4270276" lon="10.7934192"><ele>696.1666666666666</ele><time>2026-04-18T14:45:55.942Z</time></trkpt><trkpt lat="44.4270982" lon="10.7934056"><ele>696.0</ele><time>2026-04-18T14:45:56.942Z</time></trkpt><trkpt lat="44.4271691" lon="10.7933726"><ele>694.1666666666666</ele><time>2026-04-18T14:45:57.941Z</time></trkpt><trkpt lat="44.4272266" lon="10.7933002"><ele>692.3333333333334</ele><time>2026-04-18T14:45:58.942Z</time></trkpt><trkpt lat="44.4272733" lon="10.7932015"><ele>690.5</ele><time>2026-04-18T14:45:59.941Z</time></trkpt><trkpt lat="44.4273187" lon="10.7930981"><ele>688.6666666666667</ele><time>2026-04-18T14:46:00.942Z</time></trkpt><trkpt lat="44.4273695" lon="10.7930054"><ele>686.8333333333334</ele><time>2026-04-18T14:46:01.942Z</time></trkpt><trkpt lat="44.4274338" lon="10.7929241"><ele>685.0</ele><time>2026-04-18T14:46:02.942Z</time></trkpt><trkpt lat="44.4275231" lon="10.7929109"><ele>685.0</ele><time>2026-04-18T14:46:03.941Z</time></trkpt><trkpt lat="44.4276212" lon="10.7929042"><ele>685.0</ele><time>2026-04-18T14:46:04.942Z</time></trkpt><trkpt lat="44.427723" lon="10.7929079"><ele>685.0</ele><time>2026-04-18T14:46:05.942Z</time></trkpt><trkpt lat="44.427829" lon="10.7929097"><ele>685.0</ele><time>2026-04-18T14:46:06.941Z</time></trkpt><trkpt lat="44.4279293" lon="10.7929172"><ele>685.0</ele><time>2026-04-18T14:46:07.942Z</time></trkpt><trkpt lat="44.4280272" lon="10.7929214"><ele>683.4</ele><time>2026-04-18T14:46:08.941Z</time></trkpt><trkpt lat="44.4281292" lon="10.7929022"><ele>681.8</ele><time>2026-04-18T14:46:09.942Z</time></trkpt><trkpt lat="44.4282429" lon="10.7928755"><ele>680.2</ele><time>2026-04-18T14:46:10.941Z</time></trkpt><trkpt lat="44.4283519" lon="10.792813"><ele>678.6</ele><time>2026-04-18T14:46:11.942Z</time></trkpt><trkpt lat="44.4284504" lon="10.7927587"><ele>677.0</ele><time>2026-04-18T14:46:12.942Z</time></trkpt><trkpt lat="44.4285453" lon="10.7927339"><ele>677.0</ele><time>2026-04-18T14:46:13.941Z</time></trkpt><trkpt lat="44.4286366" lon="10.7927694"><ele>677.0</ele><time>2026-04-18T14:46:14.941Z</time></trkpt><trkpt lat="44.4287286" lon="10.7928123"><ele>677.0</ele><time>2026-04-18T14:46:15.941Z</time></trkpt><trkpt lat="44.4288272" lon="10.7928513"><ele>677.0</ele><time>2026-04-18T14:46:16.942Z</time></trkpt><trkpt lat="44.428922" lon="10.7928868"><ele>677.0</ele><time>2026-04-18T14:46:17.942Z</time></trkpt><trkpt lat="44.4290088" lon="10.7929336"><ele>677.8</ele><time>2026-04-18T14:46:18.941Z</time></trkpt><trkpt lat="44.4290977" lon="10.7929726"><ele>678.6</ele><time>2026-04-18T14:46:19.942Z</time></trkpt><trkpt lat="44.4291991" lon="10.7929973"><ele>679.4</ele><time>2026-04-18T14:46:20.941Z</time></trkpt><trkpt lat="44.4292988" lon="10.7930311"><ele>680.1999999999999</ele><time>2026-04-18T14:46:21.941Z</time></trkpt><trkpt lat="44.4294363" lon="10.7930581"><ele>681.0</ele><time>2026-04-18T14:46:22.941Z</time></trkpt><trkpt lat="44.4295606" lon="10.79309"><ele>682.0</ele><time>2026-04-18T14:46:23.942Z</time></trkpt><trkpt lat="44.4296761" lon="10.7931199"><ele>683.0</ele><time>2026-04-18T14:46:24.941Z</time></trkpt><trkpt lat="44.4297818" lon="10.7931456"><ele>684.0</ele><time>2026-04-18T14:46:25.942Z</time></trkpt><trkpt lat="44.4298728" lon="10.7931685"><ele>685.0</ele><time>2026-04-18T14:46:26.941Z</time></trkpt><trkpt lat="44.4299575" lon="10.7931859"><ele>686.0</ele><time>2026-04-18T14:46:27.941Z</time></trkpt><trkpt lat="44.4300326" lon="10.793199"><ele>686.0</ele><time>2026-04-18T14:46:28.942Z</time></trkpt><trkpt lat="44.4300925" lon="10.7932351"><ele>686.0</ele><time>2026-04-18T14:46:29.941Z</time></trkpt><trkpt lat="44.430121" lon="10.7933932"><ele>686.0</ele><time>2026-04-18T14:46:31.941Z</time></trkpt><trkpt lat="44.4301166" lon="10.7934861"><ele>686.0</ele><time>2026-04-18T14:46:32.942Z</time></trkpt><trkpt lat="44.4301209" lon="10.7935953"><ele>686.0</ele><time>2026-04-18T14:46:33.941Z</time></trkpt><trkpt lat="44.4301367" lon="10.7936919"><ele>686.0</ele><time>2026-04-18T14:46:34.942Z</time></trkpt><trkpt lat="44.4301546" lon="10.7937941"><ele>681.5999999999999</ele><time>2026-04-18T14:46:35.941Z</time></trkpt><trkpt lat="44.4301911" lon="10.7938967"><ele>677.2</ele><time>2026-04-18T14:46:36.941Z</time></trkpt><trkpt lat="44.4302586" lon="10.7940047"><ele>672.8</ele><time>2026-04-18T14:46:37.941Z</time></trkpt><trkpt lat="44.4303154" lon="10.7941119"><ele>668.4000000000001</ele><time>2026-04-18T14:46:38.941Z</time></trkpt><trkpt lat="44.430377" lon="10.7942141"><ele>664.0</ele><time>2026-04-18T14:46:39.941Z</time></trkpt><trkpt lat="44.430441" lon="10.7943214"><ele>662.6666666666667</ele><time>2026-04-18T14:46:40.942Z</time></trkpt><trkpt lat="44.4305029" lon="10.7944224"><ele>661.3333333333334</ele><time>2026-04-18T14:46:41.941Z</time></trkpt><trkpt lat="44.4305614" lon="10.7945095"><ele>660.0</ele><time>2026-04-18T14:46:42.942Z</time></trkpt><trkpt lat="44.430618" lon="10.7945951"><ele>658.6666666666666</ele><time>2026-04-18T14:46:43.941Z</time></trkpt><trkpt lat="44.4306766" lon="10.7946781"><ele>657.3333333333333</ele><time>2026-04-18T14:46:44.941Z</time></trkpt><trkpt lat="44.4307318" lon="10.7947603"><ele>656.0</ele><time>2026-04-18T14:46:45.942Z</time></trkpt><trkpt lat="44.4307977" lon="10.7948421"><ele>656.0</ele><time>2026-04-18T14:46:46.942Z</time></trkpt><trkpt lat="44.4308736" lon="10.7949075"><ele>656.0</ele><time>2026-04-18T14:46:47.941Z</time></trkpt><trkpt lat="44.430959" lon="10.7949692"><ele>656.0</ele><time>2026-04-18T14:46:48.942Z</time></trkpt><trkpt lat="44.4310482" lon="10.795047"><ele>656.0</ele><time>2026-04-18T14:46:49.942Z</time></trkpt><trkpt lat="44.431131" lon="10.7951232"><ele>656.0</ele><time>2026-04-18T14:46:50.942Z</time></trkpt><trkpt lat="44.4312174" lon="10.7952065"><ele>654.4</ele><time>2026-04-18T14:46:51.941Z</time></trkpt><trkpt lat="44.4312994" lon="10.7952911"><ele>652.8</ele><time>2026-04-18T14:46:52.941Z</time></trkpt><trkpt lat="44.4313829" lon="10.7953793"><ele>651.1999999999999</ele><time>2026-04-18T14:46:53.941Z</time></trkpt><trkpt lat="44.431461" lon="10.7954684"><ele>649.5999999999999</ele><time>2026-04-18T14:46:54.941Z</time></trkpt><trkpt lat="44.4315287" lon="10.7955498"><ele>648.0</ele><time>2026-04-18T14:46:55.942Z</time></trkpt><trkpt lat="44.4315828" lon="10.7956161"><ele>648.0</ele><time>2026-04-18T14:46:56.941Z</time></trkpt><trkpt lat="44.4316428" lon="10.7956953"><ele>648.0</ele><time>2026-04-18T14:46:58.941Z</time></trkpt><trkpt lat="44.4317123" lon="10.7957688"><ele>648.0</ele><time>2026-04-18T14:47:01.942Z</time></trkpt><trkpt lat="44.4317794" lon="10.7957974"><ele>648.0</ele><time>2026-04-18T14:47:02.941Z</time></trkpt><trkpt lat="44.4318632" lon="10.7958101"><ele>648.0</ele><time>2026-04-18T14:47:03.941Z</time></trkpt><trkpt lat="44.4319643" lon="10.795848"><ele>648.0</ele><time>2026-04-18T14:47:04.942Z</time></trkpt><trkpt lat="44.4320559" lon="10.7959003"><ele>649.5</ele><time>2026-04-18T14:47:05.941Z</time></trkpt><trkpt lat="44.432145" lon="10.7959573"><ele>651.0</ele><time>2026-04-18T14:47:06.942Z</time></trkpt><trkpt lat="44.4322258" lon="10.7960248"><ele>652.5</ele><time>2026-04-18T14:47:07.941Z</time></trkpt><trkpt lat="44.4322926" lon="10.7960992"><ele>654.0</ele><time>2026-04-18T14:47:08.941Z</time></trkpt><trkpt lat="44.4323548" lon="10.7961682"><ele>655.5</ele><time>2026-04-18T14:47:09.941Z</time></trkpt><trkpt lat="44.4324169" lon="10.7962347"><ele>657.0</ele><time>2026-04-18T14:47:10.941Z</time></trkpt><trkpt lat="44.4324768" lon="10.7962834"><ele>652.4</ele><time>2026-04-18T14:47:11.942Z</time></trkpt><trkpt lat="44.4325426" lon="10.7963351"><ele>647.8000000000001</ele><time>2026-04-18T14:47:12.941Z</time></trkpt><trkpt lat="44.4326256" lon="10.7964012"><ele>643.2</ele><time>2026-04-18T14:47:13.942Z</time></trkpt><trkpt lat="44.4327151" lon="10.7964823"><ele>638.6</ele><time>2026-04-18T14:47:14.942Z</time></trkpt><trkpt lat="44.4328104" lon="10.7965845"><ele>634.0</ele><time>2026-04-18T14:47:15.941Z</time></trkpt><trkpt lat="44.4329099" lon="10.7966873"><ele>632.25</ele><time>2026-04-18T14:47:16.941Z</time></trkpt><trkpt lat="44.4330056" lon="10.7967883"><ele>630.5</ele><time>2026-04-18T14:47:17.942Z</time></trkpt><trkpt lat="44.4330981" lon="10.7968915"><ele>628.75</ele><time>2026-04-18T14:47:18.942Z</time></trkpt><trkpt lat="44.4331774" lon="10.7970023"><ele>627.0</ele><time>2026-04-18T14:47:19.942Z</time></trkpt><trkpt lat="44.4332371" lon="10.7971148"><ele>627.0</ele><time>2026-04-18T14:47:20.942Z</time></trkpt><trkpt lat="44.4332842" lon="10.7972317"><ele>627.0</ele><time>2026-04-18T14:47:21.941Z</time></trkpt><trkpt lat="44.43332" lon="10.7973478"><ele>627.0</ele><time>2026-04-18T14:47:22.941Z</time></trkpt><trkpt lat="44.4333608" lon="10.7974559"><ele>627.0</ele><time>2026-04-18T14:47:23.941Z</time></trkpt><trkpt lat="44.4334042" lon="10.7975552"><ele>627.0</ele><time>2026-04-18T14:47:24.941Z</time></trkpt><trkpt lat="44.4334481" lon="10.7976545"><ele>627.0</ele><time>2026-04-18T14:47:25.942Z</time></trkpt><trkpt lat="44.4334912" lon="10.7977568"><ele>626.0</ele><time>2026-04-18T14:47:26.942Z</time></trkpt><trkpt lat="44.4335424" lon="10.7978568"><ele>625.0</ele><time>2026-04-18T14:47:27.942Z</time></trkpt><trkpt lat="44.4335997" lon="10.7979615"><ele>624.0</ele><time>2026-04-18T14:47:28.941Z</time></trkpt><trkpt lat="44.4336639" lon="10.7980633"><ele>623.0</ele><time>2026-04-18T14:47:29.941Z</time></trkpt><trkpt lat="44.4337329" lon="10.7981662"><ele>622.0</ele><time>2026-04-18T14:47:30.941Z</time></trkpt><trkpt lat="44.4338039" lon="10.7982691"><ele>621.8000000000001</ele><time>2026-04-18T14:47:31.941Z</time></trkpt><trkpt lat="44.4338743" lon="10.7983732"><ele>621.6</ele><time>2026-04-18T14:47:32.941Z</time></trkpt><trkpt lat="44.4339546" lon="10.7984848"><ele>621.4000000000001</ele><time>2026-04-18T14:47:33.941Z</time></trkpt><trkpt lat="44.4340188" lon="10.7985973"><ele>621.2</ele><time>2026-04-18T14:47:34.941Z</time></trkpt><trkpt lat="44.4340861" lon="10.7987116"><ele>621.0</ele><time>2026-04-18T14:47:35.941Z</time></trkpt><trkpt lat="44.4341561" lon="10.7988329"><ele>621.0</ele><time>2026-04-18T14:47:36.941Z</time></trkpt><trkpt lat="44.4342223" lon="10.7989562"><ele>621.0</ele><time>2026-04-18T14:47:37.941Z</time></trkpt><trkpt lat="44.4342897" lon="10.7990782"><ele>621.0</ele><time>2026-04-18T14:47:38.941Z</time></trkpt><trkpt lat="44.4343581" lon="10.7991982"><ele>621.0</ele><time>2026-04-18T14:47:39.941Z</time></trkpt><trkpt lat="44.4344418" lon="10.7993153"><ele>621.0</ele><time>2026-04-18T14:47:40.941Z</time></trkpt><trkpt lat="44.4345339" lon="10.7994195"><ele>620.75</ele><time>2026-04-18T14:47:41.941Z</time></trkpt><trkpt lat="44.434628" lon="10.799515"><ele>620.5</ele><time>2026-04-18T14:47:42.942Z</time></trkpt><trkpt lat="44.4347249" lon="10.7995966"><ele>620.25</ele><time>2026-04-18T14:47:43.941Z</time></trkpt><trkpt lat="44.4348231" lon="10.7996716"><ele>620.0</ele><time>2026-04-18T14:47:44.942Z</time></trkpt><trkpt lat="44.4349272" lon="10.7997423"><ele>620.0</ele><time>2026-04-18T14:47:45.941Z</time></trkpt><trkpt lat="44.4350311" lon="10.7998061"><ele>620.0</ele><time>2026-04-18T14:47:46.942Z</time></trkpt><trkpt lat="44.4351311" lon="10.7998653"><ele>620.0</ele><time>2026-04-18T14:47:47.942Z</time></trkpt><trkpt lat="44.4352256" lon="10.7999198"><ele>620.0</ele><time>2026-04-18T14:47:48.942Z</time></trkpt><trkpt lat="44.4353091" lon="10.7999689"><ele>620.0</ele><time>2026-04-18T14:47:49.942Z</time></trkpt><trkpt lat="44.4353773" lon="10.8000366"><ele>620.0</ele><time>2026-04-18T14:47:50.941Z</time></trkpt><trkpt lat="44.4354189" lon="10.8001326"><ele>620.0</ele><time>2026-04-18T14:47:51.942Z</time></trkpt><trkpt lat="44.4354469" lon="10.8002496"><ele>620.0</ele><time>2026-04-18T14:47:52.942Z</time></trkpt><trkpt lat="44.4354813" lon="10.8003745"><ele>620.0</ele><time>2026-04-18T14:47:53.941Z</time></trkpt><trkpt lat="44.43553" lon="10.8005096"><ele>620.0</ele><time>2026-04-18T14:47:54.941Z</time></trkpt><trkpt lat="44.4355832" lon="10.8006516"><ele>619.6</ele><time>2026-04-18T14:47:55.941Z</time></trkpt><trkpt lat="44.4356383" lon="10.8007943"><ele>619.2</ele><time>2026-04-18T14:47:56.941Z</time></trkpt><trkpt lat="44.4356985" lon="10.8009254"><ele>618.8</ele><time>2026-04-18T14:47:57.942Z</time></trkpt><trkpt lat="44.4357585" lon="10.8010298"><ele>618.4</ele><time>2026-04-18T14:47:58.941Z</time></trkpt><trkpt lat="44.4358166" lon="10.8011102"><ele>618.0</ele><time>2026-04-18T14:47:59.941Z</time></trkpt><trkpt lat="44.4358839" lon="10.8011615"><ele>619.0</ele><time>2026-04-18T14:48:00.941Z</time></trkpt><trkpt lat="44.4359574" lon="10.8011907"><ele>620.0</ele><time>2026-04-18T14:48:01.941Z</time></trkpt><trkpt lat="44.4360428" lon="10.8012157"><ele>621.0</ele><time>2026-04-18T14:48:02.941Z</time></trkpt><trkpt lat="44.4361237" lon="10.8012566"><ele>622.0</ele><time>2026-04-18T14:48:03.941Z</time></trkpt><trkpt lat="44.4362037" lon="10.801322"><ele>623.0</ele><time>2026-04-18T14:48:04.941Z</time></trkpt><trkpt lat="44.4362826" lon="10.8013875"><ele>624.0</ele><time>2026-04-18T14:48:05.942Z</time></trkpt><trkpt lat="44.4363639" lon="10.8014855"><ele>624.0</ele><time>2026-04-18T14:48:06.941Z</time></trkpt><trkpt lat="44.4364419" lon="10.801573"><ele>624.0</ele><time>2026-04-18T14:48:07.941Z</time></trkpt><trkpt lat="44.436518" lon="10.8016588"><ele>624.0</ele><time>2026-04-18T14:48:08.941Z</time></trkpt><trkpt lat="44.4365822" lon="10.801737"><ele>624.0</ele><time>2026-04-18T14:48:09.942Z</time></trkpt><trkpt lat="44.4366457" lon="10.8018197"><ele>624.0</ele><time>2026-04-18T14:48:10.941Z</time></trkpt><trkpt lat="44.4367196" lon="10.8019"><ele>622.8</ele><time>2026-04-18T14:48:11.942Z</time></trkpt><trkpt lat="44.4367958" lon="10.8019765"><ele>621.5999999999999</ele><time>2026-04-18T14:48:12.941Z</time></trkpt><trkpt lat="44.4368764" lon="10.8020486"><ele>620.4</ele><time>2026-04-18T14:48:13.942Z</time></trkpt><trkpt lat="44.4369587" lon="10.8021118"><ele>619.1999999999999</ele><time>2026-04-18T14:48:14.941Z</time></trkpt><trkpt lat="44.4370295" lon="10.8021605"><ele>618.0</ele><time>2026-04-18T14:48:15.942Z</time></trkpt><trkpt lat="44.4371394" lon="10.8022064"><ele>618.0000000000001</ele><time>2026-04-18T14:48:17.942Z</time></trkpt><trkpt lat="44.4372409" lon="10.8021739"><ele>618.0</ele><time>2026-04-18T14:48:19.942Z</time></trkpt><trkpt lat="44.437306" lon="10.8021489"><ele>618.0</ele><time>2026-04-18T14:48:20.941Z</time></trkpt><trkpt lat="44.4373739" lon="10.8021191"><ele>618.0</ele><time>2026-04-18T14:48:21.941Z</time></trkpt><trkpt lat="44.4374395" lon="10.802105"><ele>618.0</ele><time>2026-04-18T14:48:22.941Z</time></trkpt><trkpt lat="44.4374993" lon="10.8020757"><ele>618.0000000000001</ele><time>2026-04-18T14:48:23.941Z</time></trkpt><trkpt lat="44.4375613" lon="10.80205"><ele>618.0</ele><time>2026-04-18T14:48:24.941Z</time></trkpt><trkpt lat="44.4376289" lon="10.8020124"><ele>618.0</ele><time>2026-04-18T14:48:25.942Z</time></trkpt><trkpt lat="44.437697" lon="10.8019769"><ele>618.0</ele><time>2026-04-18T14:48:26.941Z</time></trkpt><trkpt lat="44.4377611" lon="10.8019355"><ele>618.0</ele><time>2026-04-18T14:48:27.942Z</time></trkpt><trkpt lat="44.4378209" lon="10.801892"><ele>618.0</ele><time>2026-04-18T14:48:28.942Z</time></trkpt><trkpt lat="44.4379196" lon="10.8018314"><ele>618.0</ele><time>2026-04-18T14:48:30.941Z</time></trkpt><trkpt lat="44.4379851" lon="10.8017744"><ele>618.0</ele><time>2026-04-18T14:48:32.941Z</time></trkpt><trkpt lat="44.4380689" lon="10.801712"><ele>618.1999999999999</ele><time>2026-04-18T14:48:35.942Z</time></trkpt><trkpt lat="44.4381447" lon="10.8016635"><ele>618.4</ele><time>2026-04-18T14:48:37.941Z</time></trkpt><trkpt lat="44.4382023" lon="10.8016274"><ele>618.5999999999999</ele><time>2026-04-18T14:48:38.941Z</time></trkpt><trkpt lat="44.4382983" lon="10.8015539"><ele>618.8</ele><time>2026-04-18T14:48:40.941Z</time></trkpt><trkpt lat="44.4384129" lon="10.8014943"><ele>619.0</ele><time>2026-04-18T14:48:42.942Z</time></trkpt><trkpt lat="44.4385391" lon="10.8015108"><ele>619.0</ele><time>2026-04-18T14:48:44.941Z</time></trkpt><trkpt lat="44.4385993" lon="10.8015494"><ele>619.0</ele><time>2026-04-18T14:48:45.942Z</time></trkpt><trkpt lat="44.4387106" lon="10.8016357"><ele>619.0</ele><time>2026-04-18T14:48:47.941Z</time></trkpt><trkpt lat="44.4387731" lon="10.8016689"><ele>619.0</ele><time>2026-04-18T14:48:48.942Z</time></trkpt><trkpt lat="44.438839" lon="10.8017053"><ele>619.0</ele><time>2026-04-18T14:48:49.941Z</time></trkpt><trkpt lat="44.4389156" lon="10.8017062"><ele>619.0</ele><time>2026-04-18T14:48:50.942Z</time></trkpt><trkpt lat="44.4389865" lon="10.8016966"><ele>615.2</ele><time>2026-04-18T14:48:51.941Z</time></trkpt><trkpt lat="44.4390571" lon="10.8016826"><ele>611.4</ele><time>2026-04-18T14:48:52.941Z</time></trkpt><trkpt lat="44.4391754" lon="10.801642"><ele>607.6</ele><time>2026-04-18T14:48:54.941Z</time></trkpt><trkpt lat="44.4393051" lon="10.8015948"><ele>603.8</ele><time>2026-04-18T14:48:56.941Z</time></trkpt><trkpt lat="44.4393812" lon="10.8015689"><ele>600.0</ele><time>2026-04-18T14:48:57.942Z</time></trkpt><trkpt lat="44.439466" lon="10.8015445"><ele>600.0</ele><time>2026-04-18T14:48:58.942Z</time></trkpt><trkpt lat="44.4395505" lon="10.8015122"><ele>600.0</ele><time>2026-04-18T14:48:59.941Z</time></trkpt><trkpt lat="44.4396359" lon="10.8014754"><ele>600.0</ele><time>2026-04-18T14:49:00.941Z</time></trkpt><trkpt lat="44.4397183" lon="10.8014292"><ele>600.0</ele><time>2026-04-18T14:49:01.941Z</time></trkpt><trkpt lat="44.4397901" lon="10.80138"><ele>600.0</ele><time>2026-04-18T14:49:02.941Z</time></trkpt><trkpt lat="44.4398573" lon="10.8013263"><ele>600.0</ele><time>2026-04-18T14:49:03.941Z</time></trkpt><trkpt lat="44.4399169" lon="10.8012744"><ele>600.6</ele><time>2026-04-18T14:49:04.942Z</time></trkpt><trkpt lat="44.4399703" lon="10.8012219"><ele>601.2</ele><time>2026-04-18T14:49:05.942Z</time></trkpt><trkpt lat="44.4400246" lon="10.8011741"><ele>601.8</ele><time>2026-04-18T14:49:06.942Z</time></trkpt><trkpt lat="44.4401293" lon="10.801078"><ele>602.4</ele><time>2026-04-18T14:49:08.942Z</time></trkpt><trkpt lat="44.4402361" lon="10.8009821"><ele>603.0</ele><time>2026-04-18T14:49:10.941Z</time></trkpt><trkpt lat="44.4403243" lon="10.8008772"><ele>603.0</ele><time>2026-04-18T14:49:12.942Z</time></trkpt><trkpt lat="44.440402" lon="10.8007682"><ele>603.0</ele><time>2026-04-18T14:49:14.941Z</time></trkpt><trkpt lat="44.4404558" lon="10.8006705"><ele>603.0</ele><time>2026-04-18T14:49:16.941Z</time></trkpt><trkpt lat="44.440508" lon="10.8005694"><ele>603.0</ele><time>2026-04-18T14:49:18.941Z</time></trkpt><trkpt lat="44.44055" lon="10.8004636"><ele>603.0</ele><time>2026-04-18T14:49:20.941Z</time></trkpt><trkpt lat="44.4406306" lon="10.80034"><ele>601.7142857142858</ele><time>2026-04-18T14:49:22.941Z</time></trkpt><trkpt lat="44.4406788" lon="10.8002806"><ele>600.4285714285713</ele><time>2026-04-18T14:49:23.942Z</time></trkpt><trkpt lat="44.4407305" lon="10.8002129"><ele>599.1428571428571</ele><time>2026-04-18T14:49:24.942Z</time></trkpt><trkpt lat="44.4407724" lon="10.8001368"><ele>597.8571428571429</ele><time>2026-04-18T14:49:25.941Z</time></trkpt><trkpt lat="44.4408128" lon="10.8000528"><ele>596.5714285714287</ele><time>2026-04-18T14:49:26.941Z</time></trkpt><trkpt lat="44.4408441" lon="10.7999587"><ele>595.2857142857143</ele><time>2026-04-18T14:49:27.942Z</time></trkpt><trkpt lat="44.4408778" lon="10.7998647"><ele>594.0</ele><time>2026-04-18T14:49:28.941Z</time></trkpt><trkpt lat="44.4409214" lon="10.7997701"><ele>594.0</ele><time>2026-04-18T14:49:29.941Z</time></trkpt><trkpt lat="44.4409731" lon="10.7996731"><ele>594.0</ele><time>2026-04-18T14:49:30.942Z</time></trkpt><trkpt lat="44.441026" lon="10.7995779"><ele>594.0</ele><time>2026-04-18T14:49:31.941Z</time></trkpt><trkpt lat="44.4410745" lon="10.7994886"><ele>594.0</ele><time>2026-04-18T14:49:32.942Z</time></trkpt><trkpt lat="44.4411204" lon="10.7994128"><ele>594.0</ele><time>2026-04-18T14:49:33.941Z</time></trkpt><trkpt lat="44.4411591" lon="10.799342"><ele>594.0</ele><time>2026-04-18T14:49:34.942Z</time></trkpt><trkpt lat="44.4412184" lon="10.7992322"><ele>594.8333333333334</ele><time>2026-04-18T14:49:36.941Z</time></trkpt><trkpt lat="44.4412638" lon="10.7991499"><ele>595.6666666666666</ele><time>2026-04-18T14:49:38.942Z</time></trkpt><trkpt lat="44.4413187" lon="10.7990583"><ele>596.5</ele><time>2026-04-18T14:49:40.942Z</time></trkpt><trkpt lat="44.441356" lon="10.7989864"><ele>597.3333333333333</ele><time>2026-04-18T14:49:41.942Z</time></trkpt><trkpt lat="44.4413889" lon="10.7988894"><ele>598.1666666666666</ele><time>2026-04-18T14:49:42.941Z</time></trkpt><trkpt lat="44.4414344" lon="10.7987922"><ele>599.0</ele><time>2026-04-18T14:49:43.941Z</time></trkpt><trkpt lat="44.4414893" lon="10.7986636"><ele>597.6</ele><time>2026-04-18T14:49:44.941Z</time></trkpt><trkpt lat="44.4415417" lon="10.7985432"><ele>596.2</ele><time>2026-04-18T14:49:45.941Z</time></trkpt><trkpt lat="44.4416024" lon="10.7984325"><ele>594.8000000000001</ele><time>2026-04-18T14:49:46.942Z</time></trkpt><trkpt lat="44.4416674" lon="10.798323"><ele>593.4</ele><time>2026-04-18T14:49:47.941Z</time></trkpt><trkpt lat="44.441744" lon="10.7982269"><ele>592.0</ele><time>2026-04-18T14:49:48.941Z</time></trkpt><trkpt lat="44.4418256" lon="10.7981408"><ele>592.0</ele><time>2026-04-18T14:49:49.942Z</time></trkpt><trkpt lat="44.4419211" lon="10.7980764"><ele>592.0</ele><time>2026-04-18T14:49:50.941Z</time></trkpt><trkpt lat="44.4420161" lon="10.7980089"><ele>592.0</ele><time>2026-04-18T14:49:51.942Z</time></trkpt><trkpt lat="44.4421106" lon="10.7979472"><ele>592.0</ele><time>2026-04-18T14:49:52.942Z</time></trkpt><trkpt lat="44.4421898" lon="10.7978845"><ele>592.0</ele><time>2026-04-18T14:49:53.942Z</time></trkpt><trkpt lat="44.4422637" lon="10.7978189"><ele>592.0</ele><time>2026-04-18T14:49:54.942Z</time></trkpt><trkpt lat="44.4423372" lon="10.7977208"><ele>592.0</ele><time>2026-04-18T14:49:55.941Z</time></trkpt><trkpt lat="44.4424128" lon="10.7976184"><ele>592.0</ele><time>2026-04-18T14:49:56.942Z</time></trkpt><trkpt lat="44.4424899" lon="10.7975232"><ele>592.0</ele><time>2026-04-18T14:49:57.941Z</time></trkpt><trkpt lat="44.4425599" lon="10.7974414"><ele>592.0</ele><time>2026-04-18T14:49:58.942Z</time></trkpt><trkpt lat="44.4426321" lon="10.7973729"><ele>592.0</ele><time>2026-04-18T14:49:59.942Z</time></trkpt><trkpt lat="44.4426978" lon="10.7973153"><ele>592.0</ele><time>2026-04-18T14:50:00.942Z</time></trkpt><trkpt lat="44.4427568" lon="10.7972727"><ele>592.0</ele><time>2026-04-18T14:50:01.942Z</time></trkpt><trkpt lat="44.4428599" lon="10.797195"><ele>592.0</ele><time>2026-04-18T14:50:03.941Z</time></trkpt><trkpt lat="44.4429653" lon="10.7971121"><ele>592.0</ele><time>2026-04-18T14:50:05.942Z</time></trkpt><trkpt lat="44.4430299" lon="10.7970626"><ele>591.1666666666667</ele><time>2026-04-18T14:50:06.942Z</time></trkpt><trkpt lat="44.4431054" lon="10.7970137"><ele>590.3333333333334</ele><time>2026-04-18T14:50:07.942Z</time></trkpt><trkpt lat="44.4431868" lon="10.7969775"><ele>589.5</ele><time>2026-04-18T14:50:08.941Z</time></trkpt><trkpt lat="44.4432673" lon="10.7969309"><ele>588.6666666666666</ele><time>2026-04-18T14:50:09.941Z</time></trkpt><trkpt lat="44.4433421" lon="10.79687"><ele>587.8333333333333</ele><time>2026-04-18T14:50:10.941Z</time></trkpt><trkpt lat="44.4434065" lon="10.7967859"><ele>587.0</ele><time>2026-04-18T14:50:11.942Z</time></trkpt><trkpt lat="44.4434762" lon="10.7966923"><ele>586.2</ele><time>2026-04-18T14:50:12.941Z</time></trkpt><trkpt lat="44.4435403" lon="10.7965838"><ele>585.4000000000001</ele><time>2026-04-18T14:50:13.941Z</time></trkpt><trkpt lat="44.443594" lon="10.7964681"><ele>584.5999999999999</ele><time>2026-04-18T14:50:14.941Z</time></trkpt><trkpt lat="44.4436502" lon="10.7963481"><ele>583.8</ele><time>2026-04-18T14:50:15.941Z</time></trkpt><trkpt lat="44.4437144" lon="10.7962515"><ele>583.0</ele><time>2026-04-18T14:50:16.941Z</time></trkpt><trkpt lat="44.4437906" lon="10.7961606"><ele>581.1999999999999</ele><time>2026-04-18T14:50:17.941Z</time></trkpt><trkpt lat="44.4438707" lon="10.7960742"><ele>579.4</ele><time>2026-04-18T14:50:18.942Z</time></trkpt><trkpt lat="44.4439543" lon="10.79598"><ele>577.5999999999999</ele><time>2026-04-18T14:50:19.941Z</time></trkpt><trkpt lat="44.4440335" lon="10.7958811"><ele>575.8</ele><time>2026-04-18T14:50:20.941Z</time></trkpt><trkpt lat="44.4441042" lon="10.7957813"><ele>574.0</ele><time>2026-04-18T14:50:21.941Z</time></trkpt><trkpt lat="44.4441633" lon="10.79567"><ele>572.6666666666667</ele><time>2026-04-18T14:50:22.942Z</time></trkpt><trkpt lat="44.4442012" lon="10.795545"><ele>571.3333333333334</ele><time>2026-04-18T14:50:23.942Z</time></trkpt><trkpt lat="44.4442231" lon="10.7954345"><ele>570.0</ele><time>2026-04-18T14:50:24.941Z</time></trkpt><trkpt lat="44.444242" lon="10.7953036"><ele>568.6666666666666</ele><time>2026-04-18T14:50:26.941Z</time></trkpt><trkpt lat="44.4442562" lon="10.7951888"><ele>567.3333333333333</ele><time>2026-04-18T14:50:28.941Z</time></trkpt><trkpt lat="44.4442689" lon="10.7950842"><ele>566.0</ele><time>2026-04-18T14:50:30.941Z</time></trkpt><trkpt lat="44.4442875" lon="10.7949676"><ele>565.4</ele><time>2026-04-18T14:50:32.942Z</time></trkpt><trkpt lat="44.4443111" lon="10.7948481"><ele>564.8</ele><time>2026-04-18T14:50:34.941Z</time></trkpt><trkpt lat="44.4443188" lon="10.7947142"><ele>564.1999999999999</ele><time>2026-04-18T14:50:36.942Z</time></trkpt><trkpt lat="44.4443203" lon="10.7945968"><ele>563.6</ele><time>2026-04-18T14:50:38.942Z</time></trkpt><trkpt lat="44.4443163" lon="10.7944765"><ele>563.0</ele><time>2026-04-18T14:50:40.941Z</time></trkpt><trkpt lat="44.444306" lon="10.7943333"><ele>563.0</ele><time>2026-04-18T14:50:42.941Z</time></trkpt><trkpt lat="44.4442807" lon="10.7941678"><ele>563.0</ele><time>2026-04-18T14:50:44.941Z</time></trkpt><trkpt lat="44.4442451" lon="10.7940039"><ele>563.0</ele><time>2026-04-18T14:50:46.941Z</time></trkpt><trkpt lat="44.4442264" lon="10.7938399"><ele>563.0</ele><time>2026-04-18T14:50:48.942Z</time></trkpt><trkpt lat="44.4442216" lon="10.793695"><ele>563.0</ele><time>2026-04-18T14:50:50.941Z</time></trkpt><trkpt lat="44.4442319" lon="10.7935136"><ele>563.0</ele><time>2026-04-18T14:50:52.941Z</time></trkpt><trkpt lat="44.4442558" lon="10.7934146"><ele>563.0</ele><time>2026-04-18T14:50:53.941Z</time></trkpt><trkpt lat="44.4442859" lon="10.7933147"><ele>563.0</ele><time>2026-04-18T14:50:54.942Z</time></trkpt><trkpt lat="44.4443245" lon="10.7932138"><ele>563.0</ele><time>2026-04-18T14:50:55.942Z</time></trkpt><trkpt lat="44.4443655" lon="10.7931106"><ele>563.0</ele><time>2026-04-18T14:50:56.941Z</time></trkpt><trkpt lat="44.444414" lon="10.7930106"><ele>562.3333333333333</ele><time>2026-04-18T14:50:57.941Z</time></trkpt><trkpt lat="44.4444733" lon="10.7929146"><ele>561.6666666666666</ele><time>2026-04-18T14:50:58.941Z</time></trkpt><trkpt lat="44.4445343" lon="10.7928335"><ele>561.0</ele><time>2026-04-18T14:50:59.942Z</time></trkpt><trkpt lat="44.4445978" lon="10.7927657"><ele>560.3333333333334</ele><time>2026-04-18T14:51:00.942Z</time></trkpt><trkpt lat="44.4446589" lon="10.7926944"><ele>559.6666666666667</ele><time>2026-04-18T14:51:01.941Z</time></trkpt><trkpt lat="44.4447202" lon="10.7926335"><ele>559.0</ele><time>2026-04-18T14:51:02.942Z</time></trkpt><trkpt lat="44.44477" lon="10.7925618"><ele>559.0</ele><time>2026-04-18T14:51:03.941Z</time></trkpt><trkpt lat="44.444813" lon="10.7924797"><ele>559.0</ele><time>2026-04-18T14:51:04.941Z</time></trkpt><trkpt lat="44.4448484" lon="10.7923989"><ele>559.0</ele><time>2026-04-18T14:51:05.941Z</time></trkpt><trkpt lat="44.4448937" lon="10.7923243"><ele>559.0</ele><time>2026-04-18T14:51:06.942Z</time></trkpt><trkpt lat="44.4449681" lon="10.7922832"><ele>559.0</ele><time>2026-04-18T14:51:07.942Z</time></trkpt><trkpt lat="44.4450394" lon="10.792246"><ele>559.0</ele><time>2026-04-18T14:51:08.942Z</time></trkpt><trkpt lat="44.4451215" lon="10.7922266"><ele>559.0</ele><time>2026-04-18T14:51:09.941Z</time></trkpt><trkpt lat="44.4452087" lon="10.7922004"><ele>559.0</ele><time>2026-04-18T14:51:10.941Z</time></trkpt><trkpt lat="44.4452991" lon="10.7921798"><ele>559.0</ele><time>2026-04-18T14:51:11.941Z</time></trkpt><trkpt lat="44.4453843" lon="10.7921857"><ele>559.0</ele><time>2026-04-18T14:51:12.942Z</time></trkpt><trkpt lat="44.4454592" lon="10.7922023"><ele>559.0</ele><time>2026-04-18T14:51:13.941Z</time></trkpt><trkpt lat="44.4455405" lon="10.7922339"><ele>559.0</ele><time>2026-04-18T14:51:14.942Z</time></trkpt><trkpt lat="44.4456222" lon="10.792266"><ele>557.6666666666667</ele><time>2026-04-18T14:51:15.942Z</time></trkpt><trkpt lat="44.4457054" lon="10.7922995"><ele>556.3333333333334</ele><time>2026-04-18T14:51:16.942Z</time></trkpt><trkpt lat="44.4457919" lon="10.7923328"><ele>555.0</ele><time>2026-04-18T14:51:17.941Z</time></trkpt><trkpt lat="44.4458648" lon="10.7923686"><ele>553.6666666666666</ele><time>2026-04-18T14:51:18.941Z</time></trkpt><trkpt lat="44.4459431" lon="10.7924001"><ele>552.3333333333333</ele><time>2026-04-18T14:51:19.941Z</time></trkpt><trkpt lat="44.446009" lon="10.792415"><ele>551.0</ele><time>2026-04-18T14:51:20.942Z</time></trkpt><trkpt lat="44.4460782" lon="10.7924262"><ele>551.0</ele><time>2026-04-18T14:51:21.941Z</time></trkpt><trkpt lat="44.4461553" lon="10.7924216"><ele>551.0</ele><time>2026-04-18T14:51:22.942Z</time></trkpt><trkpt lat="44.4462402" lon="10.7924023"><ele>551.0</ele><time>2026-04-18T14:51:23.941Z</time></trkpt><trkpt lat="44.4463296" lon="10.7923807"><ele>551.0</ele><time>2026-04-18T14:51:24.941Z</time></trkpt><trkpt lat="44.446414" lon="10.7923526"><ele>551.0</ele><time>2026-04-18T14:51:25.941Z</time></trkpt><trkpt lat="44.4464931" lon="10.7923262"><ele>551.0</ele><time>2026-04-18T14:51:26.941Z</time></trkpt><trkpt lat="44.4465641" lon="10.7922859"><ele>550.1666666666666</ele><time>2026-04-18T14:51:27.942Z</time></trkpt><trkpt lat="44.4466326" lon="10.7922543"><ele>549.3333333333333</ele><time>2026-04-18T14:51:28.942Z</time></trkpt><trkpt lat="44.4466996" lon="10.7922379"><ele>548.5</ele><time>2026-04-18T14:51:29.941Z</time></trkpt><trkpt lat="44.4467726" lon="10.7922431"><ele>547.6666666666666</ele><time>2026-04-18T14:51:30.942Z</time></trkpt><trkpt lat="44.4468445" lon="10.7922594"><ele>546.8333333333334</ele><time>2026-04-18T14:51:31.941Z</time></trkpt><trkpt lat="44.4469097" lon="10.7922723"><ele>546.0</ele><time>2026-04-18T14:51:32.941Z</time></trkpt><trkpt lat="44.4470328" lon="10.7923049"><ele>546.0</ele><time>2026-04-18T14:51:34.941Z</time></trkpt><trkpt lat="44.4470995" lon="10.7923159"><ele>546.0</ele><time>2026-04-18T14:51:35.941Z</time></trkpt><trkpt lat="44.4471722" lon="10.7923262"><ele>546.0</ele><time>2026-04-18T14:51:36.941Z</time></trkpt><trkpt lat="44.4472513" lon="10.7923374"><ele>546.0</ele><time>2026-04-18T14:51:37.942Z</time></trkpt><trkpt lat="44.447336" lon="10.7923473"><ele>546.0</ele><time>2026-04-18T14:51:38.942Z</time></trkpt><trkpt lat="44.4474162" lon="10.7923522"><ele>546.0</ele><time>2026-04-18T14:51:39.941Z</time></trkpt><trkpt lat="44.4474979" lon="10.7923535"><ele>546.8333333333334</ele><time>2026-04-18T14:51:40.941Z</time></trkpt><trkpt lat="44.4475735" lon="10.7923575"><ele>547.6666666666666</ele><time>2026-04-18T14:51:41.942Z</time></trkpt><trkpt lat="44.4476435" lon="10.7923595"><ele>548.5</ele><time>2026-04-18T14:51:42.942Z</time></trkpt><trkpt lat="44.4477164" lon="10.792366"><ele>549.3333333333333</ele><time>2026-04-18T14:51:43.941Z</time></trkpt><trkpt lat="44.4477916" lon="10.7923773"><ele>550.1666666666666</ele><time>2026-04-18T14:51:44.941Z</time></trkpt><trkpt lat="44.4478637" lon="10.7923836"><ele>551.0</ele><time>2026-04-18T14:51:45.942Z</time></trkpt><trkpt lat="44.4479691" lon="10.7923888"><ele>551.4</ele><time>2026-04-18T14:51:47.941Z</time></trkpt><trkpt lat="44.448063" lon="10.7924025"><ele>551.8</ele><time>2026-04-18T14:51:49.941Z</time></trkpt><trkpt lat="44.4481499" lon="10.7925057"><ele>552.1999999999999</ele><time>2026-04-18T14:51:51.941Z</time></trkpt><trkpt lat="44.4481841" lon="10.7925821"><ele>552.6</ele><time>2026-04-18T14:51:52.942Z</time></trkpt><trkpt lat="44.4482309" lon="10.7926463"><ele>553.0</ele><time>2026-04-18T14:51:53.942Z</time></trkpt><trkpt lat="44.4483448" lon="10.7927302"><ele>551.8333333333334</ele><time>2026-04-18T14:51:55.941Z</time></trkpt><trkpt lat="44.4484055" lon="10.7927701"><ele>550.6666666666667</ele><time>2026-04-18T14:51:56.942Z</time></trkpt><trkpt lat="44.4484865" lon="10.7928017"><ele>549.5</ele><time>2026-04-18T14:51:57.941Z</time></trkpt><trkpt lat="44.4485484" lon="10.7928357"><ele>548.3333333333334</ele><time>2026-04-18T14:51:58.941Z</time></trkpt><trkpt lat="44.4486155" lon="10.7928733"><ele>547.1666666666666</ele><time>2026-04-18T14:51:59.942Z</time></trkpt><trkpt lat="44.4486811" lon="10.7929067"><ele>546.0</ele><time>2026-04-18T14:52:00.942Z</time></trkpt><trkpt lat="44.4487973" lon="10.79297"><ele>546.0</ele><time>2026-04-18T14:52:02.941Z</time></trkpt><trkpt lat="44.4488715" lon="10.7930072"><ele>546.0</ele><time>2026-04-18T14:52:03.941Z</time></trkpt><trkpt lat="44.4489521" lon="10.7930467"><ele>546.0</ele><time>2026-04-18T14:52:04.941Z</time></trkpt><trkpt lat="44.4490235" lon="10.7930739"><ele>546.0</ele><time>2026-04-18T14:52:05.942Z</time></trkpt><trkpt lat="44.4491042" lon="10.7931042"><ele>546.0</ele><time>2026-04-18T14:52:06.942Z</time></trkpt><trkpt lat="44.4491852" lon="10.793131"><ele>546.0</ele><time>2026-04-18T14:52:07.941Z</time></trkpt><trkpt lat="44.4492688" lon="10.7931498"><ele>546.0</ele><time>2026-04-18T14:52:08.942Z</time></trkpt><trkpt lat="44.4493494" lon="10.7931682"><ele>546.0</ele><time>2026-04-18T14:52:09.942Z</time></trkpt><trkpt lat="44.4494244" lon="10.7931744"><ele>546.0</ele><time>2026-04-18T14:52:10.942Z</time></trkpt><trkpt lat="44.4494958" lon="10.7931786"><ele>546.0</ele><time>2026-04-18T14:52:11.941Z</time></trkpt><trkpt lat="44.4495676" lon="10.7931811"><ele>546.0</ele><time>2026-04-18T14:52:12.941Z</time></trkpt><trkpt lat="44.4496359" lon="10.7931935"><ele>546.0</ele><time>2026-04-18T14:52:13.941Z</time></trkpt><trkpt lat="44.4497492" lon="10.7932576"><ele>545.6666666666666</ele><time>2026-04-18T14:52:15.942Z</time></trkpt><trkpt lat="44.4498592" lon="10.7932722"><ele>545.3333333333334</ele><time>2026-04-18T14:52:17.941Z</time></trkpt><trkpt lat="44.4499295" lon="10.7932315"><ele>545.0</ele><time>2026-04-18T14:52:19.941Z</time></trkpt><trkpt lat="44.4499821" lon="10.7931536"><ele>544.6666666666667</ele><time>2026-04-18T14:52:21.941Z</time></trkpt><trkpt lat="44.45003" lon="10.7930691"><ele>544.3333333333334</ele><time>2026-04-18T14:52:23.942Z</time></trkpt><trkpt lat="44.4500594" lon="10.7929828"><ele>544.0</ele><time>2026-04-18T14:52:45.941Z</time></trkpt><trkpt lat="44.4501173" lon="10.7928892"><ele>544.0</ele><time>2026-04-18T14:52:47.941Z</time></trkpt><trkpt lat="44.4501936" lon="10.7928896"><ele>544.0</ele><time>2026-04-18T14:52:49.941Z</time></trkpt><trkpt lat="44.4502774" lon="10.7929758"><ele>544.0</ele><time>2026-04-18T14:52:51.942Z</time></trkpt><trkpt lat="44.4503897" lon="10.7930574"><ele>544.0</ele><time>2026-04-18T14:52:53.941Z</time></trkpt><trkpt lat="44.4504494" lon="10.7930945"><ele>544.0</ele><time>2026-04-18T14:52:54.941Z</time></trkpt><trkpt lat="44.4505276" lon="10.793138"><ele>545.0</ele><time>2026-04-18T14:52:55.941Z</time></trkpt><trkpt lat="44.4505982" lon="10.793178"><ele>546.0</ele><time>2026-04-18T14:52:56.941Z</time></trkpt><trkpt lat="44.4506649" lon="10.7932162"><ele>547.0</ele><time>2026-04-18T14:52:57.942Z</time></trkpt><trkpt lat="44.4507281" lon="10.7932386"><ele>548.0</ele><time>2026-04-18T14:52:58.941Z</time></trkpt><trkpt lat="44.4508528" lon="10.7932453"><ele>549.0</ele><time>2026-04-18T14:53:00.941Z</time></trkpt><trkpt lat="44.4509438" lon="10.7932394"><ele>550.0</ele><time>2026-04-18T14:53:01.942Z</time></trkpt><trkpt lat="44.4510302" lon="10.7932535"><ele>550.0</ele><time>2026-04-18T14:53:02.942Z</time></trkpt><trkpt lat="44.4511151" lon="10.7932813"><ele>550.0</ele><time>2026-04-18T14:53:03.941Z</time></trkpt><trkpt lat="44.4511888" lon="10.7933615"><ele>550.0</ele><time>2026-04-18T14:53:04.941Z</time></trkpt><trkpt lat="44.4512592" lon="10.7934295"><ele>550.0</ele><time>2026-04-18T14:53:05.941Z</time></trkpt><trkpt lat="44.4513163" lon="10.793475"><ele>550.0</ele><time>2026-04-18T14:53:06.941Z</time></trkpt><trkpt lat="44.4514361" lon="10.7934784"><ele>552.75</ele><time>2026-04-18T14:53:08.942Z</time></trkpt><trkpt lat="44.4515458" lon="10.793393"><ele>555.5</ele><time>2026-04-18T14:53:10.942Z</time></trkpt><trkpt lat="44.4516421" lon="10.7933274"><ele>558.25</ele><time>2026-04-18T14:53:12.941Z</time></trkpt><trkpt lat="44.4517212" lon="10.7933232"><ele>561.0</ele><time>2026-04-18T14:53:14.942Z</time></trkpt><trkpt lat="44.4518588" lon="10.7933899"><ele>561.0</ele><time>2026-04-18T14:53:16.941Z</time></trkpt><trkpt lat="44.4519643" lon="10.7934331"><ele>561.0</ele><time>2026-04-18T14:53:17.941Z</time></trkpt><trkpt lat="44.4520713" lon="10.793464"><ele>561.0</ele><time>2026-04-18T14:53:18.942Z</time></trkpt><trkpt lat="44.4521951" lon="10.7935007"><ele>561.0</ele><time>2026-04-18T14:53:19.941Z</time></trkpt><trkpt lat="44.4523286" lon="10.7935341"><ele>558.75</ele><time>2026-04-18T14:53:20.942Z</time></trkpt><trkpt lat="44.4524577" lon="10.7935719"><ele>556.5</ele><time>2026-04-18T14:53:21.941Z</time></trkpt><trkpt lat="44.4525832" lon="10.7936138"><ele>554.25</ele><time>2026-04-18T14:53:22.941Z</time></trkpt><trkpt lat="44.4527123" lon="10.7936619"><ele>552.0</ele><time>2026-04-18T14:53:23.942Z</time></trkpt><trkpt lat="44.4528472" lon="10.7937108"><ele>551.25</ele><time>2026-04-18T14:53:24.941Z</time></trkpt><trkpt lat="44.4529848" lon="10.7937593"><ele>550.5</ele><time>2026-04-18T14:53:25.942Z</time></trkpt><trkpt lat="44.4531144" lon="10.7938171"><ele>549.75</ele><time>2026-04-18T14:53:26.941Z</time></trkpt><trkpt lat="44.4532407" lon="10.7938767"><ele>549.0</ele><time>2026-04-18T14:53:27.941Z</time></trkpt><trkpt lat="44.4533581" lon="10.7939374"><ele>549.0</ele><time>2026-04-18T14:53:28.941Z</time></trkpt><trkpt lat="44.4534751" lon="10.7939989"><ele>549.0</ele><time>2026-04-18T14:53:29.942Z</time></trkpt><trkpt lat="44.4535941" lon="10.7940555"><ele>549.0</ele><time>2026-04-18T14:53:30.941Z</time></trkpt><trkpt lat="44.4537083" lon="10.794115"><ele>549.0</ele><time>2026-04-18T14:53:31.941Z</time></trkpt><trkpt lat="44.4538248" lon="10.7941798"><ele>548.25</ele><time>2026-04-18T14:53:32.941Z</time></trkpt><trkpt lat="44.4539403" lon="10.7942449"><ele>547.5</ele><time>2026-04-18T14:53:33.941Z</time></trkpt><trkpt lat="44.4540497" lon="10.7943124"><ele>546.75</ele><time>2026-04-18T14:53:34.942Z</time></trkpt><trkpt lat="44.4541555" lon="10.7943726"><ele>546.0</ele><time>2026-04-18T14:53:35.942Z</time></trkpt><trkpt lat="44.4542477" lon="10.7944258"><ele>546.5</ele><time>2026-04-18T14:53:36.942Z</time></trkpt><trkpt lat="44.4543315" lon="10.7944767"><ele>547.0</ele><time>2026-04-18T14:53:37.942Z</time></trkpt><trkpt lat="44.4543999" lon="10.7945263"><ele>547.5</ele><time>2026-04-18T14:53:38.941Z</time></trkpt><trkpt lat="44.4544601" lon="10.7945703"><ele>548.0</ele><time>2026-04-18T14:53:39.941Z</time></trkpt><trkpt lat="44.45452" lon="10.7946137"><ele>548.5</ele><time>2026-04-18T14:53:40.941Z</time></trkpt><trkpt lat="44.4546177" lon="10.7946876"><ele>549.0</ele><time>2026-04-18T14:53:42.942Z</time></trkpt><trkpt lat="44.4546954" lon="10.7946838"><ele>549.0</ele><time>2026-04-18T14:53:44.942Z</time></trkpt><trkpt lat="44.4547462" lon="10.7946205"><ele>549.0</ele><time>2026-04-18T14:53:46.942Z</time></trkpt><trkpt lat="44.4547931" lon="10.7945548"><ele>549.0</ele><time>2026-04-18T14:53:48.941Z</time></trkpt><trkpt lat="44.4548477" lon="10.7944965"><ele>549.0</ele><time>2026-04-18T14:53:50.941Z</time></trkpt><trkpt lat="44.4549346" lon="10.7945544"><ele>549.0</ele><time>2026-04-18T14:53:52.941Z</time></trkpt><trkpt lat="44.4550275" lon="10.7946305"><ele>549.0</ele><time>2026-04-18T14:53:54.941Z</time></trkpt><trkpt lat="44.4550921" lon="10.7946328"><ele>549.0</ele><time>2026-04-18T14:53:55.942Z</time></trkpt><trkpt lat="44.4551634" lon="10.7946347"><ele>549.0</ele><time>2026-04-18T14:53:56.941Z</time></trkpt><trkpt lat="44.4552386" lon="10.7946357"><ele>549.0</ele><time>2026-04-18T14:53:57.942Z</time></trkpt><trkpt lat="44.4553157" lon="10.7946412"><ele>549.0</ele><time>2026-04-18T14:53:58.942Z</time></trkpt><trkpt lat="44.4553837" lon="10.7946592"><ele>549.0</ele><time>2026-04-18T14:53:59.942Z</time></trkpt><trkpt lat="44.4554521" lon="10.794687"><ele>549.0</ele><time>2026-04-18T14:54:00.942Z</time></trkpt><trkpt lat="44.45552" lon="10.7947033"><ele>549.0</ele><time>2026-04-18T14:54:01.941Z</time></trkpt><trkpt lat="44.4556396" lon="10.7947435"><ele>548.5</ele><time>2026-04-18T14:54:03.942Z</time></trkpt><trkpt lat="44.4557097" lon="10.7947765"><ele>548.0</ele><time>2026-04-18T14:54:04.941Z</time></trkpt><trkpt lat="44.4557751" lon="10.7947934"><ele>547.5</ele><time>2026-04-18T14:54:05.941Z</time></trkpt><trkpt lat="44.4558885" lon="10.794838"><ele>547.0</ele><time>2026-04-18T14:54:07.942Z</time></trkpt><trkpt lat="44.4559508" lon="10.7948618"><ele>546.5</ele><time>2026-04-18T14:54:08.942Z</time></trkpt><trkpt lat="44.4560149" lon="10.7948895"><ele>546.0</ele><time>2026-04-18T14:54:09.942Z</time></trkpt><trkpt lat="44.456076" lon="10.7949183"><ele>546.0</ele><time>2026-04-18T14:54:10.941Z</time></trkpt><trkpt lat="44.4561374" lon="10.7949484"><ele>546.0</ele><time>2026-04-18T14:54:11.941Z</time></trkpt><trkpt lat="44.4562035" lon="10.7949785"><ele>546.0</ele><time>2026-04-18T14:54:12.942Z</time></trkpt><trkpt lat="44.4562713" lon="10.7950105"><ele>546.0</ele><time>2026-04-18T14:54:13.942Z</time></trkpt><trkpt lat="44.4563419" lon="10.7950445"><ele>546.0</ele><time>2026-04-18T14:54:14.941Z</time></trkpt><trkpt lat="44.4564568" lon="10.7950784"><ele>546.0</ele><time>2026-04-18T14:54:16.942Z</time></trkpt><trkpt lat="44.4565708" lon="10.7950695"><ele>544.8333333333334</ele><time>2026-04-18T14:54:18.941Z</time></trkpt><trkpt lat="44.4566917" lon="10.7950384"><ele>543.6666666666666</ele><time>2026-04-18T14:54:20.941Z</time></trkpt><trkpt lat="44.4567538" lon="10.7950123"><ele>542.5</ele><time>2026-04-18T14:54:21.942Z</time></trkpt><trkpt lat="44.4568145" lon="10.794977"><ele>541.3333333333333</ele><time>2026-04-18T14:54:22.941Z</time></trkpt><trkpt lat="44.4568722" lon="10.7949276"><ele>540.1666666666666</ele><time>2026-04-18T14:54:23.941Z</time></trkpt><trkpt lat="44.4569224" lon="10.794871"><ele>539.0</ele><time>2026-04-18T14:54:24.941Z</time></trkpt><trkpt lat="44.4570156" lon="10.7947635"><ele>539.0</ele><time>2026-04-18T14:54:26.942Z</time></trkpt><trkpt lat="44.4570629" lon="10.7946993"><ele>539.0</ele><time>2026-04-18T14:54:27.941Z</time></trkpt><trkpt lat="44.4571086" lon="10.7946385"><ele>539.0</ele><time>2026-04-18T14:54:28.941Z</time></trkpt><trkpt lat="44.457179" lon="10.7945469"><ele>539.0</ele><time>2026-04-18T14:54:30.941Z</time></trkpt><trkpt lat="44.4572334" lon="10.794485"><ele>539.0</ele><time>2026-04-18T14:54:32.941Z</time></trkpt><trkpt lat="44.457303" lon="10.7944057"><ele>539.0</ele><time>2026-04-18T14:54:34.942Z</time></trkpt><trkpt lat="44.4573926" lon="10.7942936"><ele>537.6</ele><time>2026-04-18T14:54:36.942Z</time></trkpt><trkpt lat="44.4574758" lon="10.7941903"><ele>536.2</ele><time>2026-04-18T14:54:38.942Z</time></trkpt><trkpt lat="44.4575874" lon="10.794159"><ele>534.8000000000001</ele><time>2026-04-18T14:54:40.941Z</time></trkpt><trkpt lat="44.45765" lon="10.7941774"><ele>533.4</ele><time>2026-04-18T14:54:41.941Z</time></trkpt><trkpt lat="44.4577624" lon="10.7942604"><ele>532.0</ele><time>2026-04-18T14:54:43.942Z</time></trkpt><trkpt lat="44.4578295" lon="10.7942721"><ele>532.0</ele><time>2026-04-18T14:54:44.942Z</time></trkpt><trkpt lat="44.4579163" lon="10.7942606"><ele>532.0</ele><time>2026-04-18T14:54:45.941Z</time></trkpt><trkpt lat="44.4580046" lon="10.7942449"><ele>532.0</ele><time>2026-04-18T14:54:46.941Z</time></trkpt><trkpt lat="44.4580855" lon="10.7942301"><ele>532.0</ele><time>2026-04-18T14:54:47.941Z</time></trkpt><trkpt lat="44.4581754" lon="10.7942246"><ele>532.0</ele><time>2026-04-18T14:54:48.942Z</time></trkpt><trkpt lat="44.4582632" lon="10.7942252"><ele>532.0</ele><time>2026-04-18T14:54:49.941Z</time></trkpt><trkpt lat="44.4583514" lon="10.7942343"><ele>531.0</ele><time>2026-04-18T14:54:50.941Z</time></trkpt><trkpt lat="44.4584425" lon="10.7942551"><ele>530.0</ele><time>2026-04-18T14:54:51.942Z</time></trkpt><trkpt lat="44.4585357" lon="10.7942915"><ele>529.0</ele><time>2026-04-18T14:54:52.942Z</time></trkpt><trkpt lat="44.4586403" lon="10.7943285"><ele>528.0</ele><time>2026-04-18T14:54:53.942Z</time></trkpt><trkpt lat="44.4587472" lon="10.7943682"><ele>527.0</ele><time>2026-04-18T14:54:54.942Z</time></trkpt><trkpt lat="44.4588485" lon="10.7944105"><ele>524.4</ele><time>2026-04-18T14:54:55.942Z</time></trkpt><trkpt lat="44.4589422" lon="10.7944511"><ele>521.8000000000001</ele><time>2026-04-18T14:54:56.942Z</time></trkpt><trkpt lat="44.4590298" lon="10.7944853"><ele>519.2</ele><time>2026-04-18T14:54:57.941Z</time></trkpt><trkpt lat="44.4591209" lon="10.7945071"><ele>516.6</ele><time>2026-04-18T14:54:58.941Z</time></trkpt><trkpt lat="44.4592143" lon="10.794513"><ele>514.0</ele><time>2026-04-18T14:54:59.941Z</time></trkpt><trkpt lat="44.4593131" lon="10.7945079"><ele>514.0</ele><time>2026-04-18T14:55:00.942Z</time></trkpt><trkpt lat="44.4594149" lon="10.7944803"><ele>514.0</ele><time>2026-04-18T14:55:01.942Z</time></trkpt><trkpt lat="44.4595268" lon="10.7944442"><ele>514.0</ele><time>2026-04-18T14:55:02.942Z</time></trkpt><trkpt lat="44.4596244" lon="10.7944194"><ele>514.0</ele><time>2026-04-18T14:55:03.941Z</time></trkpt><trkpt lat="44.4597241" lon="10.7943908"><ele>514.0</ele><time>2026-04-18T14:55:04.942Z</time></trkpt><trkpt lat="44.4598226" lon="10.7943587"><ele>512.2</ele><time>2026-04-18T14:55:05.941Z</time></trkpt><trkpt lat="44.4599074" lon="10.7943293"><ele>510.4</ele><time>2026-04-18T14:55:06.942Z</time></trkpt><trkpt lat="44.4599961" lon="10.7942929"><ele>508.6</ele><time>2026-04-18T14:55:07.942Z</time></trkpt><trkpt lat="44.4600882" lon="10.794266"><ele>506.8</ele><time>2026-04-18T14:55:08.941Z</time></trkpt><trkpt lat="44.4601814" lon="10.7942401"><ele>505.0</ele><time>2026-04-18T14:55:09.941Z</time></trkpt><trkpt lat="44.4602758" lon="10.7942098"><ele>505.0</ele><time>2026-04-18T14:55:10.942Z</time></trkpt><trkpt lat="44.4603681" lon="10.7941804"><ele>505.0</ele><time>2026-04-18T14:55:11.942Z</time></trkpt><trkpt lat="44.4604526" lon="10.7941518"><ele>505.0</ele><time>2026-04-18T14:55:12.941Z</time></trkpt><trkpt lat="44.4605162" lon="10.7941235"><ele>505.0</ele><time>2026-04-18T14:55:13.941Z</time></trkpt><trkpt lat="44.4606322" lon="10.794072"><ele>505.0</ele><time>2026-04-18T14:55:15.942Z</time></trkpt><trkpt lat="44.4607545" lon="10.7940249"><ele>504.2</ele><time>2026-04-18T14:55:17.941Z</time></trkpt><trkpt lat="44.4608237" lon="10.7940097"><ele>503.4</ele><time>2026-04-18T14:55:18.942Z</time></trkpt><trkpt lat="44.4609477" lon="10.7940132"><ele>502.6</ele><time>2026-04-18T14:55:20.941Z</time></trkpt><trkpt lat="44.4610597" lon="10.7940078"><ele>501.8</ele><time>2026-04-18T14:55:22.941Z</time></trkpt><trkpt lat="44.4611559" lon="10.7940326"><ele>501.0</ele><time>2026-04-18T14:55:24.941Z</time></trkpt><trkpt lat="44.4612195" lon="10.7940519"><ele>498.8</ele><time>2026-04-18T14:55:25.942Z</time></trkpt><trkpt lat="44.461325" lon="10.7940562"><ele>496.6</ele><time>2026-04-18T14:55:27.942Z</time></trkpt><trkpt lat="44.4614166" lon="10.7940563"><ele>494.4</ele><time>2026-04-18T14:55:29.941Z</time></trkpt><trkpt lat="44.4614841" lon="10.7940194"><ele>492.2</ele><time>2026-04-18T14:55:31.941Z</time></trkpt><trkpt lat="44.4615736" lon="10.7940202"><ele>490.0</ele><time>2026-04-18T14:55:34.941Z</time></trkpt><trkpt lat="44.461614" lon="10.7941373"><ele>490.0</ele><time>2026-04-18T14:55:36.942Z</time></trkpt><trkpt lat="44.4616551" lon="10.7942751"><ele>490.0</ele><time>2026-04-18T14:55:38.941Z</time></trkpt><trkpt lat="44.46171" lon="10.7943462"><ele>490.0</ele><time>2026-04-18T14:55:40.941Z</time></trkpt><trkpt lat="44.4617957" lon="10.7943532"><ele>490.0</ele><time>2026-04-18T14:55:42.942Z</time></trkpt><trkpt lat="44.4618983" lon="10.7943681"><ele>490.0</ele><time>2026-04-18T14:55:44.941Z</time></trkpt><trkpt lat="44.4619903" lon="10.7943877"><ele>487.50000000000006</ele><time>2026-04-18T14:55:46.942Z</time></trkpt><trkpt lat="44.4620633" lon="10.794409"><ele>485.0</ele><time>2026-04-18T14:55:48.942Z</time></trkpt><trkpt lat="44.4621537" lon="10.7944366"><ele>482.5</ele><time>2026-04-18T14:55:50.942Z</time></trkpt><trkpt lat="44.4622692" lon="10.79445"><ele>480.0</ele><time>2026-04-18T14:55:52.942Z</time></trkpt><trkpt lat="44.4623369" lon="10.7944481"><ele>477.50000000000006</ele><time>2026-04-18T14:55:53.941Z</time></trkpt><trkpt lat="44.4624043" lon="10.7944434"><ele>475.0</ele><time>2026-04-18T14:55:54.941Z</time></trkpt><trkpt lat="44.4624709" lon="10.7944294"><ele>473.6666666666667</ele><time>2026-04-18T14:55:55.941Z</time></trkpt><trkpt lat="44.4625442" lon="10.794409"><ele>472.33333333333337</ele><time>2026-04-18T14:55:56.941Z</time></trkpt><trkpt lat="44.4626143" lon="10.7943897"><ele>471.0</ele><time>2026-04-18T14:55:57.942Z</time></trkpt><trkpt lat="44.4627278" lon="10.7943506"><ele>469.66666666666663</ele><time>2026-04-18T14:55:59.941Z</time></trkpt><trkpt lat="44.4628093" lon="10.7942885"><ele>468.3333333333333</ele><time>2026-04-18T14:56:01.941Z</time></trkpt><trkpt lat="44.4628786" lon="10.7942108"><ele>467.0</ele><time>2026-04-18T14:56:03.941Z</time></trkpt><trkpt lat="44.4629504" lon="10.794133"><ele>462.49999999999994</ele><time>2026-04-18T14:56:05.942Z</time></trkpt><trkpt lat="44.4630313" lon="10.7940544"><ele>458.0</ele><time>2026-04-18T14:56:07.941Z</time></trkpt><trkpt lat="44.4631002" lon="10.7939891"><ele>453.5</ele><time>2026-04-18T14:56:09.941Z</time></trkpt><trkpt lat="44.4631662" lon="10.7939254"><ele>449.0</ele><time>2026-04-18T14:56:11.942Z</time></trkpt><trkpt lat="44.4632317" lon="10.7938657"><ele>444.49999999999994</ele><time>2026-04-18T14:56:13.941Z</time></trkpt><trkpt lat="44.4633193" lon="10.7937974"><ele>440.0</ele><time>2026-04-18T14:56:15.942Z</time></trkpt><trkpt lat="44.4633981" lon="10.7937283"><ele>440.0</ele><time>2026-04-18T14:56:17.942Z</time></trkpt><trkpt lat="44.4634699" lon="10.7936762"><ele>440.0</ele><time>2026-04-18T14:56:19.941Z</time></trkpt><trkpt lat="44.4635129" lon="10.7935972"><ele>440.0</ele><time>2026-04-18T14:56:22.941Z</time></trkpt><trkpt lat="44.4634778" lon="10.7934975"><ele>440.0</ele><time>2026-04-18T14:58:40.942Z</time></trkpt><trkpt lat="44.4634237" lon="10.7933743"><ele>440.0</ele><time>2026-04-18T14:58:42.941Z</time></trkpt><trkpt lat="44.4633356" lon="10.7932448"><ele>438.8333333333333</ele><time>2026-04-18T14:58:44.941Z</time></trkpt><trkpt lat="44.4632781" lon="10.7931812"><ele>437.66666666666663</ele><time>2026-04-18T14:58:45.941Z</time></trkpt><trkpt lat="44.4632179" lon="10.7931175"><ele>436.5</ele><time>2026-04-18T14:58:46.942Z</time></trkpt><trkpt lat="44.4631528" lon="10.7930491"><ele>435.33333333333337</ele><time>2026-04-18T14:58:47.941Z</time></trkpt><trkpt lat="44.4630956" lon="10.7929575"><ele>434.1666666666667</ele><time>2026-04-18T14:58:48.941Z</time></trkpt><trkpt lat="44.4630449" lon="10.7928529"><ele>433.0</ele><time>2026-04-18T14:58:49.942Z</time></trkpt><trkpt lat="44.4629977" lon="10.7927458"><ele>432.83333333333337</ele><time>2026-04-18T14:58:50.941Z</time></trkpt><trkpt lat="44.4629498" lon="10.7926386"><ele>432.6666666666667</ele><time>2026-04-18T14:58:51.942Z</time></trkpt><trkpt lat="44.462902" lon="10.7925339"><ele>432.5</ele><time>2026-04-18T14:58:52.941Z</time></trkpt><trkpt lat="44.4628616" lon="10.7924253"><ele>432.33333333333337</ele><time>2026-04-18T14:58:53.941Z</time></trkpt><trkpt lat="44.4628235" lon="10.7923187"><ele>432.1666666666667</ele><time>2026-04-18T14:58:54.942Z</time></trkpt><trkpt lat="44.4627865" lon="10.7922165"><ele>432.0</ele><time>2026-04-18T14:58:55.942Z</time></trkpt><trkpt lat="44.462746" lon="10.7921243"><ele>434.7142857142857</ele><time>2026-04-18T14:58:56.942Z</time></trkpt><trkpt lat="44.4627045" lon="10.7920535"><ele>437.42857142857144</ele><time>2026-04-18T14:58:57.942Z</time></trkpt><trkpt lat="44.4626582" lon="10.7919878"><ele>440.1428571428571</ele><time>2026-04-18T14:58:58.942Z</time></trkpt><trkpt lat="44.4626059" lon="10.7919177"><ele>442.8571428571429</ele><time>2026-04-18T14:58:59.941Z</time></trkpt><trkpt lat="44.4625534" lon="10.7918492"><ele>445.5714285714286</ele><time>2026-04-18T14:59:00.942Z</time></trkpt><trkpt lat="44.4624965" lon="10.7917843"><ele>448.2857142857143</ele><time>2026-04-18T14:59:01.942Z</time></trkpt><trkpt lat="44.4624437" lon="10.7917247"><ele>451.0</ele><time>2026-04-18T14:59:02.941Z</time></trkpt><trkpt lat="44.4623922" lon="10.7916739"><ele>451.0</ele><time>2026-04-18T14:59:03.941Z</time></trkpt><trkpt lat="44.4622863" lon="10.7915768"><ele>451.0</ele><time>2026-04-18T14:59:05.942Z</time></trkpt><trkpt lat="44.4622251" lon="10.7915228"><ele>451.0</ele><time>2026-04-18T14:59:06.942Z</time></trkpt><trkpt lat="44.4621523" lon="10.7914771"><ele>451.0</ele><time>2026-04-18T14:59:07.942Z</time></trkpt><trkpt lat="44.4620702" lon="10.7914462"><ele>451.0</ele><time>2026-04-18T14:59:08.941Z</time></trkpt><trkpt lat="44.461986" lon="10.7914054"><ele>451.0</ele><time>2026-04-18T14:59:09.942Z</time></trkpt><trkpt lat="44.4618981" lon="10.7913581"><ele>451.0</ele><time>2026-04-18T14:59:10.941Z</time></trkpt><trkpt lat="44.4618106" lon="10.791311"><ele>451.0</ele><time>2026-04-18T14:59:11.941Z</time></trkpt><trkpt lat="44.4617279" lon="10.791259"><ele>451.0</ele><time>2026-04-18T14:59:12.941Z</time></trkpt><trkpt lat="44.4616488" lon="10.791207"><ele>451.0</ele><time>2026-04-18T14:59:13.942Z</time></trkpt><trkpt lat="44.4615682" lon="10.7911566"><ele>451.0</ele><time>2026-04-18T14:59:14.941Z</time></trkpt><trkpt lat="44.4614811" lon="10.7911311"><ele>451.0</ele><time>2026-04-18T14:59:15.941Z</time></trkpt><trkpt lat="44.4613883" lon="10.7911199"><ele>451.0</ele><time>2026-04-18T14:59:16.942Z</time></trkpt><trkpt lat="44.4612865" lon="10.7911133"><ele>451.0</ele><time>2026-04-18T14:59:17.942Z</time></trkpt><trkpt lat="44.461184" lon="10.7910971"><ele>451.0</ele><time>2026-04-18T14:59:18.942Z</time></trkpt><trkpt lat="44.461067" lon="10.79106"><ele>451.6</ele><time>2026-04-18T14:59:19.941Z</time></trkpt><trkpt lat="44.4609611" lon="10.7910254"><ele>452.20000000000005</ele><time>2026-04-18T14:59:20.941Z</time></trkpt><trkpt lat="44.4608664" lon="10.7909692"><ele>452.79999999999995</ele><time>2026-04-18T14:59:21.942Z</time></trkpt><trkpt lat="44.4607742" lon="10.7909094"><ele>453.4</ele><time>2026-04-18T14:59:22.941Z</time></trkpt><trkpt lat="44.4606844" lon="10.7908532"><ele>454.0</ele><time>2026-04-18T14:59:23.942Z</time></trkpt><trkpt lat="44.4605955" lon="10.7908046"><ele>452.2</ele><time>2026-04-18T14:59:24.941Z</time></trkpt><trkpt lat="44.460497" lon="10.7907651"><ele>450.4</ele><time>2026-04-18T14:59:25.942Z</time></trkpt><trkpt lat="44.4603988" lon="10.7907314"><ele>448.6</ele><time>2026-04-18T14:59:26.941Z</time></trkpt><trkpt lat="44.4603038" lon="10.7907082"><ele>446.8</ele><time>2026-04-18T14:59:27.941Z</time></trkpt><trkpt lat="44.4602149" lon="10.7907034"><ele>445.0</ele><time>2026-04-18T14:59:28.941Z</time></trkpt><trkpt lat="44.460132" lon="10.7907075"><ele>445.00000000000006</ele><time>2026-04-18T14:59:29.941Z</time></trkpt><trkpt lat="44.4600553" lon="10.7906837"><ele>445.0</ele><time>2026-04-18T14:59:30.941Z</time></trkpt><trkpt lat="44.4599839" lon="10.7906292"><ele>445.0</ele><time>2026-04-18T14:59:31.941Z</time></trkpt><trkpt lat="44.4599154" lon="10.7905547"><ele>445.0</ele><time>2026-04-18T14:59:32.941Z</time></trkpt><trkpt lat="44.4598464" lon="10.7904728"><ele>445.00000000000006</ele><time>2026-04-18T14:59:33.941Z</time></trkpt><trkpt lat="44.4597802" lon="10.7903846"><ele>445.0</ele><time>2026-04-18T14:59:34.941Z</time></trkpt><trkpt lat="44.4597241" lon="10.7903065"><ele>445.00000000000006</ele><time>2026-04-18T14:59:35.942Z</time></trkpt><trkpt lat="44.4596797" lon="10.7902302"><ele>445.0</ele><time>2026-04-18T14:59:36.942Z</time></trkpt><trkpt lat="44.459644" lon="10.7901519"><ele>445.0</ele><time>2026-04-18T14:59:37.942Z</time></trkpt><trkpt lat="44.4596073" lon="10.7900732"><ele>445.0</ele><time>2026-04-18T14:59:38.942Z</time></trkpt><trkpt lat="44.4595725" lon="10.789997"><ele>445.00000000000006</ele><time>2026-04-18T14:59:39.941Z</time></trkpt><trkpt lat="44.4595079" lon="10.7898446"><ele>445.0</ele><time>2026-04-18T14:59:41.942Z</time></trkpt><trkpt lat="44.4594446" lon="10.7896926"><ele>445.0</ele><time>2026-04-18T14:59:43.941Z</time></trkpt><trkpt lat="44.45938" lon="10.7895563"><ele>445.0</ele><time>2026-04-18T14:59:45.941Z</time></trkpt><trkpt lat="44.4593121" lon="10.7894242"><ele>445.0</ele><time>2026-04-18T14:59:47.942Z</time></trkpt><trkpt lat="44.4592433" lon="10.7893056"><ele>445.0</ele><time>2026-04-18T14:59:49.941Z</time></trkpt><trkpt lat="44.4591963" lon="10.7892393"><ele>445.0</ele><time>2026-04-18T14:59:51.941Z</time></trkpt><trkpt lat="44.4591861" lon="10.7891082"><ele>443.6</ele><time>2026-04-18T15:00:20.941Z</time></trkpt><trkpt lat="44.4592388" lon="10.7890455"><ele>442.2</ele><time>2026-04-18T15:00:21.941Z</time></trkpt><trkpt lat="44.4593089" lon="10.7889911"><ele>440.79999999999995</ele><time>2026-04-18T15:00:22.942Z</time></trkpt><trkpt lat="44.4593888" lon="10.7889351"><ele>439.4</ele><time>2026-04-18T15:00:23.941Z</time></trkpt><trkpt lat="44.4594858" lon="10.7888684"><ele>438.0</ele><time>2026-04-18T15:00:24.941Z</time></trkpt><trkpt lat="44.4595838" lon="10.7887964"><ele>437.0</ele><time>2026-04-18T15:00:25.942Z</time></trkpt><trkpt lat="44.4596766" lon="10.7887291"><ele>436.0</ele><time>2026-04-18T15:00:26.941Z</time></trkpt><trkpt lat="44.4597597" lon="10.7886656"><ele>435.0</ele><time>2026-04-18T15:00:27.941Z</time></trkpt><trkpt lat="44.4598364" lon="10.7886063"><ele>434.0</ele><time>2026-04-18T15:00:28.942Z</time></trkpt><trkpt lat="44.4599086" lon="10.7885461"><ele>433.0</ele><time>2026-04-18T15:00:29.942Z</time></trkpt><trkpt lat="44.4599716" lon="10.788487"><ele>432.0</ele><time>2026-04-18T15:00:30.942Z</time></trkpt><trkpt lat="44.460024" lon="10.7884247"><ele>431.20000000000005</ele><time>2026-04-18T15:00:31.941Z</time></trkpt><trkpt lat="44.4600996" lon="10.7883121"><ele>430.40000000000003</ele><time>2026-04-18T15:00:33.941Z</time></trkpt><trkpt lat="44.460173" lon="10.788218"><ele>429.59999999999997</ele><time>2026-04-18T15:00:35.941Z</time></trkpt><trkpt lat="44.4602539" lon="10.7881043"><ele>428.79999999999995</ele><time>2026-04-18T15:00:37.941Z</time></trkpt><trkpt lat="44.4602987" lon="10.7880283"><ele>428.0</ele><time>2026-04-18T15:00:38.941Z</time></trkpt><trkpt lat="44.4603447" lon="10.7879453"><ele>428.00000000000006</ele><time>2026-04-18T15:00:39.941Z</time></trkpt><trkpt lat="44.4603896" lon="10.7878635"><ele>428.0</ele><time>2026-04-18T15:00:40.941Z</time></trkpt><trkpt lat="44.460431" lon="10.7877894"><ele>428.0</ele><time>2026-04-18T15:00:41.942Z</time></trkpt><trkpt lat="44.4604721" lon="10.7877079"><ele>428.0</ele><time>2026-04-18T15:00:42.942Z</time></trkpt><trkpt lat="44.4605089" lon="10.7876312"><ele>428.0</ele><time>2026-04-18T15:00:43.941Z</time></trkpt><trkpt lat="44.4605403" lon="10.7875419"><ele>428.00000000000006</ele><time>2026-04-18T15:00:44.941Z</time></trkpt><trkpt lat="44.4605634" lon="10.7874463"><ele>428.0</ele><time>2026-04-18T15:00:45.942Z</time></trkpt><trkpt lat="44.4605846" lon="10.7873559"><ele>427.00000000000006</ele><time>2026-04-18T15:00:46.942Z</time></trkpt><trkpt lat="44.4606037" lon="10.7872624"><ele>426.0</ele><time>2026-04-18T15:00:47.941Z</time></trkpt><trkpt lat="44.4606336" lon="10.7871728"><ele>425.0</ele><time>2026-04-18T15:00:48.942Z</time></trkpt><trkpt lat="44.4606707" lon="10.7870885"><ele>424.0</ele><time>2026-04-18T15:00:49.942Z</time></trkpt><trkpt lat="44.4607108" lon="10.7870116"><ele>423.0</ele><time>2026-04-18T15:00:50.941Z</time></trkpt><trkpt lat="44.4607484" lon="10.7869291"><ele>422.00000000000006</ele><time>2026-04-18T15:00:51.942Z</time></trkpt><trkpt lat="44.4607867" lon="10.7868467"><ele>421.0</ele><time>2026-04-18T15:00:52.941Z</time></trkpt><trkpt lat="44.4608322" lon="10.7867844"><ele>421.00000000000006</ele><time>2026-04-18T15:00:53.941Z</time></trkpt><trkpt lat="44.4608817" lon="10.786727"><ele>421.0</ele><time>2026-04-18T15:00:54.942Z</time></trkpt><trkpt lat="44.4609808" lon="10.7866225"><ele>421.0</ele><time>2026-04-18T15:00:56.941Z</time></trkpt><trkpt lat="44.4610354" lon="10.7865738"><ele>421.0</ele><time>2026-04-18T15:00:57.942Z</time></trkpt><trkpt lat="44.4610927" lon="10.7865298"><ele>421.00000000000006</ele><time>2026-04-18T15:00:58.942Z</time></trkpt><trkpt lat="44.4611553" lon="10.7864805"><ele>421.0</ele><time>2026-04-18T15:00:59.941Z</time></trkpt><trkpt lat="44.4612137" lon="10.7864359"><ele>421.00000000000006</ele><time>2026-04-18T15:01:00.941Z</time></trkpt><trkpt lat="44.4612735" lon="10.7863775"><ele>421.0</ele><time>2026-04-18T15:01:01.942Z</time></trkpt><trkpt lat="44.4613317" lon="10.7863234"><ele>421.0</ele><time>2026-04-18T15:01:02.942Z</time></trkpt><trkpt lat="44.4613872" lon="10.7862728"><ele>421.0</ele><time>2026-04-18T15:01:03.941Z</time></trkpt><trkpt lat="44.4614457" lon="10.7862226"><ele>421.00000000000006</ele><time>2026-04-18T15:01:04.941Z</time></trkpt><trkpt lat="44.4614986" lon="10.786169"><ele>421.0</ele><time>2026-04-18T15:01:05.941Z</time></trkpt><trkpt lat="44.4615795" lon="10.7860358"><ele>420.33333333333337</ele><time>2026-04-18T15:01:07.942Z</time></trkpt><trkpt lat="44.4616111" lon="10.7859566"><ele>419.6666666666667</ele><time>2026-04-18T15:01:08.941Z</time></trkpt><trkpt lat="44.4616354" lon="10.7858721"><ele>419.0</ele><time>2026-04-18T15:01:09.942Z</time></trkpt><trkpt lat="44.4616578" lon="10.785788"><ele>418.33333333333337</ele><time>2026-04-18T15:01:10.942Z</time></trkpt><trkpt lat="44.4617088" lon="10.7856326"><ele>417.6666666666667</ele><time>2026-04-18T15:01:12.941Z</time></trkpt><trkpt lat="44.461754" lon="10.7854867"><ele>417.0</ele><time>2026-04-18T15:01:14.941Z</time></trkpt><trkpt lat="44.4618086" lon="10.7853407"><ele>417.0</ele><time>2026-04-18T15:01:16.941Z</time></trkpt><trkpt lat="44.4618959" lon="10.785217"><ele>417.0</ele><time>2026-04-18T15:01:18.941Z</time></trkpt><trkpt lat="44.4619854" lon="10.785124"><ele>417.0</ele><time>2026-04-18T15:01:20.941Z</time></trkpt><trkpt lat="44.4620689" lon="10.7850396"><ele>417.0</ele><time>2026-04-18T15:01:22.941Z</time></trkpt><trkpt lat="44.462154" lon="10.7849462"><ele>417.0</ele><time>2026-04-18T15:01:24.942Z</time></trkpt><trkpt lat="44.4622362" lon="10.784844"><ele>414.6666666666667</ele><time>2026-04-18T15:01:26.941Z</time></trkpt><trkpt lat="44.4622871" lon="10.7847887"><ele>412.33333333333337</ele><time>2026-04-18T15:01:27.941Z</time></trkpt><trkpt lat="44.4623423" lon="10.7847321"><ele>410.0</ele><time>2026-04-18T15:01:28.942Z</time></trkpt><trkpt lat="44.4623969" lon="10.7846789"><ele>407.6666666666667</ele><time>2026-04-18T15:01:29.941Z</time></trkpt><trkpt lat="44.4624743" lon="10.7845739"><ele>405.33333333333337</ele><time>2026-04-18T15:01:31.941Z</time></trkpt><trkpt lat="44.4625367" lon="10.7844992"><ele>403.0</ele><time>2026-04-18T15:01:33.941Z</time></trkpt><trkpt lat="44.4625474" lon="10.7844109"><ele>402.00000000000006</ele><time>2026-04-18T15:01:35.941Z</time></trkpt><trkpt lat="44.462503" lon="10.7842934"><ele>401.0</ele><time>2026-04-18T15:01:44.942Z</time></trkpt><trkpt lat="44.4624512" lon="10.7842145"><ele>400.0</ele><time>2026-04-18T15:01:46.942Z</time></trkpt><trkpt lat="44.4624099" lon="10.7841081"><ele>399.0</ele><time>2026-04-18T15:01:48.941Z</time></trkpt><trkpt lat="44.4623775" lon="10.7839875"><ele>398.00000000000006</ele><time>2026-04-18T15:01:50.941Z</time></trkpt><trkpt lat="44.4623233" lon="10.7838958"><ele>397.0</ele><time>2026-04-18T15:01:52.942Z</time></trkpt><trkpt lat="44.4622422" lon="10.783851"><ele>397.0</ele><time>2026-04-18T15:01:54.941Z</time></trkpt><trkpt lat="44.4621456" lon="10.783814"><ele>397.0</ele><time>2026-04-18T15:01:56.942Z</time></trkpt><trkpt lat="44.4620413" lon="10.7837548"><ele>397.0</ele><time>2026-04-18T15:01:58.941Z</time></trkpt><trkpt lat="44.4619246" lon="10.7837423"><ele>397.0</ele><time>2026-04-18T15:02:00.942Z</time></trkpt><trkpt lat="44.4618267" lon="10.7837458"><ele>397.0</ele><time>2026-04-18T15:02:02.942Z</time></trkpt><trkpt lat="44.4617625" lon="10.783696"><ele>396.1428571428571</ele><time>2026-04-18T15:02:04.942Z</time></trkpt><trkpt lat="44.4617701" lon="10.7836022"><ele>395.2857142857143</ele><time>2026-04-18T15:02:06.941Z</time></trkpt><trkpt lat="44.4618548" lon="10.7835095"><ele>394.42857142857144</ele><time>2026-04-18T15:02:08.942Z</time></trkpt><trkpt lat="44.461912" lon="10.7834521"><ele>393.57142857142856</ele><time>2026-04-18T15:02:09.942Z</time></trkpt><trkpt lat="44.4619597" lon="10.7833944"><ele>392.7142857142857</ele><time>2026-04-18T15:02:10.941Z</time></trkpt><trkpt lat="44.4620074" lon="10.7833341"><ele>391.85714285714283</ele><time>2026-04-18T15:02:11.942Z</time></trkpt><trkpt lat="44.4620563" lon="10.7832747"><ele>391.0</ele><time>2026-04-18T15:02:12.942Z</time></trkpt><trkpt lat="44.4620909" lon="10.7831763"><ele>389.00000000000006</ele><time>2026-04-18T15:02:14.941Z</time></trkpt><trkpt lat="44.4621147" lon="10.7830713"><ele>387.0</ele><time>2026-04-18T15:02:16.941Z</time></trkpt><trkpt lat="44.4621361" lon="10.7829675"><ele>385.0</ele><time>2026-04-18T15:02:18.941Z</time></trkpt><trkpt lat="44.4621628" lon="10.782859"><ele>383.0</ele><time>2026-04-18T15:02:20.942Z</time></trkpt><trkpt lat="44.4621958" lon="10.782721"><ele>381.0</ele><time>2026-04-18T15:02:22.941Z</time></trkpt><trkpt lat="44.4621833" lon="10.7826203"><ele>379.0</ele><time>2026-04-18T15:02:24.941Z</time></trkpt><trkpt lat="44.46223" lon="10.7824922"><ele>375.5</ele><time>2026-04-18T15:02:26.942Z</time></trkpt><trkpt lat="44.4623108" lon="10.7823567"><ele>372.0</ele><time>2026-04-18T15:02:28.941Z</time></trkpt><trkpt lat="44.4623403" lon="10.7822725"><ele>368.5</ele><time>2026-04-18T15:02:29.942Z</time></trkpt><trkpt lat="44.4623701" lon="10.7821864"><ele>365.0</ele><time>2026-04-18T15:02:30.941Z</time></trkpt><trkpt lat="44.4624123" lon="10.7821093"><ele>361.5</ele><time>2026-04-18T15:02:31.941Z</time></trkpt><trkpt lat="44.4624639" lon="10.7820374"><ele>358.0</ele><time>2026-04-18T15:02:32.942Z</time></trkpt><trkpt lat="44.4625667" lon="10.7819645"><ele>358.0</ele><time>2026-04-18T15:02:34.942Z</time></trkpt><trkpt lat="44.4626579" lon="10.7819011"><ele>358.0</ele><time>2026-04-18T15:02:36.941Z</time></trkpt><trkpt lat="44.4627187" lon="10.7818438"><ele>358.0</ele><time>2026-04-18T15:02:38.941Z</time></trkpt><trkpt lat="44.4627923" lon="10.7817846"><ele>358.0</ele><time>2026-04-18T15:02:40.942Z</time></trkpt><trkpt lat="44.4628662" lon="10.7817467"><ele>358.0</ele><time>2026-04-18T15:02:42.942Z</time></trkpt><trkpt lat="44.46294" lon="10.7817008"><ele>358.0</ele><time>2026-04-18T15:02:44.941Z</time></trkpt><trkpt lat="44.4630395" lon="10.7816531"><ele>354.0</ele><time>2026-04-18T15:02:46.942Z</time></trkpt><trkpt lat="44.4631451" lon="10.7815795"><ele>350.0</ele><time>2026-04-18T15:02:48.942Z</time></trkpt><trkpt lat="44.4632259" lon="10.7814978"><ele>346.0</ele><time>2026-04-18T15:02:50.941Z</time></trkpt><trkpt lat="44.4632843" lon="10.7814275"><ele>342.0</ele><time>2026-04-18T15:02:53.941Z</time></trkpt><trkpt lat="44.463335" lon="10.7813628"><ele>338.0</ele><time>2026-04-18T15:03:00.941Z</time></trkpt><trkpt lat="44.4633847" lon="10.7812852"><ele>334.0</ele><time>2026-04-18T15:03:06.942Z</time></trkpt><trkpt lat="44.4634023" lon="10.78113"><ele>334.0</ele><time>2026-04-18T15:03:54.942Z</time></trkpt><trkpt lat="44.4633597" lon="10.7810609"><ele>334.0</ele><time>2026-04-18T15:03:57.941Z</time></trkpt><trkpt lat="44.4633038" lon="10.7810008"><ele>334.0</ele><time>2026-04-18T15:04:01.941Z</time></trkpt><trkpt lat="44.4632153" lon="10.7809716"><ele>334.0</ele><time>2026-04-18T15:04:34.942Z</time></trkpt><trkpt lat="44.463143" lon="10.7809294"><ele>334.0</ele><time>2026-04-18T15:04:35.942Z</time></trkpt><trkpt lat="44.4630754" lon="10.7808947"><ele>334.0</ele><time>2026-04-18T15:04:36.941Z</time></trkpt><trkpt lat="44.462998" lon="10.7808647"><ele>334.0</ele><time>2026-04-18T15:04:37.941Z</time></trkpt><trkpt lat="44.4629245" lon="10.7808396"><ele>334.0</ele><time>2026-04-18T15:04:38.942Z</time></trkpt><trkpt lat="44.4628459" lon="10.7808174"><ele>334.0</ele><time>2026-04-18T15:04:39.942Z</time></trkpt><trkpt lat="44.4627699" lon="10.7808026"><ele>334.0</ele><time>2026-04-18T15:04:40.941Z</time></trkpt><trkpt lat="44.4626981" lon="10.7807624"><ele>334.0</ele><time>2026-04-18T15:04:41.941Z</time></trkpt><trkpt lat="44.4626316" lon="10.780713"><ele>334.0</ele><time>2026-04-18T15:04:42.941Z</time></trkpt><trkpt lat="44.4625711" lon="10.7806608"><ele>334.0</ele><time>2026-04-18T15:04:43.941Z</time></trkpt><trkpt lat="44.4625114" lon="10.7806137"><ele>334.0</ele><time>2026-04-18T15:04:44.941Z</time></trkpt><trkpt lat="44.462463" lon="10.7805454"><ele>334.0</ele><time>2026-04-18T15:04:46.941Z</time></trkpt><trkpt lat="44.4624097" lon="10.7804455"><ele>334.0</ele><time>2026-04-18T15:04:54.941Z</time></trkpt><trkpt lat="44.4623765" lon="10.7803517"><ele>334.0</ele><time>2026-04-18T15:04:55.941Z</time></trkpt><trkpt lat="44.4623451" lon="10.7802517"><ele>334.0</ele><time>2026-04-18T15:04:56.941Z</time></trkpt><trkpt lat="44.4623058" lon="10.7801296"><ele>334.3333333333333</ele><time>2026-04-18T15:04:57.942Z</time></trkpt><trkpt lat="44.4622702" lon="10.7800173"><ele>334.66666666666663</ele><time>2026-04-18T15:04:58.941Z</time></trkpt><trkpt lat="44.4622387" lon="10.7799209"><ele>335.0</ele><time>2026-04-18T15:04:59.941Z</time></trkpt><trkpt lat="44.4622154" lon="10.7798334"><ele>335.3333333333333</ele><time>2026-04-18T15:05:00.941Z</time></trkpt><trkpt lat="44.4621908" lon="10.7797329"><ele>335.6666666666667</ele><time>2026-04-18T15:05:01.942Z</time></trkpt><trkpt lat="44.4621635" lon="10.779628"><ele>336.0</ele><time>2026-04-18T15:05:02.942Z</time></trkpt><trkpt lat="44.4621259" lon="10.7795209"><ele>336.3333333333333</ele><time>2026-04-18T15:05:03.941Z</time></trkpt><trkpt lat="44.462084" lon="10.7794168"><ele>336.6666666666667</ele><time>2026-04-18T15:05:04.942Z</time></trkpt><trkpt lat="44.4620392" lon="10.7793154"><ele>337.0</ele><time>2026-04-18T15:05:05.941Z</time></trkpt><trkpt lat="44.4619914" lon="10.7792095"><ele>337.33333333333337</ele><time>2026-04-18T15:05:06.941Z</time></trkpt><trkpt lat="44.4619391" lon="10.7791034"><ele>337.6666666666667</ele><time>2026-04-18T15:05:07.941Z</time></trkpt><trkpt lat="44.4618927" lon="10.7790018"><ele>338.0</ele><time>2026-04-18T15:05:08.941Z</time></trkpt><trkpt lat="44.4618421" lon="10.7788964"><ele>339.83333333333337</ele><time>2026-04-18T15:05:09.941Z</time></trkpt><trkpt lat="44.4617968" lon="10.7787956"><ele>341.6666666666667</ele><time>2026-04-18T15:05:10.941Z</time></trkpt><trkpt lat="44.4617605" lon="10.7786959"><ele>343.5</ele><time>2026-04-18T15:05:11.941Z</time></trkpt><trkpt lat="44.4617183" lon="10.7786045"><ele>345.3333333333333</ele><time>2026-04-18T15:05:12.942Z</time></trkpt><trkpt lat="44.461676" lon="10.7785083"><ele>347.16666666666663</ele><time>2026-04-18T15:05:13.941Z</time></trkpt><trkpt lat="44.4616363" lon="10.7784056"><ele>349.0</ele><time>2026-04-18T15:05:14.942Z</time></trkpt><trkpt lat="44.4615932" lon="10.7783043"><ele>350.5</ele><time>2026-04-18T15:05:15.942Z</time></trkpt><trkpt lat="44.4615489" lon="10.7782011"><ele>352.0</ele><time>2026-04-18T15:05:16.941Z</time></trkpt><trkpt lat="44.4615042" lon="10.7780963"><ele>353.5</ele><time>2026-04-18T15:05:17.941Z</time></trkpt><trkpt lat="44.4614634" lon="10.7779927"><ele>355.0</ele><time>2026-04-18T15:05:18.941Z</time></trkpt><trkpt lat="44.4614223" lon="10.7778866"><ele>356.5</ele><time>2026-04-18T15:05:19.941Z</time></trkpt><trkpt lat="44.461388" lon="10.7777853"><ele>358.0</ele><time>2026-04-18T15:05:20.942Z</time></trkpt><trkpt lat="44.4613573" lon="10.7776821"><ele>360.5</ele><time>2026-04-18T15:05:21.941Z</time></trkpt><trkpt lat="44.4613336" lon="10.7775764"><ele>363.0</ele><time>2026-04-18T15:05:22.941Z</time></trkpt><trkpt lat="44.4613142" lon="10.7774657"><ele>365.5</ele><time>2026-04-18T15:05:23.942Z</time></trkpt><trkpt lat="44.4612983" lon="10.7773484"><ele>368.0</ele><time>2026-04-18T15:05:24.941Z</time></trkpt><trkpt lat="44.4612824" lon="10.777231"><ele>370.5</ele><time>2026-04-18T15:05:25.941Z</time></trkpt><trkpt lat="44.4612716" lon="10.7771078"><ele>373.0</ele><time>2026-04-18T15:05:26.941Z</time></trkpt><trkpt lat="44.4612601" lon="10.7769864"><ele>374.0</ele><time>2026-04-18T15:05:27.942Z</time></trkpt><trkpt lat="44.4612474" lon="10.7768745"><ele>375.0</ele><time>2026-04-18T15:05:28.942Z</time></trkpt><trkpt lat="44.4612351" lon="10.7767574"><ele>376.0</ele><time>2026-04-18T15:05:29.942Z</time></trkpt><trkpt lat="44.461229" lon="10.776638"><ele>377.0</ele><time>2026-04-18T15:05:30.942Z</time></trkpt><trkpt lat="44.4612214" lon="10.7765184"><ele>378.0</ele><time>2026-04-18T15:05:31.942Z</time></trkpt><trkpt lat="44.4612145" lon="10.7764003"><ele>379.0</ele><time>2026-04-18T15:05:32.941Z</time></trkpt><trkpt lat="44.4612056" lon="10.7762774"><ele>381.66666666666663</ele><time>2026-04-18T15:05:33.941Z</time></trkpt><trkpt lat="44.4611988" lon="10.7761572"><ele>384.3333333333333</ele><time>2026-04-18T15:05:34.942Z</time></trkpt><trkpt lat="44.4611884" lon="10.7760361"><ele>387.0</ele><time>2026-04-18T15:05:35.941Z</time></trkpt><trkpt lat="44.461176" lon="10.775918"><ele>389.66666666666663</ele><time>2026-04-18T15:05:36.942Z</time></trkpt><trkpt lat="44.4611588" lon="10.7757999"><ele>392.3333333333333</ele><time>2026-04-18T15:05:37.942Z</time></trkpt><trkpt lat="44.4611249" lon="10.7756861"><ele>395.0</ele><time>2026-04-18T15:05:38.942Z</time></trkpt><trkpt lat="44.4610768" lon="10.7755971"><ele>397.16666666666663</ele><time>2026-04-18T15:05:39.942Z</time></trkpt><trkpt lat="44.4610151" lon="10.7755248"><ele>399.3333333333333</ele><time>2026-04-18T15:05:40.942Z</time></trkpt><trkpt lat="44.4609552" lon="10.7754747"><ele>401.5</ele><time>2026-04-18T15:05:41.941Z</time></trkpt><trkpt lat="44.4608902" lon="10.7754186"><ele>403.66666666666663</ele><time>2026-04-18T15:05:42.941Z</time></trkpt><trkpt lat="44.4608275" lon="10.775373"><ele>405.8333333333333</ele><time>2026-04-18T15:05:43.941Z</time></trkpt><trkpt lat="44.4607692" lon="10.7753375"><ele>408.0</ele><time>2026-04-18T15:05:44.942Z</time></trkpt><trkpt lat="44.4606488" lon="10.7752718"><ele>408.0</ele><time>2026-04-18T15:05:46.942Z</time></trkpt><trkpt lat="44.4605824" lon="10.7752401"><ele>408.0</ele><time>2026-04-18T15:05:47.942Z</time></trkpt><trkpt lat="44.460522" lon="10.7752099"><ele>408.0</ele><time>2026-04-18T15:05:48.941Z</time></trkpt><trkpt lat="44.4604565" lon="10.7751779"><ele>408.0</ele><time>2026-04-18T15:05:49.941Z</time></trkpt><trkpt lat="44.4603963" lon="10.7751473"><ele>408.0</ele><time>2026-04-18T15:05:50.941Z</time></trkpt><trkpt lat="44.460338" lon="10.775112"><ele>408.0</ele><time>2026-04-18T15:05:51.942Z</time></trkpt><trkpt lat="44.4602323" lon="10.7750538"><ele>408.0</ele><time>2026-04-18T15:05:53.941Z</time></trkpt><trkpt lat="44.4601587" lon="10.7750637"><ele>409.79999999999995</ele><time>2026-04-18T15:05:56.942Z</time></trkpt><trkpt lat="44.4600938" lon="10.7750936"><ele>411.6</ele><time>2026-04-18T15:09:17.941Z</time></trkpt><trkpt lat="44.4600083" lon="10.7751271"><ele>413.4</ele><time>2026-04-18T15:09:19.942Z</time></trkpt><trkpt lat="44.4599135" lon="10.7751653"><ele>415.20000000000005</ele><time>2026-04-18T15:09:21.941Z</time></trkpt><trkpt lat="44.459813" lon="10.7752113"><ele>417.0</ele><time>2026-04-18T15:09:23.941Z</time></trkpt><trkpt lat="44.459712" lon="10.7752942"><ele>419.1666666666667</ele><time>2026-04-18T15:09:25.942Z</time></trkpt><trkpt lat="44.4596146" lon="10.7753693"><ele>421.33333333333337</ele><time>2026-04-18T15:09:27.941Z</time></trkpt><trkpt lat="44.4595126" lon="10.7754518"><ele>423.5</ele><time>2026-04-18T15:09:29.941Z</time></trkpt><trkpt lat="44.4594572" lon="10.7755004"><ele>425.6666666666667</ele><time>2026-04-18T15:09:30.942Z</time></trkpt><trkpt lat="44.459401" lon="10.7755573"><ele>427.83333333333337</ele><time>2026-04-18T15:09:31.942Z</time></trkpt><trkpt lat="44.4593415" lon="10.7756173"><ele>430.0</ele><time>2026-04-18T15:09:32.941Z</time></trkpt><trkpt lat="44.4592775" lon="10.7756901"><ele>430.00000000000006</ele><time>2026-04-18T15:09:33.942Z</time></trkpt><trkpt lat="44.45921" lon="10.7757496"><ele>430.0</ele><time>2026-04-18T15:09:34.941Z</time></trkpt><trkpt lat="44.4591393" lon="10.7758005"><ele>430.0</ele><time>2026-04-18T15:09:35.941Z</time></trkpt><trkpt lat="44.4590799" lon="10.775842"><ele>430.0</ele><time>2026-04-18T15:09:36.941Z</time></trkpt><trkpt lat="44.4590255" lon="10.7758867"><ele>430.00000000000006</ele><time>2026-04-18T15:09:37.941Z</time></trkpt><trkpt lat="44.4589131" lon="10.7759298"><ele>430.0</ele><time>2026-04-18T15:09:39.941Z</time></trkpt><trkpt lat="44.4587992" lon="10.7759114"><ele>430.00000000000006</ele><time>2026-04-18T15:09:41.942Z</time></trkpt><trkpt lat="44.4587189" lon="10.7758961"><ele>430.0</ele><time>2026-04-18T15:09:42.941Z</time></trkpt><trkpt lat="44.4586371" lon="10.7758799"><ele>430.0</ele><time>2026-04-18T15:09:43.941Z</time></trkpt><trkpt lat="44.45855" lon="10.7758717"><ele>430.0</ele><time>2026-04-18T15:09:44.941Z</time></trkpt><trkpt lat="44.4584696" lon="10.7758425"><ele>430.00000000000006</ele><time>2026-04-18T15:09:45.942Z</time></trkpt><trkpt lat="44.4583872" lon="10.775825"><ele>430.0</ele><time>2026-04-18T15:09:46.941Z</time></trkpt><trkpt lat="44.4583041" lon="10.7758115"><ele>430.00000000000006</ele><time>2026-04-18T15:09:47.942Z</time></trkpt><trkpt lat="44.4582257" lon="10.7758158"><ele>430.0</ele><time>2026-04-18T15:09:48.942Z</time></trkpt><trkpt lat="44.4581357" lon="10.7758143"><ele>430.0</ele><time>2026-04-18T15:09:49.942Z</time></trkpt><trkpt lat="44.4580479" lon="10.7757717"><ele>430.0</ele><time>2026-04-18T15:09:50.942Z</time></trkpt><trkpt lat="44.4579615" lon="10.7757362"><ele>430.00000000000006</ele><time>2026-04-18T15:09:51.941Z</time></trkpt><trkpt lat="44.4578862" lon="10.7756884"><ele>430.0</ele><time>2026-04-18T15:09:52.941Z</time></trkpt><trkpt lat="44.45782" lon="10.7756169"><ele>430.50000000000006</ele><time>2026-04-18T15:09:53.941Z</time></trkpt><trkpt lat="44.4577572" lon="10.7755366"><ele>431.0</ele><time>2026-04-18T15:09:54.941Z</time></trkpt><trkpt lat="44.4576936" lon="10.7754564"><ele>431.5</ele><time>2026-04-18T15:09:55.942Z</time></trkpt><trkpt lat="44.4576379" lon="10.7753721"><ele>432.0</ele><time>2026-04-18T15:09:56.942Z</time></trkpt><trkpt lat="44.4575865" lon="10.7752772"><ele>432.50000000000006</ele><time>2026-04-18T15:09:57.941Z</time></trkpt><trkpt lat="44.4575417" lon="10.7751808"><ele>433.0</ele><time>2026-04-18T15:09:58.942Z</time></trkpt><trkpt lat="44.4574907" lon="10.7750518"><ele>433.00000000000006</ele><time>2026-04-18T15:09:59.941Z</time></trkpt><trkpt lat="44.4574552" lon="10.7749352"><ele>433.0</ele><time>2026-04-18T15:10:00.941Z</time></trkpt><trkpt lat="44.4574194" lon="10.7748374"><ele>433.0</ele><time>2026-04-18T15:10:01.941Z</time></trkpt><trkpt lat="44.4574023" lon="10.7747511"><ele>433.0</ele><time>2026-04-18T15:10:02.941Z</time></trkpt><trkpt lat="44.4573491" lon="10.7746375"><ele>433.00000000000006</ele><time>2026-04-18T15:10:04.941Z</time></trkpt><trkpt lat="44.4572715" lon="10.7745751"><ele>433.0</ele><time>2026-04-18T15:10:06.942Z</time></trkpt><trkpt lat="44.4571702" lon="10.7745408"><ele>433.6666666666667</ele><time>2026-04-18T15:10:08.941Z</time></trkpt><trkpt lat="44.4571078" lon="10.7745004"><ele>434.33333333333337</ele><time>2026-04-18T15:10:09.942Z</time></trkpt><trkpt lat="44.4570208" lon="10.7743772"><ele>435.0</ele><time>2026-04-18T15:10:11.941Z</time></trkpt><trkpt lat="44.4569843" lon="10.7742943"><ele>435.66666666666663</ele><time>2026-04-18T15:10:12.941Z</time></trkpt><trkpt lat="44.4569407" lon="10.7742155"><ele>436.3333333333333</ele><time>2026-04-18T15:10:13.941Z</time></trkpt><trkpt lat="44.4568891" lon="10.7741607"><ele>437.0</ele><time>2026-04-18T15:10:14.941Z</time></trkpt><trkpt lat="44.4567743" lon="10.774117"><ele>436.99999999999994</ele><time>2026-04-18T15:10:16.941Z</time></trkpt><trkpt lat="44.456711" lon="10.7741082"><ele>437.0</ele><time>2026-04-18T15:10:17.941Z</time></trkpt><trkpt lat="44.4566427" lon="10.7740996"><ele>437.0</ele><time>2026-04-18T15:10:18.942Z</time></trkpt><trkpt lat="44.4565812" lon="10.7740785"><ele>437.0</ele><time>2026-04-18T15:10:19.941Z</time></trkpt><trkpt lat="44.4564822" lon="10.7739808"><ele>436.99999999999994</ele><time>2026-04-18T15:10:21.941Z</time></trkpt><trkpt lat="44.4563928" lon="10.77387"><ele>437.0</ele><time>2026-04-18T15:10:23.942Z</time></trkpt><trkpt lat="44.4563148" lon="10.773739"><ele>441.40000000000003</ele><time>2026-04-18T15:10:25.941Z</time></trkpt><trkpt lat="44.4562639" lon="10.7735815"><ele>445.80000000000007</ele><time>2026-04-18T15:10:27.942Z</time></trkpt><trkpt lat="44.4562598" lon="10.7734164"><ele>450.2</ele><time>2026-04-18T15:10:29.942Z</time></trkpt><trkpt lat="44.4561935" lon="10.7732894"><ele>454.6</ele><time>2026-04-18T15:10:31.942Z</time></trkpt><trkpt lat="44.4561352" lon="10.7732374"><ele>459.0</ele><time>2026-04-18T15:10:32.941Z</time></trkpt><trkpt lat="44.4560772" lon="10.7731687"><ele>459.0</ele><time>2026-04-18T15:10:33.941Z</time></trkpt><trkpt lat="44.4560383" lon="10.773078"><ele>459.0</ele><time>2026-04-18T15:10:34.941Z</time></trkpt><trkpt lat="44.4559784" lon="10.7729562"><ele>459.0</ele><time>2026-04-18T15:10:36.942Z</time></trkpt><trkpt lat="44.4559109" lon="10.7729227"><ele>459.0</ele><time>2026-04-18T15:10:39.941Z</time></trkpt><trkpt lat="44.4558201" lon="10.7729015"><ele>459.0</ele><time>2026-04-18T15:10:42.942Z</time></trkpt><trkpt lat="44.4557977" lon="10.7727636"><ele>459.0</ele><time>2026-04-18T15:10:44.942Z</time></trkpt><trkpt lat="44.4557968" lon="10.7726653"><ele>459.8333333333333</ele><time>2026-04-18T15:10:45.942Z</time></trkpt><trkpt lat="44.4557945" lon="10.772549"><ele>460.66666666666663</ele><time>2026-04-18T15:10:46.941Z</time></trkpt><trkpt lat="44.4557921" lon="10.7724343"><ele>461.5</ele><time>2026-04-18T15:10:47.941Z</time></trkpt><trkpt lat="44.4557903" lon="10.7723066"><ele>462.3333333333333</ele><time>2026-04-18T15:10:48.941Z</time></trkpt><trkpt lat="44.4557853" lon="10.7721738"><ele>463.16666666666663</ele><time>2026-04-18T15:10:49.941Z</time></trkpt><trkpt lat="44.4557831" lon="10.7720418"><ele>464.0</ele><time>2026-04-18T15:10:50.942Z</time></trkpt><trkpt lat="44.4557733" lon="10.7719044"><ele>465.4</ele><time>2026-04-18T15:10:51.941Z</time></trkpt><trkpt lat="44.4557687" lon="10.7717709"><ele>466.79999999999995</ele><time>2026-04-18T15:10:52.941Z</time></trkpt><trkpt lat="44.4557637" lon="10.7716418"><ele>468.20000000000005</ele><time>2026-04-18T15:10:53.942Z</time></trkpt><trkpt lat="44.4557591" lon="10.7715126"><ele>469.6</ele><time>2026-04-18T15:10:54.941Z</time></trkpt><trkpt lat="44.4557562" lon="10.7713778"><ele>471.0</ele><time>2026-04-18T15:10:55.941Z</time></trkpt><trkpt lat="44.4557502" lon="10.7712478"><ele>471.0</ele><time>2026-04-18T15:10:56.941Z</time></trkpt><trkpt lat="44.4557448" lon="10.7711147"><ele>471.0</ele><time>2026-04-18T15:10:57.941Z</time></trkpt><trkpt lat="44.4557369" lon="10.7709768"><ele>471.0</ele><time>2026-04-18T15:10:58.942Z</time></trkpt><trkpt lat="44.4557209" lon="10.7708366"><ele>471.0</ele><time>2026-04-18T15:10:59.941Z</time></trkpt><trkpt lat="44.4556956" lon="10.7706926"><ele>471.0</ele><time>2026-04-18T15:11:00.941Z</time></trkpt><trkpt lat="44.4556605" lon="10.7705417"><ele>473.0</ele><time>2026-04-18T15:11:01.942Z</time></trkpt><trkpt lat="44.4556153" lon="10.7704"><ele>475.0</ele><time>2026-04-18T15:11:02.941Z</time></trkpt><trkpt lat="44.4555665" lon="10.7702528"><ele>477.0</ele><time>2026-04-18T15:11:03.941Z</time></trkpt><trkpt lat="44.4555272" lon="10.7700998"><ele>479.0</ele><time>2026-04-18T15:11:04.941Z</time></trkpt><trkpt lat="44.455503" lon="10.7699393"><ele>480.6</ele><time>2026-04-18T15:11:05.942Z</time></trkpt><trkpt lat="44.4554827" lon="10.7697877"><ele>482.2</ele><time>2026-04-18T15:11:06.941Z</time></trkpt><trkpt lat="44.4554717" lon="10.7696356"><ele>483.80000000000007</ele><time>2026-04-18T15:11:07.941Z</time></trkpt><trkpt lat="44.4554712" lon="10.7694815"><ele>485.40000000000003</ele><time>2026-04-18T15:11:08.942Z</time></trkpt><trkpt lat="44.4554779" lon="10.7693205"><ele>487.0</ele><time>2026-04-18T15:11:09.942Z</time></trkpt><trkpt lat="44.4554973" lon="10.7691624"><ele>487.75</ele><time>2026-04-18T15:11:10.942Z</time></trkpt><trkpt lat="44.4555257" lon="10.7689949"><ele>488.5</ele><time>2026-04-18T15:11:11.941Z</time></trkpt><trkpt lat="44.4555582" lon="10.768829"><ele>489.25</ele><time>2026-04-18T15:11:12.941Z</time></trkpt><trkpt lat="44.4555911" lon="10.7686568"><ele>490.0</ele><time>2026-04-18T15:11:13.942Z</time></trkpt><trkpt lat="44.455619" lon="10.7684948"><ele>490.0</ele><time>2026-04-18T15:11:14.941Z</time></trkpt><trkpt lat="44.4556395" lon="10.7683483"><ele>490.0</ele><time>2026-04-18T15:11:15.941Z</time></trkpt><trkpt lat="44.4556562" lon="10.7682084"><ele>490.0</ele><time>2026-04-18T15:11:16.942Z</time></trkpt><trkpt lat="44.4556642" lon="10.7680777"><ele>490.0</ele><time>2026-04-18T15:11:17.941Z</time></trkpt><trkpt lat="44.4556549" lon="10.767963"><ele>490.0</ele><time>2026-04-18T15:11:18.942Z</time></trkpt><trkpt lat="44.4556246" lon="10.7678637"><ele>490.0</ele><time>2026-04-18T15:11:19.941Z</time></trkpt><trkpt lat="44.4555784" lon="10.7677728"><ele>490.0</ele><time>2026-04-18T15:11:20.941Z</time></trkpt><trkpt lat="44.4555164" lon="10.7676865"><ele>490.0</ele><time>2026-04-18T15:11:21.941Z</time></trkpt><trkpt lat="44.4554451" lon="10.7676019"><ele>490.0</ele><time>2026-04-18T15:11:22.942Z</time></trkpt><trkpt lat="44.4553681" lon="10.7675112"><ele>490.0</ele><time>2026-04-18T15:11:23.941Z</time></trkpt><trkpt lat="44.4552997" lon="10.7674089"><ele>489.6</ele><time>2026-04-18T15:11:24.941Z</time></trkpt><trkpt lat="44.4552338" lon="10.7672946"><ele>489.2</ele><time>2026-04-18T15:11:25.941Z</time></trkpt><trkpt lat="44.45517" lon="10.7671705"><ele>488.79999999999995</ele><time>2026-04-18T15:11:26.941Z</time></trkpt><trkpt lat="44.4551093" lon="10.7670379"><ele>488.4</ele><time>2026-04-18T15:11:27.942Z</time></trkpt><trkpt lat="44.4550606" lon="10.7668967"><ele>488.0</ele><time>2026-04-18T15:11:28.942Z</time></trkpt><trkpt lat="44.455009" lon="10.7667564"><ele>490.5</ele><time>2026-04-18T15:11:29.941Z</time></trkpt><trkpt lat="44.4549491" lon="10.7666152"><ele>493.0</ele><time>2026-04-18T15:11:30.942Z</time></trkpt><trkpt lat="44.4548888" lon="10.7664747"><ele>495.5</ele><time>2026-04-18T15:11:31.942Z</time></trkpt><trkpt lat="44.4548277" lon="10.7663263"><ele>498.0</ele><time>2026-04-18T15:11:32.941Z</time></trkpt><trkpt lat="44.4547655" lon="10.7661826"><ele>498.0</ele><time>2026-04-18T15:11:33.942Z</time></trkpt><trkpt lat="44.4547073" lon="10.7660385"><ele>498.0</ele><time>2026-04-18T15:11:34.941Z</time></trkpt><trkpt lat="44.4546501" lon="10.7658983"><ele>498.0</ele><time>2026-04-18T15:11:35.942Z</time></trkpt><trkpt lat="44.4545974" lon="10.7657599"><ele>498.0</ele><time>2026-04-18T15:11:36.941Z</time></trkpt><trkpt lat="44.4545559" lon="10.7656233"><ele>498.2</ele><time>2026-04-18T15:11:37.941Z</time></trkpt><trkpt lat="44.4545198" lon="10.7654914"><ele>498.4</ele><time>2026-04-18T15:11:38.941Z</time></trkpt><trkpt lat="44.4544849" lon="10.7653506"><ele>498.59999999999997</ele><time>2026-04-18T15:11:39.941Z</time></trkpt><trkpt lat="44.4544524" lon="10.7652011"><ele>498.79999999999995</ele><time>2026-04-18T15:11:40.942Z</time></trkpt><trkpt lat="44.4544215" lon="10.7650679"><ele>499.0</ele><time>2026-04-18T15:11:41.941Z</time></trkpt><trkpt lat="44.4543841" lon="10.7649559"><ele>499.83333333333337</ele><time>2026-04-18T15:11:42.942Z</time></trkpt><trkpt lat="44.4543576" lon="10.7648642"><ele>500.6666666666667</ele><time>2026-04-18T15:11:43.942Z</time></trkpt><trkpt lat="44.4543299" lon="10.7647605"><ele>501.5</ele><time>2026-04-18T15:11:45.941Z</time></trkpt><trkpt lat="44.4543198" lon="10.7646651"><ele>502.33333333333337</ele><time>2026-04-18T15:11:47.941Z</time></trkpt><trkpt lat="44.4542961" lon="10.7645781"><ele>503.1666666666667</ele><time>2026-04-18T15:11:48.941Z</time></trkpt><trkpt lat="44.4542598" lon="10.7644931"><ele>504.0</ele><time>2026-04-18T15:11:49.941Z</time></trkpt><trkpt lat="44.4542" lon="10.7643814"><ele>504.0</ele><time>2026-04-18T15:11:51.942Z</time></trkpt><trkpt lat="44.4542687" lon="10.7642982"><ele>504.0</ele><time>2026-04-18T15:11:54.941Z</time></trkpt><trkpt lat="44.4544087" lon="10.7643313"><ele>504.0</ele><time>2026-04-18T15:11:56.941Z</time></trkpt><trkpt lat="44.4544903" lon="10.7643649"><ele>504.0</ele><time>2026-04-18T15:11:57.942Z</time></trkpt><trkpt lat="44.4545803" lon="10.7644059"><ele>504.0</ele><time>2026-04-18T15:11:58.942Z</time></trkpt><trkpt lat="44.454673" lon="10.7644374"><ele>506.4</ele><time>2026-04-18T15:11:59.942Z</time></trkpt><trkpt lat="44.4547591" lon="10.7644693"><ele>508.79999999999995</ele><time>2026-04-18T15:12:00.942Z</time></trkpt><trkpt lat="44.4548464" lon="10.7644983"><ele>511.20000000000005</ele><time>2026-04-18T15:12:01.941Z</time></trkpt><trkpt lat="44.454934" lon="10.7645141"><ele>513.6</ele><time>2026-04-18T15:12:02.941Z</time></trkpt><trkpt lat="44.4550243" lon="10.7645236"><ele>516.0</ele><time>2026-04-18T15:12:03.942Z</time></trkpt><trkpt lat="44.4551204" lon="10.7645319"><ele>516.0</ele><time>2026-04-18T15:12:04.941Z</time></trkpt><trkpt lat="44.4552184" lon="10.7645449"><ele>516.0</ele><time>2026-04-18T15:12:05.942Z</time></trkpt><trkpt lat="44.4553218" lon="10.7645467"><ele>516.0</ele><time>2026-04-18T15:12:06.942Z</time></trkpt><trkpt lat="44.4554199" lon="10.7645338"><ele>516.0</ele><time>2026-04-18T15:12:07.941Z</time></trkpt><trkpt lat="44.4555139" lon="10.7645192"><ele>516.0</ele><time>2026-04-18T15:12:08.941Z</time></trkpt><trkpt lat="44.4556083" lon="10.7645037"><ele>518.6</ele><time>2026-04-18T15:12:09.942Z</time></trkpt><trkpt lat="44.455703" lon="10.7644973"><ele>521.2</ele><time>2026-04-18T15:12:10.942Z</time></trkpt><trkpt lat="44.4558011" lon="10.7645091"><ele>523.8</ele><time>2026-04-18T15:12:11.941Z</time></trkpt><trkpt lat="44.4559009" lon="10.7645434"><ele>526.4</ele><time>2026-04-18T15:12:12.941Z</time></trkpt><trkpt lat="44.4560011" lon="10.7645968"><ele>529.0</ele><time>2026-04-18T15:12:13.942Z</time></trkpt><trkpt lat="44.4561007" lon="10.7646617"><ele>529.0</ele><time>2026-04-18T15:12:14.942Z</time></trkpt><trkpt lat="44.4561973" lon="10.7647333"><ele>529.0</ele><time>2026-04-18T15:12:15.941Z</time></trkpt><trkpt lat="44.4562907" lon="10.7648089"><ele>529.0</ele><time>2026-04-18T15:12:16.942Z</time></trkpt><trkpt lat="44.4563923" lon="10.7648633"><ele>529.0</ele><time>2026-04-18T15:12:17.942Z</time></trkpt><trkpt lat="44.4564967" lon="10.7649148"><ele>529.0</ele><time>2026-04-18T15:12:18.942Z</time></trkpt><trkpt lat="44.4566039" lon="10.7649565"><ele>530.8</ele><time>2026-04-18T15:12:19.941Z</time></trkpt><trkpt lat="44.4567155" lon="10.7649971"><ele>532.5999999999999</ele><time>2026-04-18T15:12:20.941Z</time></trkpt><trkpt lat="44.4568132" lon="10.765036"><ele>534.4</ele><time>2026-04-18T15:12:21.942Z</time></trkpt><trkpt lat="44.4569022" lon="10.7650619"><ele>536.1999999999999</ele><time>2026-04-18T15:12:22.941Z</time></trkpt><trkpt lat="44.4569902" lon="10.7650775"><ele>538.0</ele><time>2026-04-18T15:12:23.941Z</time></trkpt><trkpt lat="44.4570779" lon="10.7650452"><ele>540.0</ele><time>2026-04-18T15:12:24.941Z</time></trkpt><trkpt lat="44.4571461" lon="10.7649932"><ele>542.0</ele><time>2026-04-18T15:12:25.942Z</time></trkpt><trkpt lat="44.4572081" lon="10.764911"><ele>544.0</ele><time>2026-04-18T15:12:26.941Z</time></trkpt><trkpt lat="44.4572653" lon="10.7648179"><ele>546.0</ele><time>2026-04-18T15:12:27.942Z</time></trkpt><trkpt lat="44.4573235" lon="10.7647125"><ele>548.0</ele><time>2026-04-18T15:12:28.941Z</time></trkpt><trkpt lat="44.4573817" lon="10.7646105"><ele>550.0</ele><time>2026-04-18T15:12:29.941Z</time></trkpt><trkpt lat="44.4574357" lon="10.7645294"><ele>550.0</ele><time>2026-04-18T15:12:30.941Z</time></trkpt><trkpt lat="44.4574925" lon="10.7644618"><ele>550.0</ele><time>2026-04-18T15:12:31.942Z</time></trkpt><trkpt lat="44.4575581" lon="10.7644191"><ele>550.0</ele><time>2026-04-18T15:12:32.942Z</time></trkpt><trkpt lat="44.4576301" lon="10.7644048"><ele>550.0</ele><time>2026-04-18T15:12:33.941Z</time></trkpt><trkpt lat="44.4577184" lon="10.7643972"><ele>550.0</ele><time>2026-04-18T15:12:34.941Z</time></trkpt><trkpt lat="44.457817" lon="10.7643813"><ele>550.0</ele><time>2026-04-18T15:12:35.942Z</time></trkpt><trkpt lat="44.4579263" lon="10.7643663"><ele>552.0</ele><time>2026-04-18T15:12:36.941Z</time></trkpt><trkpt lat="44.4580428" lon="10.7643549"><ele>554.0</ele><time>2026-04-18T15:12:37.942Z</time></trkpt><trkpt lat="44.4581587" lon="10.7643485"><ele>556.0</ele><time>2026-04-18T15:12:38.941Z</time></trkpt><trkpt lat="44.458253" lon="10.7643402"><ele>558.0</ele><time>2026-04-18T15:12:39.942Z</time></trkpt><trkpt lat="44.4583371" lon="10.7643215"><ele>560.0</ele><time>2026-04-18T15:12:40.941Z</time></trkpt><trkpt lat="44.4584249" lon="10.7642915"><ele>560.0</ele><time>2026-04-18T15:12:41.942Z</time></trkpt><trkpt lat="44.4585116" lon="10.7642364"><ele>560.0</ele><time>2026-04-18T15:12:42.941Z</time></trkpt><trkpt lat="44.458603" lon="10.7641702"><ele>560.0</ele><time>2026-04-18T15:12:43.942Z</time></trkpt><trkpt lat="44.458695" lon="10.7641056"><ele>560.0</ele><time>2026-04-18T15:12:44.941Z</time></trkpt><trkpt lat="44.4587902" lon="10.7640336"><ele>560.0</ele><time>2026-04-18T15:12:45.942Z</time></trkpt><trkpt lat="44.45887" lon="10.7639766"><ele>561.1666666666666</ele><time>2026-04-18T15:12:46.942Z</time></trkpt><trkpt lat="44.4589435" lon="10.763936"><ele>562.3333333333333</ele><time>2026-04-18T15:12:47.941Z</time></trkpt><trkpt lat="44.4590072" lon="10.7639291"><ele>563.5</ele><time>2026-04-18T15:12:48.942Z</time></trkpt><trkpt lat="44.4590911" lon="10.7640142"><ele>564.6666666666666</ele><time>2026-04-18T15:12:50.941Z</time></trkpt><trkpt lat="44.4591319" lon="10.7640834"><ele>565.8333333333334</ele><time>2026-04-18T15:12:51.941Z</time></trkpt><trkpt lat="44.4591773" lon="10.76417"><ele>567.0</ele><time>2026-04-18T15:12:52.942Z</time></trkpt><trkpt lat="44.4592269" lon="10.7642685"><ele>568.0</ele><time>2026-04-18T15:12:53.941Z</time></trkpt><trkpt lat="44.4592821" lon="10.7643681"><ele>569.0</ele><time>2026-04-18T15:12:54.942Z</time></trkpt><trkpt lat="44.4593378" lon="10.7644521"><ele>570.0</ele><time>2026-04-18T15:12:55.941Z</time></trkpt><trkpt lat="44.4593954" lon="10.7645053"><ele>571.0</ele><time>2026-04-18T15:12:56.941Z</time></trkpt><trkpt lat="44.459466" lon="10.7645436"><ele>572.0</ele><time>2026-04-18T15:12:57.942Z</time></trkpt><trkpt lat="44.4595481" lon="10.7645662"><ele>573.0</ele><time>2026-04-18T15:12:58.941Z</time></trkpt><trkpt lat="44.4596279" lon="10.7645941"><ele>573.0</ele><time>2026-04-18T15:12:59.942Z</time></trkpt><trkpt lat="44.4597011" lon="10.7646427"><ele>573.0</ele><time>2026-04-18T15:13:00.941Z</time></trkpt><trkpt lat="44.4597673" lon="10.7647041"><ele>573.0</ele><time>2026-04-18T15:13:01.942Z</time></trkpt><trkpt lat="44.4598123" lon="10.7647732"><ele>573.0</ele><time>2026-04-18T15:13:02.941Z</time></trkpt><trkpt lat="44.4598307" lon="10.7649303"><ele>573.0</ele><time>2026-04-18T15:13:04.941Z</time></trkpt><trkpt lat="44.4598301" lon="10.7650296"><ele>573.0</ele><time>2026-04-18T15:13:05.941Z</time></trkpt><trkpt lat="44.4598358" lon="10.7651317"><ele>574.3333333333334</ele><time>2026-04-18T15:13:06.941Z</time></trkpt><trkpt lat="44.4598409" lon="10.7652411"><ele>575.6666666666666</ele><time>2026-04-18T15:13:07.941Z</time></trkpt><trkpt lat="44.4598426" lon="10.7653449"><ele>577.0</ele><time>2026-04-18T15:13:08.941Z</time></trkpt><trkpt lat="44.4598526" lon="10.7654353"><ele>578.3333333333333</ele><time>2026-04-18T15:13:09.941Z</time></trkpt><trkpt lat="44.4599285" lon="10.7655687"><ele>579.6666666666666</ele><time>2026-04-18T15:13:11.942Z</time></trkpt><trkpt lat="44.4599757" lon="10.7656517"><ele>581.0</ele><time>2026-04-18T15:13:12.941Z</time></trkpt><trkpt lat="44.4600297" lon="10.7657022"><ele>581.0</ele><time>2026-04-18T15:13:13.942Z</time></trkpt><trkpt lat="44.4600922" lon="10.7657446"><ele>581.0</ele><time>2026-04-18T15:13:14.941Z</time></trkpt><trkpt lat="44.4601738" lon="10.7657363"><ele>581.0</ele><time>2026-04-18T15:13:15.941Z</time></trkpt><trkpt lat="44.4602472" lon="10.7657368"><ele>581.0</ele><time>2026-04-18T15:13:16.941Z</time></trkpt><trkpt lat="44.4603197" lon="10.7657487"><ele>581.0</ele><time>2026-04-18T15:13:17.942Z</time></trkpt><trkpt lat="44.4604328" lon="10.7658169"><ele>581.0</ele><time>2026-04-18T15:13:19.941Z</time></trkpt><trkpt lat="44.4604943" lon="10.7658695"><ele>580.6666666666666</ele><time>2026-04-18T15:13:20.941Z</time></trkpt><trkpt lat="44.4605504" lon="10.7659254"><ele>580.3333333333333</ele><time>2026-04-18T15:13:21.942Z</time></trkpt><trkpt lat="44.4606496" lon="10.7659822"><ele>580.0</ele><time>2026-04-18T15:13:23.941Z</time></trkpt><trkpt lat="44.4607428" lon="10.7659148"><ele>579.6666666666666</ele><time>2026-04-18T15:13:25.942Z</time></trkpt><trkpt lat="44.4607959" lon="10.7658476"><ele>579.3333333333334</ele><time>2026-04-18T15:13:26.942Z</time></trkpt><trkpt lat="44.4608506" lon="10.7657705"><ele>579.0</ele><time>2026-04-18T15:13:27.942Z</time></trkpt><trkpt lat="44.4609028" lon="10.7656919"><ele>578.9999999999999</ele><time>2026-04-18T15:13:28.941Z</time></trkpt><trkpt lat="44.4609491" lon="10.7656066"><ele>579.0</ele><time>2026-04-18T15:13:29.941Z</time></trkpt><trkpt lat="44.4609939" lon="10.7655177"><ele>579.0</ele><time>2026-04-18T15:13:30.942Z</time></trkpt><trkpt lat="44.4610336" lon="10.7654331"><ele>579.0</ele><time>2026-04-18T15:13:31.941Z</time></trkpt><trkpt lat="44.4610794" lon="10.7653526"><ele>579.0</ele><time>2026-04-18T15:13:32.941Z</time></trkpt><trkpt lat="44.4611339" lon="10.7653015"><ele>578.9999999999999</ele><time>2026-04-18T15:13:33.941Z</time></trkpt><trkpt lat="44.4612112" lon="10.7653146"><ele>579.0</ele><time>2026-04-18T15:13:34.941Z</time></trkpt><trkpt lat="44.4612737" lon="10.7653365"><ele>576.3333333333334</ele><time>2026-04-18T15:13:35.942Z</time></trkpt><trkpt lat="44.461333" lon="10.7653793"><ele>573.6666666666666</ele><time>2026-04-18T15:13:36.941Z</time></trkpt><trkpt lat="44.4613921" lon="10.7654391"><ele>571.0</ele><time>2026-04-18T15:13:37.941Z</time></trkpt><trkpt lat="44.4614532" lon="10.7654956"><ele>568.3333333333333</ele><time>2026-04-18T15:13:38.942Z</time></trkpt><trkpt lat="44.4615162" lon="10.7655748"><ele>565.6666666666666</ele><time>2026-04-18T15:13:39.941Z</time></trkpt><trkpt lat="44.4615727" lon="10.7656525"><ele>563.0</ele><time>2026-04-18T15:13:40.941Z</time></trkpt><trkpt lat="44.4616551" lon="10.7657758"><ele>563.0</ele><time>2026-04-18T15:13:42.941Z</time></trkpt><trkpt lat="44.4617293" lon="10.7658663"><ele>563.0</ele><time>2026-04-18T15:13:44.941Z</time></trkpt><trkpt lat="44.4618073" lon="10.7659001"><ele>563.0</ele><time>2026-04-18T15:13:46.941Z</time></trkpt><trkpt lat="44.4618693" lon="10.765879"><ele>563.0</ele><time>2026-04-18T15:13:48.941Z</time></trkpt><trkpt lat="44.4619312" lon="10.7658108"><ele>563.0</ele><time>2026-04-18T15:13:51.942Z</time></trkpt><trkpt lat="44.4619824" lon="10.7657276"><ele>563.0</ele><time>2026-04-18T15:13:53.942Z</time></trkpt><trkpt lat="44.4620336" lon="10.7656645"><ele>563.0</ele><time>2026-04-18T15:13:55.941Z</time></trkpt><trkpt lat="44.4620857" lon="10.7655981"><ele>563.0</ele><time>2026-04-18T15:13:57.941Z</time></trkpt><trkpt lat="44.4621476" lon="10.7655213"><ele>563.0</ele><time>2026-04-18T15:13:59.941Z</time></trkpt><trkpt lat="44.4622077" lon="10.7654406"><ele>563.0</ele><time>2026-04-18T15:14:01.941Z</time></trkpt><trkpt lat="44.4622713" lon="10.7653679"><ele>563.0</ele><time>2026-04-18T15:14:03.941Z</time></trkpt><trkpt lat="44.4623312" lon="10.7652845"><ele>563.0</ele><time>2026-04-18T15:14:05.942Z</time></trkpt><trkpt lat="44.4624212" lon="10.7651786"><ele>559.8333333333333</ele><time>2026-04-18T15:14:07.942Z</time></trkpt><trkpt lat="44.4624703" lon="10.7651165"><ele>556.6666666666666</ele><time>2026-04-18T15:14:08.941Z</time></trkpt><trkpt lat="44.4625586" lon="10.7650084"><ele>553.5</ele><time>2026-04-18T15:14:10.941Z</time></trkpt><trkpt lat="44.4626196" lon="10.7649083"><ele>550.3333333333334</ele><time>2026-04-18T15:14:12.942Z</time></trkpt><trkpt lat="44.4626708" lon="10.7648297"><ele>547.1666666666667</ele><time>2026-04-18T15:14:14.942Z</time></trkpt><trkpt lat="44.4627236" lon="10.7647681"><ele>544.0</ele><time>2026-04-18T15:14:17.942Z</time></trkpt><trkpt lat="44.462748" lon="10.7648811"><ele>544.0</ele><time>2026-04-18T15:14:21.942Z</time></trkpt><trkpt lat="44.462724" lon="10.7650932"><ele>544.0</ele><time>2026-04-18T15:14:23.941Z</time></trkpt><trkpt lat="44.462698" lon="10.7652252"><ele>544.0</ele><time>2026-04-18T15:14:24.942Z</time></trkpt><trkpt lat="44.4626628" lon="10.765382"><ele>544.0</ele><time>2026-04-18T15:14:25.941Z</time></trkpt><trkpt lat="44.4626302" lon="10.7655434"><ele>543.8</ele><time>2026-04-18T15:14:26.941Z</time></trkpt><trkpt lat="44.4626216" lon="10.7656911"><ele>543.5999999999999</ele><time>2026-04-18T15:14:27.941Z</time></trkpt><trkpt lat="44.4626211" lon="10.7658289"><ele>543.4</ele><time>2026-04-18T15:14:28.941Z</time></trkpt><trkpt lat="44.4626318" lon="10.7659632"><ele>543.1999999999999</ele><time>2026-04-18T15:14:29.942Z</time></trkpt><trkpt lat="44.4626498" lon="10.7660917"><ele>543.0</ele><time>2026-04-18T15:14:30.941Z</time></trkpt><trkpt lat="44.4626714" lon="10.7662277"><ele>543.0</ele><time>2026-04-18T15:14:31.941Z</time></trkpt><trkpt lat="44.4626858" lon="10.766368"><ele>543.0</ele><time>2026-04-18T15:14:32.941Z</time></trkpt><trkpt lat="44.4626975" lon="10.7665158"><ele>543.0</ele><time>2026-04-18T15:14:33.941Z</time></trkpt><trkpt lat="44.4627207" lon="10.7666623"><ele>543.0</ele><time>2026-04-18T15:14:34.941Z</time></trkpt><trkpt lat="44.4627534" lon="10.7667969"><ele>543.0</ele><time>2026-04-18T15:14:35.942Z</time></trkpt><trkpt lat="44.4627851" lon="10.7669221"><ele>543.3333333333334</ele><time>2026-04-18T15:14:36.941Z</time></trkpt><trkpt lat="44.4628032" lon="10.7670214"><ele>543.6666666666666</ele><time>2026-04-18T15:14:37.941Z</time></trkpt><trkpt lat="44.4628411" lon="10.7671525"><ele>544.0</ele><time>2026-04-18T15:14:39.942Z</time></trkpt><trkpt lat="44.4628959" lon="10.7672194"><ele>544.3333333333333</ele><time>2026-04-18T15:14:42.941Z</time></trkpt><trkpt lat="44.4629299" lon="10.7671"><ele>544.6666666666666</ele><time>2026-04-18T15:14:45.942Z</time></trkpt><trkpt lat="44.4629087" lon="10.7670089"><ele>545.0</ele><time>2026-04-18T15:14:46.942Z</time></trkpt><trkpt lat="44.4628797" lon="10.7668973"><ele>544.6666666666666</ele><time>2026-04-18T15:14:47.942Z</time></trkpt><trkpt lat="44.4628491" lon="10.7667724"><ele>544.3333333333333</ele><time>2026-04-18T15:14:48.942Z</time></trkpt><trkpt lat="44.4628231" lon="10.7666489"><ele>544.0</ele><time>2026-04-18T15:14:49.941Z</time></trkpt><trkpt lat="44.462817" lon="10.7665295"><ele>543.6666666666666</ele><time>2026-04-18T15:14:50.942Z</time></trkpt><trkpt lat="44.4628502" lon="10.7664312"><ele>543.3333333333334</ele><time>2026-04-18T15:14:51.941Z</time></trkpt><trkpt lat="44.462913" lon="10.7663794"><ele>543.0</ele><time>2026-04-18T15:14:52.941Z</time></trkpt><trkpt lat="44.462984" lon="10.7663993"><ele>540.1999999999999</ele><time>2026-04-18T15:14:53.942Z</time></trkpt><trkpt lat="44.4630319" lon="10.7664691"><ele>537.4</ele><time>2026-04-18T15:14:54.941Z</time></trkpt><trkpt lat="44.4630655" lon="10.7665792"><ele>534.5999999999999</ele><time>2026-04-18T15:14:55.941Z</time></trkpt><trkpt lat="44.4630976" lon="10.7667143"><ele>531.8</ele><time>2026-04-18T15:14:56.941Z</time></trkpt><trkpt lat="44.4631355" lon="10.7668708"><ele>529.0</ele><time>2026-04-18T15:14:57.942Z</time></trkpt><trkpt lat="44.4631865" lon="10.7670144"><ele>529.0</ele><time>2026-04-18T15:14:58.942Z</time></trkpt><trkpt lat="44.4632606" lon="10.7671556"><ele>529.0</ele><time>2026-04-18T15:14:59.941Z</time></trkpt><trkpt lat="44.4633661" lon="10.7672782"><ele>529.0</ele><time>2026-04-18T15:15:00.941Z</time></trkpt><trkpt lat="44.4634915" lon="10.7673848"><ele>529.0</ele><time>2026-04-18T15:15:01.942Z</time></trkpt><trkpt lat="44.4636283" lon="10.767474"><ele>529.0</ele><time>2026-04-18T15:15:02.942Z</time></trkpt><trkpt lat="44.4637627" lon="10.7675508"><ele>529.0</ele><time>2026-04-18T15:15:03.941Z</time></trkpt><trkpt lat="44.4638903" lon="10.7676395"><ele>529.0</ele><time>2026-04-18T15:15:04.941Z</time></trkpt><trkpt lat="44.4640007" lon="10.7677467"><ele>529.0</ele><time>2026-04-18T15:15:05.942Z</time></trkpt><trkpt lat="44.4641034" lon="10.767851"><ele>528.0</ele><time>2026-04-18T15:15:06.941Z</time></trkpt><trkpt lat="44.4642174" lon="10.7679245"><ele>527.0</ele><time>2026-04-18T15:15:07.941Z</time></trkpt><trkpt lat="44.4643385" lon="10.7679614"><ele>526.0</ele><time>2026-04-18T15:15:08.941Z</time></trkpt><trkpt lat="44.4644725" lon="10.7679658"><ele>525.0</ele><time>2026-04-18T15:15:09.941Z</time></trkpt><trkpt lat="44.4646093" lon="10.7679779"><ele>522.25</ele><time>2026-04-18T15:15:10.942Z</time></trkpt><trkpt lat="44.4647415" lon="10.7680179"><ele>519.5</ele><time>2026-04-18T15:15:11.941Z</time></trkpt><trkpt lat="44.4648642" lon="10.7680874"><ele>516.75</ele><time>2026-04-18T15:15:12.942Z</time></trkpt><trkpt lat="44.4649727" lon="10.768169"><ele>514.0</ele><time>2026-04-18T15:15:13.942Z</time></trkpt><trkpt lat="44.4650734" lon="10.7682479"><ele>514.0</ele><time>2026-04-18T15:15:14.941Z</time></trkpt><trkpt lat="44.4651677" lon="10.7683233"><ele>514.0</ele><time>2026-04-18T15:15:15.941Z</time></trkpt><trkpt lat="44.465254" lon="10.7683945"><ele>514.0</ele><time>2026-04-18T15:15:16.942Z</time></trkpt><trkpt lat="44.4653299" lon="10.7684601"><ele>514.0</ele><time>2026-04-18T15:15:17.941Z</time></trkpt><trkpt lat="44.4653965" lon="10.768526"><ele>514.0</ele><time>2026-04-18T15:15:18.942Z</time></trkpt><trkpt lat="44.465453" lon="10.7686071"><ele>510.75</ele><time>2026-04-18T15:15:19.942Z</time></trkpt><trkpt lat="44.4655061" lon="10.7687083"><ele>507.5</ele><time>2026-04-18T15:15:20.941Z</time></trkpt><trkpt lat="44.4655682" lon="10.7688369"><ele>504.25</ele><time>2026-04-18T15:15:21.942Z</time></trkpt><trkpt lat="44.4656261" lon="10.7689949"><ele>501.0</ele><time>2026-04-18T15:15:22.941Z</time></trkpt><trkpt lat="44.4656797" lon="10.7691713"><ele>501.0</ele><time>2026-04-18T15:15:23.942Z</time></trkpt><trkpt lat="44.4657496" lon="10.7693361"><ele>501.0</ele><time>2026-04-18T15:15:24.942Z</time></trkpt><trkpt lat="44.4658355" lon="10.7694892"><ele>501.0</ele><time>2026-04-18T15:15:25.942Z</time></trkpt><trkpt lat="44.4659322" lon="10.76963"><ele>501.0</ele><time>2026-04-18T15:15:26.941Z</time></trkpt><trkpt lat="44.4660217" lon="10.7697497"><ele>499.8</ele><time>2026-04-18T15:15:27.942Z</time></trkpt><trkpt lat="44.4661046" lon="10.7698553"><ele>498.6</ele><time>2026-04-18T15:15:28.941Z</time></trkpt><trkpt lat="44.4661799" lon="10.7699502"><ele>497.4</ele><time>2026-04-18T15:15:29.942Z</time></trkpt><trkpt lat="44.4662547" lon="10.7700187"><ele>496.2</ele><time>2026-04-18T15:15:30.942Z</time></trkpt><trkpt lat="44.4663314" lon="10.7700504"><ele>495.0</ele><time>2026-04-18T15:15:31.942Z</time></trkpt><trkpt lat="44.4664133" lon="10.7700366"><ele>494.2</ele><time>2026-04-18T15:15:32.942Z</time></trkpt><trkpt lat="44.4664998" lon="10.7699796"><ele>493.4</ele><time>2026-04-18T15:15:33.942Z</time></trkpt><trkpt lat="44.4665845" lon="10.7698917"><ele>492.6</ele><time>2026-04-18T15:15:34.941Z</time></trkpt><trkpt lat="44.4666581" lon="10.769793"><ele>491.8</ele><time>2026-04-18T15:15:35.942Z</time></trkpt><trkpt lat="44.4667131" lon="10.7696952"><ele>491.0</ele><time>2026-04-18T15:15:36.941Z</time></trkpt><trkpt lat="44.4667335" lon="10.7695837"><ele>491.0</ele><time>2026-04-18T15:15:37.942Z</time></trkpt><trkpt lat="44.4667083" lon="10.7694733"><ele>491.0</ele><time>2026-04-18T15:15:38.941Z</time></trkpt><trkpt lat="44.46665" lon="10.7693652"><ele>491.0</ele><time>2026-04-18T15:15:39.941Z</time></trkpt><trkpt lat="44.4665679" lon="10.7692493"><ele>491.0</ele><time>2026-04-18T15:15:40.942Z</time></trkpt><trkpt lat="44.4664671" lon="10.769119"><ele>491.0</ele><time>2026-04-18T15:15:41.941Z</time></trkpt><trkpt lat="44.4663694" lon="10.7689694"><ele>490.75</ele><time>2026-04-18T15:15:42.942Z</time></trkpt><trkpt lat="44.4662816" lon="10.7688226"><ele>490.5</ele><time>2026-04-18T15:15:43.941Z</time></trkpt><trkpt lat="44.4662105" lon="10.7686776"><ele>490.25</ele><time>2026-04-18T15:15:44.942Z</time></trkpt><trkpt lat="44.4661615" lon="10.7685294"><ele>490.0</ele><time>2026-04-18T15:15:45.941Z</time></trkpt><trkpt lat="44.4661399" lon="10.7683725"><ele>491.5</ele><time>2026-04-18T15:15:46.942Z</time></trkpt><trkpt lat="44.4661462" lon="10.7681975"><ele>493.0</ele><time>2026-04-18T15:15:47.941Z</time></trkpt><trkpt lat="44.4661676" lon="10.7680135"><ele>494.5</ele><time>2026-04-18T15:15:48.941Z</time></trkpt><trkpt lat="44.4661886" lon="10.7678441"><ele>496.0</ele><time>2026-04-18T15:15:49.942Z</time></trkpt><trkpt lat="44.4662234" lon="10.7676997"><ele>493.8</ele><time>2026-04-18T15:15:50.941Z</time></trkpt><trkpt lat="44.4662889" lon="10.7675975"><ele>491.6</ele><time>2026-04-18T15:15:51.941Z</time></trkpt><trkpt lat="44.4663728" lon="10.7675515"><ele>489.4</ele><time>2026-04-18T15:15:52.941Z</time></trkpt><trkpt lat="44.4664573" lon="10.76758"><ele>487.2</ele><time>2026-04-18T15:15:53.942Z</time></trkpt><trkpt lat="44.4665334" lon="10.7676639"><ele>485.0</ele><time>2026-04-18T15:15:54.941Z</time></trkpt><trkpt lat="44.4666021" lon="10.7678065"><ele>485.0</ele><time>2026-04-18T15:15:55.942Z</time></trkpt><trkpt lat="44.4666666" lon="10.7679791"><ele>485.0</ele><time>2026-04-18T15:15:56.941Z</time></trkpt><trkpt lat="44.4667406" lon="10.7681565"><ele>485.0</ele><time>2026-04-18T15:15:57.941Z</time></trkpt><trkpt lat="44.4668398" lon="10.7683203"><ele>485.0</ele><time>2026-04-18T15:15:58.941Z</time></trkpt><trkpt lat="44.4669365" lon="10.768449"><ele>486.0</ele><time>2026-04-18T15:15:59.941Z</time></trkpt><trkpt lat="44.4670335" lon="10.7685595"><ele>487.0</ele><time>2026-04-18T15:16:00.941Z</time></trkpt><trkpt lat="44.467115" lon="10.7686075"><ele>488.0</ele><time>2026-04-18T15:16:01.941Z</time></trkpt><trkpt lat="44.4672045" lon="10.7686174"><ele>489.0</ele><time>2026-04-18T15:16:02.941Z</time></trkpt><trkpt lat="44.4672855" lon="10.7685582"><ele>490.0</ele><time>2026-04-18T15:16:03.942Z</time></trkpt><trkpt lat="44.4673393" lon="10.7684455"><ele>485.25</ele><time>2026-04-18T15:16:04.941Z</time></trkpt><trkpt lat="44.4673488" lon="10.7682974"><ele>480.5</ele><time>2026-04-18T15:16:05.941Z</time></trkpt><trkpt lat="44.4673221" lon="10.7681391"><ele>475.75</ele><time>2026-04-18T15:16:06.942Z</time></trkpt><trkpt lat="44.467279" lon="10.7679655"><ele>471.0</ele><time>2026-04-18T15:16:07.942Z</time></trkpt><trkpt lat="44.4672256" lon="10.7677813"><ele>469.0</ele><time>2026-04-18T15:16:08.941Z</time></trkpt><trkpt lat="44.4671712" lon="10.7675858"><ele>467.0</ele><time>2026-04-18T15:16:09.941Z</time></trkpt><trkpt lat="44.4671156" lon="10.7673744"><ele>465.0</ele><time>2026-04-18T15:16:10.941Z</time></trkpt><trkpt lat="44.4670849" lon="10.7671695"><ele>466.75</ele><time>2026-04-18T15:16:11.941Z</time></trkpt><trkpt lat="44.4670761" lon="10.7669762"><ele>468.5</ele><time>2026-04-18T15:16:12.941Z</time></trkpt><trkpt lat="44.4670792" lon="10.766806"><ele>470.25</ele><time>2026-04-18T15:16:13.942Z</time></trkpt><trkpt lat="44.4670691" lon="10.7666402"><ele>472.0</ele><time>2026-04-18T15:16:14.941Z</time></trkpt><trkpt lat="44.4670305" lon="10.7664706"><ele>472.0</ele><time>2026-04-18T15:16:15.941Z</time></trkpt><trkpt lat="44.4669677" lon="10.7663128"><ele>472.0</ele><time>2026-04-18T15:16:16.941Z</time></trkpt><trkpt lat="44.4668902" lon="10.7661898"><ele>472.0</ele><time>2026-04-18T15:16:17.942Z</time></trkpt><trkpt lat="44.4667969" lon="10.7661062"><ele>472.0</ele><time>2026-04-18T15:16:18.942Z</time></trkpt><trkpt lat="44.4666891" lon="10.7660629"><ele>472.0</ele><time>2026-04-18T15:16:19.941Z</time></trkpt><trkpt lat="44.4665654" lon="10.7660592"><ele>472.0</ele><time>2026-04-18T15:16:20.941Z</time></trkpt><trkpt lat="44.4664317" lon="10.7660861"><ele>472.0</ele><time>2026-04-18T15:16:21.941Z</time></trkpt><trkpt lat="44.4662924" lon="10.7661194"><ele>472.0</ele><time>2026-04-18T15:16:22.942Z</time></trkpt><trkpt lat="44.4661664" lon="10.7661394"><ele>471.8</ele><time>2026-04-18T15:16:23.942Z</time></trkpt><trkpt lat="44.4660488" lon="10.7661532"><ele>471.6</ele><time>2026-04-18T15:16:24.941Z</time></trkpt><trkpt lat="44.4659405" lon="10.7661461"><ele>471.40000000000003</ele><time>2026-04-18T15:16:25.942Z</time></trkpt><trkpt lat="44.4658411" lon="10.7661071"><ele>471.20000000000005</ele><time>2026-04-18T15:16:26.942Z</time></trkpt><trkpt lat="44.4657839" lon="10.766"><ele>471.0</ele><time>2026-04-18T15:16:27.942Z</time></trkpt><trkpt lat="44.4657576" lon="10.7658875"><ele>471.0</ele><time>2026-04-18T15:16:28.942Z</time></trkpt><trkpt lat="44.4657753" lon="10.7657622"><ele>471.0</ele><time>2026-04-18T15:16:29.942Z</time></trkpt><trkpt lat="44.4658335" lon="10.76564"><ele>471.0</ele><time>2026-04-18T15:16:30.941Z</time></trkpt><trkpt lat="44.4659236" lon="10.7655201"><ele>471.0</ele><time>2026-04-18T15:16:31.942Z</time></trkpt><trkpt lat="44.4660252" lon="10.7653924"><ele>471.0</ele><time>2026-04-18T15:16:32.942Z</time></trkpt><trkpt lat="44.4661373" lon="10.7652643"><ele>471.0</ele><time>2026-04-18T15:16:33.941Z</time></trkpt><trkpt lat="44.466245" lon="10.7651408"><ele>471.0</ele><time>2026-04-18T15:16:34.942Z</time></trkpt><trkpt lat="44.4663534" lon="10.765014"><ele>471.0</ele><time>2026-04-18T15:16:35.941Z</time></trkpt><trkpt lat="44.4664537" lon="10.764868"><ele>467.5</ele><time>2026-04-18T15:16:36.942Z</time></trkpt><trkpt lat="44.4665508" lon="10.7647103"><ele>464.0</ele><time>2026-04-18T15:16:37.941Z</time></trkpt><trkpt lat="44.4666405" lon="10.7645462"><ele>460.5</ele><time>2026-04-18T15:16:38.941Z</time></trkpt><trkpt lat="44.4667183" lon="10.7643773"><ele>457.0</ele><time>2026-04-18T15:16:39.942Z</time></trkpt><trkpt lat="44.4667811" lon="10.7642118"><ele>457.0</ele><time>2026-04-18T15:16:40.941Z</time></trkpt><trkpt lat="44.4668299" lon="10.7640573"><ele>457.00000000000006</ele><time>2026-04-18T15:16:41.941Z</time></trkpt><trkpt lat="44.4668846" lon="10.7639241"><ele>457.00000000000006</ele><time>2026-04-18T15:16:42.941Z</time></trkpt><trkpt lat="44.4669531" lon="10.7638283"><ele>457.0</ele><time>2026-04-18T15:16:43.941Z</time></trkpt><trkpt lat="44.4670435" lon="10.7637768"><ele>457.0</ele><time>2026-04-18T15:16:44.941Z</time></trkpt><trkpt lat="44.4671406" lon="10.763784"><ele>452.75</ele><time>2026-04-18T15:16:45.941Z</time></trkpt><trkpt lat="44.467251" lon="10.7638288"><ele>448.5</ele><time>2026-04-18T15:16:46.942Z</time></trkpt><trkpt lat="44.4673745" lon="10.7638908"><ele>444.25</ele><time>2026-04-18T15:16:47.941Z</time></trkpt><trkpt lat="44.4674978" lon="10.7639575"><ele>440.0</ele><time>2026-04-18T15:16:48.941Z</time></trkpt><trkpt lat="44.4676186" lon="10.76402"><ele>440.0</ele><time>2026-04-18T15:16:49.942Z</time></trkpt><trkpt lat="44.4677477" lon="10.7640639"><ele>440.0</ele><time>2026-04-18T15:16:50.941Z</time></trkpt><trkpt lat="44.467888" lon="10.7640805"><ele>440.0</ele><time>2026-04-18T15:16:51.941Z</time></trkpt><trkpt lat="44.468031" lon="10.7640743"><ele>440.0</ele><time>2026-04-18T15:16:52.942Z</time></trkpt><trkpt lat="44.468172" lon="10.7640645"><ele>438.5</ele><time>2026-04-18T15:16:53.941Z</time></trkpt><trkpt lat="44.4683125" lon="10.7640639"><ele>437.0</ele><time>2026-04-18T15:16:54.941Z</time></trkpt><trkpt lat="44.468451" lon="10.7640796"><ele>435.5</ele><time>2026-04-18T15:16:55.941Z</time></trkpt><trkpt lat="44.4685818" lon="10.7641095"><ele>434.0</ele><time>2026-04-18T15:16:56.941Z</time></trkpt><trkpt lat="44.4687226" lon="10.7641297"><ele>435.0</ele><time>2026-04-18T15:16:57.942Z</time></trkpt><trkpt lat="44.4688668" lon="10.7641365"><ele>436.0</ele><time>2026-04-18T15:16:58.941Z</time></trkpt><trkpt lat="44.4690103" lon="10.7641286"><ele>437.0</ele><time>2026-04-18T15:16:59.941Z</time></trkpt><trkpt lat="44.4691517" lon="10.7641138"><ele>438.0</ele><time>2026-04-18T15:17:00.941Z</time></trkpt><trkpt lat="44.4692923" lon="10.7641023"><ele>438.0</ele><time>2026-04-18T15:17:01.941Z</time></trkpt><trkpt lat="44.4694322" lon="10.7641073"><ele>438.0</ele><time>2026-04-18T15:17:02.942Z</time></trkpt><trkpt lat="44.4695694" lon="10.764137"><ele>438.0</ele><time>2026-04-18T15:17:03.942Z</time></trkpt><trkpt lat="44.4697068" lon="10.7641877"><ele>438.0</ele><time>2026-04-18T15:17:04.941Z</time></trkpt><trkpt lat="44.4698426" lon="10.7642559"><ele>439.0</ele><time>2026-04-18T15:17:05.942Z</time></trkpt><trkpt lat="44.469972" lon="10.7643458"><ele>440.0</ele><time>2026-04-18T15:17:06.942Z</time></trkpt><trkpt lat="44.4700969" lon="10.7644454"><ele>441.0</ele><time>2026-04-18T15:17:07.941Z</time></trkpt><trkpt lat="44.470226" lon="10.7645491"><ele>442.0</ele><time>2026-04-18T15:17:08.942Z</time></trkpt><trkpt lat="44.4703489" lon="10.764662"><ele>445.6666666666667</ele><time>2026-04-18T15:17:09.942Z</time></trkpt><trkpt lat="44.4704737" lon="10.7647767"><ele>449.33333333333337</ele><time>2026-04-18T15:17:10.941Z</time></trkpt><trkpt lat="44.4706017" lon="10.764893"><ele>453.0</ele><time>2026-04-18T15:17:11.941Z</time></trkpt><trkpt lat="44.4707288" lon="10.7650075"><ele>453.0</ele><time>2026-04-18T15:17:12.942Z</time></trkpt><trkpt lat="44.4708572" lon="10.7651245"><ele>453.0</ele><time>2026-04-18T15:17:13.941Z</time></trkpt><trkpt lat="44.4709911" lon="10.7652364"><ele>453.0</ele><time>2026-04-18T15:17:14.941Z</time></trkpt><trkpt lat="44.4711287" lon="10.7653429"><ele>455.33333333333337</ele><time>2026-04-18T15:17:15.941Z</time></trkpt><trkpt lat="44.4712655" lon="10.7654483"><ele>457.6666666666667</ele><time>2026-04-18T15:17:16.942Z</time></trkpt><trkpt lat="44.4714039" lon="10.7655598"><ele>460.0</ele><time>2026-04-18T15:17:17.941Z</time></trkpt><trkpt lat="44.4715336" lon="10.7656795"><ele>460.0</ele><time>2026-04-18T15:17:18.942Z</time></trkpt><trkpt lat="44.4716479" lon="10.7658067"><ele>460.0</ele><time>2026-04-18T15:17:19.941Z</time></trkpt><trkpt lat="44.4717458" lon="10.7659552"><ele>460.0</ele><time>2026-04-18T15:17:20.942Z</time></trkpt><trkpt lat="44.4718286" lon="10.766124"><ele>460.0</ele><time>2026-04-18T15:17:21.942Z</time></trkpt><trkpt lat="44.4718991" lon="10.7663128"><ele>459.5</ele><time>2026-04-18T15:17:22.941Z</time></trkpt><trkpt lat="44.4719735" lon="10.7665122"><ele>459.0</ele><time>2026-04-18T15:17:23.942Z</time></trkpt><trkpt lat="44.4720426" lon="10.7666966"><ele>458.5</ele><time>2026-04-18T15:17:24.941Z</time></trkpt><trkpt lat="44.4721052" lon="10.7668589"><ele>458.0</ele><time>2026-04-18T15:17:25.942Z</time></trkpt><trkpt lat="44.4721621" lon="10.767005"><ele>458.0</ele><time>2026-04-18T15:17:26.942Z</time></trkpt><trkpt lat="44.47223" lon="10.7671209"><ele>458.0</ele><time>2026-04-18T15:17:27.942Z</time></trkpt><trkpt lat="44.4723231" lon="10.7672009"><ele>458.0</ele><time>2026-04-18T15:17:28.942Z</time></trkpt><trkpt lat="44.4724362" lon="10.7672322"><ele>458.0</ele><time>2026-04-18T15:17:29.942Z</time></trkpt><trkpt lat="44.4725703" lon="10.7672392"><ele>458.0</ele><time>2026-04-18T15:17:30.941Z</time></trkpt><trkpt lat="44.4727075" lon="10.7672552"><ele>458.0</ele><time>2026-04-18T15:17:31.942Z</time></trkpt><trkpt lat="44.4728428" lon="10.7673105"><ele>458.0</ele><time>2026-04-18T15:17:32.942Z</time></trkpt><trkpt lat="44.472967" lon="10.767411"><ele>458.0</ele><time>2026-04-18T15:17:33.941Z</time></trkpt><trkpt lat="44.4730895" lon="10.7675442"><ele>461.0</ele><time>2026-04-18T15:17:34.941Z</time></trkpt><trkpt lat="44.473214" lon="10.7676921"><ele>464.0</ele><time>2026-04-18T15:17:35.941Z</time></trkpt><trkpt lat="44.4733472" lon="10.767853"><ele>467.0</ele><time>2026-04-18T15:17:36.941Z</time></trkpt><trkpt lat="44.4734872" lon="10.7680162"><ele>467.0</ele><time>2026-04-18T15:17:37.941Z</time></trkpt><trkpt lat="44.4736334" lon="10.7681723"><ele>467.0</ele><time>2026-04-18T15:17:38.942Z</time></trkpt><trkpt lat="44.4737791" lon="10.7683171"><ele>467.0</ele><time>2026-04-18T15:17:39.941Z</time></trkpt><trkpt lat="44.4739073" lon="10.7684456"><ele>469.75</ele><time>2026-04-18T15:17:40.942Z</time></trkpt><trkpt lat="44.4740265" lon="10.768567"><ele>472.5</ele><time>2026-04-18T15:17:41.941Z</time></trkpt><trkpt lat="44.4741309" lon="10.7686984"><ele>475.25</ele><time>2026-04-18T15:17:42.941Z</time></trkpt><trkpt lat="44.4742138" lon="10.768849"><ele>478.0</ele><time>2026-04-18T15:17:43.942Z</time></trkpt><trkpt lat="44.4742569" lon="10.7690262"><ele>478.0</ele><time>2026-04-18T15:17:44.942Z</time></trkpt><trkpt lat="44.4742921" lon="10.7692119"><ele>478.0</ele><time>2026-04-18T15:17:45.941Z</time></trkpt><trkpt lat="44.4742488" lon="10.7694271"><ele>478.0</ele><time>2026-04-18T15:17:46.941Z</time></trkpt><trkpt lat="44.4742117" lon="10.7696445"><ele>479.5</ele><time>2026-04-18T15:17:47.942Z</time></trkpt><trkpt lat="44.4741673" lon="10.7698685"><ele>481.0</ele><time>2026-04-18T15:17:48.941Z</time></trkpt><trkpt lat="44.4741279" lon="10.7700674"><ele>482.5</ele><time>2026-04-18T15:17:49.941Z</time></trkpt><trkpt lat="44.4740859" lon="10.7702483"><ele>484.0</ele><time>2026-04-18T15:17:50.942Z</time></trkpt><trkpt lat="44.4740482" lon="10.7704046"><ele>485.0</ele><time>2026-04-18T15:17:51.941Z</time></trkpt><trkpt lat="44.4740216" lon="10.7705516"><ele>486.0</ele><time>2026-04-18T15:17:52.941Z</time></trkpt><trkpt lat="44.4740302" lon="10.7707007"><ele>487.0</ele><time>2026-04-18T15:17:53.942Z</time></trkpt><trkpt lat="44.4740791" lon="10.7708436"><ele>488.0</ele><time>2026-04-18T15:17:54.942Z</time></trkpt><trkpt lat="44.4741453" lon="10.7709836"><ele>489.0</ele><time>2026-04-18T15:17:55.941Z</time></trkpt><trkpt lat="44.4742255" lon="10.771133"><ele>489.25</ele><time>2026-04-18T15:17:56.941Z</time></trkpt><trkpt lat="44.4743157" lon="10.7712898"><ele>489.5</ele><time>2026-04-18T15:17:57.941Z</time></trkpt><trkpt lat="44.4744146" lon="10.7714455"><ele>489.75</ele><time>2026-04-18T15:17:58.941Z</time></trkpt><trkpt lat="44.4745189" lon="10.7715993"><ele>490.0</ele><time>2026-04-18T15:17:59.942Z</time></trkpt><trkpt lat="44.4746275" lon="10.7717475"><ele>488.6666666666667</ele><time>2026-04-18T15:18:00.942Z</time></trkpt><trkpt lat="44.4747348" lon="10.771898"><ele>487.33333333333337</ele><time>2026-04-18T15:18:01.942Z</time></trkpt><trkpt lat="44.4748442" lon="10.7720451"><ele>486.0</ele><time>2026-04-18T15:18:02.941Z</time></trkpt><trkpt lat="44.4749548" lon="10.7721934"><ele>486.0</ele><time>2026-04-18T15:18:03.942Z</time></trkpt><trkpt lat="44.4750605" lon="10.7723421"><ele>486.0</ele><time>2026-04-18T15:18:04.941Z</time></trkpt><trkpt lat="44.4751512" lon="10.7724823"><ele>486.0</ele><time>2026-04-18T15:18:05.942Z</time></trkpt><trkpt lat="44.4752432" lon="10.7726093"><ele>486.0</ele><time>2026-04-18T15:18:06.941Z</time></trkpt><trkpt lat="44.4753325" lon="10.7727232"><ele>486.4</ele><time>2026-04-18T15:18:07.941Z</time></trkpt><trkpt lat="44.4754057" lon="10.7728411"><ele>486.8</ele><time>2026-04-18T15:18:08.941Z</time></trkpt><trkpt lat="44.475459" lon="10.7729812"><ele>487.19999999999993</ele><time>2026-04-18T15:18:09.942Z</time></trkpt><trkpt lat="44.4754754" lon="10.7731313"><ele>487.59999999999997</ele><time>2026-04-18T15:18:10.942Z</time></trkpt><trkpt lat="44.4754542" lon="10.7732848"><ele>488.0</ele><time>2026-04-18T15:18:11.942Z</time></trkpt><trkpt lat="44.4753978" lon="10.7734281"><ele>492.5</ele><time>2026-04-18T15:18:12.941Z</time></trkpt><trkpt lat="44.475311" lon="10.7735648"><ele>497.0</ele><time>2026-04-18T15:18:13.941Z</time></trkpt><trkpt lat="44.475204" lon="10.7737016"><ele>501.5</ele><time>2026-04-18T15:18:14.941Z</time></trkpt><trkpt lat="44.4750885" lon="10.7738344"><ele>506.0</ele><time>2026-04-18T15:18:15.941Z</time></trkpt><trkpt lat="44.4749868" lon="10.7739563"><ele>506.0</ele><time>2026-04-18T15:18:16.942Z</time></trkpt><trkpt lat="44.4748967" lon="10.7740642"><ele>506.0</ele><time>2026-04-18T15:18:17.942Z</time></trkpt><trkpt lat="44.4748198" lon="10.7741769"><ele>506.0</ele><time>2026-04-18T15:18:18.941Z</time></trkpt><trkpt lat="44.474768" lon="10.7742971"><ele>506.0</ele><time>2026-04-18T15:18:19.941Z</time></trkpt><trkpt lat="44.474756" lon="10.7744309"><ele>506.0</ele><time>2026-04-18T15:18:20.942Z</time></trkpt><trkpt lat="44.4747776" lon="10.77455"><ele>502.5</ele><time>2026-04-18T15:18:21.941Z</time></trkpt><trkpt lat="44.4748433" lon="10.7746375"><ele>499.0</ele><time>2026-04-18T15:18:22.942Z</time></trkpt><trkpt lat="44.4749431" lon="10.7746776"><ele>495.5</ele><time>2026-04-18T15:18:23.942Z</time></trkpt><trkpt lat="44.4750687" lon="10.7746862"><ele>492.0</ele><time>2026-04-18T15:18:24.941Z</time></trkpt><trkpt lat="44.475218" lon="10.7746791"><ele>492.0</ele><time>2026-04-18T15:18:25.941Z</time></trkpt><trkpt lat="44.4753828" lon="10.7746634"><ele>492.0</ele><time>2026-04-18T15:18:26.941Z</time></trkpt><trkpt lat="44.4755505" lon="10.7746514"><ele>492.0</ele><time>2026-04-18T15:18:27.942Z</time></trkpt><trkpt lat="44.4756968" lon="10.7746516"><ele>496.0</ele><time>2026-04-18T15:18:28.942Z</time></trkpt><trkpt lat="44.4758209" lon="10.7746716"><ele>500.0</ele><time>2026-04-18T15:18:29.942Z</time></trkpt><trkpt lat="44.4759267" lon="10.7747528"><ele>504.0</ele><time>2026-04-18T15:18:30.941Z</time></trkpt><trkpt lat="44.4760133" lon="10.7748858"><ele>508.0</ele><time>2026-04-18T15:18:31.941Z</time></trkpt><trkpt lat="44.4760906" lon="10.7750339"><ele>508.0</ele><time>2026-04-18T15:18:32.942Z</time></trkpt><trkpt lat="44.4761738" lon="10.7751591"><ele>507.99999999999994</ele><time>2026-04-18T15:18:33.941Z</time></trkpt><trkpt lat="44.4762556" lon="10.7752674"><ele>507.99999999999994</ele><time>2026-04-18T15:18:34.942Z</time></trkpt><trkpt lat="44.4763264" lon="10.7753587"><ele>508.0</ele><time>2026-04-18T15:18:35.942Z</time></trkpt><trkpt lat="44.476386" lon="10.7754371"><ele>508.0</ele><time>2026-04-18T15:18:36.942Z</time></trkpt><trkpt lat="44.4764327" lon="10.7754968"><ele>506.79999999999995</ele><time>2026-04-18T15:18:37.941Z</time></trkpt><trkpt lat="44.4765054" lon="10.7755954"><ele>505.59999999999997</ele><time>2026-04-18T15:18:39.941Z</time></trkpt><trkpt lat="44.4765537" lon="10.7756718"><ele>504.40000000000003</ele><time>2026-04-18T15:18:41.942Z</time></trkpt><trkpt lat="44.4765569" lon="10.7757909"><ele>503.20000000000005</ele><time>2026-04-18T15:18:46.942Z</time></trkpt><trkpt lat="44.4765001" lon="10.7759547"><ele>502.0</ele><time>2026-04-18T15:18:48.941Z</time></trkpt><trkpt lat="44.4764523" lon="10.7760548"><ele>501.1666666666667</ele><time>2026-04-18T15:18:49.942Z</time></trkpt><trkpt lat="44.4763973" lon="10.7761586"><ele>500.33333333333337</ele><time>2026-04-18T15:18:50.941Z</time></trkpt><trkpt lat="44.4763328" lon="10.7762584"><ele>499.5</ele><time>2026-04-18T15:18:51.941Z</time></trkpt><trkpt lat="44.4762754" lon="10.776352"><ele>498.66666666666663</ele><time>2026-04-18T15:18:52.942Z</time></trkpt><trkpt lat="44.4762208" lon="10.7764389"><ele>497.8333333333333</ele><time>2026-04-18T15:18:53.942Z</time></trkpt><trkpt lat="44.4761675" lon="10.7765212"><ele>497.0</ele><time>2026-04-18T15:18:54.941Z</time></trkpt><trkpt lat="44.4761144" lon="10.7766031"><ele>497.0</ele><time>2026-04-18T15:18:55.942Z</time></trkpt><trkpt lat="44.4760643" lon="10.7766776"><ele>497.0</ele><time>2026-04-18T15:18:56.941Z</time></trkpt><trkpt lat="44.4760108" lon="10.7767446"><ele>497.0</ele><time>2026-04-18T15:18:57.941Z</time></trkpt><trkpt lat="44.4759562" lon="10.7768129"><ele>497.0</ele><time>2026-04-18T15:18:58.941Z</time></trkpt><trkpt lat="44.4759023" lon="10.776877"><ele>497.0</ele><time>2026-04-18T15:18:59.942Z</time></trkpt><trkpt lat="44.4758519" lon="10.7769341"><ele>497.0</ele><time>2026-04-18T15:19:00.941Z</time></trkpt><trkpt lat="44.4757769" lon="10.777015"><ele>497.0</ele><time>2026-04-18T15:19:02.942Z</time></trkpt><trkpt lat="44.4757415" lon="10.7771094"><ele>496.49999999999994</ele><time>2026-04-18T15:19:04.941Z</time></trkpt><trkpt lat="44.475804" lon="10.7772523"><ele>496.0</ele><time>2026-04-18T15:19:06.942Z</time></trkpt><trkpt lat="44.4758433" lon="10.7773321"><ele>495.5</ele><time>2026-04-18T15:19:07.942Z</time></trkpt><trkpt lat="44.4758864" lon="10.7774464"><ele>495.0</ele><time>2026-04-18T15:19:08.942Z</time></trkpt><trkpt lat="44.4759261" lon="10.7775475"><ele>494.49999999999994</ele><time>2026-04-18T15:19:09.941Z</time></trkpt><trkpt lat="44.4759598" lon="10.777645"><ele>494.0</ele><time>2026-04-18T15:19:10.941Z</time></trkpt><trkpt lat="44.4759841" lon="10.77773"><ele>492.2</ele><time>2026-04-18T15:19:11.942Z</time></trkpt><trkpt lat="44.4759802" lon="10.7778992"><ele>490.4</ele><time>2026-04-18T15:19:13.941Z</time></trkpt><trkpt lat="44.4759458" lon="10.7779742"><ele>488.6</ele><time>2026-04-18T15:19:14.941Z</time></trkpt><trkpt lat="44.4758972" lon="10.7780347"><ele>486.8</ele><time>2026-04-18T15:19:15.941Z</time></trkpt><trkpt lat="44.4757932" lon="10.7781051"><ele>485.0</ele><time>2026-04-18T15:19:17.942Z</time></trkpt><trkpt lat="44.475745" lon="10.7782235"><ele>484.99999999999994</ele><time>2026-04-18T15:19:19.942Z</time></trkpt><trkpt lat="44.4757637" lon="10.7783101"><ele>485.0</ele><time>2026-04-18T15:19:21.942Z</time></trkpt><trkpt lat="44.4758389" lon="10.7783883"><ele>485.0</ele><time>2026-04-18T15:20:15.941Z</time></trkpt><trkpt lat="44.4759035" lon="10.7784062"><ele>485.0</ele><time>2026-04-18T15:20:16.941Z</time></trkpt><trkpt lat="44.4759831" lon="10.7784151"><ele>484.99999999999994</ele><time>2026-04-18T15:20:17.942Z</time></trkpt><trkpt lat="44.4760722" lon="10.778425"><ele>485.0</ele><time>2026-04-18T15:20:18.941Z</time></trkpt><trkpt lat="44.4761593" lon="10.7784375"><ele>484.99999999999994</ele><time>2026-04-18T15:20:19.942Z</time></trkpt><trkpt lat="44.4762283" lon="10.778447"><ele>485.0</ele><time>2026-04-18T15:20:20.941Z</time></trkpt><trkpt lat="44.4763114" lon="10.7785398"><ele>485.0</ele><time>2026-04-18T15:20:22.942Z</time></trkpt><trkpt lat="44.4762994" lon="10.7786862"><ele>485.0</ele><time>2026-04-18T15:20:24.942Z</time></trkpt><trkpt lat="44.4762588" lon="10.7787723"><ele>484.99999999999994</ele><time>2026-04-18T15:20:25.941Z</time></trkpt><trkpt lat="44.4762006" lon="10.7788631"><ele>485.0</ele><time>2026-04-18T15:20:26.941Z</time></trkpt><trkpt lat="44.4761325" lon="10.7789639"><ele>483.0</ele><time>2026-04-18T15:20:27.942Z</time></trkpt><trkpt lat="44.4760648" lon="10.7790717"><ele>481.0</ele><time>2026-04-18T15:20:28.941Z</time></trkpt><trkpt lat="44.4759923" lon="10.7791678"><ele>479.0</ele><time>2026-04-18T15:20:29.942Z</time></trkpt><trkpt lat="44.4759213" lon="10.7792535"><ele>477.0</ele><time>2026-04-18T15:20:30.942Z</time></trkpt><trkpt lat="44.4758484" lon="10.7793321"><ele>475.0</ele><time>2026-04-18T15:20:31.941Z</time></trkpt><trkpt lat="44.4757663" lon="10.7794092"><ele>474.0</ele><time>2026-04-18T15:20:32.942Z</time></trkpt><trkpt lat="44.4756764" lon="10.7794754"><ele>473.0</ele><time>2026-04-18T15:20:33.942Z</time></trkpt><trkpt lat="44.4755855" lon="10.7795375"><ele>472.0</ele><time>2026-04-18T15:20:34.941Z</time></trkpt><trkpt lat="44.4755037" lon="10.7796034"><ele>471.0</ele><time>2026-04-18T15:20:35.942Z</time></trkpt><trkpt lat="44.4754246" lon="10.7796789"><ele>470.0</ele><time>2026-04-18T15:20:36.941Z</time></trkpt><trkpt lat="44.4753536" lon="10.7797672"><ele>469.99999999999994</ele><time>2026-04-18T15:20:37.942Z</time></trkpt><trkpt lat="44.4752974" lon="10.7798637"><ele>470.0</ele><time>2026-04-18T15:20:38.941Z</time></trkpt><trkpt lat="44.4752635" lon="10.7799727"><ele>470.0</ele><time>2026-04-18T15:20:39.941Z</time></trkpt><trkpt lat="44.4752508" lon="10.7800914"><ele>470.0</ele><time>2026-04-18T15:20:40.941Z</time></trkpt><trkpt lat="44.4752551" lon="10.7802193"><ele>469.99999999999994</ele><time>2026-04-18T15:20:41.942Z</time></trkpt><trkpt lat="44.4752806" lon="10.7803527"><ele>470.0</ele><time>2026-04-18T15:20:42.941Z</time></trkpt><trkpt lat="44.4753171" lon="10.7804912"><ele>469.16666666666663</ele><time>2026-04-18T15:20:43.941Z</time></trkpt><trkpt lat="44.4753494" lon="10.7806216"><ele>468.3333333333333</ele><time>2026-04-18T15:20:44.942Z</time></trkpt><trkpt lat="44.475372" lon="10.7807432"><ele>467.5</ele><time>2026-04-18T15:20:45.941Z</time></trkpt><trkpt lat="44.4753777" lon="10.7808582"><ele>466.66666666666663</ele><time>2026-04-18T15:20:46.941Z</time></trkpt><trkpt lat="44.4753788" lon="10.7809741"><ele>465.8333333333333</ele><time>2026-04-18T15:20:47.942Z</time></trkpt><trkpt lat="44.4753718" lon="10.7810848"><ele>465.0</ele><time>2026-04-18T15:20:48.941Z</time></trkpt><trkpt lat="44.4753515" lon="10.7811993"><ele>463.2</ele><time>2026-04-18T15:20:49.942Z</time></trkpt><trkpt lat="44.47532" lon="10.7813171"><ele>461.4</ele><time>2026-04-18T15:20:50.942Z</time></trkpt><trkpt lat="44.4752833" lon="10.7814458"><ele>459.6</ele><time>2026-04-18T15:20:51.942Z</time></trkpt><trkpt lat="44.4752466" lon="10.7815838"><ele>457.8</ele><time>2026-04-18T15:20:52.942Z</time></trkpt><trkpt lat="44.475202" lon="10.7817136"><ele>456.0</ele><time>2026-04-18T15:20:53.942Z</time></trkpt><trkpt lat="44.4751627" lon="10.7818315"><ele>454.0</ele><time>2026-04-18T15:20:54.942Z</time></trkpt><trkpt lat="44.4751283" lon="10.781953"><ele>452.0</ele><time>2026-04-18T15:20:55.941Z</time></trkpt><trkpt lat="44.4751098" lon="10.7820672"><ele>450.0</ele><time>2026-04-18T15:20:56.941Z</time></trkpt><trkpt lat="44.4751108" lon="10.782187"><ele>448.0</ele><time>2026-04-18T15:20:57.941Z</time></trkpt><trkpt lat="44.4751262" lon="10.7823168"><ele>446.0</ele><time>2026-04-18T15:20:58.941Z</time></trkpt><trkpt lat="44.4751613" lon="10.7824441"><ele>446.0</ele><time>2026-04-18T15:20:59.941Z</time></trkpt><trkpt lat="44.4751926" lon="10.7825794"><ele>446.0</ele><time>2026-04-18T15:21:00.942Z</time></trkpt><trkpt lat="44.4752186" lon="10.7827067"><ele>446.0</ele><time>2026-04-18T15:21:01.942Z</time></trkpt><trkpt lat="44.4752395" lon="10.7828383"><ele>446.0</ele><time>2026-04-18T15:21:02.941Z</time></trkpt><trkpt lat="44.4752582" lon="10.7829664"><ele>446.0</ele><time>2026-04-18T15:21:03.942Z</time></trkpt><trkpt lat="44.4752821" lon="10.7830827"><ele>444.8333333333333</ele><time>2026-04-18T15:21:04.941Z</time></trkpt><trkpt lat="44.4753468" lon="10.7831918"><ele>443.66666666666663</ele><time>2026-04-18T15:21:05.941Z</time></trkpt><trkpt lat="44.4754059" lon="10.7832932"><ele>442.5</ele><time>2026-04-18T15:21:06.941Z</time></trkpt><trkpt lat="44.4754726" lon="10.7833685"><ele>441.33333333333337</ele><time>2026-04-18T15:21:07.941Z</time></trkpt><trkpt lat="44.4755278" lon="10.7834315"><ele>440.1666666666667</ele><time>2026-04-18T15:21:08.942Z</time></trkpt><trkpt lat="44.4755705" lon="10.7835191"><ele>439.0</ele><time>2026-04-18T15:21:09.941Z</time></trkpt><trkpt lat="44.4756128" lon="10.7836131"><ele>436.1666666666667</ele><time>2026-04-18T15:21:10.941Z</time></trkpt><trkpt lat="44.4756695" lon="10.7836882"><ele>433.33333333333337</ele><time>2026-04-18T15:21:11.942Z</time></trkpt><trkpt lat="44.4757253" lon="10.783757"><ele>430.5</ele><time>2026-04-18T15:21:12.941Z</time></trkpt><trkpt lat="44.4758223" lon="10.7838143"><ele>427.66666666666663</ele><time>2026-04-18T15:21:13.942Z</time></trkpt><trkpt lat="44.475904" lon="10.7838685"><ele>424.8333333333333</ele><time>2026-04-18T15:21:14.942Z</time></trkpt><trkpt lat="44.4759811" lon="10.7839124"><ele>422.0</ele><time>2026-04-18T15:21:15.942Z</time></trkpt><trkpt lat="44.4760663" lon="10.7839262"><ele>422.0</ele><time>2026-04-18T15:21:16.941Z</time></trkpt><trkpt lat="44.4761513" lon="10.7839131"><ele>422.0</ele><time>2026-04-18T15:21:17.942Z</time></trkpt><trkpt lat="44.4762367" lon="10.7838863"><ele>422.0</ele><time>2026-04-18T15:21:18.942Z</time></trkpt><trkpt lat="44.4763292" lon="10.7838841"><ele>422.0</ele><time>2026-04-18T15:21:19.941Z</time></trkpt><trkpt lat="44.4764286" lon="10.7839027"><ele>422.0</ele><time>2026-04-18T15:21:20.941Z</time></trkpt><trkpt lat="44.4765207" lon="10.7839278"><ele>420.42857142857144</ele><time>2026-04-18T15:21:21.941Z</time></trkpt><trkpt lat="44.4766007" lon="10.7839676"><ele>418.8571428571429</ele><time>2026-04-18T15:21:22.941Z</time></trkpt><trkpt lat="44.47666" lon="10.7840232"><ele>417.2857142857143</ele><time>2026-04-18T15:21:23.941Z</time></trkpt><trkpt lat="44.4766991" lon="10.7841105"><ele>415.7142857142857</ele><time>2026-04-18T15:21:24.941Z</time></trkpt><trkpt lat="44.4767315" lon="10.7842067"><ele>414.1428571428571</ele><time>2026-04-18T15:21:25.941Z</time></trkpt><trkpt lat="44.4767719" lon="10.7842804"><ele>412.57142857142856</ele><time>2026-04-18T15:21:26.942Z</time></trkpt><trkpt lat="44.4768321" lon="10.7843306"><ele>411.0</ele><time>2026-04-18T15:21:27.941Z</time></trkpt><trkpt lat="44.4769256" lon="10.7843416"><ele>408.6</ele><time>2026-04-18T15:21:28.941Z</time></trkpt><trkpt lat="44.4770121" lon="10.7843575"><ele>406.20000000000005</ele><time>2026-04-18T15:21:29.941Z</time></trkpt><trkpt lat="44.4771006" lon="10.7843543"><ele>403.79999999999995</ele><time>2026-04-18T15:21:30.941Z</time></trkpt><trkpt lat="44.4771894" lon="10.7843888"><ele>401.4</ele><time>2026-04-18T15:21:31.941Z</time></trkpt><trkpt lat="44.4772781" lon="10.7844491"><ele>399.0</ele><time>2026-04-18T15:21:32.941Z</time></trkpt><trkpt lat="44.4773773" lon="10.7845193"><ele>397.6</ele><time>2026-04-18T15:21:33.942Z</time></trkpt><trkpt lat="44.4774676" lon="10.7845833"><ele>396.2</ele><time>2026-04-18T15:21:34.942Z</time></trkpt><trkpt lat="44.4775627" lon="10.7846394"><ele>394.8</ele><time>2026-04-18T15:21:35.941Z</time></trkpt><trkpt lat="44.4776557" lon="10.7846763"><ele>393.40000000000003</ele><time>2026-04-18T15:21:36.941Z</time></trkpt><trkpt lat="44.4777466" lon="10.7847052"><ele>392.0</ele><time>2026-04-18T15:21:37.942Z</time></trkpt><trkpt lat="44.4778335" lon="10.784745"><ele>391.99999999999994</ele><time>2026-04-18T15:21:38.941Z</time></trkpt><trkpt lat="44.4779138" lon="10.7847865"><ele>392.0</ele><time>2026-04-18T15:21:39.941Z</time></trkpt><trkpt lat="44.4779854" lon="10.7848295"><ele>392.0</ele><time>2026-04-18T15:21:40.941Z</time></trkpt><trkpt lat="44.4780579" lon="10.7848823"><ele>392.0</ele><time>2026-04-18T15:21:41.942Z</time></trkpt><trkpt lat="44.4781166" lon="10.7849349"><ele>391.99999999999994</ele><time>2026-04-18T15:21:42.942Z</time></trkpt><trkpt lat="44.4781709" lon="10.785057"><ele>392.0</ele><time>2026-04-18T15:21:44.942Z</time></trkpt><trkpt lat="44.4781391" lon="10.7851567"><ele>389.6</ele><time>2026-04-18T15:21:46.941Z</time></trkpt><trkpt lat="44.4780406" lon="10.785184"><ele>387.20000000000005</ele><time>2026-04-18T15:21:48.942Z</time></trkpt><trkpt lat="44.4779672" lon="10.7851764"><ele>384.8</ele><time>2026-04-18T15:21:49.941Z</time></trkpt><trkpt lat="44.4778759" lon="10.7851895"><ele>382.4</ele><time>2026-04-18T15:21:50.941Z</time></trkpt><trkpt lat="44.4777797" lon="10.7852145"><ele>380.0</ele><time>2026-04-18T15:21:51.941Z</time></trkpt><trkpt lat="44.4776863" lon="10.7852473"><ele>378.6</ele><time>2026-04-18T15:21:52.941Z</time></trkpt><trkpt lat="44.4775995" lon="10.7852928"><ele>377.2</ele><time>2026-04-18T15:21:53.941Z</time></trkpt><trkpt lat="44.4775305" lon="10.7853469"><ele>375.79999999999995</ele><time>2026-04-18T15:21:54.941Z</time></trkpt><trkpt lat="44.4774798" lon="10.7854193"><ele>374.4</ele><time>2026-04-18T15:21:55.941Z</time></trkpt><trkpt lat="44.4774452" lon="10.7856047"><ele>373.0</ele><time>2026-04-18T15:21:57.941Z</time></trkpt><trkpt lat="44.4774556" lon="10.7857139"><ele>373.0</ele><time>2026-04-18T15:21:58.942Z</time></trkpt><trkpt lat="44.4774803" lon="10.785827"><ele>373.0</ele><time>2026-04-18T15:21:59.941Z</time></trkpt><trkpt lat="44.477521" lon="10.7859344"><ele>373.0</ele><time>2026-04-18T15:22:00.941Z</time></trkpt><trkpt lat="44.4775851" lon="10.7860358"><ele>373.0</ele><time>2026-04-18T15:22:01.942Z</time></trkpt><trkpt lat="44.4776643" lon="10.7861275"><ele>373.0</ele><time>2026-04-18T15:22:02.942Z</time></trkpt><trkpt lat="44.4777558" lon="10.786218"><ele>369.75</ele><time>2026-04-18T15:22:03.941Z</time></trkpt><trkpt lat="44.4778483" lon="10.7863335"><ele>366.5</ele><time>2026-04-18T15:22:04.941Z</time></trkpt><trkpt lat="44.4779448" lon="10.7864489"><ele>363.25</ele><time>2026-04-18T15:22:05.941Z</time></trkpt><trkpt lat="44.4780345" lon="10.786562"><ele>360.0</ele><time>2026-04-18T15:22:06.941Z</time></trkpt><trkpt lat="44.478119" lon="10.7866566"><ele>357.6</ele><time>2026-04-18T15:22:07.942Z</time></trkpt><trkpt lat="44.4781933" lon="10.7867569"><ele>355.2</ele><time>2026-04-18T15:22:08.942Z</time></trkpt><trkpt lat="44.4782656" lon="10.786867"><ele>352.79999999999995</ele><time>2026-04-18T15:22:09.942Z</time></trkpt><trkpt lat="44.4783276" lon="10.7869955"><ele>350.4</ele><time>2026-04-18T15:22:10.941Z</time></trkpt><trkpt lat="44.4783843" lon="10.7871358"><ele>348.0</ele><time>2026-04-18T15:22:11.941Z</time></trkpt><trkpt lat="44.4784387" lon="10.7872806"><ele>347.8333333333333</ele><time>2026-04-18T15:22:12.942Z</time></trkpt><trkpt lat="44.4784852" lon="10.7874107"><ele>347.6666666666667</ele><time>2026-04-18T15:22:13.942Z</time></trkpt><trkpt lat="44.4785162" lon="10.7875202"><ele>347.5</ele><time>2026-04-18T15:22:14.941Z</time></trkpt><trkpt lat="44.4785341" lon="10.7876189"><ele>347.33333333333337</ele><time>2026-04-18T15:22:15.942Z</time></trkpt><trkpt lat="44.4785235" lon="10.7877136"><ele>347.1666666666667</ele><time>2026-04-18T15:22:16.941Z</time></trkpt><trkpt lat="44.4784873" lon="10.7877975"><ele>347.0</ele><time>2026-04-18T15:22:17.942Z</time></trkpt><trkpt lat="44.478434" lon="10.7878494"><ele>344.6666666666667</ele><time>2026-04-18T15:22:18.942Z</time></trkpt><trkpt lat="44.4783609" lon="10.7878931"><ele>342.33333333333337</ele><time>2026-04-18T15:22:19.941Z</time></trkpt><trkpt lat="44.4782929" lon="10.7879244"><ele>340.0</ele><time>2026-04-18T15:22:20.941Z</time></trkpt><trkpt lat="44.478211" lon="10.7880336"><ele>337.6666666666667</ele><time>2026-04-18T15:22:22.942Z</time></trkpt><trkpt lat="44.4782602" lon="10.788165"><ele>335.3333333333333</ele><time>2026-04-18T15:22:24.941Z</time></trkpt><trkpt lat="44.4783234" lon="10.7882131"><ele>333.0</ele><time>2026-04-18T15:22:25.941Z</time></trkpt><trkpt lat="44.4784053" lon="10.7882534"><ele>333.0</ele><time>2026-04-18T15:22:26.941Z</time></trkpt><trkpt lat="44.4785128" lon="10.7882988"><ele>333.0</ele><time>2026-04-18T15:22:27.941Z</time></trkpt><trkpt lat="44.4786068" lon="10.7883393"><ele>333.0</ele><time>2026-04-18T15:22:28.942Z</time></trkpt><trkpt lat="44.4786926" lon="10.7884022"><ele>333.0</ele><time>2026-04-18T15:22:29.941Z</time></trkpt><trkpt lat="44.4787778" lon="10.7884645"><ele>333.0</ele><time>2026-04-18T15:22:30.941Z</time></trkpt><trkpt lat="44.478904" lon="10.7884867"><ele>332.59999999999997</ele><time>2026-04-18T15:22:32.942Z</time></trkpt><trkpt lat="44.4789671" lon="10.788466"><ele>332.2</ele><time>2026-04-18T15:22:33.941Z</time></trkpt><trkpt lat="44.4790373" lon="10.7883755"><ele>331.8</ele><time>2026-04-18T15:22:34.941Z</time></trkpt><trkpt lat="44.4791101" lon="10.7882455"><ele>331.4</ele><time>2026-04-18T15:22:35.941Z</time></trkpt><trkpt lat="44.4791759" lon="10.7881343"><ele>331.0</ele><time>2026-04-18T15:22:36.942Z</time></trkpt><trkpt lat="44.4792402" lon="10.7880236"><ele>331.0</ele><time>2026-04-18T15:22:37.941Z</time></trkpt><trkpt lat="44.4792855" lon="10.7879126"><ele>331.0</ele><time>2026-04-18T15:22:38.941Z</time></trkpt><trkpt lat="44.4793129" lon="10.7877779"><ele>331.0</ele><time>2026-04-18T15:22:39.942Z</time></trkpt><trkpt lat="44.4793271" lon="10.7876549"><ele>331.0</ele><time>2026-04-18T15:22:40.942Z</time></trkpt><trkpt lat="44.479334" lon="10.7875561"><ele>331.0</ele><time>2026-04-18T15:22:41.942Z</time></trkpt><trkpt lat="44.4793562" lon="10.7874655"><ele>331.0</ele><time>2026-04-18T15:22:42.942Z</time></trkpt><trkpt lat="44.479397" lon="10.7873883"><ele>331.4</ele><time>2026-04-18T15:22:43.942Z</time></trkpt><trkpt lat="44.4794577" lon="10.787348"><ele>331.8</ele><time>2026-04-18T15:22:44.941Z</time></trkpt><trkpt lat="44.4795455" lon="10.7873282"><ele>332.2</ele><time>2026-04-18T15:22:45.941Z</time></trkpt><trkpt lat="44.4796518" lon="10.7873109"><ele>332.59999999999997</ele><time>2026-04-18T15:22:46.942Z</time></trkpt><trkpt lat="44.4797658" lon="10.7872877"><ele>333.0</ele><time>2026-04-18T15:22:47.941Z</time></trkpt><trkpt lat="44.4798625" lon="10.7872775"><ele>330.6666666666667</ele><time>2026-04-18T15:22:48.942Z</time></trkpt><trkpt lat="44.4799503" lon="10.7872806"><ele>328.3333333333333</ele><time>2026-04-18T15:22:49.942Z</time></trkpt><trkpt lat="44.4800214" lon="10.7873221"><ele>326.0</ele><time>2026-04-18T15:22:50.941Z</time></trkpt><trkpt lat="44.480092" lon="10.7873788"><ele>323.66666666666663</ele><time>2026-04-18T15:22:51.941Z</time></trkpt><trkpt lat="44.4801381" lon="10.7874564"><ele>321.3333333333333</ele><time>2026-04-18T15:22:52.942Z</time></trkpt><trkpt lat="44.4801641" lon="10.7875429"><ele>319.0</ele><time>2026-04-18T15:22:53.942Z</time></trkpt><trkpt lat="44.4801645" lon="10.7876354"><ele>318.2</ele><time>2026-04-18T15:22:54.942Z</time></trkpt><trkpt lat="44.4801412" lon="10.7877496"><ele>317.4</ele><time>2026-04-18T15:22:55.941Z</time></trkpt><trkpt lat="44.4800989" lon="10.7878876"><ele>316.6</ele><time>2026-04-18T15:22:56.942Z</time></trkpt><trkpt lat="44.4800595" lon="10.7880113"><ele>315.8</ele><time>2026-04-18T15:22:57.942Z</time></trkpt><trkpt lat="44.4800445" lon="10.7881509"><ele>315.0</ele><time>2026-04-18T15:22:58.942Z</time></trkpt><trkpt lat="44.4800423" lon="10.788313"><ele>315.0</ele><time>2026-04-18T15:22:59.941Z</time></trkpt><trkpt lat="44.4800472" lon="10.7884565"><ele>315.0</ele><time>2026-04-18T15:23:00.942Z</time></trkpt><trkpt lat="44.4800536" lon="10.7885872"><ele>315.0</ele><time>2026-04-18T15:23:01.941Z</time></trkpt><trkpt lat="44.4800516" lon="10.7887102"><ele>315.0</ele><time>2026-04-18T15:23:02.941Z</time></trkpt><trkpt lat="44.4800507" lon="10.7888204"><ele>315.0</ele><time>2026-04-18T15:23:03.941Z</time></trkpt><trkpt lat="44.4800469" lon="10.7889158"><ele>315.0</ele><time>2026-04-18T15:23:04.941Z</time></trkpt><trkpt lat="44.4801062" lon="10.7890357"><ele>313.3333333333333</ele><time>2026-04-18T15:23:06.941Z</time></trkpt><trkpt lat="44.4802273" lon="10.7890346"><ele>311.6666666666667</ele><time>2026-04-18T15:23:08.941Z</time></trkpt><trkpt lat="44.4803025" lon="10.7889981"><ele>310.0</ele><time>2026-04-18T15:23:09.941Z</time></trkpt><trkpt lat="44.4803785" lon="10.7889595"><ele>308.33333333333337</ele><time>2026-04-18T15:23:10.942Z</time></trkpt><trkpt lat="44.4804501" lon="10.7889236"><ele>306.6666666666667</ele><time>2026-04-18T15:23:11.941Z</time></trkpt><trkpt lat="44.4805248" lon="10.788908"><ele>305.0</ele><time>2026-04-18T15:23:12.941Z</time></trkpt><trkpt lat="44.4805953" lon="10.7889236"><ele>303.5</ele><time>2026-04-18T15:23:13.941Z</time></trkpt><trkpt lat="44.4806566" lon="10.7889682"><ele>302.0</ele><time>2026-04-18T15:23:14.942Z</time></trkpt><trkpt lat="44.4807161" lon="10.7890401"><ele>300.5</ele><time>2026-04-18T15:23:15.941Z</time></trkpt><trkpt lat="44.480771" lon="10.7891299"><ele>299.0</ele><time>2026-04-18T15:23:16.941Z</time></trkpt><trkpt lat="44.48082" lon="10.7892354"><ele>297.5</ele><time>2026-04-18T15:23:17.942Z</time></trkpt><trkpt lat="44.4808453" lon="10.7893591"><ele>296.0</ele><time>2026-04-18T15:23:18.941Z</time></trkpt><trkpt lat="44.4808486" lon="10.7894911"><ele>294.33333333333337</ele><time>2026-04-18T15:23:19.941Z</time></trkpt><trkpt lat="44.4808392" lon="10.789621"><ele>292.6666666666667</ele><time>2026-04-18T15:23:20.942Z</time></trkpt><trkpt lat="44.4808153" lon="10.789746"><ele>291.0</ele><time>2026-04-18T15:23:21.941Z</time></trkpt><trkpt lat="44.4807918" lon="10.7898636"><ele>289.3333333333333</ele><time>2026-04-18T15:23:22.941Z</time></trkpt><trkpt lat="44.4807596" lon="10.7899717"><ele>287.66666666666663</ele><time>2026-04-18T15:23:23.942Z</time></trkpt><trkpt lat="44.4807259" lon="10.7900681"><ele>286.0</ele><time>2026-04-18T15:23:24.942Z</time></trkpt><trkpt lat="44.480686" lon="10.7901622"><ele>284.0</ele><time>2026-04-18T15:23:25.941Z</time></trkpt><trkpt lat="44.480639" lon="10.7902509"><ele>282.0</ele><time>2026-04-18T15:23:26.941Z</time></trkpt><trkpt lat="44.4805812" lon="10.790343"><ele>280.0</ele><time>2026-04-18T15:23:27.941Z</time></trkpt><trkpt lat="44.480515" lon="10.7904387"><ele>278.0</ele><time>2026-04-18T15:23:28.942Z</time></trkpt><trkpt lat="44.4804311" lon="10.7905288"><ele>276.0</ele><time>2026-04-18T15:23:29.941Z</time></trkpt><trkpt lat="44.4803332" lon="10.7906215"><ele>276.0</ele><time>2026-04-18T15:23:30.942Z</time></trkpt><trkpt lat="44.4802286" lon="10.7907138"><ele>276.0</ele><time>2026-04-18T15:23:31.942Z</time></trkpt><trkpt lat="44.480124" lon="10.7908078"><ele>276.0</ele><time>2026-04-18T15:23:32.942Z</time></trkpt><trkpt lat="44.4800291" lon="10.7909025"><ele>276.0</ele><time>2026-04-18T15:23:33.942Z</time></trkpt><trkpt lat="44.479938" lon="10.791003"><ele>275.6666666666667</ele><time>2026-04-18T15:23:34.942Z</time></trkpt><trkpt lat="44.479853" lon="10.7911023"><ele>275.3333333333333</ele><time>2026-04-18T15:23:35.942Z</time></trkpt><trkpt lat="44.4797786" lon="10.7911897"><ele>275.0</ele><time>2026-04-18T15:23:36.941Z</time></trkpt><trkpt lat="44.4797084" lon="10.7912602"><ele>274.66666666666663</ele><time>2026-04-18T15:23:37.941Z</time></trkpt><trkpt lat="44.4796392" lon="10.7913145"><ele>274.3333333333333</ele><time>2026-04-18T15:23:38.942Z</time></trkpt><trkpt lat="44.4795756" lon="10.7913156"><ele>274.0</ele><time>2026-04-18T15:23:39.941Z</time></trkpt><trkpt lat="44.4794942" lon="10.7913877"><ele>274.0</ele><time>2026-04-18T15:23:41.941Z</time></trkpt><trkpt lat="44.4795266" lon="10.7914951"><ele>274.0</ele><time>2026-04-18T15:23:43.941Z</time></trkpt><trkpt lat="44.4795924" lon="10.7915383"><ele>274.0</ele><time>2026-04-18T15:23:45.941Z</time></trkpt><trkpt lat="44.4796577" lon="10.7915646"><ele>274.0</ele><time>2026-04-18T15:23:47.942Z</time></trkpt><trkpt lat="44.4797328" lon="10.7915786"><ele>274.0</ele><time>2026-04-18T15:23:50.942Z</time></trkpt><trkpt lat="44.4798118" lon="10.7915698"><ele>274.0</ele><time>2026-04-18T15:24:36.941Z</time></trkpt><trkpt lat="44.4798864" lon="10.7915913"><ele>273.59999999999997</ele><time>2026-04-18T15:24:37.942Z</time></trkpt><trkpt lat="44.4799736" lon="10.7915865"><ele>273.2</ele><time>2026-04-18T15:24:38.941Z</time></trkpt><trkpt lat="44.4800796" lon="10.7915761"><ele>272.79999999999995</ele><time>2026-04-18T15:24:39.942Z</time></trkpt><trkpt lat="44.480195" lon="10.7915714"><ele>272.4</ele><time>2026-04-18T15:24:40.942Z</time></trkpt><trkpt lat="44.4803147" lon="10.7915675"><ele>272.0</ele><time>2026-04-18T15:24:41.942Z</time></trkpt><trkpt lat="44.4804443" lon="10.7915646"><ele>270.5</ele><time>2026-04-18T15:24:42.941Z</time></trkpt><trkpt lat="44.4805676" lon="10.7915591"><ele>269.0</ele><time>2026-04-18T15:24:43.941Z</time></trkpt><trkpt lat="44.4806869" lon="10.7915571"><ele>267.5</ele><time>2026-04-18T15:24:44.941Z</time></trkpt><trkpt lat="44.4807992" lon="10.7915651"><ele>266.0</ele><time>2026-04-18T15:24:45.941Z</time></trkpt><trkpt lat="44.4809143" lon="10.7915905"><ele>266.0</ele><time>2026-04-18T15:24:46.942Z</time></trkpt><trkpt lat="44.4810356" lon="10.7916308"><ele>266.0</ele><time>2026-04-18T15:24:47.941Z</time></trkpt><trkpt lat="44.4811594" lon="10.791676"><ele>266.0</ele><time>2026-04-18T15:24:48.941Z</time></trkpt><trkpt lat="44.4812831" lon="10.791727"><ele>266.0</ele><time>2026-04-18T15:24:49.942Z</time></trkpt><trkpt lat="44.4814033" lon="10.7917758"><ele>266.0</ele><time>2026-04-18T15:24:50.941Z</time></trkpt><trkpt lat="44.4815201" lon="10.7918233"><ele>266.0</ele><time>2026-04-18T15:24:51.941Z</time></trkpt><trkpt lat="44.4816365" lon="10.7918759"><ele>266.0</ele><time>2026-04-18T15:24:52.941Z</time></trkpt><trkpt lat="44.481742" lon="10.791955"><ele>266.0</ele><time>2026-04-18T15:24:53.942Z</time></trkpt><trkpt lat="44.4818332" lon="10.7920619"><ele>266.0</ele><time>2026-04-18T15:24:54.941Z</time></trkpt><trkpt lat="44.4819209" lon="10.7921757"><ele>266.0</ele><time>2026-04-18T15:24:55.941Z</time></trkpt><trkpt lat="44.4820123" lon="10.7922956"><ele>266.0</ele><time>2026-04-18T15:24:56.941Z</time></trkpt><trkpt lat="44.4821027" lon="10.7924133"><ele>266.0</ele><time>2026-04-18T15:24:57.941Z</time></trkpt><trkpt lat="44.4821959" lon="10.7925254"><ele>265.5</ele><time>2026-04-18T15:24:58.942Z</time></trkpt><trkpt lat="44.4822955" lon="10.792633"><ele>265.0</ele><time>2026-04-18T15:24:59.941Z</time></trkpt><trkpt lat="44.4824026" lon="10.7927259"><ele>264.5</ele><time>2026-04-18T15:25:00.942Z</time></trkpt><trkpt lat="44.482523" lon="10.79279"><ele>264.0</ele><time>2026-04-18T15:25:01.941Z</time></trkpt><trkpt lat="44.4826535" lon="10.7928376"><ele>264.0</ele><time>2026-04-18T15:25:02.941Z</time></trkpt><trkpt lat="44.4827865" lon="10.792871"><ele>264.0</ele><time>2026-04-18T15:25:03.942Z</time></trkpt><trkpt lat="44.4829089" lon="10.7928752"><ele>264.0</ele><time>2026-04-18T15:25:04.941Z</time></trkpt><trkpt lat="44.4830187" lon="10.7928456"><ele>264.0</ele><time>2026-04-18T15:25:05.942Z</time></trkpt><trkpt lat="44.4831203" lon="10.7927795"><ele>262.8</ele><time>2026-04-18T15:25:06.941Z</time></trkpt><trkpt lat="44.4832192" lon="10.792699"><ele>261.59999999999997</ele><time>2026-04-18T15:25:07.942Z</time></trkpt><trkpt lat="44.4833163" lon="10.7926205"><ele>260.4</ele><time>2026-04-18T15:25:08.942Z</time></trkpt><trkpt lat="44.4834069" lon="10.7925699"><ele>259.2</ele><time>2026-04-18T15:25:09.941Z</time></trkpt><trkpt lat="44.4834881" lon="10.7925595"><ele>258.0</ele><time>2026-04-18T15:25:10.942Z</time></trkpt><trkpt lat="44.4835572" lon="10.7925925"><ele>258.0</ele><time>2026-04-18T15:25:11.942Z</time></trkpt><trkpt lat="44.4836164" lon="10.7926728"><ele>258.0</ele><time>2026-04-18T15:25:12.941Z</time></trkpt><trkpt lat="44.4836758" lon="10.7927751"><ele>258.0</ele><time>2026-04-18T15:25:13.941Z</time></trkpt><trkpt lat="44.483742" lon="10.7928908"><ele>258.0</ele><time>2026-04-18T15:25:14.942Z</time></trkpt><trkpt lat="44.4837997" lon="10.7930036"><ele>258.0</ele><time>2026-04-18T15:25:15.941Z</time></trkpt><trkpt lat="44.4838468" lon="10.7931132"><ele>257.8333333333333</ele><time>2026-04-18T15:25:16.941Z</time></trkpt><trkpt lat="44.4838837" lon="10.7932187"><ele>257.6666666666667</ele><time>2026-04-18T15:25:17.942Z</time></trkpt><trkpt lat="44.4839094" lon="10.7933245"><ele>257.5</ele><time>2026-04-18T15:25:18.942Z</time></trkpt><trkpt lat="44.4839377" lon="10.7934234"><ele>257.33333333333337</ele><time>2026-04-18T15:25:19.941Z</time></trkpt><trkpt lat="44.4839673" lon="10.7935257"><ele>257.1666666666667</ele><time>2026-04-18T15:25:20.941Z</time></trkpt><trkpt lat="44.4840072" lon="10.7936286"><ele>257.0</ele><time>2026-04-18T15:25:21.942Z</time></trkpt><trkpt lat="44.4840594" lon="10.7937144"><ele>257.0</ele><time>2026-04-18T15:25:22.941Z</time></trkpt><trkpt lat="44.4841361" lon="10.793764"><ele>257.0</ele><time>2026-04-18T15:25:23.941Z</time></trkpt><trkpt lat="44.484225" lon="10.7937813"><ele>257.0</ele><time>2026-04-18T15:25:24.942Z</time></trkpt><trkpt lat="44.4843229" lon="10.7937528"><ele>257.0</ele><time>2026-04-18T15:25:25.941Z</time></trkpt><trkpt lat="44.4844173" lon="10.7936904"><ele>257.0</ele><time>2026-04-18T15:25:26.942Z</time></trkpt><trkpt lat="44.4845068" lon="10.7935956"><ele>256.0</ele><time>2026-04-18T15:25:27.941Z</time></trkpt><trkpt lat="44.4845943" lon="10.793468"><ele>255.0</ele><time>2026-04-18T15:25:28.941Z</time></trkpt><trkpt lat="44.4846716" lon="10.7933239"><ele>254.0</ele><time>2026-04-18T15:25:29.942Z</time></trkpt><trkpt lat="44.4847492" lon="10.7931768"><ele>253.0</ele><time>2026-04-18T15:25:30.942Z</time></trkpt><trkpt lat="44.4848295" lon="10.7930327"><ele>253.0</ele><time>2026-04-18T15:25:31.941Z</time></trkpt><trkpt lat="44.4849023" lon="10.7928991"><ele>253.0</ele><time>2026-04-18T15:25:32.941Z</time></trkpt><trkpt lat="44.4849726" lon="10.7927683"><ele>253.0</ele><time>2026-04-18T15:25:33.941Z</time></trkpt><trkpt lat="44.4850461" lon="10.7926472"><ele>253.0</ele><time>2026-04-18T15:25:34.941Z</time></trkpt><trkpt lat="44.4851365" lon="10.7925436"><ele>253.2</ele><time>2026-04-18T15:25:35.942Z</time></trkpt><trkpt lat="44.4852353" lon="10.7924681"><ele>253.4</ele><time>2026-04-18T15:25:36.942Z</time></trkpt><trkpt lat="44.4853374" lon="10.7924268"><ele>253.59999999999997</ele><time>2026-04-18T15:25:37.941Z</time></trkpt><trkpt lat="44.4854296" lon="10.792424"><ele>253.79999999999998</ele><time>2026-04-18T15:25:38.941Z</time></trkpt><trkpt lat="44.4855082" lon="10.7924557"><ele>254.0</ele><time>2026-04-18T15:25:39.941Z</time></trkpt><trkpt lat="44.4855755" lon="10.7925245"><ele>254.2</ele><time>2026-04-18T15:25:40.942Z</time></trkpt><trkpt lat="44.4856396" lon="10.7926172"><ele>254.39999999999998</ele><time>2026-04-18T15:25:41.941Z</time></trkpt><trkpt lat="44.485708" lon="10.7927194"><ele>254.6</ele><time>2026-04-18T15:25:42.941Z</time></trkpt><trkpt lat="44.485768" lon="10.7928346"><ele>254.8</ele><time>2026-04-18T15:25:43.942Z</time></trkpt><trkpt lat="44.4858048" lon="10.7929583"><ele>255.0</ele><time>2026-04-18T15:25:44.941Z</time></trkpt><trkpt lat="44.4858191" lon="10.7930881"><ele>255.0</ele><time>2026-04-18T15:25:45.941Z</time></trkpt><trkpt lat="44.4858276" lon="10.7932127"><ele>255.00000000000003</ele><time>2026-04-18T15:25:46.942Z</time></trkpt><trkpt lat="44.485827" lon="10.7933235"><ele>255.0</ele><time>2026-04-18T15:25:47.941Z</time></trkpt><trkpt lat="44.4858386" lon="10.7934279"><ele>255.0</ele><time>2026-04-18T15:25:48.942Z</time></trkpt><trkpt lat="44.4858504" lon="10.7935154"><ele>255.00000000000003</ele><time>2026-04-18T15:25:49.942Z</time></trkpt><trkpt lat="44.4858732" lon="10.7936148"><ele>255.0</ele><time>2026-04-18T15:25:51.941Z</time></trkpt><trkpt lat="44.485889" lon="10.7937006"><ele>255.0</ele><time>2026-04-18T15:25:55.941Z</time></trkpt><trkpt lat="44.4859249" lon="10.7935888"><ele>255.0</ele><time>2026-04-18T15:26:24.942Z</time></trkpt><trkpt lat="44.4859302" lon="10.793445"><ele>255.0</ele><time>2026-04-18T15:26:26.942Z</time></trkpt><trkpt lat="44.4859646" lon="10.7933356"><ele>255.0</ele><time>2026-04-18T15:26:28.942Z</time></trkpt><trkpt lat="44.4860375" lon="10.7932218"><ele>255.0</ele><time>2026-04-18T15:26:30.942Z</time></trkpt><trkpt lat="44.4861065" lon="10.7930824"><ele>255.0</ele><time>2026-04-18T15:26:32.942Z</time></trkpt><trkpt lat="44.4861796" lon="10.7929602"><ele>255.0</ele><time>2026-04-18T15:26:34.941Z</time></trkpt><trkpt lat="44.4862456" lon="10.792847"><ele>255.0</ele><time>2026-04-18T15:26:36.942Z</time></trkpt><trkpt lat="44.4863065" lon="10.7927373"><ele>255.0</ele><time>2026-04-18T15:26:38.942Z</time></trkpt><trkpt lat="44.4863842" lon="10.7927002"><ele>255.0</ele><time>2026-04-18T15:26:40.941Z</time></trkpt><trkpt lat="44.4864834" lon="10.7926514"><ele>255.0</ele><time>2026-04-18T15:26:42.942Z</time></trkpt><trkpt lat="44.4865689" lon="10.7925299"><ele>258.0</ele><time>2026-04-18T15:26:44.941Z</time></trkpt><trkpt lat="44.4866076" lon="10.7924553"><ele>261.0</ele><time>2026-04-18T15:26:45.941Z</time></trkpt><trkpt lat="44.4866445" lon="10.7923705"><ele>264.0</ele><time>2026-04-18T15:26:46.942Z</time></trkpt><trkpt lat="44.4866868" lon="10.7922968"><ele>267.0</ele><time>2026-04-18T15:26:47.942Z</time></trkpt><trkpt lat="44.4867357" lon="10.7922225"><ele>270.0</ele><time>2026-04-18T15:26:48.941Z</time></trkpt><trkpt lat="44.4867756" lon="10.7921445"><ele>273.0</ele><time>2026-04-18T15:26:49.941Z</time></trkpt><trkpt lat="44.4868153" lon="10.7920579"><ele>276.0</ele><time>2026-04-18T15:26:50.942Z</time></trkpt><trkpt lat="44.4868611" lon="10.7919762"><ele>276.0</ele><time>2026-04-18T15:26:51.942Z</time></trkpt><trkpt lat="44.4869132" lon="10.7919016"><ele>276.0</ele><time>2026-04-18T15:26:52.941Z</time></trkpt><trkpt lat="44.4869711" lon="10.7918386"><ele>276.0</ele><time>2026-04-18T15:26:53.942Z</time></trkpt><trkpt lat="44.4870368" lon="10.7917908"><ele>276.0</ele><time>2026-04-18T15:26:54.941Z</time></trkpt><trkpt lat="44.4871048" lon="10.7917413"><ele>276.0</ele><time>2026-04-18T15:26:55.941Z</time></trkpt><trkpt lat="44.4871742" lon="10.7916954"><ele>276.0</ele><time>2026-04-18T15:26:56.942Z</time></trkpt><trkpt lat="44.4872425" lon="10.7916429"><ele>280.0</ele><time>2026-04-18T15:26:57.942Z</time></trkpt><trkpt lat="44.4873121" lon="10.7915753"><ele>284.0</ele><time>2026-04-18T15:26:58.941Z</time></trkpt><trkpt lat="44.4873745" lon="10.7915136"><ele>288.0</ele><time>2026-04-18T15:26:59.941Z</time></trkpt><trkpt lat="44.4874249" lon="10.7914363"><ele>292.0</ele><time>2026-04-18T15:27:00.941Z</time></trkpt><trkpt lat="44.487475" lon="10.7913449"><ele>296.0</ele><time>2026-04-18T15:27:01.941Z</time></trkpt><trkpt lat="44.4875266" lon="10.7912424"><ele>300.0</ele><time>2026-04-18T15:27:02.942Z</time></trkpt><trkpt lat="44.4875641" lon="10.7911397"><ele>300.0</ele><time>2026-04-18T15:27:03.942Z</time></trkpt><trkpt lat="44.4875855" lon="10.7910438"><ele>300.0</ele><time>2026-04-18T15:27:04.941Z</time></trkpt><trkpt lat="44.4876131" lon="10.7909441"><ele>300.0</ele><time>2026-04-18T15:27:05.942Z</time></trkpt><trkpt lat="44.4876441" lon="10.7908215"><ele>300.0</ele><time>2026-04-18T15:27:06.941Z</time></trkpt><trkpt lat="44.4876792" lon="10.7907025"><ele>300.0</ele><time>2026-04-18T15:27:07.941Z</time></trkpt><trkpt lat="44.4876965" lon="10.7905847"><ele>300.0</ele><time>2026-04-18T15:27:08.941Z</time></trkpt><trkpt lat="44.4876988" lon="10.7904578"><ele>298.8333333333333</ele><time>2026-04-18T15:27:09.942Z</time></trkpt><trkpt lat="44.4876972" lon="10.790327"><ele>297.6666666666667</ele><time>2026-04-18T15:27:10.941Z</time></trkpt><trkpt lat="44.4876933" lon="10.7902152"><ele>296.5</ele><time>2026-04-18T15:27:11.941Z</time></trkpt><trkpt lat="44.4877063" lon="10.7901181"><ele>295.33333333333337</ele><time>2026-04-18T15:27:12.941Z</time></trkpt><trkpt lat="44.4877246" lon="10.790027"><ele>294.1666666666667</ele><time>2026-04-18T15:27:13.941Z</time></trkpt><trkpt lat="44.4877539" lon="10.7899301"><ele>293.0</ele><time>2026-04-18T15:27:14.941Z</time></trkpt><trkpt lat="44.4877924" lon="10.7898282"><ele>293.0</ele><time>2026-04-18T15:27:15.941Z</time></trkpt><trkpt lat="44.4878276" lon="10.7897274"><ele>293.0</ele><time>2026-04-18T15:27:16.942Z</time></trkpt><trkpt lat="44.4878586" lon="10.7896223"><ele>293.0</ele><time>2026-04-18T15:27:17.941Z</time></trkpt><trkpt lat="44.4878875" lon="10.7895237"><ele>293.0</ele><time>2026-04-18T15:27:18.942Z</time></trkpt><trkpt lat="44.4879038" lon="10.789414"><ele>293.0</ele><time>2026-04-18T15:27:19.941Z</time></trkpt><trkpt lat="44.4879046" lon="10.7893137"><ele>293.0</ele><time>2026-04-18T15:27:20.941Z</time></trkpt><trkpt lat="44.4878958" lon="10.789221"><ele>297.33333333333337</ele><time>2026-04-18T15:27:21.942Z</time></trkpt><trkpt lat="44.4879497" lon="10.7890838"><ele>301.6666666666667</ele><time>2026-04-18T15:27:23.942Z</time></trkpt><trkpt lat="44.4880415" lon="10.7890863"><ele>306.0</ele><time>2026-04-18T15:27:25.942Z</time></trkpt><trkpt lat="44.4880891" lon="10.7891479"><ele>310.3333333333333</ele><time>2026-04-18T15:27:26.941Z</time></trkpt><trkpt lat="44.4881455" lon="10.7892152"><ele>314.66666666666663</ele><time>2026-04-18T15:27:27.941Z</time></trkpt><trkpt lat="44.4882064" lon="10.7893031"><ele>319.0</ele><time>2026-04-18T15:27:28.942Z</time></trkpt><trkpt lat="44.4882618" lon="10.7894002"><ele>320.0</ele><time>2026-04-18T15:27:29.941Z</time></trkpt><trkpt lat="44.4883212" lon="10.7894973"><ele>321.0</ele><time>2026-04-18T15:27:30.942Z</time></trkpt><trkpt lat="44.4883836" lon="10.7896077"><ele>322.0</ele><time>2026-04-18T15:27:31.941Z</time></trkpt><trkpt lat="44.48844" lon="10.7897131"><ele>323.0</ele><time>2026-04-18T15:27:32.942Z</time></trkpt><trkpt lat="44.4885004" lon="10.7898023"><ele>324.0</ele><time>2026-04-18T15:27:33.941Z</time></trkpt><trkpt lat="44.4885624" lon="10.789905"><ele>324.0</ele><time>2026-04-18T15:27:34.941Z</time></trkpt><trkpt lat="44.4886015" lon="10.7900118"><ele>324.0</ele><time>2026-04-18T15:27:35.941Z</time></trkpt><trkpt lat="44.4886195" lon="10.7901057"><ele>324.0</ele><time>2026-04-18T15:27:36.942Z</time></trkpt><trkpt lat="44.4886157" lon="10.7902059"><ele>324.0</ele><time>2026-04-18T15:27:37.942Z</time></trkpt><trkpt lat="44.4885837" lon="10.7902862"><ele>324.0</ele><time>2026-04-18T15:27:38.941Z</time></trkpt><trkpt lat="44.4885461" lon="10.7903641"><ele>324.0</ele><time>2026-04-18T15:27:39.942Z</time></trkpt><trkpt lat="44.4885163" lon="10.7905468"><ele>324.0</ele><time>2026-04-18T15:27:41.942Z</time></trkpt><trkpt lat="44.4885235" lon="10.7906539"><ele>324.0</ele><time>2026-04-18T15:27:42.941Z</time></trkpt><trkpt lat="44.4885858" lon="10.7907883"><ele>324.0</ele><time>2026-04-18T15:27:44.942Z</time></trkpt><trkpt lat="44.488667" lon="10.7909045"><ele>324.0</ele><time>2026-04-18T15:27:46.942Z</time></trkpt><trkpt lat="44.4886836" lon="10.7910213"><ele>324.0</ele><time>2026-04-18T15:27:48.941Z</time></trkpt><trkpt lat="44.4886526" lon="10.7911802"><ele>324.0</ele><time>2026-04-18T15:27:50.941Z</time></trkpt><trkpt lat="44.4886529" lon="10.7912742"><ele>324.0</ele><time>2026-04-18T15:27:51.942Z</time></trkpt><trkpt lat="44.4886726" lon="10.7913603"><ele>324.0</ele><time>2026-04-18T15:27:52.942Z</time></trkpt><trkpt lat="44.4887401" lon="10.7914795"><ele>324.0</ele><time>2026-04-18T15:27:54.941Z</time></trkpt><trkpt lat="44.4887926" lon="10.791539"><ele>324.0</ele><time>2026-04-18T15:27:55.941Z</time></trkpt><trkpt lat="44.4888515" lon="10.7916093"><ele>324.0</ele><time>2026-04-18T15:27:56.941Z</time></trkpt><trkpt lat="44.4889148" lon="10.7917398"><ele>325.8333333333333</ele><time>2026-04-18T15:27:58.942Z</time></trkpt><trkpt lat="44.4888979" lon="10.7918621"><ele>327.6666666666667</ele><time>2026-04-18T15:28:00.942Z</time></trkpt><trkpt lat="44.4888193" lon="10.791949"><ele>329.5</ele><time>2026-04-18T15:28:02.941Z</time></trkpt><trkpt lat="44.4887641" lon="10.792001"><ele>331.33333333333337</ele><time>2026-04-18T15:28:03.941Z</time></trkpt><trkpt lat="44.4886607" lon="10.7920896"><ele>333.1666666666667</ele><time>2026-04-18T15:28:05.941Z</time></trkpt><trkpt lat="44.4886061" lon="10.7921419"><ele>335.0</ele><time>2026-04-18T15:28:06.942Z</time></trkpt><trkpt lat="44.4885468" lon="10.7921966"><ele>335.0</ele><time>2026-04-18T15:28:07.942Z</time></trkpt><trkpt lat="44.4884998" lon="10.7922607"><ele>335.0</ele><time>2026-04-18T15:28:08.941Z</time></trkpt><trkpt lat="44.4884493" lon="10.7923232"><ele>335.0</ele><time>2026-04-18T15:28:09.942Z</time></trkpt><trkpt lat="44.4883678" lon="10.7923995"><ele>335.0</ele><time>2026-04-18T15:28:11.942Z</time></trkpt><trkpt lat="44.4883727" lon="10.7925071"><ele>335.0</ele><time>2026-04-18T15:28:13.941Z</time></trkpt><trkpt lat="44.48844" lon="10.7926212"><ele>335.0</ele><time>2026-04-18T15:28:15.942Z</time></trkpt><trkpt lat="44.4884781" lon="10.7926967"><ele>335.33333333333337</ele><time>2026-04-18T15:28:16.942Z</time></trkpt><trkpt lat="44.4885267" lon="10.792781"><ele>335.6666666666667</ele><time>2026-04-18T15:28:17.941Z</time></trkpt><trkpt lat="44.4885765" lon="10.7928736"><ele>336.0</ele><time>2026-04-18T15:28:18.942Z</time></trkpt><trkpt lat="44.4886245" lon="10.7929642"><ele>336.3333333333333</ele><time>2026-04-18T15:28:19.941Z</time></trkpt><trkpt lat="44.4886704" lon="10.7930574"><ele>336.66666666666663</ele><time>2026-04-18T15:28:20.942Z</time></trkpt><trkpt lat="44.4887139" lon="10.7931569"><ele>337.0</ele><time>2026-04-18T15:28:21.941Z</time></trkpt><trkpt lat="44.4887445" lon="10.7932617"><ele>337.0</ele><time>2026-04-18T15:28:22.942Z</time></trkpt><trkpt lat="44.4887488" lon="10.7933624"><ele>337.0</ele><time>2026-04-18T15:28:23.941Z</time></trkpt><trkpt lat="44.4887311" lon="10.793472"><ele>337.0</ele><time>2026-04-18T15:28:24.942Z</time></trkpt><trkpt lat="44.4887024" lon="10.7935845"><ele>337.0</ele><time>2026-04-18T15:28:25.942Z</time></trkpt><trkpt lat="44.4886767" lon="10.7936951"><ele>337.0</ele><time>2026-04-18T15:28:26.942Z</time></trkpt><trkpt lat="44.4886507" lon="10.7937925"><ele>337.0</ele><time>2026-04-18T15:28:27.941Z</time></trkpt><trkpt lat="44.4886339" lon="10.7938819"><ele>336.5</ele><time>2026-04-18T15:28:28.941Z</time></trkpt><trkpt lat="44.4886039" lon="10.7940502"><ele>336.0</ele><time>2026-04-18T15:28:30.941Z</time></trkpt><trkpt lat="44.488585" lon="10.794142"><ele>335.5</ele><time>2026-04-18T15:28:31.941Z</time></trkpt><trkpt lat="44.4885565" lon="10.7942261"><ele>335.0</ele><time>2026-04-18T15:28:32.942Z</time></trkpt><trkpt lat="44.4885112" lon="10.7943406"><ele>334.5</ele><time>2026-04-18T15:28:34.941Z</time></trkpt><trkpt lat="44.4885352" lon="10.7944671"><ele>334.0</ele><time>2026-04-18T15:28:37.941Z</time></trkpt><trkpt lat="44.4886108" lon="10.7945238"><ele>332.4</ele><time>2026-04-18T15:28:39.942Z</time></trkpt><trkpt lat="44.4886866" lon="10.7945843"><ele>330.79999999999995</ele><time>2026-04-18T15:28:41.942Z</time></trkpt><trkpt lat="44.48876" lon="10.794675"><ele>329.20000000000005</ele><time>2026-04-18T15:28:43.941Z</time></trkpt><trkpt lat="44.4888127" lon="10.7948199"><ele>327.6</ele><time>2026-04-18T15:28:45.942Z</time></trkpt><trkpt lat="44.4888565" lon="10.7949299"><ele>326.0</ele><time>2026-04-18T15:28:47.942Z</time></trkpt><trkpt lat="44.4889146" lon="10.7949688"><ele>329.6</ele><time>2026-04-18T15:28:49.941Z</time></trkpt><trkpt lat="44.4890043" lon="10.7949131"><ele>333.20000000000005</ele><time>2026-04-18T15:29:30.941Z</time></trkpt><trkpt lat="44.4890993" lon="10.7948475"><ele>336.79999999999995</ele><time>2026-04-18T15:29:32.942Z</time></trkpt><trkpt lat="44.4891924" lon="10.7947919"><ele>340.4</ele><time>2026-04-18T15:29:34.941Z</time></trkpt><trkpt lat="44.4892826" lon="10.7947202"><ele>344.0</ele><time>2026-04-18T15:29:36.942Z</time></trkpt><trkpt lat="44.4893716" lon="10.7946517"><ele>344.0</ele><time>2026-04-18T15:29:38.941Z</time></trkpt><trkpt lat="44.4894596" lon="10.7946095"><ele>344.0</ele><time>2026-04-18T15:29:40.942Z</time></trkpt><trkpt lat="44.4895492" lon="10.7945517"><ele>344.0</ele><time>2026-04-18T15:29:42.941Z</time></trkpt><trkpt lat="44.4896512" lon="10.7945017"><ele>344.0</ele><time>2026-04-18T15:29:44.941Z</time></trkpt><trkpt lat="44.489756" lon="10.7945387"><ele>344.0</ele><time>2026-04-18T15:29:46.942Z</time></trkpt><trkpt lat="44.4898425" lon="10.7946094"><ele>344.5</ele><time>2026-04-18T15:29:48.942Z</time></trkpt><trkpt lat="44.4899298" lon="10.7946753"><ele>345.0</ele><time>2026-04-18T15:29:50.942Z</time></trkpt><trkpt lat="44.4900128" lon="10.7947289"><ele>345.5</ele><time>2026-04-18T15:29:52.942Z</time></trkpt><trkpt lat="44.4900873" lon="10.7947694"><ele>346.0</ele><time>2026-04-18T15:29:54.941Z</time></trkpt><trkpt lat="44.4901667" lon="10.7948067"><ele>346.5</ele><time>2026-04-18T15:29:56.942Z</time></trkpt><trkpt lat="44.4902513" lon="10.7948171"><ele>347.0</ele><time>2026-04-18T15:29:58.942Z</time></trkpt><trkpt lat="44.4903425" lon="10.7948224"><ele>348.40000000000003</ele><time>2026-04-18T15:30:00.941Z</time></trkpt><trkpt lat="44.4904316" lon="10.7948227"><ele>349.8</ele><time>2026-04-18T15:30:02.942Z</time></trkpt><trkpt lat="44.4905143" lon="10.7948157"><ele>351.2</ele><time>2026-04-18T15:30:04.941Z</time></trkpt><trkpt lat="44.4906104" lon="10.7948194"><ele>352.6</ele><time>2026-04-18T15:30:06.941Z</time></trkpt><trkpt lat="44.4907054" lon="10.7948222"><ele>354.0</ele><time>2026-04-18T15:30:08.942Z</time></trkpt><trkpt lat="44.4908047" lon="10.7948312"><ele>354.0</ele><time>2026-04-18T15:30:10.942Z</time></trkpt><trkpt lat="44.4909014" lon="10.7948558"><ele>354.0</ele><time>2026-04-18T15:30:12.941Z</time></trkpt><trkpt lat="44.4910269" lon="10.7948783"><ele>354.0</ele><time>2026-04-18T15:30:14.942Z</time></trkpt><trkpt lat="44.4910928" lon="10.7948898"><ele>354.0</ele><time>2026-04-18T15:30:15.941Z</time></trkpt><trkpt lat="44.4911583" lon="10.794895"><ele>354.0</ele><time>2026-04-18T15:30:16.942Z</time></trkpt><trkpt lat="44.4912573" lon="10.794907"><ele>355.0</ele><time>2026-04-18T15:30:18.942Z</time></trkpt><trkpt lat="44.4913287" lon="10.7948253"><ele>356.0</ele><time>2026-04-18T15:30:22.942Z</time></trkpt><trkpt lat="44.4913664" lon="10.7946387"><ele>357.0</ele><time>2026-04-18T15:30:24.942Z</time></trkpt><trkpt lat="44.4913822" lon="10.7945147"><ele>358.0</ele><time>2026-04-18T15:30:25.942Z</time></trkpt><trkpt lat="44.491405" lon="10.7943775"><ele>359.0</ele><time>2026-04-18T15:30:26.941Z</time></trkpt><trkpt lat="44.4914376" lon="10.7942366"><ele>359.0</ele><time>2026-04-18T15:30:27.941Z</time></trkpt><trkpt lat="44.4914705" lon="10.7940946"><ele>359.0</ele><time>2026-04-18T15:30:28.942Z</time></trkpt><trkpt lat="44.4915007" lon="10.7939499"><ele>359.0</ele><time>2026-04-18T15:30:29.942Z</time></trkpt><trkpt lat="44.4915241" lon="10.7937982"><ele>359.0</ele><time>2026-04-18T15:30:30.941Z</time></trkpt><trkpt lat="44.4915432" lon="10.7936349"><ele>359.0</ele><time>2026-04-18T15:30:31.941Z</time></trkpt><trkpt lat="44.4915574" lon="10.7934586"><ele>360.25</ele><time>2026-04-18T15:30:32.941Z</time></trkpt><trkpt lat="44.4915759" lon="10.7932821"><ele>361.5</ele><time>2026-04-18T15:30:33.941Z</time></trkpt><trkpt lat="44.4916171" lon="10.7931056"><ele>362.75</ele><time>2026-04-18T15:30:34.941Z</time></trkpt><trkpt lat="44.4916699" lon="10.7929289"><ele>364.0</ele><time>2026-04-18T15:30:35.942Z</time></trkpt><trkpt lat="44.4917271" lon="10.7927558"><ele>366.5</ele><time>2026-04-18T15:30:36.941Z</time></trkpt><trkpt lat="44.4917861" lon="10.7925874"><ele>369.0</ele><time>2026-04-18T15:30:37.942Z</time></trkpt><trkpt lat="44.4918495" lon="10.7924258"><ele>371.5</ele><time>2026-04-18T15:30:38.941Z</time></trkpt><trkpt lat="44.491914" lon="10.7922616"><ele>374.0</ele><time>2026-04-18T15:30:39.941Z</time></trkpt><trkpt lat="44.4919767" lon="10.7920972"><ele>374.0</ele><time>2026-04-18T15:30:40.941Z</time></trkpt><trkpt lat="44.4920392" lon="10.7919373"><ele>374.0</ele><time>2026-04-18T15:30:41.941Z</time></trkpt><trkpt lat="44.4920986" lon="10.7917823"><ele>374.0</ele><time>2026-04-18T15:30:42.941Z</time></trkpt><trkpt lat="44.492155" lon="10.7916462"><ele>374.0</ele><time>2026-04-18T15:30:43.942Z</time></trkpt><trkpt lat="44.4922111" lon="10.79155"><ele>375.0</ele><time>2026-04-18T15:30:44.941Z</time></trkpt><trkpt lat="44.4922714" lon="10.7914899"><ele>376.0</ele><time>2026-04-18T15:30:45.942Z</time></trkpt><trkpt lat="44.4923475" lon="10.7914715"><ele>377.0</ele><time>2026-04-18T15:30:46.941Z</time></trkpt><trkpt lat="44.4924285" lon="10.7914816"><ele>378.0</ele><time>2026-04-18T15:30:47.941Z</time></trkpt><trkpt lat="44.4925113" lon="10.7914821"><ele>379.0</ele><time>2026-04-18T15:30:48.942Z</time></trkpt><trkpt lat="44.4925908" lon="10.7914421"><ele>380.0</ele><time>2026-04-18T15:30:49.941Z</time></trkpt><trkpt lat="44.492667" lon="10.7913851"><ele>380.0</ele><time>2026-04-18T15:30:50.941Z</time></trkpt><trkpt lat="44.4927225" lon="10.7912738"><ele>380.0</ele><time>2026-04-18T15:30:51.941Z</time></trkpt><trkpt lat="44.492791" lon="10.7911984"><ele>380.0</ele><time>2026-04-18T15:30:52.941Z</time></trkpt><trkpt lat="44.4928702" lon="10.7911531"><ele>380.0</ele><time>2026-04-18T15:30:53.941Z</time></trkpt><trkpt lat="44.4929638" lon="10.7911387"><ele>380.0</ele><time>2026-04-18T15:30:54.941Z</time></trkpt><trkpt lat="44.4930539" lon="10.7911515"><ele>380.0</ele><time>2026-04-18T15:30:55.941Z</time></trkpt><trkpt lat="44.4931506" lon="10.7911691"><ele>380.0</ele><time>2026-04-18T15:30:56.941Z</time></trkpt><trkpt lat="44.4932576" lon="10.7911709"><ele>380.0</ele><time>2026-04-18T15:30:57.941Z</time></trkpt><trkpt lat="44.4933659" lon="10.7911653"><ele>380.0</ele><time>2026-04-18T15:30:58.942Z</time></trkpt><trkpt lat="44.4934592" lon="10.7911506"><ele>380.0</ele><time>2026-04-18T15:30:59.942Z</time></trkpt><trkpt lat="44.4935299" lon="10.7911354"><ele>380.0</ele><time>2026-04-18T15:31:00.941Z</time></trkpt><trkpt lat="44.4936007" lon="10.7911426"><ele>380.0</ele><time>2026-04-18T15:31:01.942Z</time></trkpt><trkpt lat="44.4936745" lon="10.7911774"><ele>380.0</ele><time>2026-04-18T15:31:02.942Z</time></trkpt><trkpt lat="44.4937448" lon="10.7912197"><ele>380.0</ele><time>2026-04-18T15:31:03.942Z</time></trkpt><trkpt lat="44.4938072" lon="10.7912684"><ele>380.0</ele><time>2026-04-18T15:31:04.941Z</time></trkpt><trkpt lat="44.4938654" lon="10.7913202"><ele>380.0</ele><time>2026-04-18T15:31:05.941Z</time></trkpt><trkpt lat="44.4939212" lon="10.7913736"><ele>380.0</ele><time>2026-04-18T15:31:06.941Z</time></trkpt><trkpt lat="44.4939792" lon="10.7914343"><ele>379.0</ele><time>2026-04-18T15:31:07.941Z</time></trkpt><trkpt lat="44.4940376" lon="10.7914851"><ele>378.0</ele><time>2026-04-18T15:31:08.942Z</time></trkpt><trkpt lat="44.4941117" lon="10.7916299"><ele>377.0</ele><time>2026-04-18T15:31:10.941Z</time></trkpt><trkpt lat="44.4941418" lon="10.7917162"><ele>376.0</ele><time>2026-04-18T15:31:11.942Z</time></trkpt><trkpt lat="44.4941822" lon="10.7918024"><ele>375.0</ele><time>2026-04-18T15:31:12.942Z</time></trkpt><trkpt lat="44.4942175" lon="10.7918982"><ele>374.0</ele><time>2026-04-18T15:31:13.941Z</time></trkpt><trkpt lat="44.4942488" lon="10.7919973"><ele>374.0</ele><time>2026-04-18T15:31:14.941Z</time></trkpt><trkpt lat="44.4942819" lon="10.7920777"><ele>374.0</ele><time>2026-04-18T15:31:15.941Z</time></trkpt><trkpt lat="44.4943185" lon="10.7921556"><ele>374.0</ele><time>2026-04-18T15:31:16.941Z</time></trkpt><trkpt lat="44.4943462" lon="10.7922431"><ele>374.0</ele><time>2026-04-18T15:31:17.942Z</time></trkpt><trkpt lat="44.4943733" lon="10.792333"><ele>374.0</ele><time>2026-04-18T15:31:18.942Z</time></trkpt><trkpt lat="44.4944028" lon="10.7924245"><ele>374.0</ele><time>2026-04-18T15:31:19.941Z</time></trkpt><trkpt lat="44.4944311" lon="10.7925191"><ele>374.0</ele><time>2026-04-18T15:31:20.941Z</time></trkpt><trkpt lat="44.4944592" lon="10.7926155"><ele>373.0</ele><time>2026-04-18T15:31:21.941Z</time></trkpt><trkpt lat="44.4944872" lon="10.7927136"><ele>372.0</ele><time>2026-04-18T15:31:22.941Z</time></trkpt><trkpt lat="44.4945182" lon="10.7928031"><ele>371.0</ele><time>2026-04-18T15:31:23.942Z</time></trkpt><trkpt lat="44.4945553" lon="10.7928888"><ele>370.0</ele><time>2026-04-18T15:31:24.941Z</time></trkpt><trkpt lat="44.4945975" lon="10.7929664"><ele>369.0</ele><time>2026-04-18T15:31:25.941Z</time></trkpt><trkpt lat="44.4946466" lon="10.7930505"><ele>368.0</ele><time>2026-04-18T15:31:26.942Z</time></trkpt><trkpt lat="44.4947033" lon="10.7931397"><ele>368.0</ele><time>2026-04-18T15:31:27.942Z</time></trkpt><trkpt lat="44.4947561" lon="10.7932228"><ele>368.0</ele><time>2026-04-18T15:31:28.942Z</time></trkpt><trkpt lat="44.4948107" lon="10.7933065"><ele>368.0</ele><time>2026-04-18T15:31:29.942Z</time></trkpt><trkpt lat="44.4948646" lon="10.7933898"><ele>368.0</ele><time>2026-04-18T15:31:30.942Z</time></trkpt><trkpt lat="44.494931" lon="10.7935203"><ele>368.0</ele><time>2026-04-18T15:31:32.942Z</time></trkpt><trkpt lat="44.4949752" lon="10.7936151"><ele>368.0</ele><time>2026-04-18T15:31:34.941Z</time></trkpt><trkpt lat="44.4950351" lon="10.7936783"><ele>366.1666666666667</ele><time>2026-04-18T15:31:36.942Z</time></trkpt><trkpt lat="44.4951316" lon="10.7937365"><ele>364.33333333333337</ele><time>2026-04-18T15:31:38.941Z</time></trkpt><trkpt lat="44.4951941" lon="10.7937701"><ele>362.5</ele><time>2026-04-18T15:31:39.941Z</time></trkpt><trkpt lat="44.4952541" lon="10.7938076"><ele>360.6666666666667</ele><time>2026-04-18T15:31:40.941Z</time></trkpt><trkpt lat="44.4953113" lon="10.7938549"><ele>358.8333333333333</ele><time>2026-04-18T15:31:41.941Z</time></trkpt><trkpt lat="44.4953649" lon="10.7939074"><ele>357.0</ele><time>2026-04-18T15:31:42.941Z</time></trkpt><trkpt lat="44.4954619" lon="10.7939949"><ele>355.3333333333333</ele><time>2026-04-18T15:31:44.941Z</time></trkpt><trkpt lat="44.4955566" lon="10.7940436"><ele>353.6666666666667</ele><time>2026-04-18T15:31:46.941Z</time></trkpt><trkpt lat="44.4956789" lon="10.7940896"><ele>352.0</ele><time>2026-04-18T15:31:48.942Z</time></trkpt><trkpt lat="44.4957429" lon="10.7941116"><ele>350.33333333333337</ele><time>2026-04-18T15:31:49.941Z</time></trkpt><trkpt lat="44.4958086" lon="10.7941413"><ele>348.6666666666667</ele><time>2026-04-18T15:31:50.941Z</time></trkpt><trkpt lat="44.4958748" lon="10.7941766"><ele>347.0</ele><time>2026-04-18T15:31:51.942Z</time></trkpt><trkpt lat="44.4959404" lon="10.7942043"><ele>347.0</ele><time>2026-04-18T15:31:52.941Z</time></trkpt><trkpt lat="44.4960449" lon="10.7943021"><ele>347.0</ele><time>2026-04-18T15:31:54.941Z</time></trkpt><trkpt lat="44.4961335" lon="10.7944214"><ele>347.0</ele><time>2026-04-18T15:31:56.942Z</time></trkpt><trkpt lat="44.4961723" lon="10.7945056"><ele>347.0</ele><time>2026-04-18T15:31:57.941Z</time></trkpt><trkpt lat="44.496205" lon="10.7946156"><ele>347.0</ele><time>2026-04-18T15:31:58.942Z</time></trkpt><trkpt lat="44.4962493" lon="10.7947268"><ele>344.33333333333337</ele><time>2026-04-18T15:31:59.942Z</time></trkpt><trkpt lat="44.4962921" lon="10.79483"><ele>341.6666666666667</ele><time>2026-04-18T15:32:00.942Z</time></trkpt><trkpt lat="44.4963275" lon="10.7949254"><ele>339.0</ele><time>2026-04-18T15:32:01.941Z</time></trkpt><trkpt lat="44.4963614" lon="10.795023"><ele>336.3333333333333</ele><time>2026-04-18T15:32:02.941Z</time></trkpt><trkpt lat="44.4963931" lon="10.79512"><ele>333.66666666666663</ele><time>2026-04-18T15:32:03.941Z</time></trkpt><trkpt lat="44.4964283" lon="10.7952145"><ele>331.0</ele><time>2026-04-18T15:32:04.941Z</time></trkpt><trkpt lat="44.4964737" lon="10.7953004"><ele>330.66666666666663</ele><time>2026-04-18T15:32:05.941Z</time></trkpt><trkpt lat="44.4965254" lon="10.7953826"><ele>330.3333333333333</ele><time>2026-04-18T15:32:06.941Z</time></trkpt><trkpt lat="44.4965798" lon="10.7954678"><ele>330.0</ele><time>2026-04-18T15:32:07.942Z</time></trkpt><trkpt lat="44.4966461" lon="10.7955607"><ele>329.6666666666667</ele><time>2026-04-18T15:32:08.942Z</time></trkpt><trkpt lat="44.4967123" lon="10.7956456"><ele>329.33333333333337</ele><time>2026-04-18T15:32:09.942Z</time></trkpt><trkpt lat="44.4967643" lon="10.7957285"><ele>329.0</ele><time>2026-04-18T15:32:10.941Z</time></trkpt><trkpt lat="44.4968132" lon="10.7958051"><ele>329.0</ele><time>2026-04-18T15:32:11.942Z</time></trkpt><trkpt lat="44.4968521" lon="10.7958906"><ele>329.0</ele><time>2026-04-18T15:32:12.942Z</time></trkpt><trkpt lat="44.4968855" lon="10.7959814"><ele>329.0</ele><time>2026-04-18T15:32:13.941Z</time></trkpt><trkpt lat="44.4969195" lon="10.7960897"><ele>329.0</ele><time>2026-04-18T15:32:14.942Z</time></trkpt><trkpt lat="44.4969645" lon="10.7962131"><ele>329.0</ele><time>2026-04-18T15:32:15.941Z</time></trkpt><trkpt lat="44.4970153" lon="10.796343"><ele>329.0</ele><time>2026-04-18T15:32:16.942Z</time></trkpt><trkpt lat="44.4970724" lon="10.7964735"><ele>328.79999999999995</ele><time>2026-04-18T15:32:17.942Z</time></trkpt><trkpt lat="44.497136" lon="10.7965998"><ele>328.59999999999997</ele><time>2026-04-18T15:32:18.941Z</time></trkpt><trkpt lat="44.4971999" lon="10.7967235"><ele>328.4</ele><time>2026-04-18T15:32:19.942Z</time></trkpt><trkpt lat="44.4972618" lon="10.7968426"><ele>328.2</ele><time>2026-04-18T15:32:20.941Z</time></trkpt><trkpt lat="44.4973271" lon="10.7969345"><ele>328.0</ele><time>2026-04-18T15:32:21.942Z</time></trkpt><trkpt lat="44.4973854" lon="10.7970041"><ele>327.59999999999997</ele><time>2026-04-18T15:32:22.941Z</time></trkpt><trkpt lat="44.4974192" lon="10.7970858"><ele>327.2</ele><time>2026-04-18T15:32:23.942Z</time></trkpt><trkpt lat="44.4974143" lon="10.797286"><ele>326.8</ele><time>2026-04-18T15:32:25.942Z</time></trkpt><trkpt lat="44.4973951" lon="10.7974252"><ele>326.4</ele><time>2026-04-18T15:32:26.942Z</time></trkpt><trkpt lat="44.4973733" lon="10.7975792"><ele>326.0</ele><time>2026-04-18T15:32:27.941Z</time></trkpt><trkpt lat="44.4973664" lon="10.7977235"><ele>326.0</ele><time>2026-04-18T15:32:28.941Z</time></trkpt><trkpt lat="44.4973729" lon="10.7978637"><ele>326.0</ele><time>2026-04-18T15:32:29.942Z</time></trkpt><trkpt lat="44.4974098" lon="10.7979977"><ele>326.0</ele><time>2026-04-18T15:32:30.941Z</time></trkpt><trkpt lat="44.4974395" lon="10.7981181"><ele>326.0</ele><time>2026-04-18T15:32:31.941Z</time></trkpt><trkpt lat="44.4974475" lon="10.7982296"><ele>326.0</ele><time>2026-04-18T15:32:32.942Z</time></trkpt><trkpt lat="44.4974224" lon="10.7983392"><ele>326.0</ele><time>2026-04-18T15:32:33.941Z</time></trkpt><trkpt lat="44.4973839" lon="10.7984597"><ele>326.0</ele><time>2026-04-18T15:32:34.942Z</time></trkpt><trkpt lat="44.4973501" lon="10.7985763"><ele>326.0</ele><time>2026-04-18T15:32:35.942Z</time></trkpt><trkpt lat="44.4973269" lon="10.7986965"><ele>326.0</ele><time>2026-04-18T15:32:36.941Z</time></trkpt><trkpt lat="44.4973259" lon="10.7988189"><ele>326.0</ele><time>2026-04-18T15:32:37.942Z</time></trkpt><trkpt lat="44.4973514" lon="10.7989531"><ele>323.5</ele><time>2026-04-18T15:32:38.941Z</time></trkpt><trkpt lat="44.4974051" lon="10.7991012"><ele>321.0</ele><time>2026-04-18T15:32:39.942Z</time></trkpt><trkpt lat="44.4974736" lon="10.7992669"><ele>318.5</ele><time>2026-04-18T15:32:40.942Z</time></trkpt><trkpt lat="44.4975301" lon="10.7994196"><ele>316.0</ele><time>2026-04-18T15:32:41.941Z</time></trkpt><trkpt lat="44.4975735" lon="10.7995497"><ele>315.5</ele><time>2026-04-18T15:32:42.942Z</time></trkpt><trkpt lat="44.4976209" lon="10.7996669"><ele>315.0</ele><time>2026-04-18T15:32:43.941Z</time></trkpt><trkpt lat="44.4976687" lon="10.7997684"><ele>314.5</ele><time>2026-04-18T15:32:44.941Z</time></trkpt><trkpt lat="44.4977186" lon="10.7998674"><ele>314.0</ele><time>2026-04-18T15:32:45.941Z</time></trkpt><trkpt lat="44.49778" lon="10.799957"><ele>313.5</ele><time>2026-04-18T15:32:46.941Z</time></trkpt><trkpt lat="44.4978388" lon="10.8000515"><ele>313.0</ele><time>2026-04-18T15:32:47.942Z</time></trkpt><trkpt lat="44.4978975" lon="10.8001453"><ele>312.3333333333333</ele><time>2026-04-18T15:32:48.942Z</time></trkpt><trkpt lat="44.4979518" lon="10.8002359"><ele>311.66666666666663</ele><time>2026-04-18T15:32:49.942Z</time></trkpt><trkpt lat="44.4980076" lon="10.8003331"><ele>311.0</ele><time>2026-04-18T15:32:50.941Z</time></trkpt><trkpt lat="44.4980594" lon="10.8004296"><ele>310.3333333333333</ele><time>2026-04-18T15:32:51.941Z</time></trkpt><trkpt lat="44.4981034" lon="10.8005217"><ele>309.6666666666667</ele><time>2026-04-18T15:32:52.941Z</time></trkpt><trkpt lat="44.4981568" lon="10.800608"><ele>309.0</ele><time>2026-04-18T15:32:53.941Z</time></trkpt><trkpt lat="44.4982227" lon="10.8006823"><ele>309.0</ele><time>2026-04-18T15:32:54.941Z</time></trkpt><trkpt lat="44.4982984" lon="10.8007394"><ele>309.0</ele><time>2026-04-18T15:32:55.941Z</time></trkpt><trkpt lat="44.4983687" lon="10.8008135"><ele>309.0</ele><time>2026-04-18T15:32:56.941Z</time></trkpt><trkpt lat="44.4984352" lon="10.8009038"><ele>309.0</ele><time>2026-04-18T15:32:57.941Z</time></trkpt><trkpt lat="44.49849" lon="10.800998"><ele>309.0</ele><time>2026-04-18T15:32:58.941Z</time></trkpt><trkpt lat="44.4985331" lon="10.8011057"><ele>309.0</ele><time>2026-04-18T15:32:59.941Z</time></trkpt><trkpt lat="44.4985669" lon="10.801221"><ele>308.0</ele><time>2026-04-18T15:33:00.941Z</time></trkpt><trkpt lat="44.4986036" lon="10.8013413"><ele>307.0</ele><time>2026-04-18T15:33:01.941Z</time></trkpt><trkpt lat="44.4986345" lon="10.8014507"><ele>306.0</ele><time>2026-04-18T15:33:02.941Z</time></trkpt><trkpt lat="44.4986686" lon="10.8015497"><ele>305.0</ele><time>2026-04-18T15:33:03.941Z</time></trkpt><trkpt lat="44.4987093" lon="10.8016483"><ele>304.0</ele><time>2026-04-18T15:33:04.941Z</time></trkpt><trkpt lat="44.4987596" lon="10.8017426"><ele>303.0</ele><time>2026-04-18T15:33:05.941Z</time></trkpt><trkpt lat="44.4988184" lon="10.8018218"><ele>301.5</ele><time>2026-04-18T15:33:06.941Z</time></trkpt><trkpt lat="44.4988773" lon="10.8018899"><ele>300.0</ele><time>2026-04-18T15:33:07.942Z</time></trkpt><trkpt lat="44.4989438" lon="10.801944"><ele>298.5</ele><time>2026-04-18T15:33:08.941Z</time></trkpt><trkpt lat="44.4990087" lon="10.8019882"><ele>297.0</ele><time>2026-04-18T15:33:09.942Z</time></trkpt><trkpt lat="44.4990802" lon="10.8020322"><ele>295.5</ele><time>2026-04-18T15:33:10.942Z</time></trkpt><trkpt lat="44.4991514" lon="10.8020793"><ele>294.0</ele><time>2026-04-18T15:33:11.942Z</time></trkpt><trkpt lat="44.4992166" lon="10.8021411"><ele>294.0</ele><time>2026-04-18T15:33:12.942Z</time></trkpt><trkpt lat="44.4992764" lon="10.8022183"><ele>294.0</ele><time>2026-04-18T15:33:13.941Z</time></trkpt><trkpt lat="44.4993223" lon="10.8023125"><ele>294.0</ele><time>2026-04-18T15:33:14.941Z</time></trkpt><trkpt lat="44.499361" lon="10.8024077"><ele>294.0</ele><time>2026-04-18T15:33:15.941Z</time></trkpt><trkpt lat="44.499401" lon="10.8024982"><ele>294.0</ele><time>2026-04-18T15:33:16.942Z</time></trkpt><trkpt lat="44.4994481" lon="10.8025935"><ele>294.0</ele><time>2026-04-18T15:33:18.941Z</time></trkpt><trkpt lat="44.4995078" lon="10.8026565"><ele>294.8333333333333</ele><time>2026-04-18T15:34:14.942Z</time></trkpt><trkpt lat="44.4996011" lon="10.8027418"><ele>295.6666666666667</ele><time>2026-04-18T15:34:16.941Z</time></trkpt><trkpt lat="44.4996615" lon="10.802789"><ele>296.5</ele><time>2026-04-18T15:34:17.942Z</time></trkpt><trkpt lat="44.4997295" lon="10.8028519"><ele>297.33333333333337</ele><time>2026-04-18T15:34:18.942Z</time></trkpt><trkpt lat="44.4998001" lon="10.8029207"><ele>298.1666666666667</ele><time>2026-04-18T15:34:19.941Z</time></trkpt><trkpt lat="44.4998706" lon="10.8029819"><ele>299.0</ele><time>2026-04-18T15:34:20.942Z</time></trkpt><trkpt lat="44.4999406" lon="10.8030388"><ele>299.0</ele><time>2026-04-18T15:34:21.942Z</time></trkpt><trkpt lat="44.5000068" lon="10.8030928"><ele>299.0</ele><time>2026-04-18T15:34:22.941Z</time></trkpt><trkpt lat="44.5000635" lon="10.8031414"><ele>299.0</ele><time>2026-04-18T15:34:23.941Z</time></trkpt><trkpt lat="44.5001161" lon="10.8032403"><ele>299.0</ele><time>2026-04-18T15:34:25.942Z</time></trkpt><trkpt lat="44.5001387" lon="10.8033397"><ele>299.0</ele><time>2026-04-18T15:34:27.941Z</time></trkpt><trkpt lat="44.5001532" lon="10.8034457"><ele>299.0</ele><time>2026-04-18T15:34:29.942Z</time></trkpt><trkpt lat="44.5001616" lon="10.8035629"><ele>299.0</ele><time>2026-04-18T15:34:31.941Z</time></trkpt><trkpt lat="44.5001779" lon="10.8036546"><ele>299.0</ele><time>2026-04-18T15:34:32.942Z</time></trkpt><trkpt lat="44.5001985" lon="10.8038274"><ele>299.0</ele><time>2026-04-18T15:34:34.941Z</time></trkpt><trkpt lat="44.5001928" lon="10.8039916"><ele>299.0</ele><time>2026-04-18T15:34:36.942Z</time></trkpt><trkpt lat="44.5001719" lon="10.8041374"><ele>299.0</ele><time>2026-04-18T15:34:38.941Z</time></trkpt><trkpt lat="44.5001707" lon="10.80429"><ele>298.0</ele><time>2026-04-18T15:34:40.941Z</time></trkpt><trkpt lat="44.5002013" lon="10.8044651"><ele>297.0</ele><time>2026-04-18T15:34:42.941Z</time></trkpt><trkpt lat="44.5002225" lon="10.8045532"><ele>296.0</ele><time>2026-04-18T15:34:43.942Z</time></trkpt><trkpt lat="44.5002517" lon="10.8046448"><ele>295.0</ele><time>2026-04-18T15:34:44.941Z</time></trkpt><trkpt lat="44.5002839" lon="10.8047386"><ele>294.0</ele><time>2026-04-18T15:34:45.942Z</time></trkpt><trkpt lat="44.5003131" lon="10.8048286"><ele>293.0</ele><time>2026-04-18T15:34:46.941Z</time></trkpt><trkpt lat="44.5003437" lon="10.8049171"><ele>292.99999999999994</ele><time>2026-04-18T15:34:47.941Z</time></trkpt><trkpt lat="44.5003828" lon="10.8049931"><ele>293.0</ele><time>2026-04-18T15:34:48.942Z</time></trkpt><trkpt lat="44.5004285" lon="10.8050669"><ele>293.0</ele><time>2026-04-18T15:34:49.941Z</time></trkpt><trkpt lat="44.5004771" lon="10.8051519"><ele>293.0</ele><time>2026-04-18T15:34:50.941Z</time></trkpt><trkpt lat="44.5005174" lon="10.8052439"><ele>293.0</ele><time>2026-04-18T15:34:51.942Z</time></trkpt><trkpt lat="44.5005559" lon="10.805329"><ele>292.99999999999994</ele><time>2026-04-18T15:34:52.942Z</time></trkpt><trkpt lat="44.5005858" lon="10.805426"><ele>293.0</ele><time>2026-04-18T15:34:53.941Z</time></trkpt><trkpt lat="44.5006203" lon="10.8055201"><ele>291.8</ele><time>2026-04-18T15:34:54.941Z</time></trkpt><trkpt lat="44.5006538" lon="10.8056218"><ele>290.6</ele><time>2026-04-18T15:34:55.941Z</time></trkpt><trkpt lat="44.5006871" lon="10.8057005"><ele>289.4</ele><time>2026-04-18T15:34:56.941Z</time></trkpt><trkpt lat="44.5007549" lon="10.8058403"><ele>288.2</ele><time>2026-04-18T15:34:58.941Z</time></trkpt><trkpt lat="44.5007942" lon="10.8059103"><ele>287.0</ele><time>2026-04-18T15:34:59.941Z</time></trkpt><trkpt lat="44.5008691" lon="10.8060511"><ele>287.0</ele><time>2026-04-18T15:35:01.942Z</time></trkpt><trkpt lat="44.5009068" lon="10.8061236"><ele>287.0</ele><time>2026-04-18T15:35:02.942Z</time></trkpt><trkpt lat="44.5009394" lon="10.8061993"><ele>287.0</ele><time>2026-04-18T15:35:03.941Z</time></trkpt><trkpt lat="44.5010008" lon="10.8063469"><ele>287.0</ele><time>2026-04-18T15:35:05.942Z</time></trkpt><trkpt lat="44.5010399" lon="10.8065169"><ele>287.0</ele><time>2026-04-18T15:35:07.941Z</time></trkpt><trkpt lat="44.5010612" lon="10.8066134"><ele>287.0</ele><time>2026-04-18T15:35:08.941Z</time></trkpt><trkpt lat="44.5011129" lon="10.806761"><ele>286.0</ele><time>2026-04-18T15:35:10.941Z</time></trkpt><trkpt lat="44.5011679" lon="10.8068827"><ele>285.0</ele><time>2026-04-18T15:35:12.941Z</time></trkpt><trkpt lat="44.5012217" lon="10.8070125"><ele>284.0</ele><time>2026-04-18T15:35:14.942Z</time></trkpt><trkpt lat="44.5012923" lon="10.8071711"><ele>283.0</ele><time>2026-04-18T15:35:16.941Z</time></trkpt><trkpt lat="44.5013322" lon="10.8072648"><ele>282.0</ele><time>2026-04-18T15:35:17.941Z</time></trkpt><trkpt lat="44.5013814" lon="10.8073744"><ele>285.1666666666667</ele><time>2026-04-18T15:35:18.941Z</time></trkpt><trkpt lat="44.5014434" lon="10.8074983"><ele>288.3333333333333</ele><time>2026-04-18T15:35:19.941Z</time></trkpt><trkpt lat="44.5014915" lon="10.8076089"><ele>291.5</ele><time>2026-04-18T15:35:20.941Z</time></trkpt><trkpt lat="44.5015454" lon="10.8077036"><ele>294.66666666666663</ele><time>2026-04-18T15:35:21.941Z</time></trkpt><trkpt lat="44.5016032" lon="10.8077863"><ele>297.8333333333333</ele><time>2026-04-18T15:35:22.941Z</time></trkpt><trkpt lat="44.5016646" lon="10.8078431"><ele>301.0</ele><time>2026-04-18T15:35:23.941Z</time></trkpt><trkpt lat="44.50173" lon="10.807893"><ele>301.0</ele><time>2026-04-18T15:35:24.942Z</time></trkpt><trkpt lat="44.5018049" lon="10.8079445"><ele>301.0</ele><time>2026-04-18T15:35:25.941Z</time></trkpt><trkpt lat="44.5018746" lon="10.8079991"><ele>301.0</ele><time>2026-04-18T15:35:26.942Z</time></trkpt><trkpt lat="44.5019434" lon="10.8080494"><ele>301.0</ele><time>2026-04-18T15:35:27.942Z</time></trkpt><trkpt lat="44.502025" lon="10.8081042"><ele>301.0</ele><time>2026-04-18T15:35:28.941Z</time></trkpt><trkpt lat="44.502104" lon="10.808156"><ele>301.0</ele><time>2026-04-18T15:35:29.942Z</time></trkpt><trkpt lat="44.5021694" lon="10.8082063"><ele>301.3333333333333</ele><time>2026-04-18T15:35:30.942Z</time></trkpt><trkpt lat="44.5022426" lon="10.8082794"><ele>301.66666666666663</ele><time>2026-04-18T15:35:32.941Z</time></trkpt><trkpt lat="44.5022911" lon="10.8083419"><ele>302.0</ele><time>2026-04-18T15:35:35.941Z</time></trkpt><trkpt lat="44.5023447" lon="10.8084066"><ele>302.3333333333333</ele><time>2026-04-18T15:35:37.941Z</time></trkpt><trkpt lat="44.502407" lon="10.8084879"><ele>302.6666666666667</ele><time>2026-04-18T15:35:39.941Z</time></trkpt><trkpt lat="44.5024817" lon="10.8086097"><ele>303.0</ele><time>2026-04-18T15:35:41.942Z</time></trkpt><trkpt lat="44.5025228" lon="10.8086849"><ele>303.0</ele><time>2026-04-18T15:35:42.942Z</time></trkpt><trkpt lat="44.5025697" lon="10.8087609"><ele>303.0</ele><time>2026-04-18T15:35:43.942Z</time></trkpt><trkpt lat="44.5026185" lon="10.8088414"><ele>303.0</ele><time>2026-04-18T15:35:44.942Z</time></trkpt><trkpt lat="44.502664" lon="10.8089142"><ele>303.0</ele><time>2026-04-18T15:35:45.941Z</time></trkpt><trkpt lat="44.5027054" lon="10.8089892"><ele>303.0</ele><time>2026-04-18T15:35:46.941Z</time></trkpt><trkpt lat="44.502764" lon="10.8090558"><ele>303.0</ele><time>2026-04-18T15:35:47.941Z</time></trkpt><trkpt lat="44.5028271" lon="10.8091084"><ele>303.0</ele><time>2026-04-18T15:35:48.941Z</time></trkpt><trkpt lat="44.5028858" lon="10.8091602"><ele>302.42857142857144</ele><time>2026-04-18T15:35:49.941Z</time></trkpt><trkpt lat="44.502944" lon="10.8092109"><ele>301.85714285714283</ele><time>2026-04-18T15:35:50.941Z</time></trkpt><trkpt lat="44.5030089" lon="10.8092605"><ele>301.2857142857143</ele><time>2026-04-18T15:35:51.942Z</time></trkpt><trkpt lat="44.5030673" lon="10.8092992"><ele>300.7142857142857</ele><time>2026-04-18T15:35:52.941Z</time></trkpt><trkpt lat="44.5031344" lon="10.8093425"><ele>300.14285714285717</ele><time>2026-04-18T15:35:53.942Z</time></trkpt><trkpt lat="44.503189" lon="10.809408"><ele>299.57142857142856</ele><time>2026-04-18T15:35:54.941Z</time></trkpt><trkpt lat="44.5032456" lon="10.8094746"><ele>299.0</ele><time>2026-04-18T15:35:55.942Z</time></trkpt><trkpt lat="44.5033102" lon="10.8095468"><ele>299.0</ele><time>2026-04-18T15:35:56.941Z</time></trkpt><trkpt lat="44.5033767" lon="10.8096246"><ele>299.0</ele><time>2026-04-18T15:35:57.942Z</time></trkpt><trkpt lat="44.5034391" lon="10.8096933"><ele>299.0</ele><time>2026-04-18T15:35:58.941Z</time></trkpt><trkpt lat="44.5034908" lon="10.8097491"><ele>299.0</ele><time>2026-04-18T15:35:59.942Z</time></trkpt><trkpt lat="44.5035743" lon="10.8098269"><ele>299.0</ele><time>2026-04-18T15:36:01.941Z</time></trkpt><trkpt lat="44.5036902" lon="10.8099048"><ele>299.5</ele><time>2026-04-18T15:36:03.941Z</time></trkpt><trkpt lat="44.5037579" lon="10.8099412"><ele>300.0</ele><time>2026-04-18T15:36:04.941Z</time></trkpt><trkpt lat="44.5038324" lon="10.8099863"><ele>300.5</ele><time>2026-04-18T15:36:05.942Z</time></trkpt><trkpt lat="44.5039108" lon="10.8100283"><ele>301.0</ele><time>2026-04-18T15:36:06.942Z</time></trkpt><trkpt lat="44.5039913" lon="10.8100757"><ele>301.5</ele><time>2026-04-18T15:36:07.941Z</time></trkpt><trkpt lat="44.5040701" lon="10.8101276"><ele>302.0</ele><time>2026-04-18T15:36:08.941Z</time></trkpt><trkpt lat="44.5041405" lon="10.8101667"><ele>302.0</ele><time>2026-04-18T15:36:09.941Z</time></trkpt><trkpt lat="44.5042127" lon="10.8102159"><ele>302.0</ele><time>2026-04-18T15:36:10.942Z</time></trkpt><trkpt lat="44.5042839" lon="10.8102691"><ele>302.0</ele><time>2026-04-18T15:36:11.941Z</time></trkpt><trkpt lat="44.5043536" lon="10.8103217"><ele>302.0</ele><time>2026-04-18T15:36:12.941Z</time></trkpt><trkpt lat="44.5044226" lon="10.8103777"><ele>302.0</ele><time>2026-04-18T15:36:13.942Z</time></trkpt><trkpt lat="44.5044799" lon="10.8104274"><ele>302.0</ele><time>2026-04-18T15:36:14.941Z</time></trkpt><trkpt lat="44.5045471" lon="10.8104997"><ele>302.8</ele><time>2026-04-18T15:36:16.942Z</time></trkpt><trkpt lat="44.5046093" lon="10.8105841"><ele>303.6</ele><time>2026-04-18T15:36:19.941Z</time></trkpt><trkpt lat="44.5046674" lon="10.8107059"><ele>304.40000000000003</ele><time>2026-04-18T15:37:07.942Z</time></trkpt><trkpt lat="44.5047316" lon="10.8108632"><ele>305.2</ele><time>2026-04-18T15:37:09.941Z</time></trkpt><trkpt lat="44.5048051" lon="10.8109998"><ele>306.0</ele><time>2026-04-18T15:37:11.941Z</time></trkpt><trkpt lat="44.5048571" lon="10.8111169"><ele>306.5</ele><time>2026-04-18T15:37:13.942Z</time></trkpt><trkpt lat="44.5048963" lon="10.8112199"><ele>307.0</ele><time>2026-04-18T15:37:15.942Z</time></trkpt><trkpt lat="44.5049387" lon="10.8113295"><ele>307.5</ele><time>2026-04-18T15:37:17.942Z</time></trkpt><trkpt lat="44.5049845" lon="10.8114405"><ele>308.0</ele><time>2026-04-18T15:37:19.942Z</time></trkpt><trkpt lat="44.5050298" lon="10.8115358"><ele>308.5</ele><time>2026-04-18T15:37:21.942Z</time></trkpt><trkpt lat="44.5050867" lon="10.811628"><ele>309.0</ele><time>2026-04-18T15:37:23.942Z</time></trkpt><trkpt lat="44.5051555" lon="10.8117091"><ele>309.0</ele><time>2026-04-18T15:37:25.941Z</time></trkpt><trkpt lat="44.5052403" lon="10.8117752"><ele>309.0</ele><time>2026-04-18T15:37:27.941Z</time></trkpt><trkpt lat="44.5053152" lon="10.8118328"><ele>309.0</ele><time>2026-04-18T15:37:29.941Z</time></trkpt><trkpt lat="44.5053772" lon="10.8118712"><ele>309.0</ele><time>2026-04-18T15:37:31.942Z</time></trkpt><trkpt lat="44.5054666" lon="10.8119418"><ele>309.0</ele><time>2026-04-18T15:37:33.942Z</time></trkpt><trkpt lat="44.5055552" lon="10.8120278"><ele>307.59999999999997</ele><time>2026-04-18T15:37:35.942Z</time></trkpt><trkpt lat="44.5056373" lon="10.8121244"><ele>306.2</ele><time>2026-04-18T15:37:37.941Z</time></trkpt><trkpt lat="44.5057246" lon="10.8122355"><ele>304.79999999999995</ele><time>2026-04-18T15:37:39.942Z</time></trkpt><trkpt lat="44.5057791" lon="10.8123564"><ele>303.4</ele><time>2026-04-18T15:37:41.942Z</time></trkpt><trkpt lat="44.5057897" lon="10.8124556"><ele>302.0</ele><time>2026-04-18T15:37:43.941Z</time></trkpt><trkpt lat="44.5057866" lon="10.8125904"><ele>301.83333333333337</ele><time>2026-04-18T15:37:46.941Z</time></trkpt><trkpt lat="44.5057741" lon="10.8127208"><ele>301.6666666666667</ele><time>2026-04-18T15:37:48.941Z</time></trkpt><trkpt lat="44.5057271" lon="10.812859"><ele>301.5</ele><time>2026-04-18T15:37:50.942Z</time></trkpt><trkpt lat="44.5056844" lon="10.8129337"><ele>301.3333333333333</ele><time>2026-04-18T15:37:51.942Z</time></trkpt><trkpt lat="44.5056208" lon="10.8130174"><ele>301.16666666666663</ele><time>2026-04-18T15:37:52.942Z</time></trkpt><trkpt lat="44.5055468" lon="10.8130786"><ele>301.0</ele><time>2026-04-18T15:37:53.941Z</time></trkpt><trkpt lat="44.5054636" lon="10.8130973"><ele>297.25</ele><time>2026-04-18T15:37:54.941Z</time></trkpt><trkpt lat="44.5053364" lon="10.8130832"><ele>293.5</ele><time>2026-04-18T15:37:55.941Z</time></trkpt><trkpt lat="44.5051914" lon="10.813059"><ele>289.75</ele><time>2026-04-18T15:37:56.941Z</time></trkpt><trkpt lat="44.5050648" lon="10.813033"><ele>286.0</ele><time>2026-04-18T15:37:57.941Z</time></trkpt><trkpt lat="44.5049619" lon="10.813"><ele>286.0</ele><time>2026-04-18T15:37:58.941Z</time></trkpt><trkpt lat="44.5048708" lon="10.8129549"><ele>286.0</ele><time>2026-04-18T15:37:59.941Z</time></trkpt><trkpt lat="44.5047915" lon="10.8128798"><ele>286.0</ele><time>2026-04-18T15:38:00.941Z</time></trkpt><trkpt lat="44.5047217" lon="10.8127863"><ele>286.0</ele><time>2026-04-18T15:38:01.941Z</time></trkpt><trkpt lat="44.504654" lon="10.8126724"><ele>286.0</ele><time>2026-04-18T15:38:02.941Z</time></trkpt><trkpt lat="44.5045883" lon="10.8125477"><ele>283.0</ele><time>2026-04-18T15:38:03.942Z</time></trkpt><trkpt lat="44.5045269" lon="10.812429"><ele>280.0</ele><time>2026-04-18T15:38:04.941Z</time></trkpt><trkpt lat="44.504456" lon="10.8123298"><ele>277.0</ele><time>2026-04-18T15:38:05.941Z</time></trkpt><trkpt lat="44.5043735" lon="10.8122471"><ele>274.0</ele><time>2026-04-18T15:38:06.942Z</time></trkpt><trkpt lat="44.5042886" lon="10.8121757"><ele>271.0</ele><time>2026-04-18T15:38:07.941Z</time></trkpt><trkpt lat="44.504199" lon="10.812127"><ele>271.0</ele><time>2026-04-18T15:38:08.941Z</time></trkpt><trkpt lat="44.5041051" lon="10.812096"><ele>271.0</ele><time>2026-04-18T15:38:09.942Z</time></trkpt><trkpt lat="44.5040096" lon="10.8120804"><ele>271.0</ele><time>2026-04-18T15:38:10.942Z</time></trkpt><trkpt lat="44.5039143" lon="10.8120604"><ele>271.0</ele><time>2026-04-18T15:38:11.941Z</time></trkpt><trkpt lat="44.5038216" lon="10.8120144"><ele>271.0</ele><time>2026-04-18T15:38:12.941Z</time></trkpt><trkpt lat="44.5037257" lon="10.8119451"><ele>269.25</ele><time>2026-04-18T15:38:13.942Z</time></trkpt><trkpt lat="44.5036282" lon="10.8118569"><ele>267.5</ele><time>2026-04-18T15:38:14.941Z</time></trkpt><trkpt lat="44.5035262" lon="10.8117584"><ele>265.75</ele><time>2026-04-18T15:38:15.941Z</time></trkpt><trkpt lat="44.5034192" lon="10.8116661"><ele>264.0</ele><time>2026-04-18T15:38:16.941Z</time></trkpt><trkpt lat="44.5033151" lon="10.8115935"><ele>264.0</ele><time>2026-04-18T15:38:17.941Z</time></trkpt><trkpt lat="44.5032146" lon="10.8115216"><ele>264.0</ele><time>2026-04-18T15:38:18.941Z</time></trkpt><trkpt lat="44.5031162" lon="10.8114577"><ele>264.0</ele><time>2026-04-18T15:38:19.941Z</time></trkpt><trkpt lat="44.5030182" lon="10.8114061"><ele>264.0</ele><time>2026-04-18T15:38:20.942Z</time></trkpt><trkpt lat="44.5029241" lon="10.8114216"><ele>264.0</ele><time>2026-04-18T15:38:21.942Z</time></trkpt><trkpt lat="44.5028255" lon="10.8114483"><ele>263.0</ele><time>2026-04-18T15:38:22.942Z</time></trkpt><trkpt lat="44.5027282" lon="10.8114978"><ele>262.0</ele><time>2026-04-18T15:38:23.941Z</time></trkpt><trkpt lat="44.5026356" lon="10.8115587"><ele>261.0</ele><time>2026-04-18T15:38:24.942Z</time></trkpt><trkpt lat="44.5025527" lon="10.811618"><ele>260.0</ele><time>2026-04-18T15:38:25.942Z</time></trkpt><trkpt lat="44.5024832" lon="10.8116754"><ele>259.0</ele><time>2026-04-18T15:38:26.942Z</time></trkpt><trkpt lat="44.5024365" lon="10.8117444"><ele>258.0</ele><time>2026-04-18T15:38:27.941Z</time></trkpt><trkpt lat="44.5024188" lon="10.8118331"><ele>255.75</ele><time>2026-04-18T15:38:28.941Z</time></trkpt><trkpt lat="44.5024247" lon="10.8119519"><ele>253.5</ele><time>2026-04-18T15:38:29.942Z</time></trkpt><trkpt lat="44.5024492" lon="10.812102"><ele>251.25</ele><time>2026-04-18T15:38:30.942Z</time></trkpt><trkpt lat="44.5024805" lon="10.8122791"><ele>249.0</ele><time>2026-04-18T15:38:31.942Z</time></trkpt><trkpt lat="44.5025191" lon="10.8124844"><ele>246.66666666666669</ele><time>2026-04-18T15:38:32.941Z</time></trkpt><trkpt lat="44.5025619" lon="10.8126956"><ele>244.33333333333334</ele><time>2026-04-18T15:38:33.941Z</time></trkpt><trkpt lat="44.5026046" lon="10.8128969"><ele>242.0</ele><time>2026-04-18T15:38:34.941Z</time></trkpt><trkpt lat="44.5026506" lon="10.8130917"><ele>242.0</ele><time>2026-04-18T15:38:35.942Z</time></trkpt><trkpt lat="44.5026944" lon="10.813278"><ele>242.0</ele><time>2026-04-18T15:38:36.941Z</time></trkpt><trkpt lat="44.5027381" lon="10.8134588"><ele>242.0</ele><time>2026-04-18T15:38:37.942Z</time></trkpt><trkpt lat="44.5027787" lon="10.8136358"><ele>242.0</ele><time>2026-04-18T15:38:38.941Z</time></trkpt><trkpt lat="44.5028111" lon="10.813804"><ele>239.0</ele><time>2026-04-18T15:38:39.941Z</time></trkpt><trkpt lat="44.5028376" lon="10.8139653"><ele>236.0</ele><time>2026-04-18T15:38:40.942Z</time></trkpt><trkpt lat="44.5028657" lon="10.8141233"><ele>233.0</ele><time>2026-04-18T15:38:41.941Z</time></trkpt><trkpt lat="44.5028952" lon="10.8142833"><ele>230.0</ele><time>2026-04-18T15:38:42.941Z</time></trkpt><trkpt lat="44.502923" lon="10.8144432"><ele>227.6</ele><time>2026-04-18T15:38:43.941Z</time></trkpt><trkpt lat="44.5029489" lon="10.8146006"><ele>225.2</ele><time>2026-04-18T15:38:44.942Z</time></trkpt><trkpt lat="44.5029665" lon="10.814761"><ele>222.8</ele><time>2026-04-18T15:38:45.942Z</time></trkpt><trkpt lat="44.5029808" lon="10.8149105"><ele>220.4</ele><time>2026-04-18T15:38:46.941Z</time></trkpt><trkpt lat="44.5029918" lon="10.8150627"><ele>218.0</ele><time>2026-04-18T15:38:47.941Z</time></trkpt><trkpt lat="44.5030032" lon="10.8152052"><ele>216.4</ele><time>2026-04-18T15:38:48.941Z</time></trkpt><trkpt lat="44.5030159" lon="10.8153519"><ele>214.8</ele><time>2026-04-18T15:38:49.941Z</time></trkpt><trkpt lat="44.5030221" lon="10.8154983"><ele>213.2</ele><time>2026-04-18T15:38:50.941Z</time></trkpt><trkpt lat="44.5030299" lon="10.8156449"><ele>211.6</ele><time>2026-04-18T15:38:51.941Z</time></trkpt><trkpt lat="44.5030408" lon="10.8158077"><ele>210.0</ele><time>2026-04-18T15:38:52.942Z</time></trkpt><trkpt lat="44.5030507" lon="10.8159639"><ele>209.2</ele><time>2026-04-18T15:38:53.941Z</time></trkpt><trkpt lat="44.5030591" lon="10.816119"><ele>208.4</ele><time>2026-04-18T15:38:54.941Z</time></trkpt><trkpt lat="44.5030626" lon="10.816273"><ele>207.60000000000002</ele><time>2026-04-18T15:38:55.941Z</time></trkpt><trkpt lat="44.5030648" lon="10.8164171"><ele>206.8</ele><time>2026-04-18T15:38:56.941Z</time></trkpt><trkpt lat="44.5030644" lon="10.816566"><ele>206.0</ele><time>2026-04-18T15:38:57.942Z</time></trkpt><trkpt lat="44.503064" lon="10.8167155"><ele>205.4</ele><time>2026-04-18T15:38:58.941Z</time></trkpt><trkpt lat="44.5030512" lon="10.8168474"><ele>204.8</ele><time>2026-04-18T15:38:59.941Z</time></trkpt><trkpt lat="44.5030315" lon="10.8169849"><ele>204.20000000000002</ele><time>2026-04-18T15:39:00.941Z</time></trkpt><trkpt lat="44.5029976" lon="10.8171252"><ele>203.60000000000002</ele><time>2026-04-18T15:39:01.942Z</time></trkpt><trkpt lat="44.5029606" lon="10.817255"><ele>203.0</ele><time>2026-04-18T15:39:02.941Z</time></trkpt><trkpt lat="44.5029168" lon="10.8173793"><ele>201.60000000000002</ele><time>2026-04-18T15:39:03.942Z</time></trkpt><trkpt lat="44.5028742" lon="10.8175028"><ele>200.20000000000002</ele><time>2026-04-18T15:39:04.942Z</time></trkpt><trkpt lat="44.5028305" lon="10.8176182"><ele>198.8</ele><time>2026-04-18T15:39:05.942Z</time></trkpt><trkpt lat="44.5027838" lon="10.8177261"><ele>197.4</ele><time>2026-04-18T15:39:06.941Z</time></trkpt><trkpt lat="44.5027319" lon="10.8178319"><ele>196.0</ele><time>2026-04-18T15:39:07.941Z</time></trkpt><trkpt lat="44.5026823" lon="10.8179395"><ele>195.83333333333331</ele><time>2026-04-18T15:39:08.942Z</time></trkpt><trkpt lat="44.5026363" lon="10.8180422"><ele>195.66666666666666</ele><time>2026-04-18T15:39:09.942Z</time></trkpt><trkpt lat="44.5025966" lon="10.8181434"><ele>195.5</ele><time>2026-04-18T15:39:10.942Z</time></trkpt><trkpt lat="44.5025595" lon="10.8182378"><ele>195.33333333333331</ele><time>2026-04-18T15:39:11.941Z</time></trkpt><trkpt lat="44.5024972" lon="10.818352"><ele>195.16666666666666</ele><time>2026-04-18T15:39:13.942Z</time></trkpt><trkpt lat="44.5024417" lon="10.8184179"><ele>195.0</ele><time>2026-04-18T15:39:17.941Z</time></trkpt><trkpt lat="44.502454" lon="10.8185385"><ele>194.75</ele><time>2026-04-18T15:39:19.941Z</time></trkpt><trkpt lat="44.5025177" lon="10.8186561"><ele>194.5</ele><time>2026-04-18T15:39:20.942Z</time></trkpt><trkpt lat="44.5025733" lon="10.8187794"><ele>194.25</ele><time>2026-04-18T15:39:21.942Z</time></trkpt><trkpt lat="44.5026264" lon="10.8189306"><ele>194.0</ele><time>2026-04-18T15:39:22.941Z</time></trkpt><trkpt lat="44.5026618" lon="10.8191008"><ele>194.0</ele><time>2026-04-18T15:39:23.941Z</time></trkpt><trkpt lat="44.5026887" lon="10.8192685"><ele>194.0</ele><time>2026-04-18T15:39:24.941Z</time></trkpt><trkpt lat="44.5027179" lon="10.8194247"><ele>194.0</ele><time>2026-04-18T15:39:25.941Z</time></trkpt><trkpt lat="44.502749" lon="10.8195757"><ele>194.0</ele><time>2026-04-18T15:39:26.942Z</time></trkpt><trkpt lat="44.5027815" lon="10.8197257"><ele>193.25</ele><time>2026-04-18T15:39:27.941Z</time></trkpt><trkpt lat="44.5028069" lon="10.819888"><ele>192.5</ele><time>2026-04-18T15:39:28.942Z</time></trkpt><trkpt lat="44.5028311" lon="10.8200485"><ele>191.75</ele><time>2026-04-18T15:39:29.941Z</time></trkpt><trkpt lat="44.5028379" lon="10.8202043"><ele>191.0</ele><time>2026-04-18T15:39:30.942Z</time></trkpt><trkpt lat="44.5028383" lon="10.8203801"><ele>189.75</ele><time>2026-04-18T15:39:31.942Z</time></trkpt><trkpt lat="44.5028242" lon="10.8205568"><ele>188.5</ele><time>2026-04-18T15:39:32.941Z</time></trkpt><trkpt lat="44.5028067" lon="10.8207383"><ele>187.25</ele><time>2026-04-18T15:39:33.942Z</time></trkpt><trkpt lat="44.5027849" lon="10.8209254"><ele>186.0</ele><time>2026-04-18T15:39:34.941Z</time></trkpt><trkpt lat="44.5027709" lon="10.8211137"><ele>185.75</ele><time>2026-04-18T15:39:35.942Z</time></trkpt><trkpt lat="44.5027671" lon="10.8213102"><ele>185.5</ele><time>2026-04-18T15:39:36.942Z</time></trkpt><trkpt lat="44.5027862" lon="10.8215135"><ele>185.25</ele><time>2026-04-18T15:39:37.941Z</time></trkpt><trkpt lat="44.5028129" lon="10.8217226"><ele>185.0</ele><time>2026-04-18T15:39:38.941Z</time></trkpt><trkpt lat="44.5028457" lon="10.8219422"><ele>184.66666666666666</ele><time>2026-04-18T15:39:39.942Z</time></trkpt><trkpt lat="44.5028792" lon="10.8221674"><ele>184.33333333333334</ele><time>2026-04-18T15:39:40.941Z</time></trkpt><trkpt lat="44.5029116" lon="10.8223928"><ele>184.0</ele><time>2026-04-18T15:39:41.942Z</time></trkpt><trkpt lat="44.50294" lon="10.8226028"><ele>183.25</ele><time>2026-04-18T15:39:42.942Z</time></trkpt><trkpt lat="44.5029662" lon="10.8227999"><ele>182.5</ele><time>2026-04-18T15:39:43.942Z</time></trkpt><trkpt lat="44.5029921" lon="10.8229802"><ele>181.75</ele><time>2026-04-18T15:39:44.941Z</time></trkpt><trkpt lat="44.503017" lon="10.8231492"><ele>181.0</ele><time>2026-04-18T15:39:45.941Z</time></trkpt><trkpt lat="44.5030335" lon="10.8233078"><ele>181.0</ele><time>2026-04-18T15:39:46.941Z</time></trkpt><trkpt lat="44.5030164" lon="10.82345"><ele>181.0</ele><time>2026-04-18T15:39:47.941Z</time></trkpt><trkpt lat="44.5029874" lon="10.8235917"><ele>181.0</ele><time>2026-04-18T15:39:48.942Z</time></trkpt><trkpt lat="44.5029088" lon="10.82371"><ele>181.0</ele><time>2026-04-18T15:39:49.941Z</time></trkpt><trkpt lat="44.5028281" lon="10.8238275"><ele>181.0</ele><time>2026-04-18T15:39:50.941Z</time></trkpt><trkpt lat="44.5027523" lon="10.8239371"><ele>181.60000000000002</ele><time>2026-04-18T15:39:51.942Z</time></trkpt><trkpt lat="44.5026929" lon="10.8240422"><ele>182.2</ele><time>2026-04-18T15:39:52.942Z</time></trkpt><trkpt lat="44.5026544" lon="10.8241577"><ele>182.8</ele><time>2026-04-18T15:39:53.942Z</time></trkpt><trkpt lat="44.5026587" lon="10.8242752"><ele>183.39999999999998</ele><time>2026-04-18T15:39:54.942Z</time></trkpt><trkpt lat="44.502684" lon="10.824382"><ele>184.0</ele><time>2026-04-18T15:39:55.942Z</time></trkpt><trkpt lat="44.5027668" lon="10.8244982"><ele>183.25</ele><time>2026-04-18T15:39:56.941Z</time></trkpt><trkpt lat="44.5028552" lon="10.8246194"><ele>182.5</ele><time>2026-04-18T15:39:57.941Z</time></trkpt><trkpt lat="44.5029688" lon="10.8247348"><ele>181.75</ele><time>2026-04-18T15:39:58.941Z</time></trkpt><trkpt lat="44.5030925" lon="10.8248366"><ele>181.0</ele><time>2026-04-18T15:39:59.941Z</time></trkpt><trkpt lat="44.5032237" lon="10.824934"><ele>181.0</ele><time>2026-04-18T15:40:00.941Z</time></trkpt><trkpt lat="44.5033606" lon="10.8250303"><ele>181.0</ele><time>2026-04-18T15:40:01.941Z</time></trkpt><trkpt lat="44.503496" lon="10.8251281"><ele>181.0</ele><time>2026-04-18T15:40:02.942Z</time></trkpt><trkpt lat="44.5036237" lon="10.8252182"><ele>181.0</ele><time>2026-04-18T15:40:03.942Z</time></trkpt><trkpt lat="44.5037423" lon="10.8252998"><ele>181.0</ele><time>2026-04-18T15:40:04.941Z</time></trkpt><trkpt lat="44.5038479" lon="10.8253698"><ele>181.0</ele><time>2026-04-18T15:40:05.942Z</time></trkpt><trkpt lat="44.5039282" lon="10.8254436"><ele>181.0</ele><time>2026-04-18T15:40:06.941Z</time></trkpt><trkpt lat="44.5039898" lon="10.8255459"><ele>181.0</ele><time>2026-04-18T15:40:07.941Z</time></trkpt><trkpt lat="44.5040343" lon="10.8256807"><ele>181.0</ele><time>2026-04-18T15:40:08.942Z</time></trkpt><trkpt lat="44.5040801" lon="10.8258566"><ele>181.33333333333334</ele><time>2026-04-18T15:40:09.941Z</time></trkpt><trkpt lat="44.5041288" lon="10.8260529"><ele>181.66666666666666</ele><time>2026-04-18T15:40:10.942Z</time></trkpt><trkpt lat="44.5041775" lon="10.8262623"><ele>182.0</ele><time>2026-04-18T15:40:11.941Z</time></trkpt><trkpt lat="44.5042262" lon="10.8264711"><ele>182.0</ele><time>2026-04-18T15:40:12.942Z</time></trkpt><trkpt lat="44.5042672" lon="10.8266641"><ele>182.0</ele><time>2026-04-18T15:40:13.941Z</time></trkpt><trkpt lat="44.5043118" lon="10.8268386"><ele>182.0</ele><time>2026-04-18T15:40:14.942Z</time></trkpt><trkpt lat="44.5043536" lon="10.827"><ele>182.0</ele><time>2026-04-18T15:40:15.941Z</time></trkpt><trkpt lat="44.5044033" lon="10.8271574"><ele>182.5</ele><time>2026-04-18T15:40:16.942Z</time></trkpt><trkpt lat="44.5044718" lon="10.8272913"><ele>183.0</ele><time>2026-04-18T15:40:17.942Z</time></trkpt><trkpt lat="44.5045534" lon="10.8274177"><ele>183.5</ele><time>2026-04-18T15:40:18.942Z</time></trkpt><trkpt lat="44.5046667" lon="10.8275413"><ele>184.0</ele><time>2026-04-18T15:40:19.941Z</time></trkpt><trkpt lat="44.5047791" lon="10.8276767"><ele>182.33333333333334</ele><time>2026-04-18T15:40:20.941Z</time></trkpt><trkpt lat="44.5048905" lon="10.8278167"><ele>180.66666666666666</ele><time>2026-04-18T15:40:21.941Z</time></trkpt><trkpt lat="44.5050119" lon="10.8279614"><ele>179.0</ele><time>2026-04-18T15:40:22.941Z</time></trkpt><trkpt lat="44.5051405" lon="10.8281057"><ele>179.0</ele><time>2026-04-18T15:40:23.941Z</time></trkpt><trkpt lat="44.5052663" lon="10.8282578"><ele>179.0</ele><time>2026-04-18T15:40:24.941Z</time></trkpt><trkpt lat="44.5053917" lon="10.8284132"><ele>179.0</ele><time>2026-04-18T15:40:25.942Z</time></trkpt><trkpt lat="44.5055138" lon="10.8285595"><ele>177.5</ele><time>2026-04-18T15:40:26.942Z</time></trkpt><trkpt lat="44.505638" lon="10.8287091"><ele>176.0</ele><time>2026-04-18T15:40:27.941Z</time></trkpt><trkpt lat="44.5057465" lon="10.8288417"><ele>174.5</ele><time>2026-04-18T15:40:28.941Z</time></trkpt><trkpt lat="44.5058449" lon="10.8289657"><ele>173.0</ele><time>2026-04-18T15:40:29.942Z</time></trkpt><trkpt lat="44.5059341" lon="10.8290924"><ele>173.0</ele><time>2026-04-18T15:40:30.942Z</time></trkpt><trkpt lat="44.5060052" lon="10.8292406"><ele>173.0</ele><time>2026-04-18T15:40:31.941Z</time></trkpt><trkpt lat="44.5060635" lon="10.8294098"><ele>173.0</ele><time>2026-04-18T15:40:32.941Z</time></trkpt><trkpt lat="44.5061221" lon="10.8295918"><ele>173.0</ele><time>2026-04-18T15:40:33.942Z</time></trkpt><trkpt lat="44.5061795" lon="10.829779"><ele>173.0</ele><time>2026-04-18T15:40:34.941Z</time></trkpt><trkpt lat="44.5062419" lon="10.8299784"><ele>173.0</ele><time>2026-04-18T15:40:35.941Z</time></trkpt><trkpt lat="44.5063003" lon="10.8301778"><ele>173.0</ele><time>2026-04-18T15:40:36.941Z</time></trkpt><trkpt lat="44.506359" lon="10.8303811"><ele>173.0</ele><time>2026-04-18T15:40:37.941Z</time></trkpt><trkpt lat="44.506422" lon="10.8305847"><ele>173.0</ele><time>2026-04-18T15:40:38.941Z</time></trkpt><trkpt lat="44.5064752" lon="10.8307923"><ele>173.0</ele><time>2026-04-18T15:40:39.942Z</time></trkpt><trkpt lat="44.5065231" lon="10.8309896"><ele>172.5</ele><time>2026-04-18T15:40:40.941Z</time></trkpt><trkpt lat="44.5065636" lon="10.831175"><ele>172.0</ele><time>2026-04-18T15:40:41.942Z</time></trkpt><trkpt lat="44.5065994" lon="10.8313463"><ele>171.5</ele><time>2026-04-18T15:40:42.942Z</time></trkpt><trkpt lat="44.5066502" lon="10.8315006"><ele>171.0</ele><time>2026-04-18T15:40:43.941Z</time></trkpt><trkpt lat="44.5067219" lon="10.831635"><ele>171.0</ele><time>2026-04-18T15:40:44.941Z</time></trkpt><trkpt lat="44.5068181" lon="10.8317431"><ele>171.0</ele><time>2026-04-18T15:40:45.942Z</time></trkpt><trkpt lat="44.506936" lon="10.8318358"><ele>171.0</ele><time>2026-04-18T15:40:46.942Z</time></trkpt><trkpt lat="44.5070575" lon="10.8319317"><ele>171.0</ele><time>2026-04-18T15:40:47.942Z</time></trkpt><trkpt lat="44.5071744" lon="10.8320507"><ele>170.5</ele><time>2026-04-18T15:40:48.942Z</time></trkpt><trkpt lat="44.5072801" lon="10.8321842"><ele>170.0</ele><time>2026-04-18T15:40:49.942Z</time></trkpt><trkpt lat="44.5073854" lon="10.8323215"><ele>169.5</ele><time>2026-04-18T15:40:50.941Z</time></trkpt><trkpt lat="44.5074849" lon="10.832463"><ele>169.0</ele><time>2026-04-18T15:40:51.942Z</time></trkpt><trkpt lat="44.5075791" lon="10.8326176"><ele>168.75</ele><time>2026-04-18T15:40:52.941Z</time></trkpt><trkpt lat="44.5076694" lon="10.832772"><ele>168.5</ele><time>2026-04-18T15:40:53.942Z</time></trkpt><trkpt lat="44.5077589" lon="10.8329321"><ele>168.25</ele><time>2026-04-18T15:40:54.942Z</time></trkpt><trkpt lat="44.5078447" lon="10.8330924"><ele>168.0</ele><time>2026-04-18T15:40:55.942Z</time></trkpt><trkpt lat="44.5079267" lon="10.8332587"><ele>167.75</ele><time>2026-04-18T15:40:56.942Z</time></trkpt><trkpt lat="44.5080076" lon="10.8334204"><ele>167.5</ele><time>2026-04-18T15:40:57.941Z</time></trkpt><trkpt lat="44.5080998" lon="10.8335702"><ele>167.25</ele><time>2026-04-18T15:40:58.941Z</time></trkpt><trkpt lat="44.5082127" lon="10.833713"><ele>167.0</ele><time>2026-04-18T15:40:59.942Z</time></trkpt><trkpt lat="44.5083363" lon="10.8338324"><ele>167.0</ele><time>2026-04-18T15:41:00.942Z</time></trkpt><trkpt lat="44.508467" lon="10.8339365"><ele>167.0</ele><time>2026-04-18T15:41:01.942Z</time></trkpt><trkpt lat="44.5086018" lon="10.8340376"><ele>167.0</ele><time>2026-04-18T15:41:02.942Z</time></trkpt><trkpt lat="44.5087378" lon="10.8341359"><ele>167.0</ele><time>2026-04-18T15:41:03.942Z</time></trkpt><trkpt lat="44.5088726" lon="10.8342333"><ele>167.0</ele><time>2026-04-18T15:41:04.941Z</time></trkpt><trkpt lat="44.5090047" lon="10.8343355"><ele>167.0</ele><time>2026-04-18T15:41:05.941Z</time></trkpt><trkpt lat="44.5091319" lon="10.8344399"><ele>167.5</ele><time>2026-04-18T15:41:06.942Z</time></trkpt><trkpt lat="44.5092479" lon="10.8345323"><ele>168.0</ele><time>2026-04-18T15:41:07.942Z</time></trkpt><trkpt lat="44.5093551" lon="10.8346205"><ele>168.5</ele><time>2026-04-18T15:41:08.942Z</time></trkpt><trkpt lat="44.5094515" lon="10.8346979"><ele>169.0</ele><time>2026-04-18T15:41:09.942Z</time></trkpt><trkpt lat="44.5095428" lon="10.8347775"><ele>169.0</ele><time>2026-04-18T15:41:10.941Z</time></trkpt><trkpt lat="44.5096275" lon="10.8348639"><ele>169.0</ele><time>2026-04-18T15:41:11.941Z</time></trkpt><trkpt lat="44.5097002" lon="10.8349442"><ele>169.0</ele><time>2026-04-18T15:41:12.942Z</time></trkpt><trkpt lat="44.5097725" lon="10.8350159"><ele>169.0</ele><time>2026-04-18T15:41:13.941Z</time></trkpt><trkpt lat="44.5098347" lon="10.8350775"><ele>169.0</ele><time>2026-04-18T15:41:14.941Z</time></trkpt><trkpt lat="44.5099025" lon="10.8351689"><ele>169.0</ele><time>2026-04-18T15:41:16.941Z</time></trkpt><trkpt lat="44.5098315" lon="10.8352578"><ele>169.0</ele><time>2026-04-18T15:41:19.942Z</time></trkpt><trkpt lat="44.5097234" lon="10.8353437"><ele>169.0</ele><time>2026-04-18T15:41:21.941Z</time></trkpt><trkpt lat="44.5096812" lon="10.8354289"><ele>169.0</ele><time>2026-04-18T15:41:22.941Z</time></trkpt><trkpt lat="44.5096428" lon="10.8355357"><ele>169.0</ele><time>2026-04-18T15:41:23.941Z</time></trkpt><trkpt lat="44.50961" lon="10.8356519"><ele>169.0</ele><time>2026-04-18T15:41:24.941Z</time></trkpt><trkpt lat="44.5095785" lon="10.8357691"><ele>169.0</ele><time>2026-04-18T15:41:25.941Z</time></trkpt><trkpt lat="44.509549" lon="10.8358859"><ele>169.0</ele><time>2026-04-18T15:41:26.942Z</time></trkpt><trkpt lat="44.5095192" lon="10.8360045"><ele>169.0</ele><time>2026-04-18T15:41:27.942Z</time></trkpt><trkpt lat="44.5094878" lon="10.8361334"><ele>169.0</ele><time>2026-04-18T15:41:28.941Z</time></trkpt><trkpt lat="44.5094575" lon="10.8362696"><ele>170.39999999999998</ele><time>2026-04-18T15:41:29.941Z</time></trkpt><trkpt lat="44.5094142" lon="10.8364116"><ele>171.8</ele><time>2026-04-18T15:41:30.941Z</time></trkpt><trkpt lat="44.5093754" lon="10.8365529"><ele>173.2</ele><time>2026-04-18T15:41:31.941Z</time></trkpt><trkpt lat="44.5093367" lon="10.8367005"><ele>174.60000000000002</ele><time>2026-04-18T15:41:32.942Z</time></trkpt><trkpt lat="44.5092948" lon="10.8368461"><ele>176.0</ele><time>2026-04-18T15:41:33.941Z</time></trkpt><trkpt lat="44.5092596" lon="10.8369888"><ele>177.33333333333331</ele><time>2026-04-18T15:41:34.942Z</time></trkpt><trkpt lat="44.5092241" lon="10.8371223"><ele>178.66666666666666</ele><time>2026-04-18T15:41:35.942Z</time></trkpt><trkpt lat="44.5091927" lon="10.8372386"><ele>180.0</ele><time>2026-04-18T15:41:36.942Z</time></trkpt><trkpt lat="44.5091708" lon="10.8373465"><ele>181.33333333333334</ele><time>2026-04-18T15:41:37.941Z</time></trkpt><trkpt lat="44.5091518" lon="10.8374599"><ele>182.66666666666669</ele><time>2026-04-18T15:41:38.942Z</time></trkpt><trkpt lat="44.5091292" lon="10.8375767"><ele>184.0</ele><time>2026-04-18T15:41:39.942Z</time></trkpt><trkpt lat="44.5091002" lon="10.8376909"><ele>185.16666666666669</ele><time>2026-04-18T15:41:40.941Z</time></trkpt><trkpt lat="44.5090725" lon="10.8378004"><ele>186.33333333333334</ele><time>2026-04-18T15:41:41.941Z</time></trkpt><trkpt lat="44.5090466" lon="10.8379174"><ele>187.5</ele><time>2026-04-18T15:41:42.941Z</time></trkpt><trkpt lat="44.509015" lon="10.8380312"><ele>188.66666666666666</ele><time>2026-04-18T15:41:43.942Z</time></trkpt><trkpt lat="44.5089833" lon="10.8381485"><ele>189.83333333333331</ele><time>2026-04-18T15:41:44.942Z</time></trkpt><trkpt lat="44.5089485" lon="10.8382687"><ele>191.0</ele><time>2026-04-18T15:41:45.941Z</time></trkpt><trkpt lat="44.5089133" lon="10.838382"><ele>192.33333333333331</ele><time>2026-04-18T15:41:46.942Z</time></trkpt><trkpt lat="44.5088836" lon="10.838494"><ele>193.66666666666666</ele><time>2026-04-18T15:41:47.941Z</time></trkpt><trkpt lat="44.5088508" lon="10.8386072"><ele>195.0</ele><time>2026-04-18T15:41:48.941Z</time></trkpt><trkpt lat="44.5088163" lon="10.8387192"><ele>196.33333333333331</ele><time>2026-04-18T15:41:49.941Z</time></trkpt><trkpt lat="44.5087839" lon="10.8388315"><ele>197.66666666666666</ele><time>2026-04-18T15:41:50.941Z</time></trkpt><trkpt lat="44.5087543" lon="10.8389469"><ele>199.0</ele><time>2026-04-18T15:41:51.941Z</time></trkpt><trkpt lat="44.5087308" lon="10.8390615"><ele>198.99999999999997</ele><time>2026-04-18T15:41:52.941Z</time></trkpt><trkpt lat="44.5087033" lon="10.8391852"><ele>199.0</ele><time>2026-04-18T15:41:53.942Z</time></trkpt><trkpt lat="44.5086748" lon="10.8393017"><ele>199.0</ele><time>2026-04-18T15:41:54.941Z</time></trkpt><trkpt lat="44.5086431" lon="10.8394188"><ele>199.0</ele><time>2026-04-18T15:41:55.941Z</time></trkpt><trkpt lat="44.5086152" lon="10.8395321"><ele>198.99999999999997</ele><time>2026-04-18T15:41:56.941Z</time></trkpt><trkpt lat="44.5085847" lon="10.8396383"><ele>199.0</ele><time>2026-04-18T15:41:57.941Z</time></trkpt><trkpt lat="44.5085543" lon="10.8397521"><ele>201.16666666666666</ele><time>2026-04-18T15:41:58.942Z</time></trkpt><trkpt lat="44.5085259" lon="10.8398593"><ele>203.33333333333331</ele><time>2026-04-18T15:41:59.941Z</time></trkpt><trkpt lat="44.5084948" lon="10.8399649"><ele>205.5</ele><time>2026-04-18T15:42:00.942Z</time></trkpt><trkpt lat="44.5084667" lon="10.8400661"><ele>207.66666666666669</ele><time>2026-04-18T15:42:01.941Z</time></trkpt><trkpt lat="44.5084386" lon="10.8401675"><ele>209.83333333333334</ele><time>2026-04-18T15:42:02.942Z</time></trkpt><trkpt lat="44.5084114" lon="10.8402708"><ele>212.0</ele><time>2026-04-18T15:42:03.942Z</time></trkpt><trkpt lat="44.5083765" lon="10.8403717"><ele>215.50000000000003</ele><time>2026-04-18T15:42:04.942Z</time></trkpt><trkpt lat="44.5083393" lon="10.8404541"><ele>219.0</ele><time>2026-04-18T15:42:05.942Z</time></trkpt><trkpt lat="44.5082916" lon="10.8405233"><ele>222.5</ele><time>2026-04-18T15:42:06.941Z</time></trkpt><trkpt lat="44.5082188" lon="10.8405717"><ele>226.0</ele><time>2026-04-18T15:42:07.942Z</time></trkpt><trkpt lat="44.5081397" lon="10.8406195"><ele>229.50000000000003</ele><time>2026-04-18T15:42:08.941Z</time></trkpt><trkpt lat="44.5080653" lon="10.8406692"><ele>233.0</ele><time>2026-04-18T15:42:09.942Z</time></trkpt><trkpt lat="44.5079986" lon="10.8407355"><ele>233.00000000000003</ele><time>2026-04-18T15:42:10.941Z</time></trkpt><trkpt lat="44.5079486" lon="10.8408093"><ele>233.0</ele><time>2026-04-18T15:42:11.941Z</time></trkpt><trkpt lat="44.5079213" lon="10.8409483"><ele>233.0</ele><time>2026-04-18T15:42:13.941Z</time></trkpt><trkpt lat="44.5079815" lon="10.8409928"><ele>233.0</ele><time>2026-04-18T15:42:14.941Z</time></trkpt><trkpt lat="44.5080715" lon="10.8410923"><ele>233.00000000000003</ele><time>2026-04-18T15:42:16.941Z</time></trkpt><trkpt lat="44.5081293" lon="10.8411414"><ele>233.0</ele><time>2026-04-18T15:42:17.941Z</time></trkpt><trkpt lat="44.5081948" lon="10.8411687"><ele>235.66666666666669</ele><time>2026-04-18T15:42:18.941Z</time></trkpt><trkpt lat="44.5082725" lon="10.8411955"><ele>238.33333333333334</ele><time>2026-04-18T15:42:19.942Z</time></trkpt><trkpt lat="44.5083495" lon="10.8412264"><ele>241.0</ele><time>2026-04-18T15:42:20.941Z</time></trkpt><trkpt lat="44.5084275" lon="10.8412682"><ele>243.66666666666669</ele><time>2026-04-18T15:42:21.942Z</time></trkpt><trkpt lat="44.5085061" lon="10.84132"><ele>246.33333333333334</ele><time>2026-04-18T15:42:22.941Z</time></trkpt><trkpt lat="44.5085819" lon="10.8413726"><ele>249.0</ele><time>2026-04-18T15:42:23.941Z</time></trkpt><trkpt lat="44.5086617" lon="10.8414328"><ele>249.0</ele><time>2026-04-18T15:42:24.941Z</time></trkpt><trkpt lat="44.5087352" lon="10.841499"><ele>249.0</ele><time>2026-04-18T15:42:25.941Z</time></trkpt><trkpt lat="44.508812" lon="10.8415665"><ele>249.0</ele><time>2026-04-18T15:42:26.942Z</time></trkpt><trkpt lat="44.5088839" lon="10.8416286"><ele>249.0</ele><time>2026-04-18T15:42:27.942Z</time></trkpt><trkpt lat="44.5089506" lon="10.8416874"><ele>249.0</ele><time>2026-04-18T15:42:28.941Z</time></trkpt><trkpt lat="44.5090134" lon="10.8417359"><ele>249.0</ele><time>2026-04-18T15:42:29.941Z</time></trkpt><trkpt lat="44.5090722" lon="10.8417977"><ele>249.66666666666666</ele><time>2026-04-18T15:42:30.942Z</time></trkpt><trkpt lat="44.5091268" lon="10.8418753"><ele>250.33333333333331</ele><time>2026-04-18T15:42:31.942Z</time></trkpt><trkpt lat="44.5091849" lon="10.8419619"><ele>251.0</ele><time>2026-04-18T15:42:32.941Z</time></trkpt><trkpt lat="44.5092321" lon="10.8420437"><ele>251.66666666666666</ele><time>2026-04-18T15:42:33.942Z</time></trkpt><trkpt lat="44.5092646" lon="10.8421196"><ele>252.33333333333331</ele><time>2026-04-18T15:42:34.941Z</time></trkpt><trkpt lat="44.5093155" lon="10.8422633"><ele>253.0</ele><time>2026-04-18T15:42:36.941Z</time></trkpt><trkpt lat="44.5093316" lon="10.8423581"><ele>252.99999999999997</ele><time>2026-04-18T15:42:37.941Z</time></trkpt><trkpt lat="44.5093365" lon="10.8424614"><ele>253.0</ele><time>2026-04-18T15:42:38.941Z</time></trkpt><trkpt lat="44.5093359" lon="10.8425646"><ele>253.0</ele><time>2026-04-18T15:42:39.941Z</time></trkpt><trkpt lat="44.5093344" lon="10.8426876"><ele>253.0</ele><time>2026-04-18T15:42:40.941Z</time></trkpt><trkpt lat="44.5093335" lon="10.8428054"><ele>252.99999999999997</ele><time>2026-04-18T15:42:41.941Z</time></trkpt><trkpt lat="44.5093382" lon="10.842908"><ele>253.0</ele><time>2026-04-18T15:42:42.941Z</time></trkpt><trkpt lat="44.5093559" lon="10.8430298"><ele>254.99999999999997</ele><time>2026-04-18T15:42:43.942Z</time></trkpt><trkpt lat="44.5093682" lon="10.843141"><ele>257.0</ele><time>2026-04-18T15:42:44.942Z</time></trkpt><trkpt lat="44.5093758" lon="10.8432546"><ele>259.0</ele><time>2026-04-18T15:42:45.942Z</time></trkpt><trkpt lat="44.5093624" lon="10.843368"><ele>261.0</ele><time>2026-04-18T15:42:46.941Z</time></trkpt><trkpt lat="44.5093526" lon="10.8434674"><ele>263.0</ele><time>2026-04-18T15:42:47.941Z</time></trkpt><trkpt lat="44.5093591" lon="10.8436373"><ele>265.0</ele><time>2026-04-18T15:42:49.941Z</time></trkpt><trkpt lat="44.5093871" lon="10.8437297"><ele>265.16666666666663</ele><time>2026-04-18T15:42:50.941Z</time></trkpt><trkpt lat="44.5094024" lon="10.8438239"><ele>265.3333333333333</ele><time>2026-04-18T15:42:51.941Z</time></trkpt><trkpt lat="44.5094221" lon="10.8439455"><ele>265.5</ele><time>2026-04-18T15:42:52.941Z</time></trkpt><trkpt lat="44.5094381" lon="10.8440559"><ele>265.6666666666667</ele><time>2026-04-18T15:42:53.941Z</time></trkpt><trkpt lat="44.5094582" lon="10.8441706"><ele>265.83333333333337</ele><time>2026-04-18T15:42:54.941Z</time></trkpt><trkpt lat="44.5094713" lon="10.8442766"><ele>266.0</ele><time>2026-04-18T15:42:55.941Z</time></trkpt><trkpt lat="44.5094754" lon="10.8444008"><ele>266.0</ele><time>2026-04-18T15:42:57.942Z</time></trkpt><trkpt lat="44.5095404" lon="10.8445138"><ele>266.0</ele><time>2026-04-18T15:43:18.942Z</time></trkpt><trkpt lat="44.5096049" lon="10.8445471"><ele>266.0</ele><time>2026-04-18T15:43:19.941Z</time></trkpt><trkpt lat="44.5096761" lon="10.8445821"><ele>266.0</ele><time>2026-04-18T15:43:20.941Z</time></trkpt><trkpt lat="44.5097505" lon="10.8446205"><ele>266.0</ele><time>2026-04-18T15:43:21.941Z</time></trkpt><trkpt lat="44.5098327" lon="10.844649"><ele>266.0</ele><time>2026-04-18T15:43:22.942Z</time></trkpt><trkpt lat="44.5099148" lon="10.844684"><ele>266.6</ele><time>2026-04-18T15:43:23.941Z</time></trkpt><trkpt lat="44.5100218" lon="10.8447175"><ele>267.20000000000005</ele><time>2026-04-18T15:43:24.941Z</time></trkpt><trkpt lat="44.5101151" lon="10.8447355"><ele>267.79999999999995</ele><time>2026-04-18T15:43:25.941Z</time></trkpt><trkpt lat="44.5102072" lon="10.844735"><ele>268.4</ele><time>2026-04-18T15:43:26.942Z</time></trkpt><trkpt lat="44.5102935" lon="10.8447108"><ele>269.0</ele><time>2026-04-18T15:43:27.942Z</time></trkpt><trkpt lat="44.5103839" lon="10.844674"><ele>268.2</ele><time>2026-04-18T15:43:28.941Z</time></trkpt><trkpt lat="44.5104703" lon="10.8446328"><ele>267.4</ele><time>2026-04-18T15:43:29.942Z</time></trkpt><trkpt lat="44.5105638" lon="10.8446168"><ele>266.6</ele><time>2026-04-18T15:43:30.941Z</time></trkpt><trkpt lat="44.5106565" lon="10.8445988"><ele>265.8</ele><time>2026-04-18T15:43:31.942Z</time></trkpt><trkpt lat="44.510745" lon="10.844585"><ele>265.0</ele><time>2026-04-18T15:43:32.941Z</time></trkpt><trkpt lat="44.5108305" lon="10.8445802"><ele>264.99999999999994</ele><time>2026-04-18T15:43:33.941Z</time></trkpt><trkpt lat="44.5109109" lon="10.8445758"><ele>265.0</ele><time>2026-04-18T15:43:34.941Z</time></trkpt><trkpt lat="44.5109858" lon="10.8445786"><ele>265.0</ele><time>2026-04-18T15:43:35.941Z</time></trkpt><trkpt lat="44.5110594" lon="10.8445879"><ele>265.0</ele><time>2026-04-18T15:43:36.942Z</time></trkpt><trkpt lat="44.5111256" lon="10.8446301"><ele>265.0</ele><time>2026-04-18T15:43:37.941Z</time></trkpt><trkpt lat="44.5111747" lon="10.8446973"><ele>264.99999999999994</ele><time>2026-04-18T15:43:38.941Z</time></trkpt><trkpt lat="44.5112017" lon="10.8447863"><ele>265.0</ele><time>2026-04-18T15:43:39.942Z</time></trkpt><trkpt lat="44.5112057" lon="10.8448902"><ele>265.0</ele><time>2026-04-18T15:43:40.941Z</time></trkpt><trkpt lat="44.5111947" lon="10.8450037"><ele>265.0</ele><time>2026-04-18T15:43:41.942Z</time></trkpt><trkpt lat="44.5111812" lon="10.8451272"><ele>265.0</ele><time>2026-04-18T15:43:42.942Z</time></trkpt><trkpt lat="44.511158" lon="10.8452603"><ele>265.0</ele><time>2026-04-18T15:43:43.941Z</time></trkpt><trkpt lat="44.5111332" lon="10.8453894"><ele>265.0</ele><time>2026-04-18T15:43:44.942Z</time></trkpt><trkpt lat="44.5111041" lon="10.8455272"><ele>263.4</ele><time>2026-04-18T15:43:45.941Z</time></trkpt><trkpt lat="44.5110907" lon="10.8456532"><ele>261.8</ele><time>2026-04-18T15:43:46.941Z</time></trkpt><trkpt lat="44.5110577" lon="10.8457772"><ele>260.2</ele><time>2026-04-18T15:43:47.941Z</time></trkpt><trkpt lat="44.511003" lon="10.845896"><ele>258.6</ele><time>2026-04-18T15:43:48.941Z</time></trkpt><trkpt lat="44.5109355" lon="10.8460056"><ele>257.0</ele><time>2026-04-18T15:43:49.941Z</time></trkpt><trkpt lat="44.510857" lon="10.8460914"><ele>254.39999999999998</ele><time>2026-04-18T15:43:50.941Z</time></trkpt><trkpt lat="44.510763" lon="10.8461541"><ele>251.79999999999998</ele><time>2026-04-18T15:43:51.942Z</time></trkpt><trkpt lat="44.5106662" lon="10.846189"><ele>249.2</ele><time>2026-04-18T15:43:52.941Z</time></trkpt><trkpt lat="44.5105592" lon="10.8461893"><ele>246.6</ele><time>2026-04-18T15:43:53.942Z</time></trkpt><trkpt lat="44.5104604" lon="10.8461599"><ele>244.0</ele><time>2026-04-18T15:43:54.941Z</time></trkpt><trkpt lat="44.510359" lon="10.846128"><ele>242.79999999999998</ele><time>2026-04-18T15:43:55.941Z</time></trkpt><trkpt lat="44.5102557" lon="10.846097"><ele>241.59999999999997</ele><time>2026-04-18T15:43:56.942Z</time></trkpt><trkpt lat="44.510153" lon="10.8460675"><ele>240.4</ele><time>2026-04-18T15:43:57.941Z</time></trkpt><trkpt lat="44.5100557" lon="10.8460295"><ele>239.2</ele><time>2026-04-18T15:43:58.941Z</time></trkpt><trkpt lat="44.5099661" lon="10.8459881"><ele>238.0</ele><time>2026-04-18T15:43:59.941Z</time></trkpt><trkpt lat="44.5098819" lon="10.8459463"><ele>238.0</ele><time>2026-04-18T15:44:00.941Z</time></trkpt><trkpt lat="44.5098078" lon="10.8459027"><ele>238.0</ele><time>2026-04-18T15:44:01.941Z</time></trkpt><trkpt lat="44.5097363" lon="10.845864"><ele>238.0</ele><time>2026-04-18T15:44:02.942Z</time></trkpt><trkpt lat="44.5096662" lon="10.84585"><ele>238.0</ele><time>2026-04-18T15:44:03.941Z</time></trkpt><trkpt lat="44.5096012" lon="10.8458752"><ele>238.0</ele><time>2026-04-18T15:44:04.941Z</time></trkpt><trkpt lat="44.5095628" lon="10.8459523"><ele>238.0</ele><time>2026-04-18T15:44:05.941Z</time></trkpt><trkpt lat="44.5095654" lon="10.8460458"><ele>238.0</ele><time>2026-04-18T15:44:06.942Z</time></trkpt><trkpt lat="44.5096091" lon="10.8461274"><ele>238.0</ele><time>2026-04-18T15:44:07.942Z</time></trkpt><trkpt lat="44.5096814" lon="10.8462041"><ele>238.0</ele><time>2026-04-18T15:44:08.942Z</time></trkpt><trkpt lat="44.5097708" lon="10.846277"><ele>238.0</ele><time>2026-04-18T15:44:09.941Z</time></trkpt><trkpt lat="44.5098669" lon="10.8463558"><ele>238.0</ele><time>2026-04-18T15:44:10.941Z</time></trkpt><trkpt lat="44.5099763" lon="10.8464436"><ele>238.0</ele><time>2026-04-18T15:44:11.941Z</time></trkpt><trkpt lat="44.5100857" lon="10.846534"><ele>238.0</ele><time>2026-04-18T15:44:12.941Z</time></trkpt><trkpt lat="44.5101969" lon="10.8466358"><ele>238.0</ele><time>2026-04-18T15:44:13.941Z</time></trkpt><trkpt lat="44.5103097" lon="10.8467395"><ele>238.0</ele><time>2026-04-18T15:44:14.941Z</time></trkpt><trkpt lat="44.5104294" lon="10.8468417"><ele>238.0</ele><time>2026-04-18T15:44:15.941Z</time></trkpt><trkpt lat="44.5105429" lon="10.8469454"><ele>235.75</ele><time>2026-04-18T15:44:16.941Z</time></trkpt><trkpt lat="44.5106514" lon="10.8470449"><ele>233.5</ele><time>2026-04-18T15:44:17.941Z</time></trkpt><trkpt lat="44.5107563" lon="10.8471425"><ele>231.25</ele><time>2026-04-18T15:44:18.941Z</time></trkpt><trkpt lat="44.5108643" lon="10.8472434"><ele>229.0</ele><time>2026-04-18T15:44:19.941Z</time></trkpt><trkpt lat="44.5109714" lon="10.8473445"><ele>229.0</ele><time>2026-04-18T15:44:20.941Z</time></trkpt><trkpt lat="44.511083" lon="10.8474494"><ele>229.0</ele><time>2026-04-18T15:44:21.941Z</time></trkpt><trkpt lat="44.511194" lon="10.8475487"><ele>229.0</ele><time>2026-04-18T15:44:22.941Z</time></trkpt><trkpt lat="44.5112998" lon="10.847654"><ele>229.0</ele><time>2026-04-18T15:44:23.942Z</time></trkpt><trkpt lat="44.5113989" lon="10.8477626"><ele>226.5</ele><time>2026-04-18T15:44:24.941Z</time></trkpt><trkpt lat="44.5114945" lon="10.8478882"><ele>224.0</ele><time>2026-04-18T15:44:25.941Z</time></trkpt><trkpt lat="44.5115895" lon="10.8480317"><ele>221.5</ele><time>2026-04-18T15:44:26.942Z</time></trkpt><trkpt lat="44.5116878" lon="10.8481947"><ele>219.0</ele><time>2026-04-18T15:44:27.941Z</time></trkpt><trkpt lat="44.5117743" lon="10.848347"><ele>218.25</ele><time>2026-04-18T15:44:28.942Z</time></trkpt><trkpt lat="44.5118552" lon="10.8484858"><ele>217.5</ele><time>2026-04-18T15:44:29.941Z</time></trkpt><trkpt lat="44.5119375" lon="10.8486063"><ele>216.75</ele><time>2026-04-18T15:44:30.941Z</time></trkpt><trkpt lat="44.5120406" lon="10.8487034"><ele>216.0</ele><time>2026-04-18T15:44:31.942Z</time></trkpt><trkpt lat="44.51217" lon="10.8487743"><ele>216.0</ele><time>2026-04-18T15:44:32.942Z</time></trkpt><trkpt lat="44.5123158" lon="10.8488396"><ele>216.0</ele><time>2026-04-18T15:44:33.941Z</time></trkpt><trkpt lat="44.5124721" lon="10.848904"><ele>216.0</ele><time>2026-04-18T15:44:34.942Z</time></trkpt><trkpt lat="44.5126262" lon="10.848973"><ele>216.0</ele><time>2026-04-18T15:44:35.942Z</time></trkpt><trkpt lat="44.5127778" lon="10.8490292"><ele>216.0</ele><time>2026-04-18T15:44:36.941Z</time></trkpt><trkpt lat="44.5129286" lon="10.8490921"><ele>216.0</ele><time>2026-04-18T15:44:37.941Z</time></trkpt><trkpt lat="44.5130841" lon="10.849149"><ele>212.66666666666669</ele><time>2026-04-18T15:44:38.941Z</time></trkpt><trkpt lat="44.5132379" lon="10.8492069"><ele>209.33333333333334</ele><time>2026-04-18T15:44:39.942Z</time></trkpt><trkpt lat="44.5133867" lon="10.8492654"><ele>206.0</ele><time>2026-04-18T15:44:40.941Z</time></trkpt><trkpt lat="44.5135276" lon="10.8493263"><ele>204.66666666666669</ele><time>2026-04-18T15:44:41.941Z</time></trkpt><trkpt lat="44.5136754" lon="10.8493824"><ele>203.33333333333331</ele><time>2026-04-18T15:44:42.942Z</time></trkpt><trkpt lat="44.5138223" lon="10.8494449"><ele>202.0</ele><time>2026-04-18T15:44:43.941Z</time></trkpt><trkpt lat="44.513967" lon="10.849503"><ele>201.0</ele><time>2026-04-18T15:44:44.941Z</time></trkpt><trkpt lat="44.5141044" lon="10.8495605"><ele>200.0</ele><time>2026-04-18T15:44:45.942Z</time></trkpt><trkpt lat="44.5142463" lon="10.8496168"><ele>199.0</ele><time>2026-04-18T15:44:46.942Z</time></trkpt><trkpt lat="44.5143909" lon="10.8496748"><ele>198.0</ele><time>2026-04-18T15:44:47.941Z</time></trkpt><trkpt lat="44.5145255" lon="10.8497286"><ele>197.5</ele><time>2026-04-18T15:44:48.941Z</time></trkpt><trkpt lat="44.5146585" lon="10.849781"><ele>197.0</ele><time>2026-04-18T15:44:49.941Z</time></trkpt><trkpt lat="44.514792" lon="10.8498308"><ele>196.5</ele><time>2026-04-18T15:44:50.941Z</time></trkpt><trkpt lat="44.5149244" lon="10.8498825"><ele>196.0</ele><time>2026-04-18T15:44:51.941Z</time></trkpt><trkpt lat="44.5150625" lon="10.8499337"><ele>196.0</ele><time>2026-04-18T15:44:52.942Z</time></trkpt><trkpt lat="44.5152024" lon="10.8499774"><ele>196.0</ele><time>2026-04-18T15:44:53.942Z</time></trkpt><trkpt lat="44.515324" lon="10.850025"><ele>196.0</ele><time>2026-04-18T15:44:54.942Z</time></trkpt><trkpt lat="44.5154532" lon="10.8500729"><ele>196.0</ele><time>2026-04-18T15:44:55.942Z</time></trkpt><trkpt lat="44.5155743" lon="10.8501191"><ele>194.75</ele><time>2026-04-18T15:44:56.941Z</time></trkpt><trkpt lat="44.5156966" lon="10.8501655"><ele>193.5</ele><time>2026-04-18T15:44:57.942Z</time></trkpt><trkpt lat="44.5158201" lon="10.8502159"><ele>192.25</ele><time>2026-04-18T15:44:58.941Z</time></trkpt><trkpt lat="44.5159452" lon="10.8502695"><ele>191.0</ele><time>2026-04-18T15:44:59.941Z</time></trkpt><trkpt lat="44.5160691" lon="10.8503327"><ele>191.0</ele><time>2026-04-18T15:45:00.941Z</time></trkpt><trkpt lat="44.5161901" lon="10.8504069"><ele>191.0</ele><time>2026-04-18T15:45:01.941Z</time></trkpt><trkpt lat="44.5162969" lon="10.850482"><ele>191.0</ele><time>2026-04-18T15:45:02.941Z</time></trkpt><trkpt lat="44.5164016" lon="10.85056"><ele>191.0</ele><time>2026-04-18T15:45:03.941Z</time></trkpt><trkpt lat="44.5165066" lon="10.8506319"><ele>190.5</ele><time>2026-04-18T15:45:04.942Z</time></trkpt><trkpt lat="44.5166113" lon="10.8507107"><ele>190.0</ele><time>2026-04-18T15:45:05.942Z</time></trkpt><trkpt lat="44.516718" lon="10.8507923"><ele>189.5</ele><time>2026-04-18T15:45:06.941Z</time></trkpt><trkpt lat="44.516826" lon="10.8508718"><ele>189.0</ele><time>2026-04-18T15:45:07.941Z</time></trkpt><trkpt lat="44.5169278" lon="10.8509565"><ele>187.25</ele><time>2026-04-18T15:45:08.942Z</time></trkpt><trkpt lat="44.5170294" lon="10.8510505"><ele>185.5</ele><time>2026-04-18T15:45:09.941Z</time></trkpt><trkpt lat="44.5171182" lon="10.8511663"><ele>183.75</ele><time>2026-04-18T15:45:10.942Z</time></trkpt><trkpt lat="44.5171984" lon="10.8513001"><ele>182.0</ele><time>2026-04-18T15:45:11.942Z</time></trkpt><trkpt lat="44.5172794" lon="10.8514475"><ele>182.0</ele><time>2026-04-18T15:45:12.941Z</time></trkpt><trkpt lat="44.5173693" lon="10.8515948"><ele>182.0</ele><time>2026-04-18T15:45:13.941Z</time></trkpt><trkpt lat="44.51747" lon="10.8517421"><ele>182.0</ele><time>2026-04-18T15:45:14.942Z</time></trkpt><trkpt lat="44.5175811" lon="10.8518865"><ele>182.0</ele><time>2026-04-18T15:45:15.941Z</time></trkpt><trkpt lat="44.5176892" lon="10.8520471"><ele>179.33333333333331</ele><time>2026-04-18T15:45:16.941Z</time></trkpt><trkpt lat="44.5177936" lon="10.8522164"><ele>176.66666666666666</ele><time>2026-04-18T15:45:17.942Z</time></trkpt><trkpt lat="44.5178864" lon="10.8523808"><ele>174.0</ele><time>2026-04-18T15:45:18.941Z</time></trkpt><trkpt lat="44.5179752" lon="10.8525458"><ele>171.25</ele><time>2026-04-18T15:45:19.942Z</time></trkpt><trkpt lat="44.5180745" lon="10.8526978"><ele>168.5</ele><time>2026-04-18T15:45:20.942Z</time></trkpt><trkpt lat="44.5181836" lon="10.8528297"><ele>165.75</ele><time>2026-04-18T15:45:21.941Z</time></trkpt><trkpt lat="44.5183006" lon="10.8529136"><ele>163.0</ele><time>2026-04-18T15:45:22.942Z</time></trkpt><trkpt lat="44.5184177" lon="10.8529948"><ele>163.0</ele><time>2026-04-18T15:45:23.942Z</time></trkpt><trkpt lat="44.5185303" lon="10.8530667"><ele>163.0</ele><time>2026-04-18T15:45:24.941Z</time></trkpt><trkpt lat="44.5186344" lon="10.8531402"><ele>163.0</ele><time>2026-04-18T15:45:25.941Z</time></trkpt><trkpt lat="44.5187237" lon="10.8532311"><ele>163.0</ele><time>2026-04-18T15:45:26.941Z</time></trkpt><trkpt lat="44.5187987" lon="10.8533457"><ele>161.5</ele><time>2026-04-18T15:45:27.941Z</time></trkpt><trkpt lat="44.518846" lon="10.8534831"><ele>160.0</ele><time>2026-04-18T15:45:28.941Z</time></trkpt><trkpt lat="44.518864" lon="10.8536368"><ele>158.5</ele><time>2026-04-18T15:45:29.941Z</time></trkpt><trkpt lat="44.518882" lon="10.8537986"><ele>157.0</ele><time>2026-04-18T15:45:30.941Z</time></trkpt><trkpt lat="44.5189011" lon="10.8539618"><ele>157.0</ele><time>2026-04-18T15:45:31.941Z</time></trkpt><trkpt lat="44.5189191" lon="10.8541185"><ele>157.0</ele><time>2026-04-18T15:45:32.942Z</time></trkpt><trkpt lat="44.5189371" lon="10.8542795"><ele>157.0</ele><time>2026-04-18T15:45:33.941Z</time></trkpt><trkpt lat="44.5189563" lon="10.8544359"><ele>157.0</ele><time>2026-04-18T15:45:34.942Z</time></trkpt><trkpt lat="44.5189742" lon="10.8545868"><ele>156.0</ele><time>2026-04-18T15:45:35.941Z</time></trkpt><trkpt lat="44.5189955" lon="10.8547226"><ele>155.0</ele><time>2026-04-18T15:45:36.941Z</time></trkpt><trkpt lat="44.5190292" lon="10.8548538"><ele>154.0</ele><time>2026-04-18T15:45:37.942Z</time></trkpt><trkpt lat="44.5190713" lon="10.8549736"><ele>153.0</ele><time>2026-04-18T15:45:38.941Z</time></trkpt><trkpt lat="44.5191245" lon="10.8550751"><ele>152.0</ele><time>2026-04-18T15:45:39.942Z</time></trkpt><trkpt lat="44.5191795" lon="10.8551677"><ele>151.16666666666666</ele><time>2026-04-18T15:45:40.941Z</time></trkpt><trkpt lat="44.5192379" lon="10.8552566"><ele>150.33333333333331</ele><time>2026-04-18T15:45:41.941Z</time></trkpt><trkpt lat="44.5192968" lon="10.855334"><ele>149.5</ele><time>2026-04-18T15:45:42.941Z</time></trkpt><trkpt lat="44.519356" lon="10.8554181"><ele>148.66666666666666</ele><time>2026-04-18T15:45:43.941Z</time></trkpt><trkpt lat="44.519418" lon="10.8555079"><ele>147.83333333333334</ele><time>2026-04-18T15:45:44.942Z</time></trkpt><trkpt lat="44.5194808" lon="10.8556031"><ele>147.0</ele><time>2026-04-18T15:45:45.942Z</time></trkpt><trkpt lat="44.5195488" lon="10.8557021"><ele>147.0</ele><time>2026-04-18T15:45:46.942Z</time></trkpt><trkpt lat="44.5196184" lon="10.8558029"><ele>147.0</ele><time>2026-04-18T15:45:47.941Z</time></trkpt><trkpt lat="44.519692" lon="10.8559089"><ele>147.0</ele><time>2026-04-18T15:45:48.941Z</time></trkpt><trkpt lat="44.5197678" lon="10.8560143"><ele>147.0</ele><time>2026-04-18T15:45:49.942Z</time></trkpt><trkpt lat="44.5198471" lon="10.8561128"><ele>147.0</ele><time>2026-04-18T15:45:50.941Z</time></trkpt><trkpt lat="44.5199326" lon="10.8562029"><ele>146.79999999999998</ele><time>2026-04-18T15:45:51.942Z</time></trkpt><trkpt lat="44.5200261" lon="10.8562763"><ele>146.6</ele><time>2026-04-18T15:45:52.942Z</time></trkpt><trkpt lat="44.520127" lon="10.8563262"><ele>146.39999999999998</ele><time>2026-04-18T15:45:53.942Z</time></trkpt><trkpt lat="44.5202329" lon="10.8563581"><ele>146.2</ele><time>2026-04-18T15:45:54.942Z</time></trkpt><trkpt lat="44.5203436" lon="10.8563732"><ele>146.0</ele><time>2026-04-18T15:45:55.942Z</time></trkpt><trkpt lat="44.5204596" lon="10.856377"><ele>146.0</ele><time>2026-04-18T15:45:56.941Z</time></trkpt><trkpt lat="44.5205793" lon="10.8563776"><ele>146.0</ele><time>2026-04-18T15:45:57.941Z</time></trkpt><trkpt lat="44.5207017" lon="10.8563731"><ele>146.0</ele><time>2026-04-18T15:45:58.941Z</time></trkpt><trkpt lat="44.5208153" lon="10.8563697"><ele>146.0</ele><time>2026-04-18T15:45:59.942Z</time></trkpt><trkpt lat="44.5209177" lon="10.856371"><ele>146.0</ele><time>2026-04-18T15:46:00.942Z</time></trkpt><trkpt lat="44.5210162" lon="10.8563867"><ele>146.0</ele><time>2026-04-18T15:46:01.941Z</time></trkpt><trkpt lat="44.521104" lon="10.8564167"><ele>146.0</ele><time>2026-04-18T15:46:02.942Z</time></trkpt><trkpt lat="44.5211954" lon="10.8564515"><ele>146.0</ele><time>2026-04-18T15:46:03.942Z</time></trkpt><trkpt lat="44.5213011" lon="10.8565011"><ele>146.0</ele><time>2026-04-18T15:46:04.941Z</time></trkpt><trkpt lat="44.5214145" lon="10.8565627"><ele>146.25</ele><time>2026-04-18T15:46:05.941Z</time></trkpt><trkpt lat="44.5215334" lon="10.8566438"><ele>146.5</ele><time>2026-04-18T15:46:06.942Z</time></trkpt><trkpt lat="44.5216629" lon="10.8567307"><ele>146.75</ele><time>2026-04-18T15:46:07.941Z</time></trkpt><trkpt lat="44.5217953" lon="10.8568196"><ele>147.0</ele><time>2026-04-18T15:46:08.941Z</time></trkpt><trkpt lat="44.5219109" lon="10.8569016"><ele>146.5</ele><time>2026-04-18T15:46:09.941Z</time></trkpt><trkpt lat="44.5220246" lon="10.8569816"><ele>146.0</ele><time>2026-04-18T15:46:10.941Z</time></trkpt><trkpt lat="44.5221321" lon="10.857059"><ele>145.5</ele><time>2026-04-18T15:46:11.941Z</time></trkpt><trkpt lat="44.5222415" lon="10.8571296"><ele>145.0</ele><time>2026-04-18T15:46:12.942Z</time></trkpt><trkpt lat="44.5223548" lon="10.8571977"><ele>144.8</ele><time>2026-04-18T15:46:13.941Z</time></trkpt><trkpt lat="44.5224622" lon="10.8572583"><ele>144.6</ele><time>2026-04-18T15:46:14.941Z</time></trkpt><trkpt lat="44.5225659" lon="10.8573009"><ele>144.4</ele><time>2026-04-18T15:46:15.942Z</time></trkpt><trkpt lat="44.5226669" lon="10.8573265"><ele>144.2</ele><time>2026-04-18T15:46:16.942Z</time></trkpt><trkpt lat="44.5227613" lon="10.8573538"><ele>144.0</ele><time>2026-04-18T15:46:17.941Z</time></trkpt><trkpt lat="44.5228476" lon="10.8573511"><ele>143.66666666666666</ele><time>2026-04-18T15:46:18.941Z</time></trkpt><trkpt lat="44.5229306" lon="10.8573541"><ele>143.33333333333334</ele><time>2026-04-18T15:46:19.942Z</time></trkpt><trkpt lat="44.5230024" lon="10.8573471"><ele>143.0</ele><time>2026-04-18T15:46:20.942Z</time></trkpt><trkpt lat="44.5230745" lon="10.8573353"><ele>142.66666666666669</ele><time>2026-04-18T15:46:21.941Z</time></trkpt><trkpt lat="44.5231448" lon="10.8573287"><ele>142.33333333333334</ele><time>2026-04-18T15:46:22.941Z</time></trkpt><trkpt lat="44.5232197" lon="10.8573243"><ele>142.0</ele><time>2026-04-18T15:46:23.941Z</time></trkpt><trkpt lat="44.5233056" lon="10.8573124"><ele>142.0</ele><time>2026-04-18T15:46:24.941Z</time></trkpt><trkpt lat="44.5234131" lon="10.8572966"><ele>142.0</ele><time>2026-04-18T15:46:25.941Z</time></trkpt><trkpt lat="44.5235405" lon="10.8572649"><ele>142.0</ele><time>2026-04-18T15:46:26.941Z</time></trkpt><trkpt lat="44.5236959" lon="10.8572331"><ele>142.0</ele><time>2026-04-18T15:46:27.942Z</time></trkpt><trkpt lat="44.5238728" lon="10.8572139"><ele>142.66666666666669</ele><time>2026-04-18T15:46:28.942Z</time></trkpt><trkpt lat="44.5240495" lon="10.8571963"><ele>143.33333333333334</ele><time>2026-04-18T15:46:29.942Z</time></trkpt><trkpt lat="44.5242118" lon="10.8571656"><ele>144.0</ele><time>2026-04-18T15:46:30.941Z</time></trkpt><trkpt lat="44.5243763" lon="10.8571388"><ele>144.0</ele><time>2026-04-18T15:46:31.941Z</time></trkpt><trkpt lat="44.5245322" lon="10.8571123"><ele>144.0</ele><time>2026-04-18T15:46:32.941Z</time></trkpt><trkpt lat="44.5246977" lon="10.8570876"><ele>144.0</ele><time>2026-04-18T15:46:33.942Z</time></trkpt><trkpt lat="44.5248637" lon="10.8570575"><ele>143.0</ele><time>2026-04-18T15:46:34.942Z</time></trkpt><trkpt lat="44.5250309" lon="10.8570304"><ele>142.0</ele><time>2026-04-18T15:46:35.941Z</time></trkpt><trkpt lat="44.5251914" lon="10.8570193"><ele>141.0</ele><time>2026-04-18T15:46:36.941Z</time></trkpt><trkpt lat="44.5253509" lon="10.8570184"><ele>141.0</ele><time>2026-04-18T15:46:37.942Z</time></trkpt><trkpt lat="44.5255081" lon="10.8570237"><ele>141.0</ele><time>2026-04-18T15:46:38.941Z</time></trkpt><trkpt lat="44.5256701" lon="10.8570349"><ele>141.0</ele><time>2026-04-18T15:46:39.942Z</time></trkpt><trkpt lat="44.5258283" lon="10.8570527"><ele>141.0</ele><time>2026-04-18T15:46:40.941Z</time></trkpt><trkpt lat="44.5259918" lon="10.8570768"><ele>141.0</ele><time>2026-04-18T15:46:41.942Z</time></trkpt><trkpt lat="44.5261555" lon="10.857112"><ele>141.0</ele><time>2026-04-18T15:46:42.941Z</time></trkpt><trkpt lat="44.5263064" lon="10.857144"><ele>140.5</ele><time>2026-04-18T15:46:43.942Z</time></trkpt><trkpt lat="44.5264479" lon="10.857178"><ele>140.0</ele><time>2026-04-18T15:46:44.942Z</time></trkpt><trkpt lat="44.5265824" lon="10.8572074"><ele>139.5</ele><time>2026-04-18T15:46:45.942Z</time></trkpt><trkpt lat="44.5267105" lon="10.857235"><ele>139.0</ele><time>2026-04-18T15:46:46.942Z</time></trkpt><trkpt lat="44.5268256" lon="10.8572637"><ele>139.0</ele><time>2026-04-18T15:46:47.941Z</time></trkpt><trkpt lat="44.526936" lon="10.8572905"><ele>139.0</ele><time>2026-04-18T15:46:48.942Z</time></trkpt><trkpt lat="44.527036" lon="10.8573135"><ele>139.0</ele><time>2026-04-18T15:46:49.942Z</time></trkpt><trkpt lat="44.5271316" lon="10.8573326"><ele>139.0</ele><time>2026-04-18T15:46:50.941Z</time></trkpt><trkpt lat="44.5272271" lon="10.8573517"><ele>139.0</ele><time>2026-04-18T15:46:51.941Z</time></trkpt><trkpt lat="44.5273316" lon="10.8573743"><ele>138.5</ele><time>2026-04-18T15:46:52.941Z</time></trkpt><trkpt lat="44.5274461" lon="10.8574093"><ele>138.0</ele><time>2026-04-18T15:46:53.942Z</time></trkpt><trkpt lat="44.5275673" lon="10.8574427"><ele>137.5</ele><time>2026-04-18T15:46:54.942Z</time></trkpt><trkpt lat="44.5276932" lon="10.8574722"><ele>137.0</ele><time>2026-04-18T15:46:55.941Z</time></trkpt><trkpt lat="44.5278099" lon="10.8574977"><ele>137.0</ele><time>2026-04-18T15:46:56.942Z</time></trkpt><trkpt lat="44.5279231" lon="10.8575222"><ele>137.0</ele><time>2026-04-18T15:46:57.942Z</time></trkpt><trkpt lat="44.5280221" lon="10.8575418"><ele>137.0</ele><time>2026-04-18T15:46:58.941Z</time></trkpt><trkpt lat="44.5281073" lon="10.8575597"><ele>137.0</ele><time>2026-04-18T15:46:59.942Z</time></trkpt><trkpt lat="44.5281815" lon="10.8575802"><ele>137.0</ele><time>2026-04-18T15:47:00.942Z</time></trkpt><trkpt lat="44.5282432" lon="10.8576009"><ele>137.0</ele><time>2026-04-18T15:47:01.941Z</time></trkpt><trkpt lat="44.5283136" lon="10.8576234"><ele>137.0</ele><time>2026-04-18T15:47:04.941Z</time></trkpt><trkpt lat="44.5284175" lon="10.8576776"><ele>137.0</ele><time>2026-04-18T15:47:21.941Z</time></trkpt><trkpt lat="44.52849" lon="10.8575689"><ele>137.0</ele><time>2026-04-18T15:47:23.941Z</time></trkpt><trkpt lat="44.528509" lon="10.8574548"><ele>137.0</ele><time>2026-04-18T15:47:24.941Z</time></trkpt><trkpt lat="44.5285347" lon="10.8573309"><ele>137.0</ele><time>2026-04-18T15:47:25.942Z</time></trkpt><trkpt lat="44.528563" lon="10.8571934"><ele>137.0</ele><time>2026-04-18T15:47:26.941Z</time></trkpt><trkpt lat="44.5285898" lon="10.8570471"><ele>137.0</ele><time>2026-04-18T15:47:27.942Z</time></trkpt><trkpt lat="44.5286154" lon="10.8569082"><ele>137.0</ele><time>2026-04-18T15:47:28.941Z</time></trkpt><trkpt lat="44.5286393" lon="10.856768"><ele>137.0</ele><time>2026-04-18T15:47:29.941Z</time></trkpt><trkpt lat="44.5286603" lon="10.8566281"><ele>137.0</ele><time>2026-04-18T15:47:30.942Z</time></trkpt><trkpt lat="44.5286854" lon="10.8564897"><ele>137.0</ele><time>2026-04-18T15:47:31.942Z</time></trkpt><trkpt lat="44.5287114" lon="10.856349"><ele>137.0</ele><time>2026-04-18T15:47:32.942Z</time></trkpt><trkpt lat="44.5287406" lon="10.8562103"><ele>137.0</ele><time>2026-04-18T15:47:33.941Z</time></trkpt><trkpt lat="44.5287672" lon="10.8560741"><ele>137.0</ele><time>2026-04-18T15:47:34.942Z</time></trkpt><trkpt lat="44.5287949" lon="10.8559469"><ele>137.0</ele><time>2026-04-18T15:47:35.941Z</time></trkpt><trkpt lat="44.528822" lon="10.8558216"><ele>135.79999999999998</ele><time>2026-04-18T15:47:36.942Z</time></trkpt><trkpt lat="44.5288506" lon="10.8557006"><ele>134.6</ele><time>2026-04-18T15:47:37.941Z</time></trkpt><trkpt lat="44.5288823" lon="10.8555765"><ele>133.39999999999998</ele><time>2026-04-18T15:47:38.941Z</time></trkpt><trkpt lat="44.5289205" lon="10.8554481"><ele>132.2</ele><time>2026-04-18T15:47:39.941Z</time></trkpt><trkpt lat="44.528959" lon="10.8553266"><ele>131.0</ele><time>2026-04-18T15:47:40.942Z</time></trkpt><trkpt lat="44.5289994" lon="10.8552154"><ele>131.5</ele><time>2026-04-18T15:47:41.942Z</time></trkpt><trkpt lat="44.5290377" lon="10.8551137"><ele>132.0</ele><time>2026-04-18T15:47:42.942Z</time></trkpt><trkpt lat="44.529075" lon="10.85503"><ele>132.5</ele><time>2026-04-18T15:47:43.941Z</time></trkpt><trkpt lat="44.5291136" lon="10.8549586"><ele>133.0</ele><time>2026-04-18T15:47:44.941Z</time></trkpt><trkpt lat="44.5292055" lon="10.8548598"><ele>133.5</ele><time>2026-04-18T15:47:46.941Z</time></trkpt><trkpt lat="44.5292753" lon="10.8548526"><ele>134.0</ele><time>2026-04-18T15:47:47.942Z</time></trkpt><trkpt lat="44.5293506" lon="10.8548758"><ele>134.0</ele><time>2026-04-18T15:47:48.941Z</time></trkpt><trkpt lat="44.5294381" lon="10.8549201"><ele>134.0</ele><time>2026-04-18T15:47:49.941Z</time></trkpt><trkpt lat="44.5295379" lon="10.8549601"><ele>134.0</ele><time>2026-04-18T15:47:50.941Z</time></trkpt><trkpt lat="44.5296467" lon="10.8550089"><ele>134.0</ele><time>2026-04-18T15:47:51.941Z</time></trkpt><trkpt lat="44.529761" lon="10.8550556"><ele>134.0</ele><time>2026-04-18T15:47:52.941Z</time></trkpt><trkpt lat="44.5298651" lon="10.8551039"><ele>133.0</ele><time>2026-04-18T15:47:53.941Z</time></trkpt><trkpt lat="44.5299651" lon="10.8551452"><ele>132.0</ele><time>2026-04-18T15:47:54.942Z</time></trkpt><trkpt lat="44.5300657" lon="10.8551932"><ele>131.0</ele><time>2026-04-18T15:47:55.941Z</time></trkpt><trkpt lat="44.5301714" lon="10.8552416"><ele>130.0</ele><time>2026-04-18T15:47:56.941Z</time></trkpt><trkpt lat="44.5302825" lon="10.855291"><ele>129.0</ele><time>2026-04-18T15:47:57.942Z</time></trkpt><trkpt lat="44.530402" lon="10.8553519"><ele>129.0</ele><time>2026-04-18T15:47:58.941Z</time></trkpt><trkpt lat="44.5305213" lon="10.8554215"><ele>129.0</ele><time>2026-04-18T15:47:59.941Z</time></trkpt><trkpt lat="44.5306402" lon="10.8555064"><ele>129.0</ele><time>2026-04-18T15:48:00.941Z</time></trkpt><trkpt lat="44.5307511" lon="10.8556116"><ele>129.0</ele><time>2026-04-18T15:48:01.942Z</time></trkpt><trkpt lat="44.5308455" lon="10.8557275"><ele>129.0</ele><time>2026-04-18T15:48:02.941Z</time></trkpt><trkpt lat="44.5309236" lon="10.8558214"><ele>129.0</ele><time>2026-04-18T15:48:03.942Z</time></trkpt><trkpt lat="44.5309926" lon="10.8559072"><ele>129.0</ele><time>2026-04-18T15:48:04.941Z</time></trkpt><trkpt lat="44.5310423" lon="10.8559997"><ele>129.0</ele><time>2026-04-18T15:48:05.941Z</time></trkpt><trkpt lat="44.5310616" lon="10.8561039"><ele>129.0</ele><time>2026-04-18T15:48:06.941Z</time></trkpt><trkpt lat="44.5310443" lon="10.8562197"><ele>129.0</ele><time>2026-04-18T15:48:07.942Z</time></trkpt><trkpt lat="44.5310162" lon="10.8563555"><ele>129.0</ele><time>2026-04-18T15:48:08.942Z</time></trkpt><trkpt lat="44.5309743" lon="10.8565221"><ele>129.0</ele><time>2026-04-18T15:48:09.941Z</time></trkpt><trkpt lat="44.530928" lon="10.8567017"><ele>129.0</ele><time>2026-04-18T15:48:10.942Z</time></trkpt><trkpt lat="44.5308762" lon="10.8568911"><ele>129.0</ele><time>2026-04-18T15:48:11.942Z</time></trkpt><trkpt lat="44.5308255" lon="10.8570744"><ele>129.25</ele><time>2026-04-18T15:48:12.942Z</time></trkpt><trkpt lat="44.530777" lon="10.8572489"><ele>129.5</ele><time>2026-04-18T15:48:13.941Z</time></trkpt><trkpt lat="44.5307368" lon="10.8574098"><ele>129.75</ele><time>2026-04-18T15:48:14.941Z</time></trkpt><trkpt lat="44.5306998" lon="10.857567"><ele>130.0</ele><time>2026-04-18T15:48:15.941Z</time></trkpt><trkpt lat="44.5306725" lon="10.8577205"><ele>130.0</ele><time>2026-04-18T15:48:16.941Z</time></trkpt><trkpt lat="44.5306486" lon="10.8578755"><ele>130.0</ele><time>2026-04-18T15:48:17.941Z</time></trkpt><trkpt lat="44.5306291" lon="10.8580279"><ele>130.0</ele><time>2026-04-18T15:48:18.941Z</time></trkpt><trkpt lat="44.5306109" lon="10.8581826"><ele>130.0</ele><time>2026-04-18T15:48:19.942Z</time></trkpt><trkpt lat="44.5305972" lon="10.8583384"><ele>130.0</ele><time>2026-04-18T15:48:20.941Z</time></trkpt><trkpt lat="44.5305837" lon="10.8584917"><ele>129.5</ele><time>2026-04-18T15:48:21.941Z</time></trkpt><trkpt lat="44.530573" lon="10.8586508"><ele>129.0</ele><time>2026-04-18T15:48:22.941Z</time></trkpt><trkpt lat="44.5305657" lon="10.8588091"><ele>128.5</ele><time>2026-04-18T15:48:23.941Z</time></trkpt><trkpt lat="44.5305569" lon="10.858969"><ele>128.0</ele><time>2026-04-18T15:48:24.941Z</time></trkpt><trkpt lat="44.5305508" lon="10.8591219"><ele>128.0</ele><time>2026-04-18T15:48:25.941Z</time></trkpt><trkpt lat="44.530537" lon="10.8592737"><ele>128.0</ele><time>2026-04-18T15:48:26.941Z</time></trkpt><trkpt lat="44.5305303" lon="10.8594254"><ele>128.0</ele><time>2026-04-18T15:48:27.941Z</time></trkpt><trkpt lat="44.5305182" lon="10.8595663"><ele>128.0</ele><time>2026-04-18T15:48:28.942Z</time></trkpt><trkpt lat="44.5305136" lon="10.8596789"><ele>128.0</ele><time>2026-04-18T15:48:29.941Z</time></trkpt><trkpt lat="44.5305079" lon="10.8597728"><ele>127.99999999999999</ele><time>2026-04-18T15:48:30.942Z</time></trkpt><trkpt lat="44.5305013" lon="10.8598632"><ele>128.0</ele><time>2026-04-18T15:48:31.942Z</time></trkpt><trkpt lat="44.5304957" lon="10.8599532"><ele>128.0</ele><time>2026-04-18T15:48:32.941Z</time></trkpt><trkpt lat="44.5304838" lon="10.8601197"><ele>128.0</ele><time>2026-04-18T15:48:34.941Z</time></trkpt><trkpt lat="44.5304609" lon="10.8602596"><ele>127.99999999999999</ele><time>2026-04-18T15:48:36.941Z</time></trkpt><trkpt lat="44.530391" lon="10.8603298"><ele>128.0</ele><time>2026-04-18T15:48:38.941Z</time></trkpt><trkpt lat="44.5303114" lon="10.8603443"><ele>128.0</ele><time>2026-04-18T15:48:40.941Z</time></trkpt><trkpt lat="44.5302845" lon="10.8604541"><ele>128.0</ele><time>2026-04-18T15:48:44.941Z</time></trkpt><trkpt lat="44.5302861" lon="10.8605469"><ele>128.0</ele><time>2026-04-18T15:48:46.942Z</time></trkpt><trkpt lat="44.5302794" lon="10.8606479"><ele>128.0</ele><time>2026-04-18T15:48:50.941Z</time></trkpt></trkseg></trk></gpx>